<?xml version="1.0" encoding="UTF-8" standalone="no" ?>
<gpx xmlns="http://www.topografix.com/GPX/1/1" xmlns:xsi="http://www.w3.org/2001/XMLSchema-instance" xsi:schemaLocation="http://www.topografix.com/GPX/1/1 http://www.topografix.com/GPX/1/1/gpx.xsd" version="1.1" creator="VisuGPX - https://www.visugpx.com">
  <metadata>
    <name>Track 12-Dec-21 00:17</name>
    <desc><![CDATA[
Hiking (generic) recorded on Suunto 22]]></desc>
  </metadata>
  <trk>
    <name><![CDATA[Track 12-Dec-21 00:17]]></name>
    <desc><![CDATA[Hiking (generic) recorded on Suunto 22]]></desc>
    <trkseg>
      <trkpt lat="45.33072" lon="6.02795">
        <ele>315</ele>
        <time>2021-12-12T08:17:14Z</time>
      </trkpt>
      <trkpt lat="45.33071" lon="6.02796">
        <ele>315</ele>
        <time>2021-12-12T08:17:16Z</time>
      </trkpt>
      <trkpt lat="45.33069" lon="6.02798">
        <ele>315</ele>
        <time>2021-12-12T08:17:18Z</time>
      </trkpt>
      <trkpt lat="45.33069" lon="6.02801">
        <ele>1071</ele>
        <time>2021-12-12T08:17:23Z</time>
      </trkpt>
      <trkpt lat="45.33069" lon="6.02804">
        <ele>1071</ele>
        <time>2021-12-12T08:17:27Z</time>
      </trkpt>
      <trkpt lat="45.33069" lon="6.02807">
        <ele>1071</ele>
        <time>2021-12-12T08:17:30Z</time>
      </trkpt>
      <trkpt lat="45.3307" lon="6.0281">
        <ele>1073</ele>
        <time>2021-12-12T08:17:33Z</time>
      </trkpt>
      <trkpt lat="45.3307" lon="6.02813">
        <ele>1073</ele>
        <time>2021-12-12T08:17:36Z</time>
      </trkpt>
      <trkpt lat="45.3307" lon="6.02816">
        <ele>1073</ele>
        <time>2021-12-12T08:17:39Z</time>
      </trkpt>
      <trkpt lat="45.3307" lon="6.02819">
        <ele>1075</ele>
        <time>2021-12-12T08:17:42Z</time>
      </trkpt>
      <trkpt lat="45.3307" lon="6.02821">
        <ele>1075</ele>
        <time>2021-12-12T08:17:45Z</time>
      </trkpt>
      <trkpt lat="45.33069" lon="6.02824">
        <ele>1075</ele>
        <time>2021-12-12T08:17:48Z</time>
      </trkpt>
      <trkpt lat="45.33069" lon="6.02827">
        <ele>1077</ele>
        <time>2021-12-12T08:17:52Z</time>
      </trkpt>
      <trkpt lat="45.3307" lon="6.0283">
        <ele>1077</ele>
        <time>2021-12-12T08:17:54Z</time>
      </trkpt>
      <trkpt lat="45.33069" lon="6.02834">
        <ele>1077</ele>
        <time>2021-12-12T08:17:57Z</time>
      </trkpt>
      <trkpt lat="45.33068" lon="6.02836">
        <ele>1077</ele>
        <time>2021-12-12T08:18:00Z</time>
      </trkpt>
      <trkpt lat="45.33067" lon="6.02838">
        <ele>1076</ele>
        <time>2021-12-12T08:18:03Z</time>
      </trkpt>
      <trkpt lat="45.33066" lon="6.0284">
        <ele>1076</ele>
        <time>2021-12-12T08:18:06Z</time>
      </trkpt>
      <trkpt lat="45.33065" lon="6.02844">
        <ele>1076</ele>
        <time>2021-12-12T08:18:09Z</time>
      </trkpt>
      <trkpt lat="45.33065" lon="6.02847">
        <ele>1078</ele>
        <time>2021-12-12T08:18:12Z</time>
      </trkpt>
      <trkpt lat="45.33066" lon="6.0285">
        <ele>1078</ele>
        <time>2021-12-12T08:18:14Z</time>
      </trkpt>
      <trkpt lat="45.33067" lon="6.02853">
        <ele>1078</ele>
        <time>2021-12-12T08:18:17Z</time>
      </trkpt>
      <trkpt lat="45.33068" lon="6.02857">
        <ele>1078</ele>
        <time>2021-12-12T08:18:20Z</time>
      </trkpt>
      <trkpt lat="45.33068" lon="6.0286">
        <ele>1078</ele>
        <time>2021-12-12T08:18:22Z</time>
      </trkpt>
      <trkpt lat="45.33068" lon="6.02862">
        <ele>1078</ele>
        <time>2021-12-12T08:18:25Z</time>
      </trkpt>
      <trkpt lat="45.33069" lon="6.02865">
        <ele>1078</ele>
        <time>2021-12-12T08:18:26Z</time>
      </trkpt>
      <trkpt lat="45.3307" lon="6.02868">
        <ele>1078</ele>
        <time>2021-12-12T08:18:30Z</time>
      </trkpt>
      <trkpt lat="45.3307" lon="6.02872">
        <ele>1078</ele>
        <time>2021-12-12T08:18:31Z</time>
      </trkpt>
      <trkpt lat="45.3307" lon="6.02875">
        <ele>1079</ele>
        <time>2021-12-12T08:18:33Z</time>
      </trkpt>
      <trkpt lat="45.3307" lon="6.02878">
        <ele>1079</ele>
        <time>2021-12-12T08:18:36Z</time>
      </trkpt>
      <trkpt lat="45.3307" lon="6.02881">
        <ele>1079</ele>
        <time>2021-12-12T08:18:37Z</time>
      </trkpt>
      <trkpt lat="45.3307" lon="6.02884">
        <ele>1079</ele>
        <time>2021-12-12T08:18:39Z</time>
      </trkpt>
      <trkpt lat="45.33071" lon="6.02888">
        <ele>1079</ele>
        <time>2021-12-12T08:18:41Z</time>
      </trkpt>
      <trkpt lat="45.33071" lon="6.02891">
        <ele>1079</ele>
        <time>2021-12-12T08:18:44Z</time>
      </trkpt>
      <trkpt lat="45.33071" lon="6.02894">
        <ele>1079</ele>
        <time>2021-12-12T08:18:45Z</time>
      </trkpt>
      <trkpt lat="45.33071" lon="6.02897">
        <ele>1079</ele>
        <time>2021-12-12T08:18:47Z</time>
      </trkpt>
      <trkpt lat="45.33071" lon="6.029">
        <ele>1079</ele>
        <time>2021-12-12T08:18:50Z</time>
      </trkpt>
      <trkpt lat="45.33072" lon="6.02903">
        <ele>1079</ele>
        <time>2021-12-12T08:18:51Z</time>
      </trkpt>
      <trkpt lat="45.33072" lon="6.02906">
        <ele>1079</ele>
        <time>2021-12-12T08:18:53Z</time>
      </trkpt>
      <trkpt lat="45.33072" lon="6.02909">
        <ele>1079</ele>
        <time>2021-12-12T08:18:56Z</time>
      </trkpt>
      <trkpt lat="45.33073" lon="6.02913">
        <ele>1079</ele>
        <time>2021-12-12T08:18:57Z</time>
      </trkpt>
      <trkpt lat="45.33073" lon="6.02916">
        <ele>1079</ele>
        <time>2021-12-12T08:18:59Z</time>
      </trkpt>
      <trkpt lat="45.33074" lon="6.02919">
        <ele>1079</ele>
        <time>2021-12-12T08:19:01Z</time>
      </trkpt>
      <trkpt lat="45.33074" lon="6.02922">
        <ele>1078</ele>
        <time>2021-12-12T08:19:03Z</time>
      </trkpt>
      <trkpt lat="45.33074" lon="6.02925">
        <ele>1078</ele>
        <time>2021-12-12T08:19:05Z</time>
      </trkpt>
      <trkpt lat="45.33074" lon="6.02928">
        <ele>1078</ele>
        <time>2021-12-12T08:19:08Z</time>
      </trkpt>
      <trkpt lat="45.33074" lon="6.02931">
        <ele>1078</ele>
        <time>2021-12-12T08:19:09Z</time>
      </trkpt>
      <trkpt lat="45.33075" lon="6.02934">
        <ele>1078</ele>
        <time>2021-12-12T08:19:12Z</time>
      </trkpt>
      <trkpt lat="45.33075" lon="6.02937">
        <ele>1078</ele>
        <time>2021-12-12T08:19:16Z</time>
      </trkpt>
      <trkpt lat="45.33075" lon="6.0294">
        <ele>1078</ele>
        <time>2021-12-12T08:19:18Z</time>
      </trkpt>
      <trkpt lat="45.33074" lon="6.02943">
        <ele>1078</ele>
        <time>2021-12-12T08:19:20Z</time>
      </trkpt>
      <trkpt lat="45.33074" lon="6.02947">
        <ele>1079</ele>
        <time>2021-12-12T08:19:23Z</time>
      </trkpt>
      <trkpt lat="45.33073" lon="6.02949">
        <ele>1079</ele>
        <time>2021-12-12T08:19:25Z</time>
      </trkpt>
      <trkpt lat="45.33072" lon="6.02953">
        <ele>1079</ele>
        <time>2021-12-12T08:19:27Z</time>
      </trkpt>
      <trkpt lat="45.33071" lon="6.02956">
        <ele>1079</ele>
        <time>2021-12-12T08:19:29Z</time>
      </trkpt>
      <trkpt lat="45.3307" lon="6.02958">
        <ele>1079</ele>
        <time>2021-12-12T08:19:31Z</time>
      </trkpt>
      <trkpt lat="45.33069" lon="6.02961">
        <ele>1079</ele>
        <time>2021-12-12T08:19:33Z</time>
      </trkpt>
      <trkpt lat="45.33068" lon="6.02964">
        <ele>1079</ele>
        <time>2021-12-12T08:19:35Z</time>
      </trkpt>
      <trkpt lat="45.33067" lon="6.02967">
        <ele>1079</ele>
        <time>2021-12-12T08:19:37Z</time>
      </trkpt>
      <trkpt lat="45.33067" lon="6.02969">
        <ele>1079</ele>
        <time>2021-12-12T08:19:39Z</time>
      </trkpt>
      <trkpt lat="45.33066" lon="6.02972">
        <ele>1079</ele>
        <time>2021-12-12T08:19:41Z</time>
      </trkpt>
      <trkpt lat="45.33065" lon="6.02975">
        <ele>1081</ele>
        <time>2021-12-12T08:19:43Z</time>
      </trkpt>
      <trkpt lat="45.33064" lon="6.02978">
        <ele>1081</ele>
        <time>2021-12-12T08:19:47Z</time>
      </trkpt>
      <trkpt lat="45.33063" lon="6.02981">
        <ele>1081</ele>
        <time>2021-12-12T08:19:48Z</time>
      </trkpt>
      <trkpt lat="45.33062" lon="6.02983">
        <ele>1081</ele>
        <time>2021-12-12T08:19:50Z</time>
      </trkpt>
      <trkpt lat="45.3306" lon="6.02985">
        <ele>1081</ele>
        <time>2021-12-12T08:19:52Z</time>
      </trkpt>
      <trkpt lat="45.33059" lon="6.02987">
        <ele>1081</ele>
        <time>2021-12-12T08:19:54Z</time>
      </trkpt>
      <trkpt lat="45.33057" lon="6.02989">
        <ele>1081</ele>
        <time>2021-12-12T08:19:57Z</time>
      </trkpt>
      <trkpt lat="45.33056" lon="6.0299">
        <ele>1081</ele>
        <time>2021-12-12T08:20:01Z</time>
      </trkpt>
      <trkpt lat="45.33053" lon="6.02991">
        <ele>1083</ele>
        <time>2021-12-12T08:20:06Z</time>
      </trkpt>
      <trkpt lat="45.33052" lon="6.02993">
        <ele>1083</ele>
        <time>2021-12-12T08:20:10Z</time>
      </trkpt>
      <trkpt lat="45.3305" lon="6.02994">
        <ele>1085</ele>
        <time>2021-12-12T08:20:15Z</time>
      </trkpt>
      <trkpt lat="45.33048" lon="6.02995">
        <ele>1085</ele>
        <time>2021-12-12T08:20:17Z</time>
      </trkpt>
      <trkpt lat="45.33046" lon="6.02996">
        <ele>1085</ele>
        <time>2021-12-12T08:20:20Z</time>
      </trkpt>
      <trkpt lat="45.33044" lon="6.02997">
        <ele>1086</ele>
        <time>2021-12-12T08:20:24Z</time>
      </trkpt>
      <trkpt lat="45.33041" lon="6.02999">
        <ele>1086</ele>
        <time>2021-12-12T08:20:26Z</time>
      </trkpt>
      <trkpt lat="45.3304" lon="6.03001">
        <ele>1086</ele>
        <time>2021-12-12T08:20:29Z</time>
      </trkpt>
      <trkpt lat="45.33038" lon="6.03004">
        <ele>1087</ele>
        <time>2021-12-12T08:20:32Z</time>
      </trkpt>
      <trkpt lat="45.33037" lon="6.03006">
        <ele>1087</ele>
        <time>2021-12-12T08:20:35Z</time>
      </trkpt>
      <trkpt lat="45.33035" lon="6.03008">
        <ele>1087</ele>
        <time>2021-12-12T08:20:38Z</time>
      </trkpt>
      <trkpt lat="45.33034" lon="6.03011">
        <ele>1087</ele>
        <time>2021-12-12T08:20:42Z</time>
      </trkpt>
      <trkpt lat="45.33033" lon="6.03014">
        <ele>1089</ele>
        <time>2021-12-12T08:20:44Z</time>
      </trkpt>
      <trkpt lat="45.33032" lon="6.03017">
        <ele>1089</ele>
        <time>2021-12-12T08:20:47Z</time>
      </trkpt>
      <trkpt lat="45.33032" lon="6.03019">
        <ele>1089</ele>
        <time>2021-12-12T08:20:49Z</time>
      </trkpt>
      <trkpt lat="45.33032" lon="6.03023">
        <ele>1090</ele>
        <time>2021-12-12T08:20:52Z</time>
      </trkpt>
      <trkpt lat="45.33032" lon="6.03027">
        <ele>1090</ele>
        <time>2021-12-12T08:20:55Z</time>
      </trkpt>
      <trkpt lat="45.33032" lon="6.0303">
        <ele>1090</ele>
        <time>2021-12-12T08:20:58Z</time>
      </trkpt>
      <trkpt lat="45.33032" lon="6.03034">
        <ele>1091</ele>
        <time>2021-12-12T08:21:02Z</time>
      </trkpt>
      <trkpt lat="45.33032" lon="6.03037">
        <ele>1091</ele>
        <time>2021-12-12T08:21:04Z</time>
      </trkpt>
      <trkpt lat="45.33031" lon="6.0304">
        <ele>1091</ele>
        <time>2021-12-12T08:21:08Z</time>
      </trkpt>
      <trkpt lat="45.33031" lon="6.03043">
        <ele>1091</ele>
        <time>2021-12-12T08:21:10Z</time>
      </trkpt>
      <trkpt lat="45.3303" lon="6.03046">
        <ele>1092</ele>
        <time>2021-12-12T08:21:13Z</time>
      </trkpt>
      <trkpt lat="45.33029" lon="6.0305">
        <ele>1092</ele>
        <time>2021-12-12T08:21:16Z</time>
      </trkpt>
      <trkpt lat="45.33029" lon="6.03053">
        <ele>1092</ele>
        <time>2021-12-12T08:21:19Z</time>
      </trkpt>
      <trkpt lat="45.33028" lon="6.03056">
        <ele>1094</ele>
        <time>2021-12-12T08:21:22Z</time>
      </trkpt>
      <trkpt lat="45.33028" lon="6.03059">
        <ele>1094</ele>
        <time>2021-12-12T08:21:25Z</time>
      </trkpt>
      <trkpt lat="45.33028" lon="6.03062">
        <ele>1094</ele>
        <time>2021-12-12T08:21:28Z</time>
      </trkpt>
      <trkpt lat="45.33028" lon="6.03065">
        <ele>1094</ele>
        <time>2021-12-12T08:21:30Z</time>
      </trkpt>
      <trkpt lat="45.33028" lon="6.03068">
        <ele>1095</ele>
        <time>2021-12-12T08:21:33Z</time>
      </trkpt>
      <trkpt lat="45.33027" lon="6.0307">
        <ele>1095</ele>
        <time>2021-12-12T08:21:36Z</time>
      </trkpt>
      <trkpt lat="45.33027" lon="6.03073">
        <ele>1095</ele>
        <time>2021-12-12T08:21:40Z</time>
      </trkpt>
      <trkpt lat="45.33026" lon="6.03076">
        <ele>1097</ele>
        <time>2021-12-12T08:21:42Z</time>
      </trkpt>
      <trkpt lat="45.33026" lon="6.03079">
        <ele>1097</ele>
        <time>2021-12-12T08:21:45Z</time>
      </trkpt>
      <trkpt lat="45.33026" lon="6.03082">
        <ele>1097</ele>
        <time>2021-12-12T08:21:48Z</time>
      </trkpt>
      <trkpt lat="45.33025" lon="6.03085">
        <ele>1099</ele>
        <time>2021-12-12T08:21:53Z</time>
      </trkpt>
      <trkpt lat="45.33024" lon="6.03087">
        <ele>1099</ele>
        <time>2021-12-12T08:21:58Z</time>
      </trkpt>
      <trkpt lat="45.33023" lon="6.03089">
        <ele>1099</ele>
        <time>2021-12-12T08:22:00Z</time>
      </trkpt>
      <trkpt lat="45.33021" lon="6.0309">
        <ele>1101</ele>
        <time>2021-12-12T08:22:04Z</time>
      </trkpt>
      <trkpt lat="45.33019" lon="6.0309">
        <ele>1101</ele>
        <time>2021-12-12T08:22:06Z</time>
      </trkpt>
      <trkpt lat="45.33017" lon="6.0309">
        <ele>1101</ele>
        <time>2021-12-12T08:22:09Z</time>
      </trkpt>
      <trkpt lat="45.33014" lon="6.03089">
        <ele>1102</ele>
        <time>2021-12-12T08:22:12Z</time>
      </trkpt>
      <trkpt lat="45.33012" lon="6.03089">
        <ele>1102</ele>
        <time>2021-12-12T08:22:15Z</time>
      </trkpt>
      <trkpt lat="45.3301" lon="6.03088">
        <ele>1102</ele>
        <time>2021-12-12T08:22:18Z</time>
      </trkpt>
      <trkpt lat="45.33008" lon="6.03088">
        <ele>1102</ele>
        <time>2021-12-12T08:22:20Z</time>
      </trkpt>
      <trkpt lat="45.33005" lon="6.03089">
        <ele>1103</ele>
        <time>2021-12-12T08:22:23Z</time>
      </trkpt>
      <trkpt lat="45.33003" lon="6.03089">
        <ele>1103</ele>
        <time>2021-12-12T08:22:26Z</time>
      </trkpt>
      <trkpt lat="45.33002" lon="6.03091">
        <ele>1103</ele>
        <time>2021-12-12T08:22:28Z</time>
      </trkpt>
      <trkpt lat="45.33" lon="6.03093">
        <ele>1105</ele>
        <time>2021-12-12T08:22:32Z</time>
      </trkpt>
      <trkpt lat="45.32999" lon="6.03097">
        <ele>1105</ele>
        <time>2021-12-12T08:22:35Z</time>
      </trkpt>
      <trkpt lat="45.32999" lon="6.031">
        <ele>1105</ele>
        <time>2021-12-12T08:22:38Z</time>
      </trkpt>
      <trkpt lat="45.33" lon="6.03103">
        <ele>1105</ele>
        <time>2021-12-12T08:22:41Z</time>
      </trkpt>
      <trkpt lat="45.33001" lon="6.03105">
        <ele>1106</ele>
        <time>2021-12-12T08:22:43Z</time>
      </trkpt>
      <trkpt lat="45.33002" lon="6.03107">
        <ele>1106</ele>
        <time>2021-12-12T08:22:45Z</time>
      </trkpt>
      <trkpt lat="45.33004" lon="6.0311">
        <ele>1106</ele>
        <time>2021-12-12T08:22:49Z</time>
      </trkpt>
      <trkpt lat="45.33005" lon="6.03113">
        <ele>1106</ele>
        <time>2021-12-12T08:22:51Z</time>
      </trkpt>
      <trkpt lat="45.33006" lon="6.03116">
        <ele>1108</ele>
        <time>2021-12-12T08:22:53Z</time>
      </trkpt>
      <trkpt lat="45.33007" lon="6.03118">
        <ele>1108</ele>
        <time>2021-12-12T08:22:56Z</time>
      </trkpt>
      <trkpt lat="45.33008" lon="6.03121">
        <ele>1108</ele>
        <time>2021-12-12T08:23:00Z</time>
      </trkpt>
      <trkpt lat="45.33009" lon="6.03124">
        <ele>1110</ele>
        <time>2021-12-12T08:23:02Z</time>
      </trkpt>
      <trkpt lat="45.33009" lon="6.03127">
        <ele>1110</ele>
        <time>2021-12-12T08:23:05Z</time>
      </trkpt>
      <trkpt lat="45.33008" lon="6.03131">
        <ele>1110</ele>
        <time>2021-12-12T08:23:08Z</time>
      </trkpt>
      <trkpt lat="45.33008" lon="6.03134">
        <ele>1110</ele>
        <time>2021-12-12T08:23:11Z</time>
      </trkpt>
      <trkpt lat="45.33007" lon="6.03137">
        <ele>1112</ele>
        <time>2021-12-12T08:23:15Z</time>
      </trkpt>
      <trkpt lat="45.33006" lon="6.0314">
        <ele>1112</ele>
        <time>2021-12-12T08:23:17Z</time>
      </trkpt>
      <trkpt lat="45.33005" lon="6.03144">
        <ele>1112</ele>
        <time>2021-12-12T08:23:21Z</time>
      </trkpt>
      <trkpt lat="45.33004" lon="6.03146">
        <ele>1113</ele>
        <time>2021-12-12T08:23:22Z</time>
      </trkpt>
      <trkpt lat="45.33003" lon="6.03148">
        <ele>1113</ele>
        <time>2021-12-12T08:23:24Z</time>
      </trkpt>
      <trkpt lat="45.33002" lon="6.03151">
        <ele>1113</ele>
        <time>2021-12-12T08:23:27Z</time>
      </trkpt>
      <trkpt lat="45.33002" lon="6.03154">
        <ele>1113</ele>
        <time>2021-12-12T08:23:30Z</time>
      </trkpt>
      <trkpt lat="45.33001" lon="6.03157">
        <ele>1114</ele>
        <time>2021-12-12T08:23:34Z</time>
      </trkpt>
      <trkpt lat="45.33" lon="6.03159">
        <ele>1114</ele>
        <time>2021-12-12T08:23:35Z</time>
      </trkpt>
      <trkpt lat="45.33" lon="6.03162">
        <ele>1114</ele>
        <time>2021-12-12T08:23:39Z</time>
      </trkpt>
      <trkpt lat="45.32999" lon="6.03166">
        <ele>1114</ele>
        <time>2021-12-12T08:23:41Z</time>
      </trkpt>
      <trkpt lat="45.32999" lon="6.03169">
        <ele>1115</ele>
        <time>2021-12-12T08:23:44Z</time>
      </trkpt>
      <trkpt lat="45.32999" lon="6.03173">
        <ele>1115</ele>
        <time>2021-12-12T08:23:47Z</time>
      </trkpt>
      <trkpt lat="45.32998" lon="6.03176">
        <ele>1115</ele>
        <time>2021-12-12T08:23:50Z</time>
      </trkpt>
      <trkpt lat="45.32998" lon="6.03179">
        <ele>1117</ele>
        <time>2021-12-12T08:23:54Z</time>
      </trkpt>
      <trkpt lat="45.32998" lon="6.03182">
        <ele>1117</ele>
        <time>2021-12-12T08:23:57Z</time>
      </trkpt>
      <trkpt lat="45.32998" lon="6.03185">
        <ele>1117</ele>
        <time>2021-12-12T08:24:00Z</time>
      </trkpt>
      <trkpt lat="45.32999" lon="6.03189">
        <ele>1119</ele>
        <time>2021-12-12T08:24:03Z</time>
      </trkpt>
      <trkpt lat="45.32999" lon="6.03192">
        <ele>1119</ele>
        <time>2021-12-12T08:24:06Z</time>
      </trkpt>
      <trkpt lat="45.33" lon="6.03195">
        <ele>1119</ele>
        <time>2021-12-12T08:24:09Z</time>
      </trkpt>
      <trkpt lat="45.33" lon="6.03199">
        <ele>1119</ele>
        <time>2021-12-12T08:24:12Z</time>
      </trkpt>
      <trkpt lat="45.32999" lon="6.03202">
        <ele>1119</ele>
        <time>2021-12-12T08:24:15Z</time>
      </trkpt>
      <trkpt lat="45.32999" lon="6.03206">
        <ele>1119</ele>
        <time>2021-12-12T08:24:18Z</time>
      </trkpt>
      <trkpt lat="45.32999" lon="6.03209">
        <ele>1119</ele>
        <time>2021-12-12T08:24:21Z</time>
      </trkpt>
      <trkpt lat="45.32999" lon="6.03212">
        <ele>1120</ele>
        <time>2021-12-12T08:24:24Z</time>
      </trkpt>
      <trkpt lat="45.32999" lon="6.03216">
        <ele>1120</ele>
        <time>2021-12-12T08:24:27Z</time>
      </trkpt>
      <trkpt lat="45.32998" lon="6.03218">
        <ele>1120</ele>
        <time>2021-12-12T08:24:31Z</time>
      </trkpt>
      <trkpt lat="45.32997" lon="6.03221">
        <ele>1121</ele>
        <time>2021-12-12T08:24:33Z</time>
      </trkpt>
      <trkpt lat="45.32997" lon="6.03224">
        <ele>1121</ele>
        <time>2021-12-12T08:24:35Z</time>
      </trkpt>
      <trkpt lat="45.32997" lon="6.03227">
        <ele>1122</ele>
        <time>2021-12-12T08:24:53Z</time>
      </trkpt>
      <trkpt lat="45.32996" lon="6.0323">
        <ele>1122</ele>
        <time>2021-12-12T08:24:57Z</time>
      </trkpt>
      <trkpt lat="45.32994" lon="6.03232">
        <ele>1122</ele>
        <time>2021-12-12T08:25:00Z</time>
      </trkpt>
      <trkpt lat="45.32993" lon="6.03234">
        <ele>1122</ele>
        <time>2021-12-12T08:25:02Z</time>
      </trkpt>
      <trkpt lat="45.32991" lon="6.03237">
        <ele>1122</ele>
        <time>2021-12-12T08:25:05Z</time>
      </trkpt>
      <trkpt lat="45.32991" lon="6.0324">
        <ele>1122</ele>
        <time>2021-12-12T08:25:09Z</time>
      </trkpt>
      <trkpt lat="45.3299" lon="6.03242">
        <ele>1124</ele>
        <time>2021-12-12T08:25:13Z</time>
      </trkpt>
      <trkpt lat="45.32989" lon="6.03245">
        <ele>1124</ele>
        <time>2021-12-12T08:25:15Z</time>
      </trkpt>
      <trkpt lat="45.32988" lon="6.03248">
        <ele>1124</ele>
        <time>2021-12-12T08:25:18Z</time>
      </trkpt>
      <trkpt lat="45.32987" lon="6.03251">
        <ele>1124</ele>
        <time>2021-12-12T08:25:21Z</time>
      </trkpt>
      <trkpt lat="45.32987" lon="6.03254">
        <ele>1126</ele>
        <time>2021-12-12T08:25:24Z</time>
      </trkpt>
      <trkpt lat="45.32987" lon="6.03257">
        <ele>1126</ele>
        <time>2021-12-12T08:25:26Z</time>
      </trkpt>
      <trkpt lat="45.32986" lon="6.03259">
        <ele>1126</ele>
        <time>2021-12-12T08:25:28Z</time>
      </trkpt>
      <trkpt lat="45.32985" lon="6.03262">
        <ele>1126</ele>
        <time>2021-12-12T08:25:31Z</time>
      </trkpt>
      <trkpt lat="45.32984" lon="6.03265">
        <ele>1126</ele>
        <time>2021-12-12T08:25:34Z</time>
      </trkpt>
      <trkpt lat="45.32984" lon="6.03268">
        <ele>1126</ele>
        <time>2021-12-12T08:25:37Z</time>
      </trkpt>
      <trkpt lat="45.32984" lon="6.03271">
        <ele>1126</ele>
        <time>2021-12-12T08:25:40Z</time>
      </trkpt>
      <trkpt lat="45.32982" lon="6.03273">
        <ele>1128</ele>
        <time>2021-12-12T08:25:44Z</time>
      </trkpt>
      <trkpt lat="45.3298" lon="6.03275">
        <ele>1128</ele>
        <time>2021-12-12T08:25:48Z</time>
      </trkpt>
      <trkpt lat="45.32979" lon="6.03278">
        <ele>1128</ele>
        <time>2021-12-12T08:25:51Z</time>
      </trkpt>
      <trkpt lat="45.3298" lon="6.03281">
        <ele>1130</ele>
        <time>2021-12-12T08:25:54Z</time>
      </trkpt>
      <trkpt lat="45.3298" lon="6.03283">
        <ele>1130</ele>
        <time>2021-12-12T08:25:56Z</time>
      </trkpt>
      <trkpt lat="45.32981" lon="6.03287">
        <ele>1130</ele>
        <time>2021-12-12T08:25:59Z</time>
      </trkpt>
      <trkpt lat="45.32982" lon="6.0329">
        <ele>1132</ele>
        <time>2021-12-12T08:26:02Z</time>
      </trkpt>
      <trkpt lat="45.32983" lon="6.03292">
        <ele>1132</ele>
        <time>2021-12-12T08:26:06Z</time>
      </trkpt>
      <trkpt lat="45.32983" lon="6.03296">
        <ele>1132</ele>
        <time>2021-12-12T08:26:10Z</time>
      </trkpt>
      <trkpt lat="45.32983" lon="6.03299">
        <ele>1133</ele>
        <time>2021-12-12T08:26:12Z</time>
      </trkpt>
      <trkpt lat="45.32984" lon="6.03301">
        <ele>1133</ele>
        <time>2021-12-12T08:26:15Z</time>
      </trkpt>
      <trkpt lat="45.32984" lon="6.03305">
        <ele>1133</ele>
        <time>2021-12-12T08:26:19Z</time>
      </trkpt>
      <trkpt lat="45.32984" lon="6.03308">
        <ele>1135</ele>
        <time>2021-12-12T08:26:23Z</time>
      </trkpt>
      <trkpt lat="45.32984" lon="6.03311">
        <ele>1135</ele>
        <time>2021-12-12T08:26:27Z</time>
      </trkpt>
      <trkpt lat="45.32984" lon="6.03314">
        <ele>1136</ele>
        <time>2021-12-12T08:26:32Z</time>
      </trkpt>
      <trkpt lat="45.32984" lon="6.03317">
        <ele>1136</ele>
        <time>2021-12-12T08:26:35Z</time>
      </trkpt>
      <trkpt lat="45.32983" lon="6.03319">
        <ele>1136</ele>
        <time>2021-12-12T08:26:37Z</time>
      </trkpt>
      <trkpt lat="45.32981" lon="6.03321">
        <ele>1136</ele>
        <time>2021-12-12T08:26:41Z</time>
      </trkpt>
      <trkpt lat="45.32979" lon="6.03322">
        <ele>1138</ele>
        <time>2021-12-12T08:26:44Z</time>
      </trkpt>
      <trkpt lat="45.32977" lon="6.0332">
        <ele>1138</ele>
        <time>2021-12-12T08:26:48Z</time>
      </trkpt>
      <trkpt lat="45.32975" lon="6.03319">
        <ele>1141</ele>
        <time>2021-12-12T08:26:52Z</time>
      </trkpt>
      <trkpt lat="45.32973" lon="6.03319">
        <ele>1141</ele>
        <time>2021-12-12T08:26:53Z</time>
      </trkpt>
      <trkpt lat="45.3297" lon="6.03318">
        <ele>1141</ele>
        <time>2021-12-12T08:26:56Z</time>
      </trkpt>
      <trkpt lat="45.32968" lon="6.03318">
        <ele>1141</ele>
        <time>2021-12-12T08:26:59Z</time>
      </trkpt>
      <trkpt lat="45.32966" lon="6.03317">
        <ele>1142</ele>
        <time>2021-12-12T08:27:04Z</time>
      </trkpt>
      <trkpt lat="45.32963" lon="6.03317">
        <ele>1142</ele>
        <time>2021-12-12T08:27:07Z</time>
      </trkpt>
      <trkpt lat="45.32962" lon="6.03316">
        <ele>1142</ele>
        <time>2021-12-12T08:27:10Z</time>
      </trkpt>
      <trkpt lat="45.3296" lon="6.03314">
        <ele>1145</ele>
        <time>2021-12-12T08:27:13Z</time>
      </trkpt>
      <trkpt lat="45.32958" lon="6.03312">
        <ele>1145</ele>
        <time>2021-12-12T08:27:17Z</time>
      </trkpt>
      <trkpt lat="45.32956" lon="6.0331">
        <ele>1145</ele>
        <time>2021-12-12T08:27:20Z</time>
      </trkpt>
      <trkpt lat="45.32954" lon="6.03308">
        <ele>1147</ele>
        <time>2021-12-12T08:27:23Z</time>
      </trkpt>
      <trkpt lat="45.32952" lon="6.03306">
        <ele>1147</ele>
        <time>2021-12-12T08:27:25Z</time>
      </trkpt>
      <trkpt lat="45.32951" lon="6.03305">
        <ele>1147</ele>
        <time>2021-12-12T08:27:27Z</time>
      </trkpt>
      <trkpt lat="45.32949" lon="6.03302">
        <ele>1147</ele>
        <time>2021-12-12T08:27:30Z</time>
      </trkpt>
      <trkpt lat="45.32948" lon="6.033">
        <ele>1147</ele>
        <time>2021-12-12T08:27:32Z</time>
      </trkpt>
      <trkpt lat="45.32946" lon="6.03298">
        <ele>1147</ele>
        <time>2021-12-12T08:27:34Z</time>
      </trkpt>
      <trkpt lat="45.32945" lon="6.03296">
        <ele>1147</ele>
        <time>2021-12-12T08:27:37Z</time>
      </trkpt>
      <trkpt lat="45.32942" lon="6.03295">
        <ele>1147</ele>
        <time>2021-12-12T08:27:41Z</time>
      </trkpt>
      <trkpt lat="45.3294" lon="6.03295">
        <ele>1149</ele>
        <time>2021-12-12T08:27:43Z</time>
      </trkpt>
      <trkpt lat="45.32939" lon="6.03293">
        <ele>1149</ele>
        <time>2021-12-12T08:27:45Z</time>
      </trkpt>
      <trkpt lat="45.32937" lon="6.03292">
        <ele>1149</ele>
        <time>2021-12-12T08:27:49Z</time>
      </trkpt>
      <trkpt lat="45.32935" lon="6.03291">
        <ele>1149</ele>
        <time>2021-12-12T08:27:50Z</time>
      </trkpt>
      <trkpt lat="45.32933" lon="6.03289">
        <ele>1150</ele>
        <time>2021-12-12T08:27:53Z</time>
      </trkpt>
      <trkpt lat="45.32931" lon="6.03286">
        <ele>1150</ele>
        <time>2021-12-12T08:27:57Z</time>
      </trkpt>
      <trkpt lat="45.32928" lon="6.03284">
        <ele>1150</ele>
        <time>2021-12-12T08:28:00Z</time>
      </trkpt>
      <trkpt lat="45.32926" lon="6.03284">
        <ele>1151</ele>
        <time>2021-12-12T08:28:02Z</time>
      </trkpt>
      <trkpt lat="45.32924" lon="6.03282">
        <ele>1151</ele>
        <time>2021-12-12T08:28:04Z</time>
      </trkpt>
      <trkpt lat="45.32921" lon="6.03281">
        <ele>1151</ele>
        <time>2021-12-12T08:28:06Z</time>
      </trkpt>
      <trkpt lat="45.32919" lon="6.03281">
        <ele>1151</ele>
        <time>2021-12-12T08:28:08Z</time>
      </trkpt>
      <trkpt lat="45.32916" lon="6.03281">
        <ele>1151</ele>
        <time>2021-12-12T08:28:10Z</time>
      </trkpt>
      <trkpt lat="45.32914" lon="6.0328">
        <ele>1151</ele>
        <time>2021-12-12T08:28:12Z</time>
      </trkpt>
      <trkpt lat="45.32912" lon="6.0328">
        <ele>1151</ele>
        <time>2021-12-12T08:28:14Z</time>
      </trkpt>
      <trkpt lat="45.3291" lon="6.03279">
        <ele>1151</ele>
        <time>2021-12-12T08:28:17Z</time>
      </trkpt>
      <trkpt lat="45.32908" lon="6.03278">
        <ele>1151</ele>
        <time>2021-12-12T08:28:19Z</time>
      </trkpt>
      <trkpt lat="45.32905" lon="6.03277">
        <ele>1151</ele>
        <time>2021-12-12T08:28:21Z</time>
      </trkpt>
      <trkpt lat="45.32902" lon="6.03277">
        <ele>1151</ele>
        <time>2021-12-12T08:28:24Z</time>
      </trkpt>
      <trkpt lat="45.329" lon="6.03278">
        <ele>1151</ele>
        <time>2021-12-12T08:28:27Z</time>
      </trkpt>
      <trkpt lat="45.32898" lon="6.03277">
        <ele>1151</ele>
        <time>2021-12-12T08:28:29Z</time>
      </trkpt>
      <trkpt lat="45.32896" lon="6.03276">
        <ele>1151</ele>
        <time>2021-12-12T08:28:31Z</time>
      </trkpt>
      <trkpt lat="45.32894" lon="6.03276">
        <ele>1152</ele>
        <time>2021-12-12T08:28:33Z</time>
      </trkpt>
      <trkpt lat="45.32892" lon="6.03276">
        <ele>1152</ele>
        <time>2021-12-12T08:28:35Z</time>
      </trkpt>
      <trkpt lat="45.3289" lon="6.03275">
        <ele>1152</ele>
        <time>2021-12-12T08:28:39Z</time>
      </trkpt>
      <trkpt lat="45.32888" lon="6.03274">
        <ele>1152</ele>
        <time>2021-12-12T08:28:40Z</time>
      </trkpt>
      <trkpt lat="45.32886" lon="6.03275">
        <ele>1153</ele>
        <time>2021-12-12T08:28:44Z</time>
      </trkpt>
      <trkpt lat="45.32885" lon="6.03278">
        <ele>1153</ele>
        <time>2021-12-12T08:28:48Z</time>
      </trkpt>
      <trkpt lat="45.32884" lon="6.03279">
        <ele>1153</ele>
        <time>2021-12-12T08:28:50Z</time>
      </trkpt>
      <trkpt lat="45.32883" lon="6.03282">
        <ele>1155</ele>
        <time>2021-12-12T08:28:52Z</time>
      </trkpt>
      <trkpt lat="45.32881" lon="6.03284">
        <ele>1155</ele>
        <time>2021-12-12T08:28:54Z</time>
      </trkpt>
      <trkpt lat="45.32879" lon="6.03285">
        <ele>1155</ele>
        <time>2021-12-12T08:28:57Z</time>
      </trkpt>
      <trkpt lat="45.32877" lon="6.03285">
        <ele>1155</ele>
        <time>2021-12-12T08:28:59Z</time>
      </trkpt>
      <trkpt lat="45.32874" lon="6.03285">
        <ele>1157</ele>
        <time>2021-12-12T08:29:02Z</time>
      </trkpt>
      <trkpt lat="45.32873" lon="6.03287">
        <ele>1157</ele>
        <time>2021-12-12T08:29:06Z</time>
      </trkpt>
      <trkpt lat="45.32872" lon="6.03289">
        <ele>1157</ele>
        <time>2021-12-12T08:29:10Z</time>
      </trkpt>
      <trkpt lat="45.32871" lon="6.03292">
        <ele>1158</ele>
        <time>2021-12-12T08:29:12Z</time>
      </trkpt>
      <trkpt lat="45.3287" lon="6.03295">
        <ele>1158</ele>
        <time>2021-12-12T08:29:14Z</time>
      </trkpt>
      <trkpt lat="45.32868" lon="6.03297">
        <ele>1158</ele>
        <time>2021-12-12T08:29:18Z</time>
      </trkpt>
      <trkpt lat="45.32866" lon="6.03296">
        <ele>1158</ele>
        <time>2021-12-12T08:29:19Z</time>
      </trkpt>
      <trkpt lat="45.32864" lon="6.03297">
        <ele>1158</ele>
        <time>2021-12-12T08:29:21Z</time>
      </trkpt>
      <trkpt lat="45.32863" lon="6.03299">
        <ele>1160</ele>
        <time>2021-12-12T08:29:24Z</time>
      </trkpt>
      <trkpt lat="45.32862" lon="6.03302">
        <ele>1160</ele>
        <time>2021-12-12T08:29:27Z</time>
      </trkpt>
      <trkpt lat="45.32861" lon="6.03306">
        <ele>1160</ele>
        <time>2021-12-12T08:29:30Z</time>
      </trkpt>
      <trkpt lat="45.32861" lon="6.03309">
        <ele>1161</ele>
        <time>2021-12-12T08:29:33Z</time>
      </trkpt>
      <trkpt lat="45.32861" lon="6.03311">
        <ele>1161</ele>
        <time>2021-12-12T08:29:35Z</time>
      </trkpt>
      <trkpt lat="45.32861" lon="6.03314">
        <ele>1161</ele>
        <time>2021-12-12T08:29:37Z</time>
      </trkpt>
      <trkpt lat="45.32862" lon="6.03317">
        <ele>1161</ele>
        <time>2021-12-12T08:29:40Z</time>
      </trkpt>
      <trkpt lat="45.32861" lon="6.03321">
        <ele>1163</ele>
        <time>2021-12-12T08:29:45Z</time>
      </trkpt>
      <trkpt lat="45.3286" lon="6.03323">
        <ele>1163</ele>
        <time>2021-12-12T08:29:47Z</time>
      </trkpt>
      <trkpt lat="45.32859" lon="6.03326">
        <ele>1163</ele>
        <time>2021-12-12T08:29:51Z</time>
      </trkpt>
      <trkpt lat="45.32858" lon="6.0333">
        <ele>1164</ele>
        <time>2021-12-12T08:29:54Z</time>
      </trkpt>
      <trkpt lat="45.32857" lon="6.03332">
        <ele>1164</ele>
        <time>2021-12-12T08:29:58Z</time>
      </trkpt>
      <trkpt lat="45.32856" lon="6.03334">
        <ele>1164</ele>
        <time>2021-12-12T08:30:00Z</time>
      </trkpt>
      <trkpt lat="45.32854" lon="6.03336">
        <ele>1165</ele>
        <time>2021-12-12T08:30:02Z</time>
      </trkpt>
      <trkpt lat="45.32852" lon="6.03338">
        <ele>1165</ele>
        <time>2021-12-12T08:30:03Z</time>
      </trkpt>
      <trkpt lat="45.3285" lon="6.0334">
        <ele>1165</ele>
        <time>2021-12-12T08:30:06Z</time>
      </trkpt>
      <trkpt lat="45.32849" lon="6.03343">
        <ele>1165</ele>
        <time>2021-12-12T08:30:10Z</time>
      </trkpt>
      <trkpt lat="45.32849" lon="6.03347">
        <ele>1166</ele>
        <time>2021-12-12T08:30:14Z</time>
      </trkpt>
      <trkpt lat="45.32848" lon="6.0335">
        <ele>1166</ele>
        <time>2021-12-12T08:30:17Z</time>
      </trkpt>
      <trkpt lat="45.32848" lon="6.03353">
        <ele>1166</ele>
        <time>2021-12-12T08:30:20Z</time>
      </trkpt>
      <trkpt lat="45.32848" lon="6.03356">
        <ele>1168</ele>
        <time>2021-12-12T08:30:23Z</time>
      </trkpt>
      <trkpt lat="45.32847" lon="6.03359">
        <ele>1168</ele>
        <time>2021-12-12T08:30:25Z</time>
      </trkpt>
      <trkpt lat="45.32847" lon="6.03361">
        <ele>1168</ele>
        <time>2021-12-12T08:30:28Z</time>
      </trkpt>
      <trkpt lat="45.32847" lon="6.03364">
        <ele>1169</ele>
        <time>2021-12-12T08:30:32Z</time>
      </trkpt>
      <trkpt lat="45.32846" lon="6.03367">
        <ele>1169</ele>
        <time>2021-12-12T08:30:35Z</time>
      </trkpt>
      <trkpt lat="45.32846" lon="6.0337">
        <ele>1169</ele>
        <time>2021-12-12T08:30:38Z</time>
      </trkpt>
      <trkpt lat="45.32845" lon="6.03372">
        <ele>1169</ele>
        <time>2021-12-12T08:30:41Z</time>
      </trkpt>
      <trkpt lat="45.32844" lon="6.03375">
        <ele>1171</ele>
        <time>2021-12-12T08:30:44Z</time>
      </trkpt>
      <trkpt lat="45.32842" lon="6.03378">
        <ele>1171</ele>
        <time>2021-12-12T08:30:47Z</time>
      </trkpt>
      <trkpt lat="45.32841" lon="6.0338">
        <ele>1171</ele>
        <time>2021-12-12T08:30:51Z</time>
      </trkpt>
      <trkpt lat="45.3284" lon="6.03384">
        <ele>1173</ele>
        <time>2021-12-12T08:30:54Z</time>
      </trkpt>
      <trkpt lat="45.32839" lon="6.03386">
        <ele>1173</ele>
        <time>2021-12-12T08:30:57Z</time>
      </trkpt>
      <trkpt lat="45.32838" lon="6.03389">
        <ele>1173</ele>
        <time>2021-12-12T08:31:00Z</time>
      </trkpt>
      <trkpt lat="45.32836" lon="6.03392">
        <ele>1174</ele>
        <time>2021-12-12T08:31:03Z</time>
      </trkpt>
      <trkpt lat="45.32835" lon="6.03394">
        <ele>1174</ele>
        <time>2021-12-12T08:31:06Z</time>
      </trkpt>
      <trkpt lat="45.32834" lon="6.03396">
        <ele>1174</ele>
        <time>2021-12-12T08:31:08Z</time>
      </trkpt>
      <trkpt lat="45.32832" lon="6.03398">
        <ele>1174</ele>
        <time>2021-12-12T08:31:11Z</time>
      </trkpt>
      <trkpt lat="45.32831" lon="6.034">
        <ele>1176</ele>
        <time>2021-12-12T08:31:13Z</time>
      </trkpt>
      <trkpt lat="45.3283" lon="6.03402">
        <ele>1176</ele>
        <time>2021-12-12T08:31:17Z</time>
      </trkpt>
      <trkpt lat="45.32829" lon="6.03404">
        <ele>1176</ele>
        <time>2021-12-12T08:31:20Z</time>
      </trkpt>
      <trkpt lat="45.32827" lon="6.03406">
        <ele>1179</ele>
        <time>2021-12-12T08:31:24Z</time>
      </trkpt>
      <trkpt lat="45.32826" lon="6.03408">
        <ele>1179</ele>
        <time>2021-12-12T08:31:26Z</time>
      </trkpt>
      <trkpt lat="45.32824" lon="6.0341">
        <ele>1179</ele>
        <time>2021-12-12T08:31:30Z</time>
      </trkpt>
      <trkpt lat="45.32823" lon="6.03412">
        <ele>1180</ele>
        <time>2021-12-12T08:31:33Z</time>
      </trkpt>
      <trkpt lat="45.3282" lon="6.03414">
        <ele>1180</ele>
        <time>2021-12-12T08:31:36Z</time>
      </trkpt>
      <trkpt lat="45.32819" lon="6.03416">
        <ele>1180</ele>
        <time>2021-12-12T08:31:38Z</time>
      </trkpt>
      <trkpt lat="45.32818" lon="6.03418">
        <ele>1182</ele>
        <time>2021-12-12T08:31:42Z</time>
      </trkpt>
      <trkpt lat="45.32817" lon="6.0342">
        <ele>1182</ele>
        <time>2021-12-12T08:31:45Z</time>
      </trkpt>
      <trkpt lat="45.32814" lon="6.03421">
        <ele>1182</ele>
        <time>2021-12-12T08:31:48Z</time>
      </trkpt>
      <trkpt lat="45.32812" lon="6.03423">
        <ele>1182</ele>
        <time>2021-12-12T08:31:51Z</time>
      </trkpt>
      <trkpt lat="45.32811" lon="6.03425">
        <ele>1184</ele>
        <time>2021-12-12T08:31:54Z</time>
      </trkpt>
      <trkpt lat="45.3281" lon="6.03427">
        <ele>1184</ele>
        <time>2021-12-12T08:31:57Z</time>
      </trkpt>
      <trkpt lat="45.32808" lon="6.03428">
        <ele>1184</ele>
        <time>2021-12-12T08:32:00Z</time>
      </trkpt>
      <trkpt lat="45.32806" lon="6.03428">
        <ele>1186</ele>
        <time>2021-12-12T08:32:04Z</time>
      </trkpt>
      <trkpt lat="45.32804" lon="6.03428">
        <ele>1186</ele>
        <time>2021-12-12T08:32:07Z</time>
      </trkpt>
      <trkpt lat="45.32801" lon="6.0343">
        <ele>1186</ele>
        <time>2021-12-12T08:32:09Z</time>
      </trkpt>
      <trkpt lat="45.32798" lon="6.03431">
        <ele>1188</ele>
        <time>2021-12-12T08:32:13Z</time>
      </trkpt>
      <trkpt lat="45.32796" lon="6.03432">
        <ele>1188</ele>
        <time>2021-12-12T08:32:15Z</time>
      </trkpt>
      <trkpt lat="45.32795" lon="6.03435">
        <ele>1188</ele>
        <time>2021-12-12T08:32:19Z</time>
      </trkpt>
      <trkpt lat="45.32794" lon="6.03437">
        <ele>1190</ele>
        <time>2021-12-12T08:32:23Z</time>
      </trkpt>
      <trkpt lat="45.32793" lon="6.03439">
        <ele>1190</ele>
        <time>2021-12-12T08:32:26Z</time>
      </trkpt>
      <trkpt lat="45.3279" lon="6.0344">
        <ele>1190</ele>
        <time>2021-12-12T08:32:29Z</time>
      </trkpt>
      <trkpt lat="45.32789" lon="6.03441">
        <ele>1192</ele>
        <time>2021-12-12T08:32:32Z</time>
      </trkpt>
      <trkpt lat="45.32787" lon="6.03443">
        <ele>1192</ele>
        <time>2021-12-12T08:32:35Z</time>
      </trkpt>
      <trkpt lat="45.32785" lon="6.03444">
        <ele>1192</ele>
        <time>2021-12-12T08:32:39Z</time>
      </trkpt>
      <trkpt lat="45.32784" lon="6.03447">
        <ele>1193</ele>
        <time>2021-12-12T08:32:43Z</time>
      </trkpt>
      <trkpt lat="45.32783" lon="6.0345">
        <ele>1193</ele>
        <time>2021-12-12T08:32:47Z</time>
      </trkpt>
      <trkpt lat="45.32782" lon="6.03452">
        <ele>1193</ele>
        <time>2021-12-12T08:32:50Z</time>
      </trkpt>
      <trkpt lat="45.32782" lon="6.03455">
        <ele>1194</ele>
        <time>2021-12-12T08:32:54Z</time>
      </trkpt>
      <trkpt lat="45.32782" lon="6.03457">
        <ele>1194</ele>
        <time>2021-12-12T08:32:58Z</time>
      </trkpt>
      <trkpt lat="45.32782" lon="6.03461">
        <ele>1194</ele>
        <time>2021-12-12T08:33:01Z</time>
      </trkpt>
      <trkpt lat="45.32782" lon="6.03464">
        <ele>1195</ele>
        <time>2021-12-12T08:33:04Z</time>
      </trkpt>
      <trkpt lat="45.32781" lon="6.03466">
        <ele>1195</ele>
        <time>2021-12-12T08:33:06Z</time>
      </trkpt>
      <trkpt lat="45.32779" lon="6.03469">
        <ele>1195</ele>
        <time>2021-12-12T08:33:09Z</time>
      </trkpt>
      <trkpt lat="45.32778" lon="6.03473">
        <ele>1197</ele>
        <time>2021-12-12T08:33:12Z</time>
      </trkpt>
      <trkpt lat="45.32776" lon="6.03475">
        <ele>1197</ele>
        <time>2021-12-12T08:33:15Z</time>
      </trkpt>
      <trkpt lat="45.32774" lon="6.03477">
        <ele>1197</ele>
        <time>2021-12-12T08:33:18Z</time>
      </trkpt>
      <trkpt lat="45.32771" lon="6.03477">
        <ele>1198</ele>
        <time>2021-12-12T08:33:23Z</time>
      </trkpt>
      <trkpt lat="45.3277" lon="6.03479">
        <ele>1198</ele>
        <time>2021-12-12T08:33:25Z</time>
      </trkpt>
      <trkpt lat="45.32769" lon="6.03482">
        <ele>1198</ele>
        <time>2021-12-12T08:33:28Z</time>
      </trkpt>
      <trkpt lat="45.32767" lon="6.03484">
        <ele>1198</ele>
        <time>2021-12-12T08:33:31Z</time>
      </trkpt>
      <trkpt lat="45.32766" lon="6.03486">
        <ele>1200</ele>
        <time>2021-12-12T08:33:34Z</time>
      </trkpt>
      <trkpt lat="45.32764" lon="6.03488">
        <ele>1200</ele>
        <time>2021-12-12T08:33:37Z</time>
      </trkpt>
      <trkpt lat="45.32763" lon="6.03492">
        <ele>1200</ele>
        <time>2021-12-12T08:33:40Z</time>
      </trkpt>
      <trkpt lat="45.32762" lon="6.03494">
        <ele>1203</ele>
        <time>2021-12-12T08:33:43Z</time>
      </trkpt>
      <trkpt lat="45.32761" lon="6.03497">
        <ele>1203</ele>
        <time>2021-12-12T08:33:46Z</time>
      </trkpt>
      <trkpt lat="45.3276" lon="6.03499">
        <ele>1203</ele>
        <time>2021-12-12T08:33:49Z</time>
      </trkpt>
      <trkpt lat="45.32758" lon="6.03501">
        <ele>1205</ele>
        <time>2021-12-12T08:33:53Z</time>
      </trkpt>
      <trkpt lat="45.32757" lon="6.03504">
        <ele>1205</ele>
        <time>2021-12-12T08:33:55Z</time>
      </trkpt>
      <trkpt lat="45.32756" lon="6.03506">
        <ele>1205</ele>
        <time>2021-12-12T08:33:59Z</time>
      </trkpt>
      <trkpt lat="45.32755" lon="6.03509">
        <ele>1206</ele>
        <time>2021-12-12T08:34:02Z</time>
      </trkpt>
      <trkpt lat="45.32754" lon="6.03512">
        <ele>1206</ele>
        <time>2021-12-12T08:34:05Z</time>
      </trkpt>
      <trkpt lat="45.32755" lon="6.03515">
        <ele>1206</ele>
        <time>2021-12-12T08:34:09Z</time>
      </trkpt>
      <trkpt lat="45.32756" lon="6.03518">
        <ele>1208</ele>
        <time>2021-12-12T08:34:13Z</time>
      </trkpt>
      <trkpt lat="45.32757" lon="6.0352">
        <ele>1208</ele>
        <time>2021-12-12T08:34:15Z</time>
      </trkpt>
      <trkpt lat="45.32758" lon="6.03523">
        <ele>1208</ele>
        <time>2021-12-12T08:34:18Z</time>
      </trkpt>
      <trkpt lat="45.32759" lon="6.03526">
        <ele>1208</ele>
        <time>2021-12-12T08:34:21Z</time>
      </trkpt>
      <trkpt lat="45.3276" lon="6.03529">
        <ele>1210</ele>
        <time>2021-12-12T08:34:24Z</time>
      </trkpt>
      <trkpt lat="45.32761" lon="6.03531">
        <ele>1210</ele>
        <time>2021-12-12T08:34:28Z</time>
      </trkpt>
      <trkpt lat="45.32762" lon="6.03533">
        <ele>1210</ele>
        <time>2021-12-12T08:34:31Z</time>
      </trkpt>
      <trkpt lat="45.32763" lon="6.03536">
        <ele>1211</ele>
        <time>2021-12-12T08:34:35Z</time>
      </trkpt>
      <trkpt lat="45.32763" lon="6.03539">
        <ele>1211</ele>
        <time>2021-12-12T08:34:37Z</time>
      </trkpt>
      <trkpt lat="45.32761" lon="6.0354">
        <ele>1211</ele>
        <time>2021-12-12T08:34:41Z</time>
      </trkpt>
      <trkpt lat="45.3276" lon="6.03543">
        <ele>1213</ele>
        <time>2021-12-12T08:34:43Z</time>
      </trkpt>
      <trkpt lat="45.3276" lon="6.03546">
        <ele>1213</ele>
        <time>2021-12-12T08:34:46Z</time>
      </trkpt>
      <trkpt lat="45.32759" lon="6.03549">
        <ele>1213</ele>
        <time>2021-12-12T08:34:50Z</time>
      </trkpt>
      <trkpt lat="45.32758" lon="6.03552">
        <ele>1215</ele>
        <time>2021-12-12T08:34:54Z</time>
      </trkpt>
      <trkpt lat="45.32757" lon="6.03555">
        <ele>1215</ele>
        <time>2021-12-12T08:34:57Z</time>
      </trkpt>
      <trkpt lat="45.32756" lon="6.03558">
        <ele>1215</ele>
        <time>2021-12-12T08:35:01Z</time>
      </trkpt>
      <trkpt lat="45.32755" lon="6.0356">
        <ele>1216</ele>
        <time>2021-12-12T08:35:05Z</time>
      </trkpt>
      <trkpt lat="45.32756" lon="6.03564">
        <ele>1216</ele>
        <time>2021-12-12T08:35:09Z</time>
      </trkpt>
      <trkpt lat="45.32757" lon="6.03566">
        <ele>1218</ele>
        <time>2021-12-12T08:35:13Z</time>
      </trkpt>
      <trkpt lat="45.32758" lon="6.03569">
        <ele>1218</ele>
        <time>2021-12-12T08:35:17Z</time>
      </trkpt>
      <trkpt lat="45.32759" lon="6.03572">
        <ele>1218</ele>
        <time>2021-12-12T08:35:20Z</time>
      </trkpt>
      <trkpt lat="45.3276" lon="6.03574">
        <ele>1219</ele>
        <time>2021-12-12T08:35:24Z</time>
      </trkpt>
      <trkpt lat="45.32761" lon="6.03576">
        <ele>1219</ele>
        <time>2021-12-12T08:35:28Z</time>
      </trkpt>
      <trkpt lat="45.32763" lon="6.03578">
        <ele>1219</ele>
        <time>2021-12-12T08:35:31Z</time>
      </trkpt>
      <trkpt lat="45.32764" lon="6.0358">
        <ele>1221</ele>
        <time>2021-12-12T08:35:34Z</time>
      </trkpt>
      <trkpt lat="45.32766" lon="6.03583">
        <ele>1221</ele>
        <time>2021-12-12T08:35:40Z</time>
      </trkpt>
      <trkpt lat="45.32767" lon="6.03584">
        <ele>1223</ele>
        <time>2021-12-12T08:35:44Z</time>
      </trkpt>
      <trkpt lat="45.32769" lon="6.03586">
        <ele>1223</ele>
        <time>2021-12-12T08:35:48Z</time>
      </trkpt>
      <trkpt lat="45.32771" lon="6.03586">
        <ele>1223</ele>
        <time>2021-12-12T08:35:51Z</time>
      </trkpt>
      <trkpt lat="45.32773" lon="6.03589">
        <ele>1225</ele>
        <time>2021-12-12T08:35:55Z</time>
      </trkpt>
      <trkpt lat="45.32774" lon="6.03591">
        <ele>1225</ele>
        <time>2021-12-12T08:35:57Z</time>
      </trkpt>
      <trkpt lat="45.32776" lon="6.03594">
        <ele>1225</ele>
        <time>2021-12-12T08:36:00Z</time>
      </trkpt>
      <trkpt lat="45.32777" lon="6.03596">
        <ele>1228</ele>
        <time>2021-12-12T08:36:03Z</time>
      </trkpt>
      <trkpt lat="45.32778" lon="6.03598">
        <ele>1228</ele>
        <time>2021-12-12T08:36:07Z</time>
      </trkpt>
      <trkpt lat="45.3278" lon="6.036">
        <ele>1228</ele>
        <time>2021-12-12T08:36:11Z</time>
      </trkpt>
      <trkpt lat="45.32781" lon="6.03603">
        <ele>1229</ele>
        <time>2021-12-12T08:36:15Z</time>
      </trkpt>
      <trkpt lat="45.32783" lon="6.03604">
        <ele>1229</ele>
        <time>2021-12-12T08:36:18Z</time>
      </trkpt>
      <trkpt lat="45.32785" lon="6.03606">
        <ele>1229</ele>
        <time>2021-12-12T08:36:20Z</time>
      </trkpt>
      <trkpt lat="45.32786" lon="6.03609">
        <ele>1231</ele>
        <time>2021-12-12T08:36:23Z</time>
      </trkpt>
      <trkpt lat="45.32788" lon="6.03611">
        <ele>1231</ele>
        <time>2021-12-12T08:36:25Z</time>
      </trkpt>
      <trkpt lat="45.3279" lon="6.03613">
        <ele>1231</ele>
        <time>2021-12-12T08:36:29Z</time>
      </trkpt>
      <trkpt lat="45.32791" lon="6.03614">
        <ele>1232</ele>
        <time>2021-12-12T08:36:33Z</time>
      </trkpt>
      <trkpt lat="45.32794" lon="6.03616">
        <ele>1232</ele>
        <time>2021-12-12T08:36:36Z</time>
      </trkpt>
      <trkpt lat="45.32796" lon="6.03616">
        <ele>1232</ele>
        <time>2021-12-12T08:36:40Z</time>
      </trkpt>
      <trkpt lat="45.32798" lon="6.03618">
        <ele>1233</ele>
        <time>2021-12-12T08:36:45Z</time>
      </trkpt>
      <trkpt lat="45.32799" lon="6.0362">
        <ele>1233</ele>
        <time>2021-12-12T08:36:47Z</time>
      </trkpt>
      <trkpt lat="45.32801" lon="6.03621">
        <ele>1233</ele>
        <time>2021-12-12T08:36:50Z</time>
      </trkpt>
      <trkpt lat="45.32803" lon="6.03623">
        <ele>1236</ele>
        <time>2021-12-12T08:36:52Z</time>
      </trkpt>
      <trkpt lat="45.32805" lon="6.03624">
        <ele>1236</ele>
        <time>2021-12-12T08:36:57Z</time>
      </trkpt>
      <trkpt lat="45.32805" lon="6.03627">
        <ele>1236</ele>
        <time>2021-12-12T08:36:59Z</time>
      </trkpt>
      <trkpt lat="45.32806" lon="6.0363">
        <ele>1238</ele>
        <time>2021-12-12T08:37:03Z</time>
      </trkpt>
      <trkpt lat="45.32808" lon="6.03632">
        <ele>1238</ele>
        <time>2021-12-12T08:37:07Z</time>
      </trkpt>
      <trkpt lat="45.32809" lon="6.03633">
        <ele>1238</ele>
        <time>2021-12-12T08:37:11Z</time>
      </trkpt>
      <trkpt lat="45.32811" lon="6.03635">
        <ele>1239</ele>
        <time>2021-12-12T08:37:13Z</time>
      </trkpt>
      <trkpt lat="45.32812" lon="6.03637">
        <ele>1239</ele>
        <time>2021-12-12T08:37:15Z</time>
      </trkpt>
      <trkpt lat="45.32814" lon="6.0364">
        <ele>1239</ele>
        <time>2021-12-12T08:37:17Z</time>
      </trkpt>
      <trkpt lat="45.32815" lon="6.03642">
        <ele>1239</ele>
        <time>2021-12-12T08:37:21Z</time>
      </trkpt>
      <trkpt lat="45.32817" lon="6.03644">
        <ele>1241</ele>
        <time>2021-12-12T08:37:24Z</time>
      </trkpt>
      <trkpt lat="45.32819" lon="6.03646">
        <ele>1241</ele>
        <time>2021-12-12T08:37:28Z</time>
      </trkpt>
      <trkpt lat="45.32821" lon="6.03648">
        <ele>1243</ele>
        <time>2021-12-12T08:37:32Z</time>
      </trkpt>
      <trkpt lat="45.32822" lon="6.03651">
        <ele>1243</ele>
        <time>2021-12-12T08:37:34Z</time>
      </trkpt>
      <trkpt lat="45.32823" lon="6.03653">
        <ele>1243</ele>
        <time>2021-12-12T08:37:37Z</time>
      </trkpt>
      <trkpt lat="45.32825" lon="6.03656">
        <ele>1243</ele>
        <time>2021-12-12T08:37:41Z</time>
      </trkpt>
      <trkpt lat="45.32826" lon="6.03657">
        <ele>1245</ele>
        <time>2021-12-12T08:37:43Z</time>
      </trkpt>
      <trkpt lat="45.32828" lon="6.03659">
        <ele>1245</ele>
        <time>2021-12-12T08:37:44Z</time>
      </trkpt>
      <trkpt lat="45.3283" lon="6.03661">
        <ele>1245</ele>
        <time>2021-12-12T08:37:47Z</time>
      </trkpt>
      <trkpt lat="45.32831" lon="6.03663">
        <ele>1245</ele>
        <time>2021-12-12T08:37:50Z</time>
      </trkpt>
      <trkpt lat="45.32833" lon="6.03665">
        <ele>1247</ele>
        <time>2021-12-12T08:37:54Z</time>
      </trkpt>
      <trkpt lat="45.32835" lon="6.03667">
        <ele>1247</ele>
        <time>2021-12-12T08:37:56Z</time>
      </trkpt>
      <trkpt lat="45.32836" lon="6.03669">
        <ele>1248</ele>
        <time>2021-12-12T08:38:02Z</time>
      </trkpt>
      <trkpt lat="45.32838" lon="6.03671">
        <ele>1248</ele>
        <time>2021-12-12T08:38:04Z</time>
      </trkpt>
      <trkpt lat="45.32839" lon="6.03673">
        <ele>1248</ele>
        <time>2021-12-12T08:38:06Z</time>
      </trkpt>
      <trkpt lat="45.32841" lon="6.03674">
        <ele>1248</ele>
        <time>2021-12-12T08:38:08Z</time>
      </trkpt>
      <trkpt lat="45.32842" lon="6.03677">
        <ele>1248</ele>
        <time>2021-12-12T08:38:10Z</time>
      </trkpt>
      <trkpt lat="45.32843" lon="6.03679">
        <ele>1249</ele>
        <time>2021-12-12T08:38:13Z</time>
      </trkpt>
      <trkpt lat="45.32844" lon="6.03682">
        <ele>1249</ele>
        <time>2021-12-12T08:38:16Z</time>
      </trkpt>
      <trkpt lat="45.32846" lon="6.03684">
        <ele>1249</ele>
        <time>2021-12-12T08:38:19Z</time>
      </trkpt>
      <trkpt lat="45.32847" lon="6.03686">
        <ele>1250</ele>
        <time>2021-12-12T08:38:22Z</time>
      </trkpt>
      <trkpt lat="45.32848" lon="6.03688">
        <ele>1250</ele>
        <time>2021-12-12T08:38:24Z</time>
      </trkpt>
      <trkpt lat="45.32849" lon="6.03691">
        <ele>1250</ele>
        <time>2021-12-12T08:38:28Z</time>
      </trkpt>
      <trkpt lat="45.3285" lon="6.03694">
        <ele>1252</ele>
        <time>2021-12-12T08:38:32Z</time>
      </trkpt>
      <trkpt lat="45.3285" lon="6.03697">
        <ele>1252</ele>
        <time>2021-12-12T08:38:34Z</time>
      </trkpt>
      <trkpt lat="45.32851" lon="6.037">
        <ele>1252</ele>
        <time>2021-12-12T08:38:37Z</time>
      </trkpt>
      <trkpt lat="45.32851" lon="6.03703">
        <ele>1252</ele>
        <time>2021-12-12T08:38:39Z</time>
      </trkpt>
      <trkpt lat="45.32852" lon="6.03707">
        <ele>1254</ele>
        <time>2021-12-12T08:38:43Z</time>
      </trkpt>
      <trkpt lat="45.32853" lon="6.0371">
        <ele>1254</ele>
        <time>2021-12-12T08:38:46Z</time>
      </trkpt>
      <trkpt lat="45.32854" lon="6.03713">
        <ele>1254</ele>
        <time>2021-12-12T08:38:48Z</time>
      </trkpt>
      <trkpt lat="45.32854" lon="6.03715">
        <ele>1254</ele>
        <time>2021-12-12T08:38:50Z</time>
      </trkpt>
      <trkpt lat="45.32855" lon="6.03718">
        <ele>1256</ele>
        <time>2021-12-12T08:38:52Z</time>
      </trkpt>
      <trkpt lat="45.32855" lon="6.03721">
        <ele>1256</ele>
        <time>2021-12-12T08:38:54Z</time>
      </trkpt>
      <trkpt lat="45.32856" lon="6.03724">
        <ele>1256</ele>
        <time>2021-12-12T08:38:57Z</time>
      </trkpt>
      <trkpt lat="45.32857" lon="6.03727">
        <ele>1256</ele>
        <time>2021-12-12T08:39:01Z</time>
      </trkpt>
      <trkpt lat="45.32857" lon="6.0373">
        <ele>1257</ele>
        <time>2021-12-12T08:39:02Z</time>
      </trkpt>
      <trkpt lat="45.32859" lon="6.03733">
        <ele>1257</ele>
        <time>2021-12-12T08:39:05Z</time>
      </trkpt>
      <trkpt lat="45.3286" lon="6.03736">
        <ele>1257</ele>
        <time>2021-12-12T08:39:07Z</time>
      </trkpt>
      <trkpt lat="45.32861" lon="6.03739">
        <ele>1257</ele>
        <time>2021-12-12T08:39:10Z</time>
      </trkpt>
      <trkpt lat="45.32861" lon="6.03742">
        <ele>1258</ele>
        <time>2021-12-12T08:39:14Z</time>
      </trkpt>
      <trkpt lat="45.32862" lon="6.03745">
        <ele>1258</ele>
        <time>2021-12-12T08:39:16Z</time>
      </trkpt>
      <trkpt lat="45.32861" lon="6.03748">
        <ele>1258</ele>
        <time>2021-12-12T08:39:18Z</time>
      </trkpt>
      <trkpt lat="45.32861" lon="6.03751">
        <ele>1258</ele>
        <time>2021-12-12T08:39:20Z</time>
      </trkpt>
      <trkpt lat="45.32862" lon="6.03753">
        <ele>1259</ele>
        <time>2021-12-12T08:39:24Z</time>
      </trkpt>
      <trkpt lat="45.32863" lon="6.03756">
        <ele>1259</ele>
        <time>2021-12-12T08:39:26Z</time>
      </trkpt>
      <trkpt lat="45.32865" lon="6.03759">
        <ele>1259</ele>
        <time>2021-12-12T08:39:29Z</time>
      </trkpt>
      <trkpt lat="45.32865" lon="6.03761">
        <ele>1261</ele>
        <time>2021-12-12T08:39:33Z</time>
      </trkpt>
      <trkpt lat="45.32865" lon="6.03765">
        <ele>1261</ele>
        <time>2021-12-12T08:39:36Z</time>
      </trkpt>
      <trkpt lat="45.32866" lon="6.03768">
        <ele>1261</ele>
        <time>2021-12-12T08:39:39Z</time>
      </trkpt>
      <trkpt lat="45.32867" lon="6.0377">
        <ele>1261</ele>
        <time>2021-12-12T08:39:41Z</time>
      </trkpt>
      <trkpt lat="45.32868" lon="6.03773">
        <ele>1262</ele>
        <time>2021-12-12T08:39:44Z</time>
      </trkpt>
      <trkpt lat="45.32869" lon="6.03776">
        <ele>1262</ele>
        <time>2021-12-12T08:39:48Z</time>
      </trkpt>
      <trkpt lat="45.3287" lon="6.0378">
        <ele>1262</ele>
        <time>2021-12-12T08:39:51Z</time>
      </trkpt>
      <trkpt lat="45.3287" lon="6.03783">
        <ele>1263</ele>
        <time>2021-12-12T08:39:54Z</time>
      </trkpt>
      <trkpt lat="45.32869" lon="6.03786">
        <ele>1263</ele>
        <time>2021-12-12T08:39:58Z</time>
      </trkpt>
      <trkpt lat="45.32869" lon="6.03789">
        <ele>1263</ele>
        <time>2021-12-12T08:40:00Z</time>
      </trkpt>
      <trkpt lat="45.3287" lon="6.03792">
        <ele>1264</ele>
        <time>2021-12-12T08:40:03Z</time>
      </trkpt>
      <trkpt lat="45.32871" lon="6.03794">
        <ele>1264</ele>
        <time>2021-12-12T08:40:05Z</time>
      </trkpt>
      <trkpt lat="45.32872" lon="6.03798">
        <ele>1264</ele>
        <time>2021-12-12T08:40:09Z</time>
      </trkpt>
      <trkpt lat="45.32873" lon="6.03801">
        <ele>1264</ele>
        <time>2021-12-12T08:40:11Z</time>
      </trkpt>
      <trkpt lat="45.32873" lon="6.03804">
        <ele>1266</ele>
        <time>2021-12-12T08:40:15Z</time>
      </trkpt>
      <trkpt lat="45.32874" lon="6.03807">
        <ele>1266</ele>
        <time>2021-12-12T08:40:17Z</time>
      </trkpt>
      <trkpt lat="45.32874" lon="6.0381">
        <ele>1266</ele>
        <time>2021-12-12T08:40:19Z</time>
      </trkpt>
      <trkpt lat="45.32875" lon="6.03813">
        <ele>1267</ele>
        <time>2021-12-12T08:40:22Z</time>
      </trkpt>
      <trkpt lat="45.32874" lon="6.03816">
        <ele>1267</ele>
        <time>2021-12-12T08:40:25Z</time>
      </trkpt>
      <trkpt lat="45.32873" lon="6.03818">
        <ele>1267</ele>
        <time>2021-12-12T08:40:28Z</time>
      </trkpt>
      <trkpt lat="45.32872" lon="6.03822">
        <ele>1269</ele>
        <time>2021-12-12T08:40:32Z</time>
      </trkpt>
      <trkpt lat="45.32872" lon="6.03825">
        <ele>1269</ele>
        <time>2021-12-12T08:40:35Z</time>
      </trkpt>
      <trkpt lat="45.32872" lon="6.03827">
        <ele>1269</ele>
        <time>2021-12-12T08:40:39Z</time>
      </trkpt>
      <trkpt lat="45.32871" lon="6.0383">
        <ele>1269</ele>
        <time>2021-12-12T08:40:41Z</time>
      </trkpt>
      <trkpt lat="45.3287" lon="6.03832">
        <ele>1272</ele>
        <time>2021-12-12T08:40:45Z</time>
      </trkpt>
      <trkpt lat="45.32869" lon="6.03835">
        <ele>1272</ele>
        <time>2021-12-12T08:40:48Z</time>
      </trkpt>
      <trkpt lat="45.32869" lon="6.03837">
        <ele>1275</ele>
        <time>2021-12-12T08:40:52Z</time>
      </trkpt>
      <trkpt lat="45.32868" lon="6.0384">
        <ele>1275</ele>
        <time>2021-12-12T08:40:55Z</time>
      </trkpt>
      <trkpt lat="45.32866" lon="6.03843">
        <ele>1275</ele>
        <time>2021-12-12T08:40:59Z</time>
      </trkpt>
      <trkpt lat="45.32864" lon="6.03843">
        <ele>1275</ele>
        <time>2021-12-12T08:41:01Z</time>
      </trkpt>
      <trkpt lat="45.32862" lon="6.03843">
        <ele>1275</ele>
        <time>2021-12-12T08:41:03Z</time>
      </trkpt>
      <trkpt lat="45.32861" lon="6.03844">
        <ele>1275</ele>
        <time>2021-12-12T08:41:06Z</time>
      </trkpt>
      <trkpt lat="45.32859" lon="6.03845">
        <ele>1275</ele>
        <time>2021-12-12T08:41:09Z</time>
      </trkpt>
      <trkpt lat="45.32857" lon="6.03847">
        <ele>1277</ele>
        <time>2021-12-12T08:41:13Z</time>
      </trkpt>
      <trkpt lat="45.32856" lon="6.03849">
        <ele>1277</ele>
        <time>2021-12-12T08:41:18Z</time>
      </trkpt>
      <trkpt lat="45.32855" lon="6.03852">
        <ele>1277</ele>
        <time>2021-12-12T08:41:21Z</time>
      </trkpt>
      <trkpt lat="45.32853" lon="6.03855">
        <ele>1279</ele>
        <time>2021-12-12T08:41:25Z</time>
      </trkpt>
      <trkpt lat="45.32852" lon="6.03858">
        <ele>1279</ele>
        <time>2021-12-12T08:41:30Z</time>
      </trkpt>
      <trkpt lat="45.3285" lon="6.03859">
        <ele>1281</ele>
        <time>2021-12-12T08:41:33Z</time>
      </trkpt>
      <trkpt lat="45.32847" lon="6.0386">
        <ele>1281</ele>
        <time>2021-12-12T08:41:37Z</time>
      </trkpt>
      <trkpt lat="45.32844" lon="6.03863">
        <ele>1281</ele>
        <time>2021-12-12T08:41:39Z</time>
      </trkpt>
      <trkpt lat="45.32843" lon="6.03866">
        <ele>1282</ele>
        <time>2021-12-12T08:41:42Z</time>
      </trkpt>
      <trkpt lat="45.32842" lon="6.03868">
        <ele>1282</ele>
        <time>2021-12-12T08:41:44Z</time>
      </trkpt>
      <trkpt lat="45.32839" lon="6.0387">
        <ele>1282</ele>
        <time>2021-12-12T08:41:47Z</time>
      </trkpt>
      <trkpt lat="45.32836" lon="6.03871">
        <ele>1282</ele>
        <time>2021-12-12T08:41:50Z</time>
      </trkpt>
      <trkpt lat="45.32834" lon="6.03871">
        <ele>1283</ele>
        <time>2021-12-12T08:41:53Z</time>
      </trkpt>
      <trkpt lat="45.32832" lon="6.03871">
        <ele>1283</ele>
        <time>2021-12-12T08:41:56Z</time>
      </trkpt>
      <trkpt lat="45.32831" lon="6.03872">
        <ele>1283</ele>
        <time>2021-12-12T08:41:57Z</time>
      </trkpt>
      <trkpt lat="45.32829" lon="6.03873">
        <ele>1283</ele>
        <time>2021-12-12T08:42:00Z</time>
      </trkpt>
      <trkpt lat="45.32827" lon="6.03875">
        <ele>1284</ele>
        <time>2021-12-12T08:42:02Z</time>
      </trkpt>
      <trkpt lat="45.32826" lon="6.03877">
        <ele>1284</ele>
        <time>2021-12-12T08:42:05Z</time>
      </trkpt>
      <trkpt lat="45.32825" lon="6.0388">
        <ele>1284</ele>
        <time>2021-12-12T08:42:08Z</time>
      </trkpt>
      <trkpt lat="45.32826" lon="6.03884">
        <ele>1284</ele>
        <time>2021-12-12T08:42:11Z</time>
      </trkpt>
      <trkpt lat="45.32826" lon="6.03887">
        <ele>1286</ele>
        <time>2021-12-12T08:42:13Z</time>
      </trkpt>
      <trkpt lat="45.32827" lon="6.0389">
        <ele>1286</ele>
        <time>2021-12-12T08:42:15Z</time>
      </trkpt>
      <trkpt lat="45.32827" lon="6.03893">
        <ele>1286</ele>
        <time>2021-12-12T08:42:18Z</time>
      </trkpt>
      <trkpt lat="45.32827" lon="6.03895">
        <ele>1286</ele>
        <time>2021-12-12T08:42:19Z</time>
      </trkpt>
      <trkpt lat="45.32827" lon="6.03898">
        <ele>1286</ele>
        <time>2021-12-12T08:42:22Z</time>
      </trkpt>
      <trkpt lat="45.32827" lon="6.03901">
        <ele>1286</ele>
        <time>2021-12-12T08:42:23Z</time>
      </trkpt>
      <trkpt lat="45.32828" lon="6.03905">
        <ele>1286</ele>
        <time>2021-12-12T08:42:25Z</time>
      </trkpt>
      <trkpt lat="45.32828" lon="6.03908">
        <ele>1286</ele>
        <time>2021-12-12T08:42:27Z</time>
      </trkpt>
      <trkpt lat="45.32828" lon="6.03911">
        <ele>1286</ele>
        <time>2021-12-12T08:42:29Z</time>
      </trkpt>
      <trkpt lat="45.32828" lon="6.03915">
        <ele>1286</ele>
        <time>2021-12-12T08:42:31Z</time>
      </trkpt>
      <trkpt lat="45.32827" lon="6.03918">
        <ele>1286</ele>
        <time>2021-12-12T08:42:34Z</time>
      </trkpt>
      <trkpt lat="45.32827" lon="6.03921">
        <ele>1286</ele>
        <time>2021-12-12T08:42:36Z</time>
      </trkpt>
      <trkpt lat="45.32826" lon="6.03923">
        <ele>1286</ele>
        <time>2021-12-12T08:42:38Z</time>
      </trkpt>
      <trkpt lat="45.32824" lon="6.03926">
        <ele>1286</ele>
        <time>2021-12-12T08:42:41Z</time>
      </trkpt>
      <trkpt lat="45.32823" lon="6.03929">
        <ele>1287</ele>
        <time>2021-12-12T08:42:44Z</time>
      </trkpt>
      <trkpt lat="45.32823" lon="6.03931">
        <ele>1287</ele>
        <time>2021-12-12T08:42:48Z</time>
      </trkpt>
      <trkpt lat="45.32822" lon="6.03934">
        <ele>1287</ele>
        <time>2021-12-12T08:42:50Z</time>
      </trkpt>
      <trkpt lat="45.32821" lon="6.03937">
        <ele>1288</ele>
        <time>2021-12-12T08:42:54Z</time>
      </trkpt>
      <trkpt lat="45.3282" lon="6.0394">
        <ele>1288</ele>
        <time>2021-12-12T08:42:56Z</time>
      </trkpt>
      <trkpt lat="45.3282" lon="6.03943">
        <ele>1288</ele>
        <time>2021-12-12T08:42:59Z</time>
      </trkpt>
      <trkpt lat="45.3282" lon="6.03946">
        <ele>1288</ele>
        <time>2021-12-12T08:43:01Z</time>
      </trkpt>
      <trkpt lat="45.32819" lon="6.03949">
        <ele>1290</ele>
        <time>2021-12-12T08:43:04Z</time>
      </trkpt>
      <trkpt lat="45.32819" lon="6.03952">
        <ele>1290</ele>
        <time>2021-12-12T08:43:06Z</time>
      </trkpt>
      <trkpt lat="45.32818" lon="6.03955">
        <ele>1290</ele>
        <time>2021-12-12T08:43:08Z</time>
      </trkpt>
      <trkpt lat="45.32817" lon="6.03957">
        <ele>1290</ele>
        <time>2021-12-12T08:43:12Z</time>
      </trkpt>
      <trkpt lat="45.32816" lon="6.03961">
        <ele>1290</ele>
        <time>2021-12-12T08:43:15Z</time>
      </trkpt>
      <trkpt lat="45.32816" lon="6.03965">
        <ele>1290</ele>
        <time>2021-12-12T08:43:18Z</time>
      </trkpt>
      <trkpt lat="45.32816" lon="6.03967">
        <ele>1290</ele>
        <time>2021-12-12T08:43:20Z</time>
      </trkpt>
      <trkpt lat="45.32815" lon="6.0397">
        <ele>1292</ele>
        <time>2021-12-12T08:43:22Z</time>
      </trkpt>
      <trkpt lat="45.32814" lon="6.03973">
        <ele>1292</ele>
        <time>2021-12-12T08:43:24Z</time>
      </trkpt>
      <trkpt lat="45.32813" lon="6.03976">
        <ele>1292</ele>
        <time>2021-12-12T08:43:26Z</time>
      </trkpt>
      <trkpt lat="45.32811" lon="6.03977">
        <ele>1292</ele>
        <time>2021-12-12T08:43:29Z</time>
      </trkpt>
      <trkpt lat="45.32809" lon="6.03979">
        <ele>1292</ele>
        <time>2021-12-12T08:43:31Z</time>
      </trkpt>
      <trkpt lat="45.32807" lon="6.03981">
        <ele>1293</ele>
        <time>2021-12-12T08:43:33Z</time>
      </trkpt>
      <trkpt lat="45.32806" lon="6.03983">
        <ele>1293</ele>
        <time>2021-12-12T08:43:35Z</time>
      </trkpt>
      <trkpt lat="45.32805" lon="6.03985">
        <ele>1293</ele>
        <time>2021-12-12T08:43:37Z</time>
      </trkpt>
      <trkpt lat="45.32803" lon="6.03986">
        <ele>1293</ele>
        <time>2021-12-12T08:43:39Z</time>
      </trkpt>
      <trkpt lat="45.32801" lon="6.03988">
        <ele>1294</ele>
        <time>2021-12-12T08:43:42Z</time>
      </trkpt>
      <trkpt lat="45.32799" lon="6.0399">
        <ele>1294</ele>
        <time>2021-12-12T08:43:44Z</time>
      </trkpt>
      <trkpt lat="45.32797" lon="6.03991">
        <ele>1294</ele>
        <time>2021-12-12T08:43:46Z</time>
      </trkpt>
      <trkpt lat="45.32795" lon="6.03993">
        <ele>1294</ele>
        <time>2021-12-12T08:43:48Z</time>
      </trkpt>
      <trkpt lat="45.32794" lon="6.03995">
        <ele>1294</ele>
        <time>2021-12-12T08:43:51Z</time>
      </trkpt>
      <trkpt lat="45.32792" lon="6.03998">
        <ele>1294</ele>
        <time>2021-12-12T08:43:53Z</time>
      </trkpt>
      <trkpt lat="45.3279" lon="6.04">
        <ele>1294</ele>
        <time>2021-12-12T08:43:56Z</time>
      </trkpt>
      <trkpt lat="45.32788" lon="6.04002">
        <ele>1294</ele>
        <time>2021-12-12T08:43:58Z</time>
      </trkpt>
      <trkpt lat="45.32787" lon="6.04003">
        <ele>1294</ele>
        <time>2021-12-12T08:44:00Z</time>
      </trkpt>
      <trkpt lat="45.32784" lon="6.04004">
        <ele>1295</ele>
        <time>2021-12-12T08:44:02Z</time>
      </trkpt>
      <trkpt lat="45.32782" lon="6.04005">
        <ele>1295</ele>
        <time>2021-12-12T08:44:04Z</time>
      </trkpt>
      <trkpt lat="45.3278" lon="6.04005">
        <ele>1295</ele>
        <time>2021-12-12T08:44:06Z</time>
      </trkpt>
      <trkpt lat="45.32777" lon="6.04007">
        <ele>1295</ele>
        <time>2021-12-12T08:44:09Z</time>
      </trkpt>
      <trkpt lat="45.32775" lon="6.04008">
        <ele>1295</ele>
        <time>2021-12-12T08:44:11Z</time>
      </trkpt>
      <trkpt lat="45.32772" lon="6.0401">
        <ele>1295</ele>
        <time>2021-12-12T08:44:13Z</time>
      </trkpt>
      <trkpt lat="45.3277" lon="6.04011">
        <ele>1295</ele>
        <time>2021-12-12T08:44:15Z</time>
      </trkpt>
      <trkpt lat="45.32768" lon="6.04012">
        <ele>1295</ele>
        <time>2021-12-12T08:44:17Z</time>
      </trkpt>
      <trkpt lat="45.32765" lon="6.04014">
        <ele>1295</ele>
        <time>2021-12-12T08:44:20Z</time>
      </trkpt>
      <trkpt lat="45.32763" lon="6.04015">
        <ele>1296</ele>
        <time>2021-12-12T08:44:22Z</time>
      </trkpt>
      <trkpt lat="45.3276" lon="6.04017">
        <ele>1296</ele>
        <time>2021-12-12T08:44:25Z</time>
      </trkpt>
      <trkpt lat="45.32758" lon="6.04018">
        <ele>1296</ele>
        <time>2021-12-12T08:44:28Z</time>
      </trkpt>
      <trkpt lat="45.32757" lon="6.04019">
        <ele>1296</ele>
        <time>2021-12-12T08:44:29Z</time>
      </trkpt>
      <trkpt lat="45.32755" lon="6.04021">
        <ele>1296</ele>
        <time>2021-12-12T08:44:31Z</time>
      </trkpt>
      <trkpt lat="45.32753" lon="6.04022">
        <ele>1297</ele>
        <time>2021-12-12T08:44:34Z</time>
      </trkpt>
      <trkpt lat="45.32751" lon="6.04024">
        <ele>1297</ele>
        <time>2021-12-12T08:44:35Z</time>
      </trkpt>
      <trkpt lat="45.32749" lon="6.04025">
        <ele>1297</ele>
        <time>2021-12-12T08:44:37Z</time>
      </trkpt>
      <trkpt lat="45.32747" lon="6.04026">
        <ele>1297</ele>
        <time>2021-12-12T08:44:40Z</time>
      </trkpt>
      <trkpt lat="45.32745" lon="6.04027">
        <ele>1297</ele>
        <time>2021-12-12T08:44:42Z</time>
      </trkpt>
      <trkpt lat="45.32743" lon="6.04028">
        <ele>1297</ele>
        <time>2021-12-12T08:44:44Z</time>
      </trkpt>
      <trkpt lat="45.3274" lon="6.04029">
        <ele>1297</ele>
        <time>2021-12-12T08:44:47Z</time>
      </trkpt>
      <trkpt lat="45.32738" lon="6.0403">
        <ele>1297</ele>
        <time>2021-12-12T08:44:51Z</time>
      </trkpt>
      <trkpt lat="45.32736" lon="6.0403">
        <ele>1298</ele>
        <time>2021-12-12T08:44:54Z</time>
      </trkpt>
      <trkpt lat="45.32734" lon="6.0403">
        <ele>1298</ele>
        <time>2021-12-12T08:44:56Z</time>
      </trkpt>
      <trkpt lat="45.32732" lon="6.04032">
        <ele>1298</ele>
        <time>2021-12-12T08:44:58Z</time>
      </trkpt>
      <trkpt lat="45.3273" lon="6.04033">
        <ele>1298</ele>
        <time>2021-12-12T08:45:00Z</time>
      </trkpt>
      <trkpt lat="45.32728" lon="6.04035">
        <ele>1300</ele>
        <time>2021-12-12T08:45:02Z</time>
      </trkpt>
      <trkpt lat="45.32725" lon="6.04036">
        <ele>1300</ele>
        <time>2021-12-12T08:45:06Z</time>
      </trkpt>
      <trkpt lat="45.32723" lon="6.04037">
        <ele>1300</ele>
        <time>2021-12-12T08:45:08Z</time>
      </trkpt>
      <trkpt lat="45.3272" lon="6.04038">
        <ele>1300</ele>
        <time>2021-12-12T08:45:10Z</time>
      </trkpt>
      <trkpt lat="45.32719" lon="6.04039">
        <ele>1301</ele>
        <time>2021-12-12T08:45:13Z</time>
      </trkpt>
      <trkpt lat="45.32717" lon="6.0404">
        <ele>1301</ele>
        <time>2021-12-12T08:45:14Z</time>
      </trkpt>
      <trkpt lat="45.32714" lon="6.0404">
        <ele>1301</ele>
        <time>2021-12-12T08:45:16Z</time>
      </trkpt>
      <trkpt lat="45.32712" lon="6.04041">
        <ele>1301</ele>
        <time>2021-12-12T08:45:18Z</time>
      </trkpt>
      <trkpt lat="45.3271" lon="6.04042">
        <ele>1301</ele>
        <time>2021-12-12T08:45:21Z</time>
      </trkpt>
      <trkpt lat="45.32708" lon="6.04043">
        <ele>1303</ele>
        <time>2021-12-12T08:45:22Z</time>
      </trkpt>
      <trkpt lat="45.32706" lon="6.04043">
        <ele>1303</ele>
        <time>2021-12-12T08:45:25Z</time>
      </trkpt>
      <trkpt lat="45.32704" lon="6.04043">
        <ele>1303</ele>
        <time>2021-12-12T08:45:26Z</time>
      </trkpt>
      <trkpt lat="45.32702" lon="6.04044">
        <ele>1303</ele>
        <time>2021-12-12T08:45:28Z</time>
      </trkpt>
      <trkpt lat="45.327" lon="6.04044">
        <ele>1303</ele>
        <time>2021-12-12T08:45:30Z</time>
      </trkpt>
      <trkpt lat="45.32698" lon="6.04045">
        <ele>1303</ele>
        <time>2021-12-12T08:45:32Z</time>
      </trkpt>
      <trkpt lat="45.32696" lon="6.04045">
        <ele>1303</ele>
        <time>2021-12-12T08:45:34Z</time>
      </trkpt>
      <trkpt lat="45.32693" lon="6.04046">
        <ele>1303</ele>
        <time>2021-12-12T08:45:36Z</time>
      </trkpt>
      <trkpt lat="45.32691" lon="6.04047">
        <ele>1303</ele>
        <time>2021-12-12T08:45:38Z</time>
      </trkpt>
      <trkpt lat="45.32689" lon="6.04048">
        <ele>1303</ele>
        <time>2021-12-12T08:45:40Z</time>
      </trkpt>
      <trkpt lat="45.32687" lon="6.04048">
        <ele>1303</ele>
        <time>2021-12-12T08:45:42Z</time>
      </trkpt>
      <trkpt lat="45.32686" lon="6.04049">
        <ele>1303</ele>
        <time>2021-12-12T08:45:44Z</time>
      </trkpt>
      <trkpt lat="45.32684" lon="6.0405">
        <ele>1303</ele>
        <time>2021-12-12T08:45:46Z</time>
      </trkpt>
      <trkpt lat="45.32682" lon="6.04052">
        <ele>1303</ele>
        <time>2021-12-12T08:45:48Z</time>
      </trkpt>
      <trkpt lat="45.3268" lon="6.04053">
        <ele>1303</ele>
        <time>2021-12-12T08:45:50Z</time>
      </trkpt>
      <trkpt lat="45.32678" lon="6.04054">
        <ele>1305</ele>
        <time>2021-12-12T08:45:52Z</time>
      </trkpt>
      <trkpt lat="45.32676" lon="6.04055">
        <ele>1305</ele>
        <time>2021-12-12T08:45:54Z</time>
      </trkpt>
      <trkpt lat="45.32674" lon="6.04056">
        <ele>1305</ele>
        <time>2021-12-12T08:45:56Z</time>
      </trkpt>
      <trkpt lat="45.32673" lon="6.04058">
        <ele>1305</ele>
        <time>2021-12-12T08:45:58Z</time>
      </trkpt>
      <trkpt lat="45.32671" lon="6.04059">
        <ele>1305</ele>
        <time>2021-12-12T08:46:00Z</time>
      </trkpt>
      <trkpt lat="45.32669" lon="6.0406">
        <ele>1305</ele>
        <time>2021-12-12T08:46:03Z</time>
      </trkpt>
      <trkpt lat="45.32667" lon="6.04062">
        <ele>1305</ele>
        <time>2021-12-12T08:46:04Z</time>
      </trkpt>
      <trkpt lat="45.32665" lon="6.04063">
        <ele>1305</ele>
        <time>2021-12-12T08:46:07Z</time>
      </trkpt>
      <trkpt lat="45.32662" lon="6.04065">
        <ele>1305</ele>
        <time>2021-12-12T08:46:12Z</time>
      </trkpt>
      <trkpt lat="45.3266" lon="6.04066">
        <ele>1305</ele>
        <time>2021-12-12T08:46:14Z</time>
      </trkpt>
      <trkpt lat="45.32658" lon="6.04067">
        <ele>1305</ele>
        <time>2021-12-12T08:46:17Z</time>
      </trkpt>
      <trkpt lat="45.32657" lon="6.04064">
        <ele>1307</ele>
        <time>2021-12-12T08:47:34Z</time>
      </trkpt>
      <trkpt lat="45.32657" lon="6.04067">
        <ele>1306</ele>
        <time>2021-12-12T08:50:42Z</time>
      </trkpt>
      <trkpt lat="45.32655" lon="6.04069">
        <ele>1306</ele>
        <time>2021-12-12T08:50:45Z</time>
      </trkpt>
      <trkpt lat="45.32653" lon="6.0407">
        <ele>1306</ele>
        <time>2021-12-12T08:50:48Z</time>
      </trkpt>
      <trkpt lat="45.3265" lon="6.04072">
        <ele>1306</ele>
        <time>2021-12-12T08:50:49Z</time>
      </trkpt>
      <trkpt lat="45.32647" lon="6.04074">
        <ele>1306</ele>
        <time>2021-12-12T08:50:51Z</time>
      </trkpt>
      <trkpt lat="45.32645" lon="6.04075">
        <ele>1306</ele>
        <time>2021-12-12T08:50:53Z</time>
      </trkpt>
      <trkpt lat="45.32642" lon="6.04077">
        <ele>1306</ele>
        <time>2021-12-12T08:50:55Z</time>
      </trkpt>
      <trkpt lat="45.3264" lon="6.04079">
        <ele>1306</ele>
        <time>2021-12-12T08:50:58Z</time>
      </trkpt>
      <trkpt lat="45.32638" lon="6.0408">
        <ele>1306</ele>
        <time>2021-12-12T08:50:59Z</time>
      </trkpt>
      <trkpt lat="45.32636" lon="6.04082">
        <ele>1306</ele>
        <time>2021-12-12T08:51:01Z</time>
      </trkpt>
      <trkpt lat="45.32634" lon="6.04084">
        <ele>1305</ele>
        <time>2021-12-12T08:51:03Z</time>
      </trkpt>
      <trkpt lat="45.32632" lon="6.04087">
        <ele>1305</ele>
        <time>2021-12-12T08:51:05Z</time>
      </trkpt>
      <trkpt lat="45.3263" lon="6.04089">
        <ele>1305</ele>
        <time>2021-12-12T08:51:07Z</time>
      </trkpt>
      <trkpt lat="45.32628" lon="6.04091">
        <ele>1305</ele>
        <time>2021-12-12T08:51:09Z</time>
      </trkpt>
      <trkpt lat="45.32627" lon="6.04093">
        <ele>1305</ele>
        <time>2021-12-12T08:51:11Z</time>
      </trkpt>
      <trkpt lat="45.32625" lon="6.04096">
        <ele>1305</ele>
        <time>2021-12-12T08:51:13Z</time>
      </trkpt>
      <trkpt lat="45.32623" lon="6.04098">
        <ele>1305</ele>
        <time>2021-12-12T08:51:15Z</time>
      </trkpt>
      <trkpt lat="45.32621" lon="6.041">
        <ele>1305</ele>
        <time>2021-12-12T08:51:17Z</time>
      </trkpt>
      <trkpt lat="45.32619" lon="6.04101">
        <ele>1305</ele>
        <time>2021-12-12T08:51:19Z</time>
      </trkpt>
      <trkpt lat="45.32617" lon="6.041">
        <ele>1305</ele>
        <time>2021-12-12T08:51:21Z</time>
      </trkpt>
      <trkpt lat="45.32615" lon="6.041">
        <ele>1304</ele>
        <time>2021-12-12T08:51:23Z</time>
      </trkpt>
      <trkpt lat="45.32613" lon="6.041">
        <ele>1304</ele>
        <time>2021-12-12T08:51:26Z</time>
      </trkpt>
      <trkpt lat="45.32611" lon="6.041">
        <ele>1304</ele>
        <time>2021-12-12T08:51:27Z</time>
      </trkpt>
      <trkpt lat="45.32609" lon="6.041">
        <ele>1304</ele>
        <time>2021-12-12T08:51:29Z</time>
      </trkpt>
      <trkpt lat="45.32607" lon="6.041">
        <ele>1305</ele>
        <time>2021-12-12T08:51:32Z</time>
      </trkpt>
      <trkpt lat="45.32604" lon="6.04099">
        <ele>1305</ele>
        <time>2021-12-12T08:51:35Z</time>
      </trkpt>
      <trkpt lat="45.32602" lon="6.04099">
        <ele>1305</ele>
        <time>2021-12-12T08:51:37Z</time>
      </trkpt>
      <trkpt lat="45.32599" lon="6.04099">
        <ele>1305</ele>
        <time>2021-12-12T08:51:40Z</time>
      </trkpt>
      <trkpt lat="45.32597" lon="6.041">
        <ele>1306</ele>
        <time>2021-12-12T08:51:42Z</time>
      </trkpt>
      <trkpt lat="45.32595" lon="6.041">
        <ele>1306</ele>
        <time>2021-12-12T08:51:45Z</time>
      </trkpt>
      <trkpt lat="45.32593" lon="6.04099">
        <ele>1306</ele>
        <time>2021-12-12T08:51:48Z</time>
      </trkpt>
      <trkpt lat="45.32591" lon="6.04097">
        <ele>1306</ele>
        <time>2021-12-12T08:51:50Z</time>
      </trkpt>
      <trkpt lat="45.32589" lon="6.04097">
        <ele>1307</ele>
        <time>2021-12-12T08:51:53Z</time>
      </trkpt>
      <trkpt lat="45.32587" lon="6.04097">
        <ele>1307</ele>
        <time>2021-12-12T08:51:55Z</time>
      </trkpt>
      <trkpt lat="45.32584" lon="6.04097">
        <ele>1307</ele>
        <time>2021-12-12T08:51:57Z</time>
      </trkpt>
      <trkpt lat="45.32582" lon="6.04097">
        <ele>1307</ele>
        <time>2021-12-12T08:52:01Z</time>
      </trkpt>
      <trkpt lat="45.3258" lon="6.04097">
        <ele>1308</ele>
        <time>2021-12-12T08:52:04Z</time>
      </trkpt>
      <trkpt lat="45.32578" lon="6.04098">
        <ele>1308</ele>
        <time>2021-12-12T08:52:07Z</time>
      </trkpt>
      <trkpt lat="45.32576" lon="6.04098">
        <ele>1308</ele>
        <time>2021-12-12T08:52:10Z</time>
      </trkpt>
      <trkpt lat="45.32573" lon="6.04098">
        <ele>1310</ele>
        <time>2021-12-12T08:52:14Z</time>
      </trkpt>
      <trkpt lat="45.32571" lon="6.04099">
        <ele>1310</ele>
        <time>2021-12-12T08:52:16Z</time>
      </trkpt>
      <trkpt lat="45.3257" lon="6.04097">
        <ele>1312</ele>
        <time>2021-12-12T08:52:23Z</time>
      </trkpt>
      <trkpt lat="45.32567" lon="6.04096">
        <ele>1312</ele>
        <time>2021-12-12T08:52:25Z</time>
      </trkpt>
      <trkpt lat="45.32565" lon="6.04095">
        <ele>1312</ele>
        <time>2021-12-12T08:52:28Z</time>
      </trkpt>
      <trkpt lat="45.32563" lon="6.04095">
        <ele>1312</ele>
        <time>2021-12-12T08:52:30Z</time>
      </trkpt>
      <trkpt lat="45.32561" lon="6.04094">
        <ele>1314</ele>
        <time>2021-12-12T08:52:32Z</time>
      </trkpt>
      <trkpt lat="45.32558" lon="6.04093">
        <ele>1314</ele>
        <time>2021-12-12T08:52:35Z</time>
      </trkpt>
      <trkpt lat="45.32556" lon="6.04091">
        <ele>1314</ele>
        <time>2021-12-12T08:52:38Z</time>
      </trkpt>
      <trkpt lat="45.32555" lon="6.04089">
        <ele>1316</ele>
        <time>2021-12-12T08:52:42Z</time>
      </trkpt>
      <trkpt lat="45.32553" lon="6.04087">
        <ele>1316</ele>
        <time>2021-12-12T08:52:44Z</time>
      </trkpt>
      <trkpt lat="45.32551" lon="6.04085">
        <ele>1316</ele>
        <time>2021-12-12T08:52:47Z</time>
      </trkpt>
      <trkpt lat="45.32549" lon="6.04086">
        <ele>1316</ele>
        <time>2021-12-12T08:52:49Z</time>
      </trkpt>
      <trkpt lat="45.32547" lon="6.04083">
        <ele>1318</ele>
        <time>2021-12-12T08:52:52Z</time>
      </trkpt>
      <trkpt lat="45.32546" lon="6.04081">
        <ele>1318</ele>
        <time>2021-12-12T08:52:58Z</time>
      </trkpt>
      <trkpt lat="45.32546" lon="6.04078">
        <ele>1318</ele>
        <time>2021-12-12T08:53:01Z</time>
      </trkpt>
      <trkpt lat="45.32546" lon="6.04076">
        <ele>1319</ele>
        <time>2021-12-12T08:53:02Z</time>
      </trkpt>
      <trkpt lat="45.32545" lon="6.04073">
        <ele>1319</ele>
        <time>2021-12-12T08:53:06Z</time>
      </trkpt>
      <trkpt lat="45.32544" lon="6.0407">
        <ele>1319</ele>
        <time>2021-12-12T08:53:09Z</time>
      </trkpt>
      <trkpt lat="45.32543" lon="6.04068">
        <ele>1320</ele>
        <time>2021-12-12T08:53:12Z</time>
      </trkpt>
      <trkpt lat="45.32541" lon="6.04065">
        <ele>1320</ele>
        <time>2021-12-12T08:53:16Z</time>
      </trkpt>
      <trkpt lat="45.32539" lon="6.04063">
        <ele>1320</ele>
        <time>2021-12-12T08:53:18Z</time>
      </trkpt>
      <trkpt lat="45.32537" lon="6.04063">
        <ele>1322</ele>
        <time>2021-12-12T08:53:22Z</time>
      </trkpt>
      <trkpt lat="45.32535" lon="6.04062">
        <ele>1322</ele>
        <time>2021-12-12T08:53:26Z</time>
      </trkpt>
      <trkpt lat="45.32533" lon="6.0406">
        <ele>1322</ele>
        <time>2021-12-12T08:53:29Z</time>
      </trkpt>
      <trkpt lat="45.32532" lon="6.04058">
        <ele>1325</ele>
        <time>2021-12-12T08:53:34Z</time>
      </trkpt>
      <trkpt lat="45.3253" lon="6.04056">
        <ele>1325</ele>
        <time>2021-12-12T08:53:39Z</time>
      </trkpt>
      <trkpt lat="45.32529" lon="6.04056">
        <ele>1325</ele>
        <time>2021-12-12T08:53:41Z</time>
      </trkpt>
      <trkpt lat="45.32526" lon="6.04055">
        <ele>1327</ele>
        <time>2021-12-12T08:53:46Z</time>
      </trkpt>
      <trkpt lat="45.32524" lon="6.04056">
        <ele>1328</ele>
        <time>2021-12-12T08:53:55Z</time>
      </trkpt>
      <trkpt lat="45.32523" lon="6.04059">
        <ele>1328</ele>
        <time>2021-12-12T08:53:59Z</time>
      </trkpt>
      <trkpt lat="45.32522" lon="6.0406">
        <ele>1331</ele>
        <time>2021-12-12T08:54:03Z</time>
      </trkpt>
      <trkpt lat="45.32519" lon="6.04061">
        <ele>1331</ele>
        <time>2021-12-12T08:54:06Z</time>
      </trkpt>
      <trkpt lat="45.32516" lon="6.0406">
        <ele>1331</ele>
        <time>2021-12-12T08:54:09Z</time>
      </trkpt>
      <trkpt lat="45.32513" lon="6.04059">
        <ele>1332</ele>
        <time>2021-12-12T08:54:12Z</time>
      </trkpt>
      <trkpt lat="45.32511" lon="6.04058">
        <ele>1332</ele>
        <time>2021-12-12T08:54:15Z</time>
      </trkpt>
      <trkpt lat="45.32509" lon="6.04057">
        <ele>1332</ele>
        <time>2021-12-12T08:54:21Z</time>
      </trkpt>
      <trkpt lat="45.32507" lon="6.04056">
        <ele>1333</ele>
        <time>2021-12-12T08:54:24Z</time>
      </trkpt>
      <trkpt lat="45.32504" lon="6.04055">
        <ele>1333</ele>
        <time>2021-12-12T08:54:28Z</time>
      </trkpt>
      <trkpt lat="45.32503" lon="6.04053">
        <ele>1333</ele>
        <time>2021-12-12T08:54:30Z</time>
      </trkpt>
      <trkpt lat="45.325" lon="6.04052">
        <ele>1334</ele>
        <time>2021-12-12T08:54:33Z</time>
      </trkpt>
      <trkpt lat="45.32498" lon="6.04052">
        <ele>1334</ele>
        <time>2021-12-12T08:54:36Z</time>
      </trkpt>
      <trkpt lat="45.32496" lon="6.04051">
        <ele>1334</ele>
        <time>2021-12-12T08:54:38Z</time>
      </trkpt>
      <trkpt lat="45.32494" lon="6.04049">
        <ele>1336</ele>
        <time>2021-12-12T08:54:42Z</time>
      </trkpt>
      <trkpt lat="45.32492" lon="6.04048">
        <ele>1336</ele>
        <time>2021-12-12T08:54:48Z</time>
      </trkpt>
      <trkpt lat="45.3249" lon="6.04048">
        <ele>1336</ele>
        <time>2021-12-12T08:54:51Z</time>
      </trkpt>
      <trkpt lat="45.32488" lon="6.04047">
        <ele>1339</ele>
        <time>2021-12-12T08:54:56Z</time>
      </trkpt>
      <trkpt lat="45.32486" lon="6.04048">
        <ele>1339</ele>
        <time>2021-12-12T08:54:59Z</time>
      </trkpt>
      <trkpt lat="45.32484" lon="6.04048">
        <ele>1339</ele>
        <time>2021-12-12T08:55:01Z</time>
      </trkpt>
      <trkpt lat="45.32481" lon="6.04048">
        <ele>1339</ele>
        <time>2021-12-12T08:55:04Z</time>
      </trkpt>
      <trkpt lat="45.32479" lon="6.04048">
        <ele>1339</ele>
        <time>2021-12-12T08:55:07Z</time>
      </trkpt>
      <trkpt lat="45.32477" lon="6.04048">
        <ele>1339</ele>
        <time>2021-12-12T08:55:10Z</time>
      </trkpt>
      <trkpt lat="45.32475" lon="6.04048">
        <ele>1340</ele>
        <time>2021-12-12T08:55:14Z</time>
      </trkpt>
      <trkpt lat="45.32473" lon="6.04048">
        <ele>1340</ele>
        <time>2021-12-12T08:55:17Z</time>
      </trkpt>
      <trkpt lat="45.32471" lon="6.04046">
        <ele>1340</ele>
        <time>2021-12-12T08:55:21Z</time>
      </trkpt>
      <trkpt lat="45.32469" lon="6.04045">
        <ele>1342</ele>
        <time>2021-12-12T08:55:24Z</time>
      </trkpt>
      <trkpt lat="45.32467" lon="6.04044">
        <ele>1342</ele>
        <time>2021-12-12T08:55:28Z</time>
      </trkpt>
      <trkpt lat="45.32465" lon="6.04043">
        <ele>1342</ele>
        <time>2021-12-12T08:55:30Z</time>
      </trkpt>
      <trkpt lat="45.32463" lon="6.04042">
        <ele>1346</ele>
        <time>2021-12-12T08:55:34Z</time>
      </trkpt>
      <trkpt lat="45.32461" lon="6.0404">
        <ele>1346</ele>
        <time>2021-12-12T08:55:36Z</time>
      </trkpt>
      <trkpt lat="45.32459" lon="6.04038">
        <ele>1346</ele>
        <time>2021-12-12T08:55:39Z</time>
      </trkpt>
      <trkpt lat="45.32457" lon="6.04037">
        <ele>1348</ele>
        <time>2021-12-12T08:55:44Z</time>
      </trkpt>
      <trkpt lat="45.32454" lon="6.04035">
        <ele>1348</ele>
        <time>2021-12-12T08:55:47Z</time>
      </trkpt>
      <trkpt lat="45.32452" lon="6.04036">
        <ele>1348</ele>
        <time>2021-12-12T08:55:50Z</time>
      </trkpt>
      <trkpt lat="45.32449" lon="6.04036">
        <ele>1347</ele>
        <time>2021-12-12T08:55:54Z</time>
      </trkpt>
      <trkpt lat="45.32447" lon="6.04035">
        <ele>1347</ele>
        <time>2021-12-12T08:55:57Z</time>
      </trkpt>
      <trkpt lat="45.32445" lon="6.04034">
        <ele>1347</ele>
        <time>2021-12-12T08:56:00Z</time>
      </trkpt>
      <trkpt lat="45.32443" lon="6.04035">
        <ele>1351</ele>
        <time>2021-12-12T08:56:04Z</time>
      </trkpt>
      <trkpt lat="45.32441" lon="6.04035">
        <ele>1351</ele>
        <time>2021-12-12T08:56:08Z</time>
      </trkpt>
      <trkpt lat="45.32439" lon="6.04035">
        <ele>1352</ele>
        <time>2021-12-12T08:56:12Z</time>
      </trkpt>
      <trkpt lat="45.32436" lon="6.04033">
        <ele>1352</ele>
        <time>2021-12-12T08:56:15Z</time>
      </trkpt>
      <trkpt lat="45.32435" lon="6.04032">
        <ele>1352</ele>
        <time>2021-12-12T08:56:18Z</time>
      </trkpt>
      <trkpt lat="45.32432" lon="6.04032">
        <ele>1351</ele>
        <time>2021-12-12T08:56:22Z</time>
      </trkpt>
      <trkpt lat="45.3243" lon="6.04031">
        <ele>1351</ele>
        <time>2021-12-12T08:56:25Z</time>
      </trkpt>
      <trkpt lat="45.32428" lon="6.04032">
        <ele>1351</ele>
        <time>2021-12-12T08:56:27Z</time>
      </trkpt>
      <trkpt lat="45.32426" lon="6.04031">
        <ele>1351</ele>
        <time>2021-12-12T08:56:30Z</time>
      </trkpt>
      <trkpt lat="45.32424" lon="6.0403">
        <ele>1353</ele>
        <time>2021-12-12T08:56:32Z</time>
      </trkpt>
      <trkpt lat="45.32422" lon="6.0403">
        <ele>1353</ele>
        <time>2021-12-12T08:56:36Z</time>
      </trkpt>
      <trkpt lat="45.3242" lon="6.04029">
        <ele>1353</ele>
        <time>2021-12-12T08:56:38Z</time>
      </trkpt>
      <trkpt lat="45.32418" lon="6.04029">
        <ele>1356</ele>
        <time>2021-12-12T08:56:42Z</time>
      </trkpt>
      <trkpt lat="45.32416" lon="6.04029">
        <ele>1356</ele>
        <time>2021-12-12T08:56:44Z</time>
      </trkpt>
      <trkpt lat="45.32414" lon="6.04029">
        <ele>1356</ele>
        <time>2021-12-12T08:56:47Z</time>
      </trkpt>
      <trkpt lat="45.32412" lon="6.04028">
        <ele>1356</ele>
        <time>2021-12-12T08:56:50Z</time>
      </trkpt>
      <trkpt lat="45.32409" lon="6.04028">
        <ele>1357</ele>
        <time>2021-12-12T08:56:53Z</time>
      </trkpt>
      <trkpt lat="45.32407" lon="6.04027">
        <ele>1357</ele>
        <time>2021-12-12T08:56:56Z</time>
      </trkpt>
      <trkpt lat="45.32405" lon="6.04027">
        <ele>1357</ele>
        <time>2021-12-12T08:56:59Z</time>
      </trkpt>
      <trkpt lat="45.32403" lon="6.04027">
        <ele>1357</ele>
        <time>2021-12-12T08:57:01Z</time>
      </trkpt>
      <trkpt lat="45.32402" lon="6.04029">
        <ele>1360</ele>
        <time>2021-12-12T08:57:04Z</time>
      </trkpt>
      <trkpt lat="45.324" lon="6.04028">
        <ele>1360</ele>
        <time>2021-12-12T08:57:09Z</time>
      </trkpt>
      <trkpt lat="45.32398" lon="6.04028">
        <ele>1360</ele>
        <time>2021-12-12T08:57:12Z</time>
      </trkpt>
      <trkpt lat="45.32396" lon="6.04027">
        <ele>1360</ele>
        <time>2021-12-12T08:57:15Z</time>
      </trkpt>
      <trkpt lat="45.32393" lon="6.04029">
        <ele>1360</ele>
        <time>2021-12-12T08:57:18Z</time>
      </trkpt>
      <trkpt lat="45.32391" lon="6.0403">
        <ele>1361</ele>
        <time>2021-12-12T08:57:22Z</time>
      </trkpt>
      <trkpt lat="45.32389" lon="6.04032">
        <ele>1361</ele>
        <time>2021-12-12T08:57:23Z</time>
      </trkpt>
      <trkpt lat="45.32387" lon="6.04032">
        <ele>1361</ele>
        <time>2021-12-12T08:57:25Z</time>
      </trkpt>
      <trkpt lat="45.32386" lon="6.04033">
        <ele>1361</ele>
        <time>2021-12-12T08:57:30Z</time>
      </trkpt>
      <trkpt lat="45.32384" lon="6.04034">
        <ele>1364</ele>
        <time>2021-12-12T08:57:33Z</time>
      </trkpt>
      <trkpt lat="45.32382" lon="6.04035">
        <ele>1364</ele>
        <time>2021-12-12T08:57:37Z</time>
      </trkpt>
      <trkpt lat="45.32379" lon="6.04036">
        <ele>1367</ele>
        <time>2021-12-12T08:57:42Z</time>
      </trkpt>
      <trkpt lat="45.32377" lon="6.04037">
        <ele>1367</ele>
        <time>2021-12-12T08:57:46Z</time>
      </trkpt>
      <trkpt lat="45.32375" lon="6.04038">
        <ele>1367</ele>
        <time>2021-12-12T08:57:49Z</time>
      </trkpt>
      <trkpt lat="45.32374" lon="6.04039">
        <ele>1368</ele>
        <time>2021-12-12T08:57:52Z</time>
      </trkpt>
      <trkpt lat="45.32371" lon="6.04041">
        <ele>1368</ele>
        <time>2021-12-12T08:57:58Z</time>
      </trkpt>
      <trkpt lat="45.32369" lon="6.04042">
        <ele>1368</ele>
        <time>2021-12-12T08:58:02Z</time>
      </trkpt>
      <trkpt lat="45.32367" lon="6.04043">
        <ele>1368</ele>
        <time>2021-12-12T08:58:03Z</time>
      </trkpt>
      <trkpt lat="45.32365" lon="6.04044">
        <ele>1368</ele>
        <time>2021-12-12T08:58:07Z</time>
      </trkpt>
      <trkpt lat="45.32364" lon="6.04045">
        <ele>1368</ele>
        <time>2021-12-12T08:58:10Z</time>
      </trkpt>
      <trkpt lat="45.32362" lon="6.04047">
        <ele>1370</ele>
        <time>2021-12-12T08:58:12Z</time>
      </trkpt>
      <trkpt lat="45.32361" lon="6.04049">
        <ele>1370</ele>
        <time>2021-12-12T08:58:16Z</time>
      </trkpt>
      <trkpt lat="45.32361" lon="6.04052">
        <ele>1373</ele>
        <time>2021-12-12T08:58:25Z</time>
      </trkpt>
      <trkpt lat="45.3236" lon="6.04055">
        <ele>1373</ele>
        <time>2021-12-12T08:58:28Z</time>
      </trkpt>
      <trkpt lat="45.3236" lon="6.04058">
        <ele>1373</ele>
        <time>2021-12-12T08:58:31Z</time>
      </trkpt>
      <trkpt lat="45.32361" lon="6.04062">
        <ele>1374</ele>
        <time>2021-12-12T08:58:35Z</time>
      </trkpt>
      <trkpt lat="45.32362" lon="6.04064">
        <ele>1374</ele>
        <time>2021-12-12T08:58:38Z</time>
      </trkpt>
      <trkpt lat="45.32363" lon="6.04066">
        <ele>1374</ele>
        <time>2021-12-12T08:58:42Z</time>
      </trkpt>
      <trkpt lat="45.32364" lon="6.04068">
        <ele>1376</ele>
        <time>2021-12-12T08:58:44Z</time>
      </trkpt>
      <trkpt lat="45.32366" lon="6.04071">
        <ele>1376</ele>
        <time>2021-12-12T08:58:48Z</time>
      </trkpt>
      <trkpt lat="45.32366" lon="6.04074">
        <ele>1378</ele>
        <time>2021-12-12T08:58:52Z</time>
      </trkpt>
      <trkpt lat="45.32367" lon="6.04077">
        <ele>1378</ele>
        <time>2021-12-12T08:58:55Z</time>
      </trkpt>
      <trkpt lat="45.32367" lon="6.0408">
        <ele>1378</ele>
        <time>2021-12-12T08:58:58Z</time>
      </trkpt>
      <trkpt lat="45.32368" lon="6.04083">
        <ele>1379</ele>
        <time>2021-12-12T08:59:02Z</time>
      </trkpt>
      <trkpt lat="45.32368" lon="6.04087">
        <ele>1379</ele>
        <time>2021-12-12T08:59:04Z</time>
      </trkpt>
      <trkpt lat="45.3237" lon="6.04089">
        <ele>1379</ele>
        <time>2021-12-12T08:59:06Z</time>
      </trkpt>
      <trkpt lat="45.3237" lon="6.04092">
        <ele>1379</ele>
        <time>2021-12-12T08:59:09Z</time>
      </trkpt>
      <trkpt lat="45.32371" lon="6.04095">
        <ele>1381</ele>
        <time>2021-12-12T08:59:13Z</time>
      </trkpt>
      <trkpt lat="45.32371" lon="6.04098">
        <ele>1381</ele>
        <time>2021-12-12T08:59:19Z</time>
      </trkpt>
      <trkpt lat="45.32371" lon="6.04101">
        <ele>1383</ele>
        <time>2021-12-12T08:59:24Z</time>
      </trkpt>
      <trkpt lat="45.32372" lon="6.04105">
        <ele>1383</ele>
        <time>2021-12-12T08:59:27Z</time>
      </trkpt>
      <trkpt lat="45.32372" lon="6.04109">
        <ele>1383</ele>
        <time>2021-12-12T08:59:30Z</time>
      </trkpt>
      <trkpt lat="45.32373" lon="6.04111">
        <ele>1384</ele>
        <time>2021-12-12T08:59:32Z</time>
      </trkpt>
      <trkpt lat="45.32374" lon="6.04115">
        <ele>1384</ele>
        <time>2021-12-12T08:59:35Z</time>
      </trkpt>
      <trkpt lat="45.32375" lon="6.04118">
        <ele>1384</ele>
        <time>2021-12-12T08:59:38Z</time>
      </trkpt>
      <trkpt lat="45.32376" lon="6.0412">
        <ele>1384</ele>
        <time>2021-12-12T08:59:41Z</time>
      </trkpt>
      <trkpt lat="45.32376" lon="6.04123">
        <ele>1386</ele>
        <time>2021-12-12T08:59:44Z</time>
      </trkpt>
      <trkpt lat="45.32377" lon="6.04125">
        <ele>1386</ele>
        <time>2021-12-12T08:59:47Z</time>
      </trkpt>
      <trkpt lat="45.32378" lon="6.04128">
        <ele>1386</ele>
        <time>2021-12-12T08:59:50Z</time>
      </trkpt>
      <trkpt lat="45.32379" lon="6.0413">
        <ele>1388</ele>
        <time>2021-12-12T08:59:53Z</time>
      </trkpt>
      <trkpt lat="45.3238" lon="6.04133">
        <ele>1388</ele>
        <time>2021-12-12T08:59:56Z</time>
      </trkpt>
      <trkpt lat="45.32381" lon="6.04136">
        <ele>1388</ele>
        <time>2021-12-12T08:59:59Z</time>
      </trkpt>
      <trkpt lat="45.32383" lon="6.04138">
        <ele>1388</ele>
        <time>2021-12-12T09:00:03Z</time>
      </trkpt>
      <trkpt lat="45.32385" lon="6.04139">
        <ele>1388</ele>
        <time>2021-12-12T09:00:05Z</time>
      </trkpt>
      <trkpt lat="45.32385" lon="6.04142">
        <ele>1388</ele>
        <time>2021-12-12T09:00:08Z</time>
      </trkpt>
      <trkpt lat="45.32387" lon="6.04145">
        <ele>1390</ele>
        <time>2021-12-12T09:00:12Z</time>
      </trkpt>
      <trkpt lat="45.32388" lon="6.04148">
        <ele>1390</ele>
        <time>2021-12-12T09:00:16Z</time>
      </trkpt>
      <trkpt lat="45.3239" lon="6.0415">
        <ele>1390</ele>
        <time>2021-12-12T09:00:19Z</time>
      </trkpt>
      <trkpt lat="45.32391" lon="6.04152">
        <ele>1390</ele>
        <time>2021-12-12T09:00:21Z</time>
      </trkpt>
      <trkpt lat="45.32392" lon="6.04154">
        <ele>1393</ele>
        <time>2021-12-12T09:00:25Z</time>
      </trkpt>
      <trkpt lat="45.32393" lon="6.04156">
        <ele>1393</ele>
        <time>2021-12-12T09:00:27Z</time>
      </trkpt>
      <trkpt lat="45.32395" lon="6.04158">
        <ele>1393</ele>
        <time>2021-12-12T09:00:30Z</time>
      </trkpt>
      <trkpt lat="45.32396" lon="6.0416">
        <ele>1395</ele>
        <time>2021-12-12T09:00:32Z</time>
      </trkpt>
      <trkpt lat="45.32397" lon="6.04163">
        <ele>1395</ele>
        <time>2021-12-12T09:00:35Z</time>
      </trkpt>
      <trkpt lat="45.32398" lon="6.04165">
        <ele>1395</ele>
        <time>2021-12-12T09:00:39Z</time>
      </trkpt>
      <trkpt lat="45.32399" lon="6.04168">
        <ele>1395</ele>
        <time>2021-12-12T09:00:43Z</time>
      </trkpt>
      <trkpt lat="45.32399" lon="6.0417">
        <ele>1395</ele>
        <time>2021-12-12T09:00:46Z</time>
      </trkpt>
      <trkpt lat="45.32401" lon="6.04173">
        <ele>1395</ele>
        <time>2021-12-12T09:00:49Z</time>
      </trkpt>
      <trkpt lat="45.32402" lon="6.04176">
        <ele>1395</ele>
        <time>2021-12-12T09:00:51Z</time>
      </trkpt>
      <trkpt lat="45.32404" lon="6.04177">
        <ele>1397</ele>
        <time>2021-12-12T09:00:56Z</time>
      </trkpt>
      <trkpt lat="45.32405" lon="6.0418">
        <ele>1397</ele>
        <time>2021-12-12T09:00:58Z</time>
      </trkpt>
      <trkpt lat="45.32406" lon="6.04182">
        <ele>1397</ele>
        <time>2021-12-12T09:01:01Z</time>
      </trkpt>
      <trkpt lat="45.32409" lon="6.04184">
        <ele>1400</ele>
        <time>2021-12-12T09:01:04Z</time>
      </trkpt>
      <trkpt lat="45.3241" lon="6.04186">
        <ele>1400</ele>
        <time>2021-12-12T09:01:08Z</time>
      </trkpt>
      <trkpt lat="45.32413" lon="6.04188">
        <ele>1400</ele>
        <time>2021-12-12T09:01:11Z</time>
      </trkpt>
      <trkpt lat="45.32414" lon="6.0419">
        <ele>1401</ele>
        <time>2021-12-12T09:01:15Z</time>
      </trkpt>
      <trkpt lat="45.32416" lon="6.04191">
        <ele>1401</ele>
        <time>2021-12-12T09:01:16Z</time>
      </trkpt>
      <trkpt lat="45.32417" lon="6.04194">
        <ele>1401</ele>
        <time>2021-12-12T09:01:18Z</time>
      </trkpt>
      <trkpt lat="45.32418" lon="6.04197">
        <ele>1401</ele>
        <time>2021-12-12T09:01:21Z</time>
      </trkpt>
      <trkpt lat="45.32419" lon="6.042">
        <ele>1401</ele>
        <time>2021-12-12T09:01:25Z</time>
      </trkpt>
      <trkpt lat="45.3242" lon="6.04202">
        <ele>1401</ele>
        <time>2021-12-12T09:01:28Z</time>
      </trkpt>
      <trkpt lat="45.3242" lon="6.04205">
        <ele>1401</ele>
        <time>2021-12-12T09:01:31Z</time>
      </trkpt>
      <trkpt lat="45.32421" lon="6.04208">
        <ele>1403</ele>
        <time>2021-12-12T09:01:36Z</time>
      </trkpt>
      <trkpt lat="45.32422" lon="6.04211">
        <ele>1403</ele>
        <time>2021-12-12T09:01:39Z</time>
      </trkpt>
      <trkpt lat="45.32423" lon="6.04214">
        <ele>1405</ele>
        <time>2021-12-12T09:01:43Z</time>
      </trkpt>
      <trkpt lat="45.32424" lon="6.04216">
        <ele>1405</ele>
        <time>2021-12-12T09:01:45Z</time>
      </trkpt>
      <trkpt lat="45.32424" lon="6.0422">
        <ele>1405</ele>
        <time>2021-12-12T09:01:48Z</time>
      </trkpt>
      <trkpt lat="45.32425" lon="6.04223">
        <ele>1407</ele>
        <time>2021-12-12T09:01:54Z</time>
      </trkpt>
      <trkpt lat="45.32425" lon="6.04225">
        <ele>1407</ele>
        <time>2021-12-12T09:01:57Z</time>
      </trkpt>
      <trkpt lat="45.32427" lon="6.04228">
        <ele>1407</ele>
        <time>2021-12-12T09:02:00Z</time>
      </trkpt>
      <trkpt lat="45.32428" lon="6.04231">
        <ele>1407</ele>
        <time>2021-12-12T09:02:02Z</time>
      </trkpt>
      <trkpt lat="45.32429" lon="6.04233">
        <ele>1407</ele>
        <time>2021-12-12T09:02:06Z</time>
      </trkpt>
      <trkpt lat="45.32431" lon="6.04236">
        <ele>1407</ele>
        <time>2021-12-12T09:02:10Z</time>
      </trkpt>
      <trkpt lat="45.32432" lon="6.04238">
        <ele>1409</ele>
        <time>2021-12-12T09:02:13Z</time>
      </trkpt>
      <trkpt lat="45.32433" lon="6.0424">
        <ele>1409</ele>
        <time>2021-12-12T09:02:16Z</time>
      </trkpt>
      <trkpt lat="45.32435" lon="6.04242">
        <ele>1409</ele>
        <time>2021-12-12T09:02:19Z</time>
      </trkpt>
      <trkpt lat="45.32436" lon="6.04245">
        <ele>1411</ele>
        <time>2021-12-12T09:02:22Z</time>
      </trkpt>
      <trkpt lat="45.32438" lon="6.04248">
        <ele>1411</ele>
        <time>2021-12-12T09:02:25Z</time>
      </trkpt>
      <trkpt lat="45.32439" lon="6.0425">
        <ele>1411</ele>
        <time>2021-12-12T09:02:28Z</time>
      </trkpt>
      <trkpt lat="45.32441" lon="6.04252">
        <ele>1411</ele>
        <time>2021-12-12T09:02:31Z</time>
      </trkpt>
      <trkpt lat="45.32443" lon="6.04254">
        <ele>1412</ele>
        <time>2021-12-12T09:02:34Z</time>
      </trkpt>
      <trkpt lat="45.32444" lon="6.04256">
        <ele>1412</ele>
        <time>2021-12-12T09:02:37Z</time>
      </trkpt>
      <trkpt lat="45.32445" lon="6.04257">
        <ele>1412</ele>
        <time>2021-12-12T09:02:39Z</time>
      </trkpt>
      <trkpt lat="45.32447" lon="6.0426">
        <ele>1414</ele>
        <time>2021-12-12T09:02:42Z</time>
      </trkpt>
      <trkpt lat="45.32449" lon="6.04263">
        <ele>1414</ele>
        <time>2021-12-12T09:02:45Z</time>
      </trkpt>
      <trkpt lat="45.3245" lon="6.04265">
        <ele>1414</ele>
        <time>2021-12-12T09:02:48Z</time>
      </trkpt>
      <trkpt lat="45.32451" lon="6.04267">
        <ele>1414</ele>
        <time>2021-12-12T09:02:51Z</time>
      </trkpt>
      <trkpt lat="45.32452" lon="6.0427">
        <ele>1415</ele>
        <time>2021-12-12T09:02:54Z</time>
      </trkpt>
      <trkpt lat="45.32452" lon="6.04273">
        <ele>1415</ele>
        <time>2021-12-12T09:02:57Z</time>
      </trkpt>
      <trkpt lat="45.32453" lon="6.04276">
        <ele>1415</ele>
        <time>2021-12-12T09:03:01Z</time>
      </trkpt>
      <trkpt lat="45.32453" lon="6.04279">
        <ele>1416</ele>
        <time>2021-12-12T09:03:04Z</time>
      </trkpt>
      <trkpt lat="45.32455" lon="6.04281">
        <ele>1416</ele>
        <time>2021-12-12T09:03:07Z</time>
      </trkpt>
      <trkpt lat="45.32456" lon="6.04283">
        <ele>1416</ele>
        <time>2021-12-12T09:03:10Z</time>
      </trkpt>
      <trkpt lat="45.32455" lon="6.04286">
        <ele>1418</ele>
        <time>2021-12-12T09:03:15Z</time>
      </trkpt>
      <trkpt lat="45.32455" lon="6.04288">
        <ele>1418</ele>
        <time>2021-12-12T09:03:18Z</time>
      </trkpt>
      <trkpt lat="45.32455" lon="6.04292">
        <ele>1418</ele>
        <time>2021-12-12T09:03:21Z</time>
      </trkpt>
      <trkpt lat="45.32456" lon="6.04294">
        <ele>1419</ele>
        <time>2021-12-12T09:03:23Z</time>
      </trkpt>
      <trkpt lat="45.32456" lon="6.04297">
        <ele>1419</ele>
        <time>2021-12-12T09:03:26Z</time>
      </trkpt>
      <trkpt lat="45.32456" lon="6.043">
        <ele>1419</ele>
        <time>2021-12-12T09:03:29Z</time>
      </trkpt>
      <trkpt lat="45.32456" lon="6.04303">
        <ele>1421</ele>
        <time>2021-12-12T09:03:33Z</time>
      </trkpt>
      <trkpt lat="45.32455" lon="6.04305">
        <ele>1421</ele>
        <time>2021-12-12T09:03:35Z</time>
      </trkpt>
      <trkpt lat="45.32454" lon="6.04308">
        <ele>1421</ele>
        <time>2021-12-12T09:03:38Z</time>
      </trkpt>
      <trkpt lat="45.32452" lon="6.04311">
        <ele>1421</ele>
        <time>2021-12-12T09:03:41Z</time>
      </trkpt>
      <trkpt lat="45.32451" lon="6.04314">
        <ele>1422</ele>
        <time>2021-12-12T09:03:44Z</time>
      </trkpt>
      <trkpt lat="45.3245" lon="6.04316">
        <ele>1422</ele>
        <time>2021-12-12T09:03:47Z</time>
      </trkpt>
      <trkpt lat="45.32449" lon="6.04319">
        <ele>1422</ele>
        <time>2021-12-12T09:03:50Z</time>
      </trkpt>
      <trkpt lat="45.32447" lon="6.04321">
        <ele>1423</ele>
        <time>2021-12-12T09:03:53Z</time>
      </trkpt>
      <trkpt lat="45.32446" lon="6.04324">
        <ele>1423</ele>
        <time>2021-12-12T09:03:57Z</time>
      </trkpt>
      <trkpt lat="45.32444" lon="6.04326">
        <ele>1423</ele>
        <time>2021-12-12T09:04:00Z</time>
      </trkpt>
      <trkpt lat="45.32442" lon="6.04326">
        <ele>1424</ele>
        <time>2021-12-12T09:04:07Z</time>
      </trkpt>
      <trkpt lat="45.3244" lon="6.04328">
        <ele>1424</ele>
        <time>2021-12-12T09:04:11Z</time>
      </trkpt>
      <trkpt lat="45.32438" lon="6.0433">
        <ele>1425</ele>
        <time>2021-12-12T09:04:14Z</time>
      </trkpt>
      <trkpt lat="45.32436" lon="6.04332">
        <ele>1425</ele>
        <time>2021-12-12T09:04:17Z</time>
      </trkpt>
      <trkpt lat="45.32435" lon="6.04334">
        <ele>1425</ele>
        <time>2021-12-12T09:04:19Z</time>
      </trkpt>
      <trkpt lat="45.32433" lon="6.04336">
        <ele>1425</ele>
        <time>2021-12-12T09:04:21Z</time>
      </trkpt>
      <trkpt lat="45.32431" lon="6.04338">
        <ele>1427</ele>
        <time>2021-12-12T09:04:25Z</time>
      </trkpt>
      <trkpt lat="45.32429" lon="6.0434">
        <ele>1427</ele>
        <time>2021-12-12T09:04:27Z</time>
      </trkpt>
      <trkpt lat="45.32428" lon="6.04343">
        <ele>1427</ele>
        <time>2021-12-12T09:04:32Z</time>
      </trkpt>
      <trkpt lat="45.32426" lon="6.04345">
        <ele>1427</ele>
        <time>2021-12-12T09:04:35Z</time>
      </trkpt>
      <trkpt lat="45.32425" lon="6.04348">
        <ele>1427</ele>
        <time>2021-12-12T09:04:38Z</time>
      </trkpt>
      <trkpt lat="45.32423" lon="6.04351">
        <ele>1428</ele>
        <time>2021-12-12T09:04:42Z</time>
      </trkpt>
      <trkpt lat="45.32421" lon="6.04353">
        <ele>1428</ele>
        <time>2021-12-12T09:04:45Z</time>
      </trkpt>
      <trkpt lat="45.3242" lon="6.04356">
        <ele>1428</ele>
        <time>2021-12-12T09:04:48Z</time>
      </trkpt>
      <trkpt lat="45.32418" lon="6.04357">
        <ele>1428</ele>
        <time>2021-12-12T09:04:50Z</time>
      </trkpt>
      <trkpt lat="45.32417" lon="6.0436">
        <ele>1431</ele>
        <time>2021-12-12T09:04:52Z</time>
      </trkpt>
      <trkpt lat="45.32415" lon="6.04362">
        <ele>1431</ele>
        <time>2021-12-12T09:04:55Z</time>
      </trkpt>
      <trkpt lat="45.32413" lon="6.04364">
        <ele>1431</ele>
        <time>2021-12-12T09:04:57Z</time>
      </trkpt>
      <trkpt lat="45.32411" lon="6.04366">
        <ele>1431</ele>
        <time>2021-12-12T09:05:00Z</time>
      </trkpt>
      <trkpt lat="45.32409" lon="6.04368">
        <ele>1432</ele>
        <time>2021-12-12T09:05:03Z</time>
      </trkpt>
      <trkpt lat="45.32407" lon="6.04369">
        <ele>1432</ele>
        <time>2021-12-12T09:05:05Z</time>
      </trkpt>
      <trkpt lat="45.32405" lon="6.04371">
        <ele>1432</ele>
        <time>2021-12-12T09:05:08Z</time>
      </trkpt>
      <trkpt lat="45.32403" lon="6.04373">
        <ele>1432</ele>
        <time>2021-12-12T09:05:11Z</time>
      </trkpt>
      <trkpt lat="45.32401" lon="6.04374">
        <ele>1433</ele>
        <time>2021-12-12T09:05:15Z</time>
      </trkpt>
      <trkpt lat="45.324" lon="6.04375">
        <ele>1433</ele>
        <time>2021-12-12T09:05:16Z</time>
      </trkpt>
      <trkpt lat="45.32397" lon="6.04376">
        <ele>1433</ele>
        <time>2021-12-12T09:05:19Z</time>
      </trkpt>
      <trkpt lat="45.32395" lon="6.04377">
        <ele>1435</ele>
        <time>2021-12-12T09:05:22Z</time>
      </trkpt>
      <trkpt lat="45.32393" lon="6.04379">
        <ele>1435</ele>
        <time>2021-12-12T09:05:25Z</time>
      </trkpt>
      <trkpt lat="45.32391" lon="6.0438">
        <ele>1435</ele>
        <time>2021-12-12T09:05:28Z</time>
      </trkpt>
      <trkpt lat="45.32389" lon="6.04381">
        <ele>1435</ele>
        <time>2021-12-12T09:05:31Z</time>
      </trkpt>
      <trkpt lat="45.32387" lon="6.04382">
        <ele>1437</ele>
        <time>2021-12-12T09:05:34Z</time>
      </trkpt>
      <trkpt lat="45.32384" lon="6.04384">
        <ele>1437</ele>
        <time>2021-12-12T09:05:37Z</time>
      </trkpt>
      <trkpt lat="45.32382" lon="6.04385">
        <ele>1437</ele>
        <time>2021-12-12T09:05:39Z</time>
      </trkpt>
      <trkpt lat="45.32381" lon="6.04386">
        <ele>1438</ele>
        <time>2021-12-12T09:05:42Z</time>
      </trkpt>
      <trkpt lat="45.32378" lon="6.04388">
        <ele>1438</ele>
        <time>2021-12-12T09:05:46Z</time>
      </trkpt>
      <trkpt lat="45.32377" lon="6.04389">
        <ele>1438</ele>
        <time>2021-12-12T09:05:48Z</time>
      </trkpt>
      <trkpt lat="45.32375" lon="6.04391">
        <ele>1438</ele>
        <time>2021-12-12T09:05:51Z</time>
      </trkpt>
      <trkpt lat="45.32373" lon="6.04393">
        <ele>1440</ele>
        <time>2021-12-12T09:05:53Z</time>
      </trkpt>
      <trkpt lat="45.32371" lon="6.04395">
        <ele>1440</ele>
        <time>2021-12-12T09:05:56Z</time>
      </trkpt>
      <trkpt lat="45.32369" lon="6.04396">
        <ele>1440</ele>
        <time>2021-12-12T09:05:58Z</time>
      </trkpt>
      <trkpt lat="45.32367" lon="6.04397">
        <ele>1440</ele>
        <time>2021-12-12T09:06:00Z</time>
      </trkpt>
      <trkpt lat="45.32365" lon="6.04398">
        <ele>1440</ele>
        <time>2021-12-12T09:06:04Z</time>
      </trkpt>
      <trkpt lat="45.32363" lon="6.04398">
        <ele>1441</ele>
        <time>2021-12-12T09:06:20Z</time>
      </trkpt>
      <trkpt lat="45.32362" lon="6.04395">
        <ele>1441</ele>
        <time>2021-12-12T09:07:23Z</time>
      </trkpt>
      <trkpt lat="45.32361" lon="6.04395">
        <ele>1441</ele>
        <time>2021-12-12T09:11:06Z</time>
      </trkpt>
      <trkpt lat="45.32359" lon="6.04395">
        <ele>1441</ele>
        <time>2021-12-12T09:11:17Z</time>
      </trkpt>
      <trkpt lat="45.32357" lon="6.04395">
        <ele>1441</ele>
        <time>2021-12-12T09:11:19Z</time>
      </trkpt>
      <trkpt lat="45.32354" lon="6.04396">
        <ele>1442</ele>
        <time>2021-12-12T09:11:23Z</time>
      </trkpt>
      <trkpt lat="45.32353" lon="6.04396">
        <ele>1442</ele>
        <time>2021-12-12T09:11:24Z</time>
      </trkpt>
      <trkpt lat="45.32351" lon="6.04397">
        <ele>1442</ele>
        <time>2021-12-12T09:11:26Z</time>
      </trkpt>
      <trkpt lat="45.32348" lon="6.04399">
        <ele>1442</ele>
        <time>2021-12-12T09:11:29Z</time>
      </trkpt>
      <trkpt lat="45.32346" lon="6.044">
        <ele>1442</ele>
        <time>2021-12-12T09:11:34Z</time>
      </trkpt>
      <trkpt lat="45.32344" lon="6.04399">
        <ele>1442</ele>
        <time>2021-12-12T09:11:36Z</time>
      </trkpt>
      <trkpt lat="45.32342" lon="6.04398">
        <ele>1442</ele>
        <time>2021-12-12T09:11:38Z</time>
      </trkpt>
      <trkpt lat="45.3234" lon="6.04397">
        <ele>1443</ele>
        <time>2021-12-12T09:11:42Z</time>
      </trkpt>
      <trkpt lat="45.32338" lon="6.04396">
        <ele>1443</ele>
        <time>2021-12-12T09:11:43Z</time>
      </trkpt>
      <trkpt lat="45.32336" lon="6.04396">
        <ele>1443</ele>
        <time>2021-12-12T09:11:45Z</time>
      </trkpt>
      <trkpt lat="45.32333" lon="6.04396">
        <ele>1443</ele>
        <time>2021-12-12T09:11:48Z</time>
      </trkpt>
      <trkpt lat="45.32331" lon="6.04395">
        <ele>1443</ele>
        <time>2021-12-12T09:11:51Z</time>
      </trkpt>
      <trkpt lat="45.32329" lon="6.04394">
        <ele>1444</ele>
        <time>2021-12-12T09:11:54Z</time>
      </trkpt>
      <trkpt lat="45.32327" lon="6.04394">
        <ele>1444</ele>
        <time>2021-12-12T09:11:57Z</time>
      </trkpt>
      <trkpt lat="45.32324" lon="6.04393">
        <ele>1444</ele>
        <time>2021-12-12T09:12:01Z</time>
      </trkpt>
      <trkpt lat="45.32322" lon="6.04391">
        <ele>1445</ele>
        <time>2021-12-12T09:12:02Z</time>
      </trkpt>
      <trkpt lat="45.32321" lon="6.04391">
        <ele>1445</ele>
        <time>2021-12-12T09:12:04Z</time>
      </trkpt>
      <trkpt lat="45.32318" lon="6.04392">
        <ele>1445</ele>
        <time>2021-12-12T09:12:07Z</time>
      </trkpt>
      <trkpt lat="45.32316" lon="6.04392">
        <ele>1445</ele>
        <time>2021-12-12T09:12:10Z</time>
      </trkpt>
      <trkpt lat="45.32314" lon="6.04392">
        <ele>1447</ele>
        <time>2021-12-12T09:12:13Z</time>
      </trkpt>
      <trkpt lat="45.32312" lon="6.04391">
        <ele>1447</ele>
        <time>2021-12-12T09:12:16Z</time>
      </trkpt>
      <trkpt lat="45.32309" lon="6.0439">
        <ele>1447</ele>
        <time>2021-12-12T09:12:20Z</time>
      </trkpt>
      <trkpt lat="45.32308" lon="6.0439">
        <ele>1450</ele>
        <time>2021-12-12T09:12:22Z</time>
      </trkpt>
      <trkpt lat="45.32305" lon="6.0439">
        <ele>1450</ele>
        <time>2021-12-12T09:12:25Z</time>
      </trkpt>
      <trkpt lat="45.32303" lon="6.04391">
        <ele>1450</ele>
        <time>2021-12-12T09:12:27Z</time>
      </trkpt>
      <trkpt lat="45.32301" lon="6.0439">
        <ele>1450</ele>
        <time>2021-12-12T09:12:30Z</time>
      </trkpt>
      <trkpt lat="45.32299" lon="6.0439">
        <ele>1452</ele>
        <time>2021-12-12T09:12:33Z</time>
      </trkpt>
      <trkpt lat="45.32297" lon="6.04389">
        <ele>1452</ele>
        <time>2021-12-12T09:12:38Z</time>
      </trkpt>
      <trkpt lat="45.32294" lon="6.0439">
        <ele>1452</ele>
        <time>2021-12-12T09:12:39Z</time>
      </trkpt>
      <trkpt lat="45.32293" lon="6.04388">
        <ele>1452</ele>
        <time>2021-12-12T09:12:41Z</time>
      </trkpt>
      <trkpt lat="45.32293" lon="6.04385">
        <ele>1453</ele>
        <time>2021-12-12T09:12:45Z</time>
      </trkpt>
      <trkpt lat="45.32291" lon="6.04384">
        <ele>1453</ele>
        <time>2021-12-12T09:12:48Z</time>
      </trkpt>
      <trkpt lat="45.32289" lon="6.04384">
        <ele>1455</ele>
        <time>2021-12-12T09:12:52Z</time>
      </trkpt>
      <trkpt lat="45.32286" lon="6.04384">
        <ele>1455</ele>
        <time>2021-12-12T09:12:56Z</time>
      </trkpt>
      <trkpt lat="45.32284" lon="6.04385">
        <ele>1455</ele>
        <time>2021-12-12T09:13:01Z</time>
      </trkpt>
      <trkpt lat="45.32282" lon="6.04385">
        <ele>1458</ele>
        <time>2021-12-12T09:13:03Z</time>
      </trkpt>
      <trkpt lat="45.3228" lon="6.04385">
        <ele>1458</ele>
        <time>2021-12-12T09:13:05Z</time>
      </trkpt>
      <trkpt lat="45.32278" lon="6.04384">
        <ele>1458</ele>
        <time>2021-12-12T09:13:08Z</time>
      </trkpt>
      <trkpt lat="45.32277" lon="6.04384">
        <ele>1458</ele>
        <time>2021-12-12T09:13:11Z</time>
      </trkpt>
      <trkpt lat="45.32275" lon="6.04383">
        <ele>1460</ele>
        <time>2021-12-12T09:13:22Z</time>
      </trkpt>
      <trkpt lat="45.32272" lon="6.04383">
        <ele>1460</ele>
        <time>2021-12-12T09:13:27Z</time>
      </trkpt>
      <trkpt lat="45.3227" lon="6.04384">
        <ele>1460</ele>
        <time>2021-12-12T09:13:30Z</time>
      </trkpt>
      <trkpt lat="45.32268" lon="6.04383">
        <ele>1461</ele>
        <time>2021-12-12T09:13:33Z</time>
      </trkpt>
      <trkpt lat="45.32266" lon="6.04384">
        <ele>1461</ele>
        <time>2021-12-12T09:13:37Z</time>
      </trkpt>
      <trkpt lat="45.32263" lon="6.04384">
        <ele>1461</ele>
        <time>2021-12-12T09:13:41Z</time>
      </trkpt>
      <trkpt lat="45.32262" lon="6.04383">
        <ele>1462</ele>
        <time>2021-12-12T09:13:44Z</time>
      </trkpt>
      <trkpt lat="45.3226" lon="6.04384">
        <ele>1462</ele>
        <time>2021-12-12T09:13:47Z</time>
      </trkpt>
      <trkpt lat="45.32258" lon="6.04385">
        <ele>1462</ele>
        <time>2021-12-12T09:13:51Z</time>
      </trkpt>
      <trkpt lat="45.32256" lon="6.04385">
        <ele>1465</ele>
        <time>2021-12-12T09:13:55Z</time>
      </trkpt>
      <trkpt lat="45.32254" lon="6.04385">
        <ele>1465</ele>
        <time>2021-12-12T09:13:57Z</time>
      </trkpt>
      <trkpt lat="45.32252" lon="6.04386">
        <ele>1465</ele>
        <time>2021-12-12T09:14:01Z</time>
      </trkpt>
      <trkpt lat="45.3225" lon="6.04387">
        <ele>1466</ele>
        <time>2021-12-12T09:14:04Z</time>
      </trkpt>
      <trkpt lat="45.32248" lon="6.04388">
        <ele>1466</ele>
        <time>2021-12-12T09:14:07Z</time>
      </trkpt>
      <trkpt lat="45.32246" lon="6.04388">
        <ele>1466</ele>
        <time>2021-12-12T09:14:10Z</time>
      </trkpt>
      <trkpt lat="45.32244" lon="6.04389">
        <ele>1468</ele>
        <time>2021-12-12T09:14:14Z</time>
      </trkpt>
      <trkpt lat="45.32242" lon="6.04389">
        <ele>1468</ele>
        <time>2021-12-12T09:14:17Z</time>
      </trkpt>
      <trkpt lat="45.3224" lon="6.04389">
        <ele>1468</ele>
        <time>2021-12-12T09:14:21Z</time>
      </trkpt>
      <trkpt lat="45.32238" lon="6.0439">
        <ele>1469</ele>
        <time>2021-12-12T09:14:23Z</time>
      </trkpt>
      <trkpt lat="45.32236" lon="6.0439">
        <ele>1469</ele>
        <time>2021-12-12T09:14:25Z</time>
      </trkpt>
      <trkpt lat="45.32233" lon="6.04392">
        <ele>1469</ele>
        <time>2021-12-12T09:14:29Z</time>
      </trkpt>
      <trkpt lat="45.32231" lon="6.04392">
        <ele>1471</ele>
        <time>2021-12-12T09:14:35Z</time>
      </trkpt>
      <trkpt lat="45.3223" lon="6.04393">
        <ele>1471</ele>
        <time>2021-12-12T09:14:38Z</time>
      </trkpt>
      <trkpt lat="45.32227" lon="6.04393">
        <ele>1472</ele>
        <time>2021-12-12T09:14:42Z</time>
      </trkpt>
      <trkpt lat="45.32225" lon="6.04394">
        <ele>1472</ele>
        <time>2021-12-12T09:14:46Z</time>
      </trkpt>
      <trkpt lat="45.32223" lon="6.04396">
        <ele>1472</ele>
        <time>2021-12-12T09:14:49Z</time>
      </trkpt>
      <trkpt lat="45.32221" lon="6.04396">
        <ele>1475</ele>
        <time>2021-12-12T09:14:52Z</time>
      </trkpt>
      <trkpt lat="45.32219" lon="6.04396">
        <ele>1475</ele>
        <time>2021-12-12T09:14:55Z</time>
      </trkpt>
      <trkpt lat="45.32217" lon="6.04395">
        <ele>1475</ele>
        <time>2021-12-12T09:14:59Z</time>
      </trkpt>
      <trkpt lat="45.32215" lon="6.04395">
        <ele>1477</ele>
        <time>2021-12-12T09:15:02Z</time>
      </trkpt>
      <trkpt lat="45.32213" lon="6.04396">
        <ele>1477</ele>
        <time>2021-12-12T09:15:05Z</time>
      </trkpt>
      <trkpt lat="45.32211" lon="6.04397">
        <ele>1477</ele>
        <time>2021-12-12T09:15:09Z</time>
      </trkpt>
      <trkpt lat="45.32209" lon="6.04397">
        <ele>1477</ele>
        <time>2021-12-12T09:15:13Z</time>
      </trkpt>
      <trkpt lat="45.32207" lon="6.04398">
        <ele>1477</ele>
        <time>2021-12-12T09:15:17Z</time>
      </trkpt>
      <trkpt lat="45.32205" lon="6.04399">
        <ele>1478</ele>
        <time>2021-12-12T09:15:24Z</time>
      </trkpt>
      <trkpt lat="45.32203" lon="6.044">
        <ele>1478</ele>
        <time>2021-12-12T09:15:27Z</time>
      </trkpt>
      <trkpt lat="45.32201" lon="6.04401">
        <ele>1478</ele>
        <time>2021-12-12T09:15:30Z</time>
      </trkpt>
      <trkpt lat="45.32199" lon="6.04402">
        <ele>1482</ele>
        <time>2021-12-12T09:15:32Z</time>
      </trkpt>
      <trkpt lat="45.32198" lon="6.04403">
        <ele>1482</ele>
        <time>2021-12-12T09:15:35Z</time>
      </trkpt>
      <trkpt lat="45.32196" lon="6.04403">
        <ele>1482</ele>
        <time>2021-12-12T09:15:38Z</time>
      </trkpt>
      <trkpt lat="45.32193" lon="6.04404">
        <ele>1482</ele>
        <time>2021-12-12T09:15:41Z</time>
      </trkpt>
      <trkpt lat="45.32191" lon="6.04405">
        <ele>1482</ele>
        <time>2021-12-12T09:15:44Z</time>
      </trkpt>
      <trkpt lat="45.32189" lon="6.04406">
        <ele>1482</ele>
        <time>2021-12-12T09:15:48Z</time>
      </trkpt>
      <trkpt lat="45.32186" lon="6.04407">
        <ele>1482</ele>
        <time>2021-12-12T09:15:50Z</time>
      </trkpt>
      <trkpt lat="45.32184" lon="6.04407">
        <ele>1483</ele>
        <time>2021-12-12T09:15:53Z</time>
      </trkpt>
      <trkpt lat="45.32182" lon="6.04408">
        <ele>1483</ele>
        <time>2021-12-12T09:15:54Z</time>
      </trkpt>
      <trkpt lat="45.3218" lon="6.04409">
        <ele>1483</ele>
        <time>2021-12-12T09:15:57Z</time>
      </trkpt>
      <trkpt lat="45.32178" lon="6.0441">
        <ele>1483</ele>
        <time>2021-12-12T09:15:58Z</time>
      </trkpt>
      <trkpt lat="45.32176" lon="6.04411">
        <ele>1483</ele>
        <time>2021-12-12T09:16:00Z</time>
      </trkpt>
      <trkpt lat="45.32175" lon="6.0441">
        <ele>1483</ele>
        <time>2021-12-12T09:16:02Z</time>
      </trkpt>
      <trkpt lat="45.32172" lon="6.0441">
        <ele>1483</ele>
        <time>2021-12-12T09:16:04Z</time>
      </trkpt>
      <trkpt lat="45.3217" lon="6.04411">
        <ele>1483</ele>
        <time>2021-12-12T09:16:07Z</time>
      </trkpt>
      <trkpt lat="45.32168" lon="6.04412">
        <ele>1483</ele>
        <time>2021-12-12T09:16:08Z</time>
      </trkpt>
      <trkpt lat="45.32166" lon="6.04412">
        <ele>1483</ele>
        <time>2021-12-12T09:16:10Z</time>
      </trkpt>
      <trkpt lat="45.32164" lon="6.04413">
        <ele>1485</ele>
        <time>2021-12-12T09:16:12Z</time>
      </trkpt>
      <trkpt lat="45.32162" lon="6.04413">
        <ele>1485</ele>
        <time>2021-12-12T09:16:16Z</time>
      </trkpt>
      <trkpt lat="45.3216" lon="6.04413">
        <ele>1485</ele>
        <time>2021-12-12T09:16:19Z</time>
      </trkpt>
      <trkpt lat="45.32158" lon="6.04414">
        <ele>1485</ele>
        <time>2021-12-12T09:16:22Z</time>
      </trkpt>
      <trkpt lat="45.32156" lon="6.04415">
        <ele>1485</ele>
        <time>2021-12-12T09:16:25Z</time>
      </trkpt>
      <trkpt lat="45.32154" lon="6.04416">
        <ele>1485</ele>
        <time>2021-12-12T09:16:28Z</time>
      </trkpt>
      <trkpt lat="45.32152" lon="6.04417">
        <ele>1486</ele>
        <time>2021-12-12T09:16:32Z</time>
      </trkpt>
      <trkpt lat="45.3215" lon="6.04416">
        <ele>1486</ele>
        <time>2021-12-12T09:16:36Z</time>
      </trkpt>
      <trkpt lat="45.32148" lon="6.04416">
        <ele>1486</ele>
        <time>2021-12-12T09:16:38Z</time>
      </trkpt>
      <trkpt lat="45.32146" lon="6.04416">
        <ele>1486</ele>
        <time>2021-12-12T09:16:41Z</time>
      </trkpt>
      <trkpt lat="45.32144" lon="6.04415">
        <ele>1488</ele>
        <time>2021-12-12T09:16:45Z</time>
      </trkpt>
      <trkpt lat="45.32142" lon="6.04415">
        <ele>1488</ele>
        <time>2021-12-12T09:16:46Z</time>
      </trkpt>
      <trkpt lat="45.3214" lon="6.04413">
        <ele>1488</ele>
        <time>2021-12-12T09:16:49Z</time>
      </trkpt>
      <trkpt lat="45.32138" lon="6.04412">
        <ele>1488</ele>
        <time>2021-12-12T09:16:51Z</time>
      </trkpt>
      <trkpt lat="45.32136" lon="6.04411">
        <ele>1488</ele>
        <time>2021-12-12T09:16:54Z</time>
      </trkpt>
      <trkpt lat="45.32134" lon="6.04411">
        <ele>1488</ele>
        <time>2021-12-12T09:16:57Z</time>
      </trkpt>
      <trkpt lat="45.32132" lon="6.0441">
        <ele>1488</ele>
        <time>2021-12-12T09:16:59Z</time>
      </trkpt>
      <trkpt lat="45.32129" lon="6.0441">
        <ele>1491</ele>
        <time>2021-12-12T09:17:02Z</time>
      </trkpt>
      <trkpt lat="45.32127" lon="6.0441">
        <ele>1491</ele>
        <time>2021-12-12T09:17:05Z</time>
      </trkpt>
      <trkpt lat="45.32125" lon="6.04411">
        <ele>1491</ele>
        <time>2021-12-12T09:17:07Z</time>
      </trkpt>
      <trkpt lat="45.32122" lon="6.04412">
        <ele>1491</ele>
        <time>2021-12-12T09:17:10Z</time>
      </trkpt>
      <trkpt lat="45.3212" lon="6.04414">
        <ele>1493</ele>
        <time>2021-12-12T09:17:21Z</time>
      </trkpt>
      <trkpt lat="45.32118" lon="6.04415">
        <ele>1495</ele>
        <time>2021-12-12T09:17:24Z</time>
      </trkpt>
      <trkpt lat="45.32116" lon="6.04415">
        <ele>1495</ele>
        <time>2021-12-12T09:17:27Z</time>
      </trkpt>
      <trkpt lat="45.32114" lon="6.04416">
        <ele>1495</ele>
        <time>2021-12-12T09:17:30Z</time>
      </trkpt>
      <trkpt lat="45.32112" lon="6.04415">
        <ele>1496</ele>
        <time>2021-12-12T09:17:33Z</time>
      </trkpt>
      <trkpt lat="45.32109" lon="6.04415">
        <ele>1496</ele>
        <time>2021-12-12T09:17:36Z</time>
      </trkpt>
      <trkpt lat="45.32107" lon="6.04416">
        <ele>1496</ele>
        <time>2021-12-12T09:17:38Z</time>
      </trkpt>
      <trkpt lat="45.32104" lon="6.04416">
        <ele>1496</ele>
        <time>2021-12-12T09:17:41Z</time>
      </trkpt>
      <trkpt lat="45.32102" lon="6.04417">
        <ele>1498</ele>
        <time>2021-12-12T09:17:49Z</time>
      </trkpt>
      <trkpt lat="45.321" lon="6.04417">
        <ele>1500</ele>
        <time>2021-12-12T09:17:52Z</time>
      </trkpt>
      <trkpt lat="45.32098" lon="6.04416">
        <ele>1500</ele>
        <time>2021-12-12T09:17:55Z</time>
      </trkpt>
      <trkpt lat="45.32096" lon="6.04414">
        <ele>1500</ele>
        <time>2021-12-12T09:17:58Z</time>
      </trkpt>
      <trkpt lat="45.32093" lon="6.04413">
        <ele>1499</ele>
        <time>2021-12-12T09:18:02Z</time>
      </trkpt>
      <trkpt lat="45.32091" lon="6.04412">
        <ele>1499</ele>
        <time>2021-12-12T09:18:03Z</time>
      </trkpt>
      <trkpt lat="45.32089" lon="6.04411">
        <ele>1499</ele>
        <time>2021-12-12T09:18:05Z</time>
      </trkpt>
      <trkpt lat="45.32087" lon="6.0441">
        <ele>1499</ele>
        <time>2021-12-12T09:18:07Z</time>
      </trkpt>
      <trkpt lat="45.32085" lon="6.0441">
        <ele>1499</ele>
        <time>2021-12-12T09:18:11Z</time>
      </trkpt>
      <trkpt lat="45.32083" lon="6.04411">
        <ele>1500</ele>
        <time>2021-12-12T09:18:15Z</time>
      </trkpt>
      <trkpt lat="45.32081" lon="6.04411">
        <ele>1500</ele>
        <time>2021-12-12T09:18:17Z</time>
      </trkpt>
      <trkpt lat="45.32079" lon="6.04412">
        <ele>1500</ele>
        <time>2021-12-12T09:18:21Z</time>
      </trkpt>
      <trkpt lat="45.32076" lon="6.04413">
        <ele>1502</ele>
        <time>2021-12-12T09:18:26Z</time>
      </trkpt>
      <trkpt lat="45.32074" lon="6.04413">
        <ele>1502</ele>
        <time>2021-12-12T09:18:28Z</time>
      </trkpt>
      <trkpt lat="45.32072" lon="6.04415">
        <ele>1503</ele>
        <time>2021-12-12T09:18:32Z</time>
      </trkpt>
      <trkpt lat="45.32071" lon="6.04416">
        <ele>1503</ele>
        <time>2021-12-12T09:18:34Z</time>
      </trkpt>
      <trkpt lat="45.32069" lon="6.04418">
        <ele>1503</ele>
        <time>2021-12-12T09:18:37Z</time>
      </trkpt>
      <trkpt lat="45.32067" lon="6.04421">
        <ele>1503</ele>
        <time>2021-12-12T09:18:40Z</time>
      </trkpt>
      <trkpt lat="45.32065" lon="6.04423">
        <ele>1504</ele>
        <time>2021-12-12T09:18:43Z</time>
      </trkpt>
      <trkpt lat="45.32063" lon="6.04424">
        <ele>1504</ele>
        <time>2021-12-12T09:18:46Z</time>
      </trkpt>
      <trkpt lat="45.32061" lon="6.04426">
        <ele>1504</ele>
        <time>2021-12-12T09:18:49Z</time>
      </trkpt>
      <trkpt lat="45.32059" lon="6.04427">
        <ele>1505</ele>
        <time>2021-12-12T09:18:53Z</time>
      </trkpt>
      <trkpt lat="45.32057" lon="6.04428">
        <ele>1505</ele>
        <time>2021-12-12T09:18:54Z</time>
      </trkpt>
      <trkpt lat="45.32054" lon="6.04429">
        <ele>1505</ele>
        <time>2021-12-12T09:18:57Z</time>
      </trkpt>
      <trkpt lat="45.32052" lon="6.04431">
        <ele>1505</ele>
        <time>2021-12-12T09:19:00Z</time>
      </trkpt>
      <trkpt lat="45.32049" lon="6.04432">
        <ele>1505</ele>
        <time>2021-12-12T09:19:03Z</time>
      </trkpt>
      <trkpt lat="45.32047" lon="6.04432">
        <ele>1505</ele>
        <time>2021-12-12T09:19:06Z</time>
      </trkpt>
      <trkpt lat="45.32044" lon="6.04432">
        <ele>1505</ele>
        <time>2021-12-12T09:19:08Z</time>
      </trkpt>
      <trkpt lat="45.32042" lon="6.04431">
        <ele>1505</ele>
        <time>2021-12-12T09:19:10Z</time>
      </trkpt>
      <trkpt lat="45.3204" lon="6.0443">
        <ele>1506</ele>
        <time>2021-12-12T09:19:12Z</time>
      </trkpt>
      <trkpt lat="45.32038" lon="6.04429">
        <ele>1506</ele>
        <time>2021-12-12T09:19:15Z</time>
      </trkpt>
      <trkpt lat="45.32036" lon="6.04428">
        <ele>1506</ele>
        <time>2021-12-12T09:19:18Z</time>
      </trkpt>
      <trkpt lat="45.32035" lon="6.04425">
        <ele>1506</ele>
        <time>2021-12-12T09:19:20Z</time>
      </trkpt>
      <trkpt lat="45.32033" lon="6.04423">
        <ele>1507</ele>
        <time>2021-12-12T09:19:22Z</time>
      </trkpt>
      <trkpt lat="45.32031" lon="6.04421">
        <ele>1507</ele>
        <time>2021-12-12T09:19:25Z</time>
      </trkpt>
      <trkpt lat="45.3203" lon="6.04418">
        <ele>1507</ele>
        <time>2021-12-12T09:19:29Z</time>
      </trkpt>
      <trkpt lat="45.32028" lon="6.04419">
        <ele>1509</ele>
        <time>2021-12-12T09:19:33Z</time>
      </trkpt>
      <trkpt lat="45.32026" lon="6.04417">
        <ele>1509</ele>
        <time>2021-12-12T09:19:37Z</time>
      </trkpt>
      <trkpt lat="45.32024" lon="6.04415">
        <ele>1509</ele>
        <time>2021-12-12T09:19:39Z</time>
      </trkpt>
      <trkpt lat="45.32022" lon="6.04413">
        <ele>1509</ele>
        <time>2021-12-12T09:19:41Z</time>
      </trkpt>
      <trkpt lat="45.32021" lon="6.04412">
        <ele>1509</ele>
        <time>2021-12-12T09:19:43Z</time>
      </trkpt>
      <trkpt lat="45.32019" lon="6.0441">
        <ele>1509</ele>
        <time>2021-12-12T09:19:46Z</time>
      </trkpt>
      <trkpt lat="45.32017" lon="6.04408">
        <ele>1509</ele>
        <time>2021-12-12T09:19:50Z</time>
      </trkpt>
      <trkpt lat="45.32014" lon="6.04407">
        <ele>1510</ele>
        <time>2021-12-12T09:19:52Z</time>
      </trkpt>
      <trkpt lat="45.32013" lon="6.04406">
        <ele>1510</ele>
        <time>2021-12-12T09:19:54Z</time>
      </trkpt>
      <trkpt lat="45.32011" lon="6.04405">
        <ele>1510</ele>
        <time>2021-12-12T09:19:56Z</time>
      </trkpt>
      <trkpt lat="45.32009" lon="6.04404">
        <ele>1510</ele>
        <time>2021-12-12T09:19:59Z</time>
      </trkpt>
      <trkpt lat="45.32007" lon="6.04404">
        <ele>1510</ele>
        <time>2021-12-12T09:20:01Z</time>
      </trkpt>
      <trkpt lat="45.32005" lon="6.04403">
        <ele>1510</ele>
        <time>2021-12-12T09:20:04Z</time>
      </trkpt>
      <trkpt lat="45.32003" lon="6.04402">
        <ele>1510</ele>
        <time>2021-12-12T09:20:06Z</time>
      </trkpt>
      <trkpt lat="45.32001" lon="6.04402">
        <ele>1510</ele>
        <time>2021-12-12T09:20:08Z</time>
      </trkpt>
      <trkpt lat="45.31998" lon="6.04401">
        <ele>1510</ele>
        <time>2021-12-12T09:20:11Z</time>
      </trkpt>
      <trkpt lat="45.31996" lon="6.044">
        <ele>1511</ele>
        <time>2021-12-12T09:20:12Z</time>
      </trkpt>
      <trkpt lat="45.31993" lon="6.04399">
        <ele>1511</ele>
        <time>2021-12-12T09:20:14Z</time>
      </trkpt>
      <trkpt lat="45.31991" lon="6.04398">
        <ele>1511</ele>
        <time>2021-12-12T09:20:16Z</time>
      </trkpt>
      <trkpt lat="45.31989" lon="6.04398">
        <ele>1511</ele>
        <time>2021-12-12T09:20:18Z</time>
      </trkpt>
      <trkpt lat="45.31987" lon="6.04396">
        <ele>1511</ele>
        <time>2021-12-12T09:20:20Z</time>
      </trkpt>
      <trkpt lat="45.31985" lon="6.04396">
        <ele>1512</ele>
        <time>2021-12-12T09:20:22Z</time>
      </trkpt>
      <trkpt lat="45.31983" lon="6.04395">
        <ele>1512</ele>
        <time>2021-12-12T09:20:24Z</time>
      </trkpt>
      <trkpt lat="45.3198" lon="6.04393">
        <ele>1512</ele>
        <time>2021-12-12T09:20:26Z</time>
      </trkpt>
      <trkpt lat="45.31978" lon="6.04393">
        <ele>1512</ele>
        <time>2021-12-12T09:20:28Z</time>
      </trkpt>
      <trkpt lat="45.31976" lon="6.04392">
        <ele>1512</ele>
        <time>2021-12-12T09:20:30Z</time>
      </trkpt>
      <trkpt lat="45.31975" lon="6.04391">
        <ele>1512</ele>
        <time>2021-12-12T09:20:32Z</time>
      </trkpt>
      <trkpt lat="45.31972" lon="6.0439">
        <ele>1512</ele>
        <time>2021-12-12T09:20:35Z</time>
      </trkpt>
      <trkpt lat="45.3197" lon="6.0439">
        <ele>1512</ele>
        <time>2021-12-12T09:20:38Z</time>
      </trkpt>
      <trkpt lat="45.31968" lon="6.04389">
        <ele>1512</ele>
        <time>2021-12-12T09:20:39Z</time>
      </trkpt>
      <trkpt lat="45.31967" lon="6.04388">
        <ele>1512</ele>
        <time>2021-12-12T09:20:41Z</time>
      </trkpt>
      <trkpt lat="45.31964" lon="6.04387">
        <ele>1513</ele>
        <time>2021-12-12T09:20:44Z</time>
      </trkpt>
      <trkpt lat="45.31962" lon="6.04388">
        <ele>1513</ele>
        <time>2021-12-12T09:20:47Z</time>
      </trkpt>
      <trkpt lat="45.31959" lon="6.04389">
        <ele>1513</ele>
        <time>2021-12-12T09:20:51Z</time>
      </trkpt>
      <trkpt lat="45.31957" lon="6.04389">
        <ele>1515</ele>
        <time>2021-12-12T09:20:53Z</time>
      </trkpt>
      <trkpt lat="45.31954" lon="6.0439">
        <ele>1515</ele>
        <time>2021-12-12T09:20:56Z</time>
      </trkpt>
      <trkpt lat="45.31952" lon="6.04391">
        <ele>1515</ele>
        <time>2021-12-12T09:20:59Z</time>
      </trkpt>
      <trkpt lat="45.3195" lon="6.04392">
        <ele>1516</ele>
        <time>2021-12-12T09:21:02Z</time>
      </trkpt>
      <trkpt lat="45.31948" lon="6.04394">
        <ele>1516</ele>
        <time>2021-12-12T09:21:05Z</time>
      </trkpt>
      <trkpt lat="45.31945" lon="6.04395">
        <ele>1516</ele>
        <time>2021-12-12T09:21:08Z</time>
      </trkpt>
      <trkpt lat="45.31943" lon="6.04396">
        <ele>1517</ele>
        <time>2021-12-12T09:21:12Z</time>
      </trkpt>
      <trkpt lat="45.3194" lon="6.04397">
        <ele>1517</ele>
        <time>2021-12-12T09:21:14Z</time>
      </trkpt>
      <trkpt lat="45.31938" lon="6.04398">
        <ele>1517</ele>
        <time>2021-12-12T09:21:18Z</time>
      </trkpt>
      <trkpt lat="45.31936" lon="6.04399">
        <ele>1517</ele>
        <time>2021-12-12T09:21:21Z</time>
      </trkpt>
      <trkpt lat="45.31934" lon="6.044">
        <ele>1518</ele>
        <time>2021-12-12T09:21:23Z</time>
      </trkpt>
      <trkpt lat="45.31932" lon="6.04402">
        <ele>1518</ele>
        <time>2021-12-12T09:21:27Z</time>
      </trkpt>
      <trkpt lat="45.3193" lon="6.04403">
        <ele>1518</ele>
        <time>2021-12-12T09:21:31Z</time>
      </trkpt>
      <trkpt lat="45.31928" lon="6.04404">
        <ele>1520</ele>
        <time>2021-12-12T09:21:32Z</time>
      </trkpt>
      <trkpt lat="45.31927" lon="6.04405">
        <ele>1520</ele>
        <time>2021-12-12T09:21:34Z</time>
      </trkpt>
      <trkpt lat="45.31924" lon="6.04406">
        <ele>1520</ele>
        <time>2021-12-12T09:21:37Z</time>
      </trkpt>
      <trkpt lat="45.31922" lon="6.04407">
        <ele>1520</ele>
        <time>2021-12-12T09:21:39Z</time>
      </trkpt>
      <trkpt lat="45.3192" lon="6.04409">
        <ele>1520</ele>
        <time>2021-12-12T09:21:43Z</time>
      </trkpt>
      <trkpt lat="45.31918" lon="6.0441">
        <ele>1520</ele>
        <time>2021-12-12T09:21:44Z</time>
      </trkpt>
      <trkpt lat="45.31916" lon="6.04412">
        <ele>1520</ele>
        <time>2021-12-12T09:21:46Z</time>
      </trkpt>
      <trkpt lat="45.31915" lon="6.04413">
        <ele>1520</ele>
        <time>2021-12-12T09:21:48Z</time>
      </trkpt>
      <trkpt lat="45.31912" lon="6.04414">
        <ele>1520</ele>
        <time>2021-12-12T09:21:51Z</time>
      </trkpt>
      <trkpt lat="45.3191" lon="6.04415">
        <ele>1521</ele>
        <time>2021-12-12T09:21:54Z</time>
      </trkpt>
      <trkpt lat="45.31909" lon="6.04418">
        <ele>1521</ele>
        <time>2021-12-12T09:21:56Z</time>
      </trkpt>
      <trkpt lat="45.31907" lon="6.0442">
        <ele>1521</ele>
        <time>2021-12-12T09:21:58Z</time>
      </trkpt>
      <trkpt lat="45.31905" lon="6.04422">
        <ele>1521</ele>
        <time>2021-12-12T09:22:00Z</time>
      </trkpt>
      <trkpt lat="45.31903" lon="6.04423">
        <ele>1521</ele>
        <time>2021-12-12T09:22:03Z</time>
      </trkpt>
      <trkpt lat="45.31901" lon="6.04425">
        <ele>1521</ele>
        <time>2021-12-12T09:22:05Z</time>
      </trkpt>
      <trkpt lat="45.31899" lon="6.04426">
        <ele>1521</ele>
        <time>2021-12-12T09:22:07Z</time>
      </trkpt>
      <trkpt lat="45.31897" lon="6.04427">
        <ele>1521</ele>
        <time>2021-12-12T09:22:10Z</time>
      </trkpt>
      <trkpt lat="45.31895" lon="6.04429">
        <ele>1523</ele>
        <time>2021-12-12T09:22:13Z</time>
      </trkpt>
      <trkpt lat="45.31893" lon="6.0443">
        <ele>1523</ele>
        <time>2021-12-12T09:22:16Z</time>
      </trkpt>
      <trkpt lat="45.31891" lon="6.04432">
        <ele>1523</ele>
        <time>2021-12-12T09:22:18Z</time>
      </trkpt>
      <trkpt lat="45.31889" lon="6.04433">
        <ele>1523</ele>
        <time>2021-12-12T09:22:21Z</time>
      </trkpt>
      <trkpt lat="45.31888" lon="6.04433">
        <ele>1524</ele>
        <time>2021-12-12T09:22:23Z</time>
      </trkpt>
      <trkpt lat="45.31886" lon="6.04434">
        <ele>1524</ele>
        <time>2021-12-12T09:22:25Z</time>
      </trkpt>
      <trkpt lat="45.31884" lon="6.04435">
        <ele>1524</ele>
        <time>2021-12-12T09:22:28Z</time>
      </trkpt>
      <trkpt lat="45.31881" lon="6.04437">
        <ele>1526</ele>
        <time>2021-12-12T09:22:32Z</time>
      </trkpt>
      <trkpt lat="45.31879" lon="6.04438">
        <ele>1526</ele>
        <time>2021-12-12T09:22:34Z</time>
      </trkpt>
      <trkpt lat="45.31877" lon="6.0444">
        <ele>1526</ele>
        <time>2021-12-12T09:22:36Z</time>
      </trkpt>
      <trkpt lat="45.31875" lon="6.0444">
        <ele>1526</ele>
        <time>2021-12-12T09:22:39Z</time>
      </trkpt>
      <trkpt lat="45.31872" lon="6.0444">
        <ele>1526</ele>
        <time>2021-12-12T09:22:42Z</time>
      </trkpt>
      <trkpt lat="45.31871" lon="6.04439">
        <ele>1526</ele>
        <time>2021-12-12T09:22:45Z</time>
      </trkpt>
      <trkpt lat="45.31868" lon="6.0444">
        <ele>1526</ele>
        <time>2021-12-12T09:22:47Z</time>
      </trkpt>
      <trkpt lat="45.31866" lon="6.0444">
        <ele>1526</ele>
        <time>2021-12-12T09:22:49Z</time>
      </trkpt>
      <trkpt lat="45.31864" lon="6.0444">
        <ele>1526</ele>
        <time>2021-12-12T09:22:51Z</time>
      </trkpt>
      <trkpt lat="45.31862" lon="6.04441">
        <ele>1528</ele>
        <time>2021-12-12T09:22:53Z</time>
      </trkpt>
      <trkpt lat="45.3186" lon="6.04442">
        <ele>1528</ele>
        <time>2021-12-12T09:22:55Z</time>
      </trkpt>
      <trkpt lat="45.31858" lon="6.04442">
        <ele>1528</ele>
        <time>2021-12-12T09:22:58Z</time>
      </trkpt>
      <trkpt lat="45.31855" lon="6.04443">
        <ele>1528</ele>
        <time>2021-12-12T09:23:01Z</time>
      </trkpt>
      <trkpt lat="45.31853" lon="6.04444">
        <ele>1529</ele>
        <time>2021-12-12T09:23:03Z</time>
      </trkpt>
      <trkpt lat="45.31851" lon="6.04444">
        <ele>1529</ele>
        <time>2021-12-12T09:23:07Z</time>
      </trkpt>
      <trkpt lat="45.31849" lon="6.04446">
        <ele>1529</ele>
        <time>2021-12-12T09:23:09Z</time>
      </trkpt>
      <trkpt lat="45.31847" lon="6.04448">
        <ele>1531</ele>
        <time>2021-12-12T09:23:13Z</time>
      </trkpt>
      <trkpt lat="45.31845" lon="6.0445">
        <ele>1531</ele>
        <time>2021-12-12T09:23:15Z</time>
      </trkpt>
      <trkpt lat="45.31844" lon="6.04452">
        <ele>1531</ele>
        <time>2021-12-12T09:23:17Z</time>
      </trkpt>
      <trkpt lat="45.31842" lon="6.04454">
        <ele>1531</ele>
        <time>2021-12-12T09:23:19Z</time>
      </trkpt>
      <trkpt lat="45.31841" lon="6.04456">
        <ele>1531</ele>
        <time>2021-12-12T09:23:21Z</time>
      </trkpt>
      <trkpt lat="45.31839" lon="6.04459">
        <ele>1531</ele>
        <time>2021-12-12T09:23:25Z</time>
      </trkpt>
      <trkpt lat="45.31838" lon="6.04461">
        <ele>1531</ele>
        <time>2021-12-12T09:23:26Z</time>
      </trkpt>
      <trkpt lat="45.31837" lon="6.04463">
        <ele>1531</ele>
        <time>2021-12-12T09:23:28Z</time>
      </trkpt>
      <trkpt lat="45.31836" lon="6.04467">
        <ele>1531</ele>
        <time>2021-12-12T09:23:31Z</time>
      </trkpt>
      <trkpt lat="45.31836" lon="6.0447">
        <ele>1532</ele>
        <time>2021-12-12T09:23:34Z</time>
      </trkpt>
      <trkpt lat="45.31836" lon="6.04473">
        <ele>1532</ele>
        <time>2021-12-12T09:23:37Z</time>
      </trkpt>
      <trkpt lat="45.31836" lon="6.04476">
        <ele>1532</ele>
        <time>2021-12-12T09:23:40Z</time>
      </trkpt>
      <trkpt lat="45.31836" lon="6.0448">
        <ele>1534</ele>
        <time>2021-12-12T09:23:44Z</time>
      </trkpt>
      <trkpt lat="45.31836" lon="6.04483">
        <ele>1534</ele>
        <time>2021-12-12T09:23:47Z</time>
      </trkpt>
      <trkpt lat="45.31836" lon="6.04486">
        <ele>1534</ele>
        <time>2021-12-12T09:23:49Z</time>
      </trkpt>
      <trkpt lat="45.31835" lon="6.0449">
        <ele>1534</ele>
        <time>2021-12-12T09:23:52Z</time>
      </trkpt>
      <trkpt lat="45.31835" lon="6.04493">
        <ele>1534</ele>
        <time>2021-12-12T09:23:55Z</time>
      </trkpt>
      <trkpt lat="45.31835" lon="6.04496">
        <ele>1534</ele>
        <time>2021-12-12T09:23:58Z</time>
      </trkpt>
      <trkpt lat="45.31835" lon="6.045">
        <ele>1534</ele>
        <time>2021-12-12T09:24:01Z</time>
      </trkpt>
      <trkpt lat="45.31835" lon="6.04503">
        <ele>1535</ele>
        <time>2021-12-12T09:24:04Z</time>
      </trkpt>
      <trkpt lat="45.31835" lon="6.04506">
        <ele>1535</ele>
        <time>2021-12-12T09:24:07Z</time>
      </trkpt>
      <trkpt lat="45.31835" lon="6.04509">
        <ele>1535</ele>
        <time>2021-12-12T09:24:10Z</time>
      </trkpt>
      <trkpt lat="45.31835" lon="6.04512">
        <ele>1537</ele>
        <time>2021-12-12T09:24:13Z</time>
      </trkpt>
      <trkpt lat="45.31834" lon="6.04515">
        <ele>1537</ele>
        <time>2021-12-12T09:24:16Z</time>
      </trkpt>
      <trkpt lat="45.31834" lon="6.04518">
        <ele>1537</ele>
        <time>2021-12-12T09:24:20Z</time>
      </trkpt>
      <trkpt lat="45.31834" lon="6.04522">
        <ele>1538</ele>
        <time>2021-12-12T09:24:22Z</time>
      </trkpt>
      <trkpt lat="45.31834" lon="6.04525">
        <ele>1538</ele>
        <time>2021-12-12T09:24:25Z</time>
      </trkpt>
      <trkpt lat="45.31834" lon="6.04529">
        <ele>1538</ele>
        <time>2021-12-12T09:24:28Z</time>
      </trkpt>
      <trkpt lat="45.31834" lon="6.04532">
        <ele>1538</ele>
        <time>2021-12-12T09:24:31Z</time>
      </trkpt>
      <trkpt lat="45.31834" lon="6.04535">
        <ele>1538</ele>
        <time>2021-12-12T09:24:34Z</time>
      </trkpt>
      <trkpt lat="45.31834" lon="6.04538">
        <ele>1538</ele>
        <time>2021-12-12T09:24:37Z</time>
      </trkpt>
      <trkpt lat="45.31834" lon="6.04542">
        <ele>1538</ele>
        <time>2021-12-12T09:24:41Z</time>
      </trkpt>
      <trkpt lat="45.31834" lon="6.04545">
        <ele>1540</ele>
        <time>2021-12-12T09:24:43Z</time>
      </trkpt>
      <trkpt lat="45.31834" lon="6.04548">
        <ele>1540</ele>
        <time>2021-12-12T09:24:47Z</time>
      </trkpt>
      <trkpt lat="45.31835" lon="6.04551">
        <ele>1540</ele>
        <time>2021-12-12T09:24:50Z</time>
      </trkpt>
      <trkpt lat="45.31835" lon="6.04554">
        <ele>1542</ele>
        <time>2021-12-12T09:24:53Z</time>
      </trkpt>
      <trkpt lat="45.31835" lon="6.04557">
        <ele>1542</ele>
        <time>2021-12-12T09:24:56Z</time>
      </trkpt>
      <trkpt lat="45.31835" lon="6.0456">
        <ele>1542</ele>
        <time>2021-12-12T09:25:00Z</time>
      </trkpt>
      <trkpt lat="45.31835" lon="6.04562">
        <ele>1542</ele>
        <time>2021-12-12T09:25:03Z</time>
      </trkpt>
      <trkpt lat="45.31835" lon="6.04566">
        <ele>1542</ele>
        <time>2021-12-12T09:25:06Z</time>
      </trkpt>
      <trkpt lat="45.31835" lon="6.04569">
        <ele>1542</ele>
        <time>2021-12-12T09:25:09Z</time>
      </trkpt>
      <trkpt lat="45.31835" lon="6.04572">
        <ele>1543</ele>
        <time>2021-12-12T09:25:12Z</time>
      </trkpt>
      <trkpt lat="45.31834" lon="6.04574">
        <ele>1543</ele>
        <time>2021-12-12T09:25:15Z</time>
      </trkpt>
      <trkpt lat="45.31833" lon="6.04577">
        <ele>1543</ele>
        <time>2021-12-12T09:25:19Z</time>
      </trkpt>
      <trkpt lat="45.31833" lon="6.04579">
        <ele>1544</ele>
        <time>2021-12-12T09:25:23Z</time>
      </trkpt>
      <trkpt lat="45.31832" lon="6.04583">
        <ele>1544</ele>
        <time>2021-12-12T09:25:26Z</time>
      </trkpt>
      <trkpt lat="45.31832" lon="6.04586">
        <ele>1544</ele>
        <time>2021-12-12T09:25:31Z</time>
      </trkpt>
      <trkpt lat="45.31831" lon="6.04589">
        <ele>1547</ele>
        <time>2021-12-12T09:25:33Z</time>
      </trkpt>
      <trkpt lat="45.31831" lon="6.04592">
        <ele>1547</ele>
        <time>2021-12-12T09:25:38Z</time>
      </trkpt>
      <trkpt lat="45.31832" lon="6.04594">
        <ele>1547</ele>
        <time>2021-12-12T09:25:41Z</time>
      </trkpt>
      <trkpt lat="45.31834" lon="6.04596">
        <ele>1549</ele>
        <time>2021-12-12T09:25:44Z</time>
      </trkpt>
      <trkpt lat="45.31836" lon="6.04598">
        <ele>1549</ele>
        <time>2021-12-12T09:25:48Z</time>
      </trkpt>
      <trkpt lat="45.31837" lon="6.046">
        <ele>1551</ele>
        <time>2021-12-12T09:25:52Z</time>
      </trkpt>
      <trkpt lat="45.31839" lon="6.04601">
        <ele>1551</ele>
        <time>2021-12-12T09:25:55Z</time>
      </trkpt>
      <trkpt lat="45.31841" lon="6.04601">
        <ele>1551</ele>
        <time>2021-12-12T09:25:58Z</time>
      </trkpt>
      <trkpt lat="45.31843" lon="6.04602">
        <ele>1553</ele>
        <time>2021-12-12T09:26:02Z</time>
      </trkpt>
      <trkpt lat="45.31846" lon="6.04603">
        <ele>1553</ele>
        <time>2021-12-12T09:26:06Z</time>
      </trkpt>
      <trkpt lat="45.31847" lon="6.04605">
        <ele>1553</ele>
        <time>2021-12-12T09:26:09Z</time>
      </trkpt>
      <trkpt lat="45.31849" lon="6.04607">
        <ele>1552</ele>
        <time>2021-12-12T09:26:15Z</time>
      </trkpt>
      <trkpt lat="45.3185" lon="6.0461">
        <ele>1552</ele>
        <time>2021-12-12T09:26:18Z</time>
      </trkpt>
      <trkpt lat="45.31852" lon="6.04613">
        <ele>1554</ele>
        <time>2021-12-12T09:26:22Z</time>
      </trkpt>
      <trkpt lat="45.31853" lon="6.04616">
        <ele>1554</ele>
        <time>2021-12-12T09:26:26Z</time>
      </trkpt>
      <trkpt lat="45.31854" lon="6.04618">
        <ele>1554</ele>
        <time>2021-12-12T09:26:28Z</time>
      </trkpt>
      <trkpt lat="45.31854" lon="6.0462">
        <ele>1554</ele>
        <time>2021-12-12T09:26:31Z</time>
      </trkpt>
      <trkpt lat="45.31855" lon="6.04623">
        <ele>1557</ele>
        <time>2021-12-12T09:26:34Z</time>
      </trkpt>
      <trkpt lat="45.31857" lon="6.04625">
        <ele>1557</ele>
        <time>2021-12-12T09:26:38Z</time>
      </trkpt>
      <trkpt lat="45.31858" lon="6.04628">
        <ele>1559</ele>
        <time>2021-12-12T09:26:43Z</time>
      </trkpt>
      <trkpt lat="45.3186" lon="6.0463">
        <ele>1559</ele>
        <time>2021-12-12T09:26:46Z</time>
      </trkpt>
      <trkpt lat="45.31862" lon="6.04631">
        <ele>1559</ele>
        <time>2021-12-12T09:26:49Z</time>
      </trkpt>
      <trkpt lat="45.31864" lon="6.04633">
        <ele>1560</ele>
        <time>2021-12-12T09:26:52Z</time>
      </trkpt>
      <trkpt lat="45.31865" lon="6.04633">
        <ele>1560</ele>
        <time>2021-12-12T09:26:56Z</time>
      </trkpt>
      <trkpt lat="45.31867" lon="6.04634">
        <ele>1564</ele>
        <time>2021-12-12T09:27:02Z</time>
      </trkpt>
      <trkpt lat="45.31869" lon="6.04635">
        <ele>1564</ele>
        <time>2021-12-12T09:27:04Z</time>
      </trkpt>
      <trkpt lat="45.31872" lon="6.04635">
        <ele>1564</ele>
        <time>2021-12-12T09:27:07Z</time>
      </trkpt>
      <trkpt lat="45.31874" lon="6.04636">
        <ele>1564</ele>
        <time>2021-12-12T09:27:10Z</time>
      </trkpt>
      <trkpt lat="45.31876" lon="6.04638">
        <ele>1562</ele>
        <time>2021-12-12T09:27:13Z</time>
      </trkpt>
      <trkpt lat="45.31877" lon="6.04639">
        <ele>1562</ele>
        <time>2021-12-12T09:27:16Z</time>
      </trkpt>
      <trkpt lat="45.31879" lon="6.04641">
        <ele>1562</ele>
        <time>2021-12-12T09:27:19Z</time>
      </trkpt>
      <trkpt lat="45.3188" lon="6.04643">
        <ele>1563</ele>
        <time>2021-12-12T09:27:22Z</time>
      </trkpt>
      <trkpt lat="45.31881" lon="6.04646">
        <ele>1563</ele>
        <time>2021-12-12T09:27:25Z</time>
      </trkpt>
      <trkpt lat="45.31883" lon="6.04648">
        <ele>1563</ele>
        <time>2021-12-12T09:27:28Z</time>
      </trkpt>
      <trkpt lat="45.31884" lon="6.04651">
        <ele>1565</ele>
        <time>2021-12-12T09:27:40Z</time>
      </trkpt>
      <trkpt lat="45.31884" lon="6.04653">
        <ele>1567</ele>
        <time>2021-12-12T09:27:43Z</time>
      </trkpt>
      <trkpt lat="45.31885" lon="6.04656">
        <ele>1567</ele>
        <time>2021-12-12T09:27:46Z</time>
      </trkpt>
      <trkpt lat="45.31886" lon="6.04659">
        <ele>1568</ele>
        <time>2021-12-12T09:28:07Z</time>
      </trkpt>
      <trkpt lat="45.31886" lon="6.04661">
        <ele>1568</ele>
        <time>2021-12-12T09:28:17Z</time>
      </trkpt>
      <trkpt lat="45.31887" lon="6.04664">
        <ele>1568</ele>
        <time>2021-12-12T09:28:54Z</time>
      </trkpt>
      <trkpt lat="45.31888" lon="6.04668">
        <ele>1568</ele>
        <time>2021-12-12T09:28:57Z</time>
      </trkpt>
      <trkpt lat="45.31888" lon="6.04671">
        <ele>1568</ele>
        <time>2021-12-12T09:29:00Z</time>
      </trkpt>
      <trkpt lat="45.31889" lon="6.04674">
        <ele>1569</ele>
        <time>2021-12-12T09:29:03Z</time>
      </trkpt>
      <trkpt lat="45.31889" lon="6.04677">
        <ele>1569</ele>
        <time>2021-12-12T09:29:07Z</time>
      </trkpt>
      <trkpt lat="45.3189" lon="6.04681">
        <ele>1569</ele>
        <time>2021-12-12T09:29:10Z</time>
      </trkpt>
      <trkpt lat="45.3189" lon="6.04683">
        <ele>1570</ele>
        <time>2021-12-12T09:29:13Z</time>
      </trkpt>
      <trkpt lat="45.3189" lon="6.04686">
        <ele>1570</ele>
        <time>2021-12-12T09:29:16Z</time>
      </trkpt>
      <trkpt lat="45.3189" lon="6.04689">
        <ele>1570</ele>
        <time>2021-12-12T09:29:20Z</time>
      </trkpt>
      <trkpt lat="45.3189" lon="6.04692">
        <ele>1573</ele>
        <time>2021-12-12T09:29:23Z</time>
      </trkpt>
      <trkpt lat="45.3189" lon="6.04695">
        <ele>1573</ele>
        <time>2021-12-12T09:29:30Z</time>
      </trkpt>
      <trkpt lat="45.3189" lon="6.04698">
        <ele>1575</ele>
        <time>2021-12-12T09:29:34Z</time>
      </trkpt>
      <trkpt lat="45.3189" lon="6.04701">
        <ele>1575</ele>
        <time>2021-12-12T09:29:37Z</time>
      </trkpt>
      <trkpt lat="45.3189" lon="6.04704">
        <ele>1575</ele>
        <time>2021-12-12T09:29:40Z</time>
      </trkpt>
      <trkpt lat="45.3189" lon="6.04707">
        <ele>1576</ele>
        <time>2021-12-12T09:29:42Z</time>
      </trkpt>
      <trkpt lat="45.3189" lon="6.0471">
        <ele>1576</ele>
        <time>2021-12-12T09:29:45Z</time>
      </trkpt>
      <trkpt lat="45.3189" lon="6.04713">
        <ele>1576</ele>
        <time>2021-12-12T09:29:46Z</time>
      </trkpt>
      <trkpt lat="45.31889" lon="6.04716">
        <ele>1576</ele>
        <time>2021-12-12T09:29:49Z</time>
      </trkpt>
      <trkpt lat="45.31888" lon="6.04718">
        <ele>1578</ele>
        <time>2021-12-12T09:29:54Z</time>
      </trkpt>
      <trkpt lat="45.31887" lon="6.04721">
        <ele>1578</ele>
        <time>2021-12-12T09:29:58Z</time>
      </trkpt>
      <trkpt lat="45.31886" lon="6.04723">
        <ele>1578</ele>
        <time>2021-12-12T09:30:01Z</time>
      </trkpt>
      <trkpt lat="45.31884" lon="6.04725">
        <ele>1579</ele>
        <time>2021-12-12T09:30:06Z</time>
      </trkpt>
      <trkpt lat="45.31882" lon="6.04726">
        <ele>1581</ele>
        <time>2021-12-12T09:30:12Z</time>
      </trkpt>
      <trkpt lat="45.31881" lon="6.04728">
        <ele>1581</ele>
        <time>2021-12-12T09:30:16Z</time>
      </trkpt>
      <trkpt lat="45.3188" lon="6.04729">
        <ele>1581</ele>
        <time>2021-12-12T09:30:20Z</time>
      </trkpt>
      <trkpt lat="45.31879" lon="6.04732">
        <ele>1583</ele>
        <time>2021-12-12T09:30:23Z</time>
      </trkpt>
      <trkpt lat="45.31877" lon="6.04734">
        <ele>1583</ele>
        <time>2021-12-12T09:30:27Z</time>
      </trkpt>
      <trkpt lat="45.31875" lon="6.04734">
        <ele>1583</ele>
        <time>2021-12-12T09:30:31Z</time>
      </trkpt>
      <trkpt lat="45.31873" lon="6.04734">
        <ele>1584</ele>
        <time>2021-12-12T09:30:35Z</time>
      </trkpt>
      <trkpt lat="45.31871" lon="6.04735">
        <ele>1584</ele>
        <time>2021-12-12T09:30:40Z</time>
      </trkpt>
      <trkpt lat="45.3187" lon="6.04737">
        <ele>1585</ele>
        <time>2021-12-12T09:30:46Z</time>
      </trkpt>
      <trkpt lat="45.31869" lon="6.0474">
        <ele>1585</ele>
        <time>2021-12-12T09:30:50Z</time>
      </trkpt>
      <trkpt lat="45.31869" lon="6.04743">
        <ele>1587</ele>
        <time>2021-12-12T09:30:53Z</time>
      </trkpt>
      <trkpt lat="45.31869" lon="6.04746">
        <ele>1587</ele>
        <time>2021-12-12T09:30:56Z</time>
      </trkpt>
      <trkpt lat="45.31869" lon="6.04748">
        <ele>1587</ele>
        <time>2021-12-12T09:31:00Z</time>
      </trkpt>
      <trkpt lat="45.31869" lon="6.04752">
        <ele>1589</ele>
        <time>2021-12-12T09:31:03Z</time>
      </trkpt>
      <trkpt lat="45.31868" lon="6.04754">
        <ele>1589</ele>
        <time>2021-12-12T09:31:07Z</time>
      </trkpt>
      <trkpt lat="45.31868" lon="6.04757">
        <ele>1589</ele>
        <time>2021-12-12T09:31:10Z</time>
      </trkpt>
      <trkpt lat="45.31867" lon="6.04759">
        <ele>1589</ele>
        <time>2021-12-12T09:31:14Z</time>
      </trkpt>
      <trkpt lat="45.31865" lon="6.04758">
        <ele>1589</ele>
        <time>2021-12-12T09:31:17Z</time>
      </trkpt>
      <trkpt lat="45.31863" lon="6.04757">
        <ele>1589</ele>
        <time>2021-12-12T09:31:21Z</time>
      </trkpt>
      <trkpt lat="45.31861" lon="6.04755">
        <ele>1591</ele>
        <time>2021-12-12T09:31:24Z</time>
      </trkpt>
      <trkpt lat="45.3186" lon="6.04754">
        <ele>1591</ele>
        <time>2021-12-12T09:31:26Z</time>
      </trkpt>
      <trkpt lat="45.31858" lon="6.04753">
        <ele>1591</ele>
        <time>2021-12-12T09:31:29Z</time>
      </trkpt>
      <trkpt lat="45.31856" lon="6.04752">
        <ele>1593</ele>
        <time>2021-12-12T09:31:33Z</time>
      </trkpt>
      <trkpt lat="45.31854" lon="6.04751">
        <ele>1593</ele>
        <time>2021-12-12T09:31:37Z</time>
      </trkpt>
      <trkpt lat="45.31852" lon="6.04751">
        <ele>1593</ele>
        <time>2021-12-12T09:31:41Z</time>
      </trkpt>
      <trkpt lat="45.3185" lon="6.0475">
        <ele>1595</ele>
        <time>2021-12-12T09:31:45Z</time>
      </trkpt>
      <trkpt lat="45.31848" lon="6.0475">
        <ele>1595</ele>
        <time>2021-12-12T09:31:48Z</time>
      </trkpt>
      <trkpt lat="45.31846" lon="6.04749">
        <ele>1595</ele>
        <time>2021-12-12T09:31:52Z</time>
      </trkpt>
      <trkpt lat="45.31843" lon="6.04747">
        <ele>1595</ele>
        <time>2021-12-12T09:31:55Z</time>
      </trkpt>
      <trkpt lat="45.31842" lon="6.04746">
        <ele>1595</ele>
        <time>2021-12-12T09:31:58Z</time>
      </trkpt>
      <trkpt lat="45.3184" lon="6.04745">
        <ele>1595</ele>
        <time>2021-12-12T09:32:01Z</time>
      </trkpt>
      <trkpt lat="45.31838" lon="6.04744">
        <ele>1597</ele>
        <time>2021-12-12T09:32:05Z</time>
      </trkpt>
      <trkpt lat="45.31836" lon="6.04743">
        <ele>1597</ele>
        <time>2021-12-12T09:32:09Z</time>
      </trkpt>
      <trkpt lat="45.31834" lon="6.04743">
        <ele>1598</ele>
        <time>2021-12-12T09:32:13Z</time>
      </trkpt>
      <trkpt lat="45.31831" lon="6.04742">
        <ele>1598</ele>
        <time>2021-12-12T09:32:18Z</time>
      </trkpt>
      <trkpt lat="45.3183" lon="6.04742">
        <ele>1598</ele>
        <time>2021-12-12T09:32:21Z</time>
      </trkpt>
      <trkpt lat="45.31828" lon="6.04741">
        <ele>1600</ele>
        <time>2021-12-12T09:32:23Z</time>
      </trkpt>
      <trkpt lat="45.31826" lon="6.04741">
        <ele>1600</ele>
        <time>2021-12-12T09:32:27Z</time>
      </trkpt>
      <trkpt lat="45.31824" lon="6.04741">
        <ele>1602</ele>
        <time>2021-12-12T09:32:32Z</time>
      </trkpt>
      <trkpt lat="45.31822" lon="6.04742">
        <ele>1602</ele>
        <time>2021-12-12T09:32:36Z</time>
      </trkpt>
      <trkpt lat="45.3182" lon="6.04744">
        <ele>1602</ele>
        <time>2021-12-12T09:32:38Z</time>
      </trkpt>
      <trkpt lat="45.31819" lon="6.04745">
        <ele>1602</ele>
        <time>2021-12-12T09:32:41Z</time>
      </trkpt>
      <trkpt lat="45.31817" lon="6.04748">
        <ele>1603</ele>
        <time>2021-12-12T09:32:44Z</time>
      </trkpt>
      <trkpt lat="45.31816" lon="6.0475">
        <ele>1603</ele>
        <time>2021-12-12T09:32:47Z</time>
      </trkpt>
      <trkpt lat="45.31815" lon="6.04752">
        <ele>1603</ele>
        <time>2021-12-12T09:32:51Z</time>
      </trkpt>
      <trkpt lat="45.31813" lon="6.04755">
        <ele>1603</ele>
        <time>2021-12-12T09:32:53Z</time>
      </trkpt>
      <trkpt lat="45.31811" lon="6.04757">
        <ele>1603</ele>
        <time>2021-12-12T09:32:56Z</time>
      </trkpt>
      <trkpt lat="45.3181" lon="6.04759">
        <ele>1603</ele>
        <time>2021-12-12T09:32:59Z</time>
      </trkpt>
      <trkpt lat="45.31808" lon="6.04762">
        <ele>1606</ele>
        <time>2021-12-12T09:33:04Z</time>
      </trkpt>
      <trkpt lat="45.31807" lon="6.04763">
        <ele>1606</ele>
        <time>2021-12-12T09:33:07Z</time>
      </trkpt>
      <trkpt lat="45.31805" lon="6.04765">
        <ele>1606</ele>
        <time>2021-12-12T09:33:10Z</time>
      </trkpt>
      <trkpt lat="45.31803" lon="6.04767">
        <ele>1608</ele>
        <time>2021-12-12T09:33:14Z</time>
      </trkpt>
      <trkpt lat="45.31802" lon="6.0477">
        <ele>1608</ele>
        <time>2021-12-12T09:33:16Z</time>
      </trkpt>
      <trkpt lat="45.318" lon="6.04771">
        <ele>1608</ele>
        <time>2021-12-12T09:33:19Z</time>
      </trkpt>
      <trkpt lat="45.31798" lon="6.04774">
        <ele>1608</ele>
        <time>2021-12-12T09:33:22Z</time>
      </trkpt>
      <trkpt lat="45.31797" lon="6.04775">
        <ele>1608</ele>
        <time>2021-12-12T09:33:25Z</time>
      </trkpt>
      <trkpt lat="45.31795" lon="6.04777">
        <ele>1608</ele>
        <time>2021-12-12T09:33:29Z</time>
      </trkpt>
      <trkpt lat="45.31794" lon="6.04779">
        <ele>1608</ele>
        <time>2021-12-12T09:33:31Z</time>
      </trkpt>
      <trkpt lat="45.31792" lon="6.04781">
        <ele>1609</ele>
        <time>2021-12-12T09:33:34Z</time>
      </trkpt>
      <trkpt lat="45.31791" lon="6.04783">
        <ele>1609</ele>
        <time>2021-12-12T09:33:37Z</time>
      </trkpt>
      <trkpt lat="45.31789" lon="6.04785">
        <ele>1609</ele>
        <time>2021-12-12T09:33:41Z</time>
      </trkpt>
      <trkpt lat="45.31788" lon="6.04788">
        <ele>1610</ele>
        <time>2021-12-12T09:33:45Z</time>
      </trkpt>
      <trkpt lat="45.31786" lon="6.0479">
        <ele>1610</ele>
        <time>2021-12-12T09:33:49Z</time>
      </trkpt>
      <trkpt lat="45.31785" lon="6.04792">
        <ele>1612</ele>
        <time>2021-12-12T09:33:53Z</time>
      </trkpt>
      <trkpt lat="45.31783" lon="6.04794">
        <ele>1612</ele>
        <time>2021-12-12T09:33:56Z</time>
      </trkpt>
      <trkpt lat="45.31781" lon="6.04796">
        <ele>1612</ele>
        <time>2021-12-12T09:34:00Z</time>
      </trkpt>
      <trkpt lat="45.3178" lon="6.04798">
        <ele>1614</ele>
        <time>2021-12-12T09:34:04Z</time>
      </trkpt>
      <trkpt lat="45.31778" lon="6.04801">
        <ele>1614</ele>
        <time>2021-12-12T09:34:08Z</time>
      </trkpt>
      <trkpt lat="45.31776" lon="6.04802">
        <ele>1615</ele>
        <time>2021-12-12T09:34:12Z</time>
      </trkpt>
      <trkpt lat="45.31775" lon="6.04804">
        <ele>1615</ele>
        <time>2021-12-12T09:34:14Z</time>
      </trkpt>
      <trkpt lat="45.31773" lon="6.04805">
        <ele>1615</ele>
        <time>2021-12-12T09:34:18Z</time>
      </trkpt>
      <trkpt lat="45.31775" lon="6.04806">
        <ele>1617</ele>
        <time>2021-12-12T09:34:26Z</time>
      </trkpt>
      <trkpt lat="45.31777" lon="6.04806">
        <ele>1617</ele>
        <time>2021-12-12T09:34:28Z</time>
      </trkpt>
      <trkpt lat="45.31779" lon="6.04806">
        <ele>1617</ele>
        <time>2021-12-12T09:34:31Z</time>
      </trkpt>
      <trkpt lat="45.31781" lon="6.04806">
        <ele>1618</ele>
        <time>2021-12-12T09:34:35Z</time>
      </trkpt>
      <trkpt lat="45.31782" lon="6.04808">
        <ele>1618</ele>
        <time>2021-12-12T09:34:39Z</time>
      </trkpt>
      <trkpt lat="45.31781" lon="6.04811">
        <ele>1620</ele>
        <time>2021-12-12T09:34:43Z</time>
      </trkpt>
      <trkpt lat="45.3178" lon="6.04814">
        <ele>1620</ele>
        <time>2021-12-12T09:34:46Z</time>
      </trkpt>
      <trkpt lat="45.31779" lon="6.04816">
        <ele>1620</ele>
        <time>2021-12-12T09:34:49Z</time>
      </trkpt>
      <trkpt lat="45.31777" lon="6.04818">
        <ele>1621</ele>
        <time>2021-12-12T09:34:52Z</time>
      </trkpt>
      <trkpt lat="45.31777" lon="6.04822">
        <ele>1621</ele>
        <time>2021-12-12T09:34:55Z</time>
      </trkpt>
      <trkpt lat="45.31775" lon="6.04824">
        <ele>1621</ele>
        <time>2021-12-12T09:34:58Z</time>
      </trkpt>
      <trkpt lat="45.31773" lon="6.04825">
        <ele>1621</ele>
        <time>2021-12-12T09:35:01Z</time>
      </trkpt>
      <trkpt lat="45.31771" lon="6.04826">
        <ele>1623</ele>
        <time>2021-12-12T09:35:05Z</time>
      </trkpt>
      <trkpt lat="45.31769" lon="6.04829">
        <ele>1623</ele>
        <time>2021-12-12T09:35:09Z</time>
      </trkpt>
      <trkpt lat="45.31767" lon="6.04831">
        <ele>1623</ele>
        <time>2021-12-12T09:35:11Z</time>
      </trkpt>
      <trkpt lat="45.31766" lon="6.04832">
        <ele>1625</ele>
        <time>2021-12-12T09:35:14Z</time>
      </trkpt>
      <trkpt lat="45.31764" lon="6.04833">
        <ele>1625</ele>
        <time>2021-12-12T09:35:17Z</time>
      </trkpt>
      <trkpt lat="45.31762" lon="6.04834">
        <ele>1625</ele>
        <time>2021-12-12T09:35:20Z</time>
      </trkpt>
      <trkpt lat="45.3176" lon="6.04835">
        <ele>1626</ele>
        <time>2021-12-12T09:35:25Z</time>
      </trkpt>
      <trkpt lat="45.31759" lon="6.04837">
        <ele>1626</ele>
        <time>2021-12-12T09:35:29Z</time>
      </trkpt>
      <trkpt lat="45.3176" lon="6.0484">
        <ele>1628</ele>
        <time>2021-12-12T09:35:33Z</time>
      </trkpt>
      <trkpt lat="45.31761" lon="6.04843">
        <ele>1628</ele>
        <time>2021-12-12T09:35:36Z</time>
      </trkpt>
      <trkpt lat="45.31762" lon="6.04845">
        <ele>1628</ele>
        <time>2021-12-12T09:35:40Z</time>
      </trkpt>
      <trkpt lat="45.31764" lon="6.04845">
        <ele>1630</ele>
        <time>2021-12-12T09:35:46Z</time>
      </trkpt>
      <trkpt lat="45.31767" lon="6.04846">
        <ele>1630</ele>
        <time>2021-12-12T09:35:50Z</time>
      </trkpt>
      <trkpt lat="45.31766" lon="6.04849">
        <ele>1631</ele>
        <time>2021-12-12T09:35:54Z</time>
      </trkpt>
      <trkpt lat="45.31765" lon="6.04851">
        <ele>1631</ele>
        <time>2021-12-12T09:35:57Z</time>
      </trkpt>
      <trkpt lat="45.31763" lon="6.04853">
        <ele>1631</ele>
        <time>2021-12-12T09:36:00Z</time>
      </trkpt>
      <trkpt lat="45.31761" lon="6.04855">
        <ele>1632</ele>
        <time>2021-12-12T09:36:03Z</time>
      </trkpt>
      <trkpt lat="45.3176" lon="6.04856">
        <ele>1632</ele>
        <time>2021-12-12T09:36:07Z</time>
      </trkpt>
      <trkpt lat="45.31761" lon="6.04859">
        <ele>1634</ele>
        <time>2021-12-12T09:36:24Z</time>
      </trkpt>
      <trkpt lat="45.31762" lon="6.04861">
        <ele>1634</ele>
        <time>2021-12-12T09:36:27Z</time>
      </trkpt>
      <trkpt lat="45.31763" lon="6.04862">
        <ele>1634</ele>
        <time>2021-12-12T09:36:29Z</time>
      </trkpt>
      <trkpt lat="45.31765" lon="6.04863">
        <ele>1634</ele>
        <time>2021-12-12T09:36:31Z</time>
      </trkpt>
      <trkpt lat="45.31768" lon="6.04863">
        <ele>1635</ele>
        <time>2021-12-12T09:36:34Z</time>
      </trkpt>
      <trkpt lat="45.3177" lon="6.04863">
        <ele>1635</ele>
        <time>2021-12-12T09:36:37Z</time>
      </trkpt>
      <trkpt lat="45.31772" lon="6.04865">
        <ele>1635</ele>
        <time>2021-12-12T09:36:40Z</time>
      </trkpt>
      <trkpt lat="45.31771" lon="6.04867">
        <ele>1638</ele>
        <time>2021-12-12T09:36:43Z</time>
      </trkpt>
      <trkpt lat="45.31769" lon="6.04868">
        <ele>1638</ele>
        <time>2021-12-12T09:36:45Z</time>
      </trkpt>
      <trkpt lat="45.31766" lon="6.04868">
        <ele>1638</ele>
        <time>2021-12-12T09:36:47Z</time>
      </trkpt>
      <trkpt lat="45.31764" lon="6.04868">
        <ele>1638</ele>
        <time>2021-12-12T09:36:49Z</time>
      </trkpt>
      <trkpt lat="45.31762" lon="6.04868">
        <ele>1638</ele>
        <time>2021-12-12T09:36:51Z</time>
      </trkpt>
      <trkpt lat="45.31761" lon="6.04868">
        <ele>1639</ele>
        <time>2021-12-12T09:36:54Z</time>
      </trkpt>
      <trkpt lat="45.31759" lon="6.04868">
        <ele>1639</ele>
        <time>2021-12-12T09:36:59Z</time>
      </trkpt>
      <trkpt lat="45.31756" lon="6.04868">
        <ele>1639</ele>
        <time>2021-12-12T09:37:02Z</time>
      </trkpt>
      <trkpt lat="45.31754" lon="6.04868">
        <ele>1639</ele>
        <time>2021-12-12T09:37:05Z</time>
      </trkpt>
      <trkpt lat="45.31751" lon="6.04868">
        <ele>1639</ele>
        <time>2021-12-12T09:37:07Z</time>
      </trkpt>
      <trkpt lat="45.31749" lon="6.04869">
        <ele>1639</ele>
        <time>2021-12-12T09:37:10Z</time>
      </trkpt>
      <trkpt lat="45.31746" lon="6.04869">
        <ele>1639</ele>
        <time>2021-12-12T09:37:13Z</time>
      </trkpt>
      <trkpt lat="45.31744" lon="6.04869">
        <ele>1639</ele>
        <time>2021-12-12T09:37:16Z</time>
      </trkpt>
      <trkpt lat="45.31742" lon="6.04869">
        <ele>1639</ele>
        <time>2021-12-12T09:37:21Z</time>
      </trkpt>
      <trkpt lat="45.3174" lon="6.04868">
        <ele>1641</ele>
        <time>2021-12-12T09:37:25Z</time>
      </trkpt>
      <trkpt lat="45.31738" lon="6.04868">
        <ele>1641</ele>
        <time>2021-12-12T09:37:29Z</time>
      </trkpt>
      <trkpt lat="45.31736" lon="6.04868">
        <ele>1643</ele>
        <time>2021-12-12T09:37:34Z</time>
      </trkpt>
      <trkpt lat="45.31734" lon="6.04868">
        <ele>1643</ele>
        <time>2021-12-12T09:37:37Z</time>
      </trkpt>
      <trkpt lat="45.31732" lon="6.04868">
        <ele>1643</ele>
        <time>2021-12-12T09:37:40Z</time>
      </trkpt>
      <trkpt lat="45.3173" lon="6.04867">
        <ele>1645</ele>
        <time>2021-12-12T09:37:44Z</time>
      </trkpt>
      <trkpt lat="45.31728" lon="6.04868">
        <ele>1645</ele>
        <time>2021-12-12T09:37:48Z</time>
      </trkpt>
      <trkpt lat="45.31726" lon="6.04868">
        <ele>1647</ele>
        <time>2021-12-12T09:37:52Z</time>
      </trkpt>
      <trkpt lat="45.31724" lon="6.04866">
        <ele>1647</ele>
        <time>2021-12-12T09:37:55Z</time>
      </trkpt>
      <trkpt lat="45.31723" lon="6.04864">
        <ele>1647</ele>
        <time>2021-12-12T09:37:59Z</time>
      </trkpt>
      <trkpt lat="45.31721" lon="6.04861">
        <ele>1647</ele>
        <time>2021-12-12T09:38:01Z</time>
      </trkpt>
      <trkpt lat="45.3172" lon="6.0486">
        <ele>1648</ele>
        <time>2021-12-12T09:38:04Z</time>
      </trkpt>
      <trkpt lat="45.31718" lon="6.04858">
        <ele>1648</ele>
        <time>2021-12-12T09:38:08Z</time>
      </trkpt>
      <trkpt lat="45.31716" lon="6.04858">
        <ele>1652</ele>
        <time>2021-12-12T09:38:13Z</time>
      </trkpt>
      <trkpt lat="45.31714" lon="6.04859">
        <ele>1652</ele>
        <time>2021-12-12T09:38:17Z</time>
      </trkpt>
      <trkpt lat="45.31713" lon="6.04861">
        <ele>1652</ele>
        <time>2021-12-12T09:38:20Z</time>
      </trkpt>
      <trkpt lat="45.31712" lon="6.04863">
        <ele>1651</ele>
        <time>2021-12-12T09:38:25Z</time>
      </trkpt>
      <trkpt lat="45.31711" lon="6.04866">
        <ele>1651</ele>
        <time>2021-12-12T09:38:28Z</time>
      </trkpt>
      <trkpt lat="45.3171" lon="6.04869">
        <ele>1652</ele>
        <time>2021-12-12T09:38:32Z</time>
      </trkpt>
      <trkpt lat="45.3171" lon="6.04871">
        <ele>1652</ele>
        <time>2021-12-12T09:38:37Z</time>
      </trkpt>
      <trkpt lat="45.31709" lon="6.04875">
        <ele>1652</ele>
        <time>2021-12-12T09:38:40Z</time>
      </trkpt>
      <trkpt lat="45.31708" lon="6.04877">
        <ele>1653</ele>
        <time>2021-12-12T09:38:44Z</time>
      </trkpt>
      <trkpt lat="45.31706" lon="6.04878">
        <ele>1653</ele>
        <time>2021-12-12T09:38:47Z</time>
      </trkpt>
      <trkpt lat="45.31703" lon="6.04879">
        <ele>1653</ele>
        <time>2021-12-12T09:38:49Z</time>
      </trkpt>
      <trkpt lat="45.31701" lon="6.04879">
        <ele>1655</ele>
        <time>2021-12-12T09:38:52Z</time>
      </trkpt>
      <trkpt lat="45.31699" lon="6.04879">
        <ele>1655</ele>
        <time>2021-12-12T09:38:56Z</time>
      </trkpt>
      <trkpt lat="45.31697" lon="6.04878">
        <ele>1655</ele>
        <time>2021-12-12T09:38:58Z</time>
      </trkpt>
      <trkpt lat="45.31695" lon="6.04877">
        <ele>1655</ele>
        <time>2021-12-12T09:39:01Z</time>
      </trkpt>
      <trkpt lat="45.31693" lon="6.04876">
        <ele>1658</ele>
        <time>2021-12-12T09:39:04Z</time>
      </trkpt>
      <trkpt lat="45.31691" lon="6.04876">
        <ele>1658</ele>
        <time>2021-12-12T09:39:08Z</time>
      </trkpt>
      <trkpt lat="45.31689" lon="6.04877">
        <ele>1658</ele>
        <time>2021-12-12T09:39:11Z</time>
      </trkpt>
      <trkpt lat="45.31687" lon="6.04877">
        <ele>1660</ele>
        <time>2021-12-12T09:39:15Z</time>
      </trkpt>
      <trkpt lat="45.31685" lon="6.04877">
        <ele>1660</ele>
        <time>2021-12-12T09:39:17Z</time>
      </trkpt>
      <trkpt lat="45.31683" lon="6.04878">
        <ele>1661</ele>
        <time>2021-12-12T09:39:27Z</time>
      </trkpt>
      <trkpt lat="45.31681" lon="6.04879">
        <ele>1661</ele>
        <time>2021-12-12T09:39:30Z</time>
      </trkpt>
      <trkpt lat="45.3168" lon="6.04882">
        <ele>1662</ele>
        <time>2021-12-12T09:39:34Z</time>
      </trkpt>
      <trkpt lat="45.31678" lon="6.04884">
        <ele>1662</ele>
        <time>2021-12-12T09:39:38Z</time>
      </trkpt>
      <trkpt lat="45.31677" lon="6.04887">
        <ele>1662</ele>
        <time>2021-12-12T09:39:41Z</time>
      </trkpt>
      <trkpt lat="45.31675" lon="6.04889">
        <ele>1663</ele>
        <time>2021-12-12T09:39:44Z</time>
      </trkpt>
      <trkpt lat="45.31673" lon="6.0489">
        <ele>1663</ele>
        <time>2021-12-12T09:39:47Z</time>
      </trkpt>
      <trkpt lat="45.31671" lon="6.04893">
        <ele>1663</ele>
        <time>2021-12-12T09:39:51Z</time>
      </trkpt>
      <trkpt lat="45.3167" lon="6.04895">
        <ele>1663</ele>
        <time>2021-12-12T09:39:53Z</time>
      </trkpt>
      <trkpt lat="45.31668" lon="6.04896">
        <ele>1663</ele>
        <time>2021-12-12T09:39:54Z</time>
      </trkpt>
      <trkpt lat="45.31666" lon="6.04898">
        <ele>1663</ele>
        <time>2021-12-12T09:39:56Z</time>
      </trkpt>
      <trkpt lat="45.31665" lon="6.04899">
        <ele>1663</ele>
        <time>2021-12-12T09:39:58Z</time>
      </trkpt>
      <trkpt lat="45.31663" lon="6.049">
        <ele>1663</ele>
        <time>2021-12-12T09:40:00Z</time>
      </trkpt>
      <trkpt lat="45.31661" lon="6.04901">
        <ele>1664</ele>
        <time>2021-12-12T09:40:02Z</time>
      </trkpt>
      <trkpt lat="45.31659" lon="6.04901">
        <ele>1664</ele>
        <time>2021-12-12T09:40:04Z</time>
      </trkpt>
      <trkpt lat="45.31657" lon="6.04902">
        <ele>1664</ele>
        <time>2021-12-12T09:40:07Z</time>
      </trkpt>
      <trkpt lat="45.31655" lon="6.04903">
        <ele>1664</ele>
        <time>2021-12-12T09:40:10Z</time>
      </trkpt>
      <trkpt lat="45.31652" lon="6.04904">
        <ele>1665</ele>
        <time>2021-12-12T09:40:12Z</time>
      </trkpt>
      <trkpt lat="45.3165" lon="6.04905">
        <ele>1665</ele>
        <time>2021-12-12T09:40:15Z</time>
      </trkpt>
      <trkpt lat="45.31648" lon="6.04906">
        <ele>1665</ele>
        <time>2021-12-12T09:40:19Z</time>
      </trkpt>
      <trkpt lat="45.31646" lon="6.04906">
        <ele>1665</ele>
        <time>2021-12-12T09:40:23Z</time>
      </trkpt>
      <trkpt lat="45.31644" lon="6.04906">
        <ele>1665</ele>
        <time>2021-12-12T09:40:27Z</time>
      </trkpt>
      <trkpt lat="45.31642" lon="6.04907">
        <ele>1665</ele>
        <time>2021-12-12T09:40:29Z</time>
      </trkpt>
      <trkpt lat="45.3164" lon="6.04909">
        <ele>1664</ele>
        <time>2021-12-12T09:40:32Z</time>
      </trkpt>
      <trkpt lat="45.31638" lon="6.0491">
        <ele>1664</ele>
        <time>2021-12-12T09:40:35Z</time>
      </trkpt>
      <trkpt lat="45.31636" lon="6.04911">
        <ele>1664</ele>
        <time>2021-12-12T09:40:37Z</time>
      </trkpt>
      <trkpt lat="45.31633" lon="6.04911">
        <ele>1664</ele>
        <time>2021-12-12T09:40:40Z</time>
      </trkpt>
      <trkpt lat="45.31631" lon="6.04912">
        <ele>1666</ele>
        <time>2021-12-12T09:40:43Z</time>
      </trkpt>
      <trkpt lat="45.31629" lon="6.04913">
        <ele>1666</ele>
        <time>2021-12-12T09:40:46Z</time>
      </trkpt>
      <trkpt lat="45.31626" lon="6.04914">
        <ele>1666</ele>
        <time>2021-12-12T09:40:50Z</time>
      </trkpt>
      <trkpt lat="45.31624" lon="6.04915">
        <ele>1666</ele>
        <time>2021-12-12T09:40:53Z</time>
      </trkpt>
      <trkpt lat="45.31622" lon="6.04916">
        <ele>1666</ele>
        <time>2021-12-12T09:40:55Z</time>
      </trkpt>
      <trkpt lat="45.31619" lon="6.04917">
        <ele>1666</ele>
        <time>2021-12-12T09:40:58Z</time>
      </trkpt>
      <trkpt lat="45.31618" lon="6.04918">
        <ele>1666</ele>
        <time>2021-12-12T09:41:00Z</time>
      </trkpt>
      <trkpt lat="45.31615" lon="6.04919">
        <ele>1667</ele>
        <time>2021-12-12T09:41:03Z</time>
      </trkpt>
      <trkpt lat="45.31613" lon="6.04919">
        <ele>1667</ele>
        <time>2021-12-12T09:41:06Z</time>
      </trkpt>
      <trkpt lat="45.31611" lon="6.0492">
        <ele>1667</ele>
        <time>2021-12-12T09:41:10Z</time>
      </trkpt>
      <trkpt lat="45.31609" lon="6.04921">
        <ele>1668</ele>
        <time>2021-12-12T09:41:12Z</time>
      </trkpt>
      <trkpt lat="45.31606" lon="6.04921">
        <ele>1668</ele>
        <time>2021-12-12T09:41:15Z</time>
      </trkpt>
      <trkpt lat="45.31604" lon="6.04922">
        <ele>1668</ele>
        <time>2021-12-12T09:41:18Z</time>
      </trkpt>
      <trkpt lat="45.31602" lon="6.04923">
        <ele>1668</ele>
        <time>2021-12-12T09:41:21Z</time>
      </trkpt>
      <trkpt lat="45.316" lon="6.04923">
        <ele>1669</ele>
        <time>2021-12-12T09:41:24Z</time>
      </trkpt>
      <trkpt lat="45.31597" lon="6.04924">
        <ele>1669</ele>
        <time>2021-12-12T09:41:28Z</time>
      </trkpt>
      <trkpt lat="45.31595" lon="6.04924">
        <ele>1669</ele>
        <time>2021-12-12T09:41:31Z</time>
      </trkpt>
      <trkpt lat="45.31593" lon="6.04925">
        <ele>1670</ele>
        <time>2021-12-12T09:41:33Z</time>
      </trkpt>
      <trkpt lat="45.31592" lon="6.04925">
        <ele>1670</ele>
        <time>2021-12-12T09:41:36Z</time>
      </trkpt>
      <trkpt lat="45.3159" lon="6.04926">
        <ele>1670</ele>
        <time>2021-12-12T09:41:39Z</time>
      </trkpt>
      <trkpt lat="45.31588" lon="6.04927">
        <ele>1671</ele>
        <time>2021-12-12T09:41:42Z</time>
      </trkpt>
      <trkpt lat="45.31586" lon="6.04928">
        <ele>1671</ele>
        <time>2021-12-12T09:41:45Z</time>
      </trkpt>
      <trkpt lat="45.31584" lon="6.04929">
        <ele>1671</ele>
        <time>2021-12-12T09:41:48Z</time>
      </trkpt>
      <trkpt lat="45.31582" lon="6.04929">
        <ele>1671</ele>
        <time>2021-12-12T09:41:51Z</time>
      </trkpt>
      <trkpt lat="45.3158" lon="6.0493">
        <ele>1673</ele>
        <time>2021-12-12T09:41:54Z</time>
      </trkpt>
      <trkpt lat="45.31578" lon="6.0493">
        <ele>1673</ele>
        <time>2021-12-12T09:41:57Z</time>
      </trkpt>
      <trkpt lat="45.31576" lon="6.04931">
        <ele>1673</ele>
        <time>2021-12-12T09:42:00Z</time>
      </trkpt>
      <trkpt lat="45.31574" lon="6.0493">
        <ele>1675</ele>
        <time>2021-12-12T09:42:03Z</time>
      </trkpt>
      <trkpt lat="45.31572" lon="6.0493">
        <ele>1675</ele>
        <time>2021-12-12T09:42:07Z</time>
      </trkpt>
      <trkpt lat="45.31569" lon="6.0493">
        <ele>1675</ele>
        <time>2021-12-12T09:42:11Z</time>
      </trkpt>
      <trkpt lat="45.31567" lon="6.04931">
        <ele>1676</ele>
        <time>2021-12-12T09:42:13Z</time>
      </trkpt>
      <trkpt lat="45.31565" lon="6.0493">
        <ele>1676</ele>
        <time>2021-12-12T09:42:16Z</time>
      </trkpt>
      <trkpt lat="45.31563" lon="6.04929">
        <ele>1676</ele>
        <time>2021-12-12T09:42:21Z</time>
      </trkpt>
      <trkpt lat="45.31562" lon="6.04927">
        <ele>1676</ele>
        <time>2021-12-12T09:42:23Z</time>
      </trkpt>
      <trkpt lat="45.31561" lon="6.04925">
        <ele>1676</ele>
        <time>2021-12-12T09:42:26Z</time>
      </trkpt>
      <trkpt lat="45.31559" lon="6.04926">
        <ele>1678</ele>
        <time>2021-12-12T09:42:33Z</time>
      </trkpt>
      <trkpt lat="45.31558" lon="6.04929">
        <ele>1678</ele>
        <time>2021-12-12T09:42:37Z</time>
      </trkpt>
      <trkpt lat="45.31558" lon="6.04932">
        <ele>1678</ele>
        <time>2021-12-12T09:42:40Z</time>
      </trkpt>
      <trkpt lat="45.31557" lon="6.04935">
        <ele>1680</ele>
        <time>2021-12-12T09:42:44Z</time>
      </trkpt>
      <trkpt lat="45.31556" lon="6.04938">
        <ele>1680</ele>
        <time>2021-12-12T09:42:47Z</time>
      </trkpt>
      <trkpt lat="45.31556" lon="6.04941">
        <ele>1680</ele>
        <time>2021-12-12T09:42:49Z</time>
      </trkpt>
      <trkpt lat="45.31555" lon="6.04944">
        <ele>1682</ele>
        <time>2021-12-12T09:42:52Z</time>
      </trkpt>
      <trkpt lat="45.31555" lon="6.04946">
        <ele>1682</ele>
        <time>2021-12-12T09:42:55Z</time>
      </trkpt>
      <trkpt lat="45.31556" lon="6.04949">
        <ele>1682</ele>
        <time>2021-12-12T09:42:58Z</time>
      </trkpt>
      <trkpt lat="45.31557" lon="6.04952">
        <ele>1682</ele>
        <time>2021-12-12T09:43:01Z</time>
      </trkpt>
      <trkpt lat="45.31557" lon="6.04956">
        <ele>1683</ele>
        <time>2021-12-12T09:43:04Z</time>
      </trkpt>
      <trkpt lat="45.31558" lon="6.04958">
        <ele>1683</ele>
        <time>2021-12-12T09:43:07Z</time>
      </trkpt>
      <trkpt lat="45.31558" lon="6.04961">
        <ele>1683</ele>
        <time>2021-12-12T09:43:10Z</time>
      </trkpt>
      <trkpt lat="45.31559" lon="6.04965">
        <ele>1684</ele>
        <time>2021-12-12T09:43:14Z</time>
      </trkpt>
      <trkpt lat="45.31559" lon="6.04968">
        <ele>1684</ele>
        <time>2021-12-12T09:43:16Z</time>
      </trkpt>
      <trkpt lat="45.31558" lon="6.0497">
        <ele>1684</ele>
        <time>2021-12-12T09:43:19Z</time>
      </trkpt>
      <trkpt lat="45.31556" lon="6.04971">
        <ele>1684</ele>
        <time>2021-12-12T09:43:23Z</time>
      </trkpt>
      <trkpt lat="45.31554" lon="6.04973">
        <ele>1684</ele>
        <time>2021-12-12T09:43:28Z</time>
      </trkpt>
      <trkpt lat="45.31553" lon="6.04974">
        <ele>1686</ele>
        <time>2021-12-12T09:43:41Z</time>
      </trkpt>
      <trkpt lat="45.31551" lon="6.04976">
        <ele>1687</ele>
        <time>2021-12-12T09:43:46Z</time>
      </trkpt>
      <trkpt lat="45.31549" lon="6.04977">
        <ele>1687</ele>
        <time>2021-12-12T09:43:49Z</time>
      </trkpt>
      <trkpt lat="45.31547" lon="6.04978">
        <ele>1688</ele>
        <time>2021-12-12T09:43:52Z</time>
      </trkpt>
      <trkpt lat="45.31545" lon="6.04979">
        <ele>1688</ele>
        <time>2021-12-12T09:43:55Z</time>
      </trkpt>
      <trkpt lat="45.31543" lon="6.04979">
        <ele>1688</ele>
        <time>2021-12-12T09:43:58Z</time>
      </trkpt>
      <trkpt lat="45.31541" lon="6.04977">
        <ele>1688</ele>
        <time>2021-12-12T09:44:01Z</time>
      </trkpt>
      <trkpt lat="45.3154" lon="6.04975">
        <ele>1690</ele>
        <time>2021-12-12T09:44:02Z</time>
      </trkpt>
      <trkpt lat="45.31538" lon="6.04972">
        <ele>1690</ele>
        <time>2021-12-12T09:44:05Z</time>
      </trkpt>
      <trkpt lat="45.31536" lon="6.0497">
        <ele>1690</ele>
        <time>2021-12-12T09:44:08Z</time>
      </trkpt>
      <trkpt lat="45.31535" lon="6.04968">
        <ele>1691</ele>
        <time>2021-12-12T09:44:12Z</time>
      </trkpt>
      <trkpt lat="45.31533" lon="6.04967">
        <ele>1691</ele>
        <time>2021-12-12T09:44:14Z</time>
      </trkpt>
      <trkpt lat="45.31531" lon="6.04965">
        <ele>1691</ele>
        <time>2021-12-12T09:44:17Z</time>
      </trkpt>
      <trkpt lat="45.3153" lon="6.04963">
        <ele>1691</ele>
        <time>2021-12-12T09:44:20Z</time>
      </trkpt>
      <trkpt lat="45.31529" lon="6.04961">
        <ele>1692</ele>
        <time>2021-12-12T09:44:23Z</time>
      </trkpt>
      <trkpt lat="45.31528" lon="6.04958">
        <ele>1692</ele>
        <time>2021-12-12T09:44:26Z</time>
      </trkpt>
      <trkpt lat="45.31527" lon="6.04956">
        <ele>1692</ele>
        <time>2021-12-12T09:44:29Z</time>
      </trkpt>
      <trkpt lat="45.31527" lon="6.04953">
        <ele>1694</ele>
        <time>2021-12-12T09:44:32Z</time>
      </trkpt>
      <trkpt lat="45.31526" lon="6.0495">
        <ele>1694</ele>
        <time>2021-12-12T09:44:35Z</time>
      </trkpt>
      <trkpt lat="45.31525" lon="6.04947">
        <ele>1694</ele>
        <time>2021-12-12T09:44:39Z</time>
      </trkpt>
      <trkpt lat="45.31525" lon="6.04945">
        <ele>1694</ele>
        <time>2021-12-12T09:44:41Z</time>
      </trkpt>
      <trkpt lat="45.31525" lon="6.04941">
        <ele>1696</ele>
        <time>2021-12-12T09:44:45Z</time>
      </trkpt>
      <trkpt lat="45.31524" lon="6.04939">
        <ele>1696</ele>
        <time>2021-12-12T09:44:47Z</time>
      </trkpt>
      <trkpt lat="45.31524" lon="6.04935">
        <ele>1696</ele>
        <time>2021-12-12T09:44:50Z</time>
      </trkpt>
      <trkpt lat="45.31523" lon="6.04932">
        <ele>1697</ele>
        <time>2021-12-12T09:44:53Z</time>
      </trkpt>
      <trkpt lat="45.31523" lon="6.04929">
        <ele>1697</ele>
        <time>2021-12-12T09:44:57Z</time>
      </trkpt>
      <trkpt lat="45.31522" lon="6.04926">
        <ele>1697</ele>
        <time>2021-12-12T09:44:59Z</time>
      </trkpt>
      <trkpt lat="45.31521" lon="6.04922">
        <ele>1698</ele>
        <time>2021-12-12T09:45:02Z</time>
      </trkpt>
      <trkpt lat="45.3152" lon="6.04919">
        <ele>1698</ele>
        <time>2021-12-12T09:45:05Z</time>
      </trkpt>
      <trkpt lat="45.3152" lon="6.04915">
        <ele>1698</ele>
        <time>2021-12-12T09:45:08Z</time>
      </trkpt>
      <trkpt lat="45.3152" lon="6.04912">
        <ele>1698</ele>
        <time>2021-12-12T09:45:10Z</time>
      </trkpt>
      <trkpt lat="45.31519" lon="6.04909">
        <ele>1699</ele>
        <time>2021-12-12T09:45:13Z</time>
      </trkpt>
      <trkpt lat="45.31518" lon="6.04907">
        <ele>1699</ele>
        <time>2021-12-12T09:45:16Z</time>
      </trkpt>
      <trkpt lat="45.31517" lon="6.04904">
        <ele>1699</ele>
        <time>2021-12-12T09:45:19Z</time>
      </trkpt>
      <trkpt lat="45.31516" lon="6.04902">
        <ele>1701</ele>
        <time>2021-12-12T09:45:22Z</time>
      </trkpt>
      <trkpt lat="45.31515" lon="6.04899">
        <ele>1701</ele>
        <time>2021-12-12T09:45:26Z</time>
      </trkpt>
      <trkpt lat="45.31513" lon="6.04897">
        <ele>1703</ele>
        <time>2021-12-12T09:45:32Z</time>
      </trkpt>
      <trkpt lat="45.31512" lon="6.04897">
        <ele>1703</ele>
        <time>2021-12-12T09:45:35Z</time>
      </trkpt>
      <trkpt lat="45.31509" lon="6.04897">
        <ele>1703</ele>
        <time>2021-12-12T09:45:39Z</time>
      </trkpt>
      <trkpt lat="45.31507" lon="6.04897">
        <ele>1703</ele>
        <time>2021-12-12T09:45:42Z</time>
      </trkpt>
      <trkpt lat="45.31506" lon="6.04895">
        <ele>1703</ele>
        <time>2021-12-12T09:45:45Z</time>
      </trkpt>
      <trkpt lat="45.31505" lon="6.04893">
        <ele>1703</ele>
        <time>2021-12-12T09:45:48Z</time>
      </trkpt>
      <trkpt lat="45.31504" lon="6.04891">
        <ele>1703</ele>
        <time>2021-12-12T09:45:51Z</time>
      </trkpt>
      <trkpt lat="45.31503" lon="6.04888">
        <ele>1705</ele>
        <time>2021-12-12T09:45:55Z</time>
      </trkpt>
      <trkpt lat="45.31501" lon="6.04886">
        <ele>1705</ele>
        <time>2021-12-12T09:45:59Z</time>
      </trkpt>
      <trkpt lat="45.31499" lon="6.04887">
        <ele>1706</ele>
        <time>2021-12-12T09:46:04Z</time>
      </trkpt>
      <trkpt lat="45.31497" lon="6.04887">
        <ele>1706</ele>
        <time>2021-12-12T09:46:07Z</time>
      </trkpt>
      <trkpt lat="45.31494" lon="6.04888">
        <ele>1706</ele>
        <time>2021-12-12T09:46:10Z</time>
      </trkpt>
      <trkpt lat="45.31493" lon="6.04891">
        <ele>1709</ele>
        <time>2021-12-12T09:46:14Z</time>
      </trkpt>
      <trkpt lat="45.31493" lon="6.04894">
        <ele>1709</ele>
        <time>2021-12-12T09:46:17Z</time>
      </trkpt>
      <trkpt lat="45.31492" lon="6.04896">
        <ele>1709</ele>
        <time>2021-12-12T09:46:19Z</time>
      </trkpt>
      <trkpt lat="45.31491" lon="6.04899">
        <ele>1711</ele>
        <time>2021-12-12T09:46:22Z</time>
      </trkpt>
      <trkpt lat="45.3149" lon="6.04901">
        <ele>1711</ele>
        <time>2021-12-12T09:46:25Z</time>
      </trkpt>
      <trkpt lat="45.31487" lon="6.04901">
        <ele>1711</ele>
        <time>2021-12-12T09:46:29Z</time>
      </trkpt>
      <trkpt lat="45.31486" lon="6.049">
        <ele>1712</ele>
        <time>2021-12-12T09:46:32Z</time>
      </trkpt>
      <trkpt lat="45.31484" lon="6.04898">
        <ele>1712</ele>
        <time>2021-12-12T09:46:38Z</time>
      </trkpt>
      <trkpt lat="45.31483" lon="6.04896">
        <ele>1712</ele>
        <time>2021-12-12T09:46:41Z</time>
      </trkpt>
      <trkpt lat="45.31481" lon="6.04895">
        <ele>1712</ele>
        <time>2021-12-12T09:46:44Z</time>
      </trkpt>
      <trkpt lat="45.3148" lon="6.04892">
        <ele>1712</ele>
        <time>2021-12-12T09:46:47Z</time>
      </trkpt>
      <trkpt lat="45.31479" lon="6.0489">
        <ele>1712</ele>
        <time>2021-12-12T09:46:51Z</time>
      </trkpt>
      <trkpt lat="45.31478" lon="6.04887">
        <ele>1715</ele>
        <time>2021-12-12T09:46:53Z</time>
      </trkpt>
      <trkpt lat="45.31477" lon="6.04885">
        <ele>1715</ele>
        <time>2021-12-12T09:46:57Z</time>
      </trkpt>
      <trkpt lat="45.31475" lon="6.04882">
        <ele>1715</ele>
        <time>2021-12-12T09:47:01Z</time>
      </trkpt>
      <trkpt lat="45.31474" lon="6.0488">
        <ele>1716</ele>
        <time>2021-12-12T09:47:05Z</time>
      </trkpt>
      <trkpt lat="45.31473" lon="6.04877">
        <ele>1716</ele>
        <time>2021-12-12T09:47:08Z</time>
      </trkpt>
      <trkpt lat="45.31472" lon="6.04876">
        <ele>1718</ele>
        <time>2021-12-12T09:47:12Z</time>
      </trkpt>
      <trkpt lat="45.3147" lon="6.04874">
        <ele>1718</ele>
        <time>2021-12-12T09:47:17Z</time>
      </trkpt>
      <trkpt lat="45.31469" lon="6.04877">
        <ele>1721</ele>
        <time>2021-12-12T09:47:24Z</time>
      </trkpt>
      <trkpt lat="45.31468" lon="6.0488">
        <ele>1721</ele>
        <time>2021-12-12T09:47:27Z</time>
      </trkpt>
      <trkpt lat="45.31468" lon="6.04883">
        <ele>1721</ele>
        <time>2021-12-12T09:47:31Z</time>
      </trkpt>
      <trkpt lat="45.31467" lon="6.04887">
        <ele>1722</ele>
        <time>2021-12-12T09:47:35Z</time>
      </trkpt>
      <trkpt lat="45.31466" lon="6.04889">
        <ele>1722</ele>
        <time>2021-12-12T09:47:37Z</time>
      </trkpt>
      <trkpt lat="45.31464" lon="6.04891">
        <ele>1722</ele>
        <time>2021-12-12T09:47:39Z</time>
      </trkpt>
      <trkpt lat="45.31462" lon="6.04889">
        <ele>1722</ele>
        <time>2021-12-12T09:47:43Z</time>
      </trkpt>
      <trkpt lat="45.31461" lon="6.04887">
        <ele>1722</ele>
        <time>2021-12-12T09:47:45Z</time>
      </trkpt>
      <trkpt lat="45.3146" lon="6.04885">
        <ele>1722</ele>
        <time>2021-12-12T09:47:49Z</time>
      </trkpt>
      <trkpt lat="45.31458" lon="6.04883">
        <ele>1724</ele>
        <time>2021-12-12T09:47:52Z</time>
      </trkpt>
      <trkpt lat="45.31456" lon="6.04882">
        <ele>1724</ele>
        <time>2021-12-12T09:47:55Z</time>
      </trkpt>
      <trkpt lat="45.31454" lon="6.04881">
        <ele>1724</ele>
        <time>2021-12-12T09:47:59Z</time>
      </trkpt>
      <trkpt lat="45.31452" lon="6.04879">
        <ele>1727</ele>
        <time>2021-12-12T09:48:02Z</time>
      </trkpt>
      <trkpt lat="45.3145" lon="6.0488">
        <ele>1727</ele>
        <time>2021-12-12T09:48:07Z</time>
      </trkpt>
      <trkpt lat="45.3145" lon="6.04884">
        <ele>1728</ele>
        <time>2021-12-12T09:48:12Z</time>
      </trkpt>
      <trkpt lat="45.3145" lon="6.04887">
        <ele>1728</ele>
        <time>2021-12-12T09:48:15Z</time>
      </trkpt>
      <trkpt lat="45.31449" lon="6.0489">
        <ele>1728</ele>
        <time>2021-12-12T09:48:18Z</time>
      </trkpt>
      <trkpt lat="45.31449" lon="6.04892">
        <ele>1728</ele>
        <time>2021-12-12T09:48:20Z</time>
      </trkpt>
      <trkpt lat="45.31449" lon="6.04896">
        <ele>1730</ele>
        <time>2021-12-12T09:48:24Z</time>
      </trkpt>
      <trkpt lat="45.31449" lon="6.04898">
        <ele>1730</ele>
        <time>2021-12-12T09:48:27Z</time>
      </trkpt>
      <trkpt lat="45.31448" lon="6.04901">
        <ele>1730</ele>
        <time>2021-12-12T09:48:31Z</time>
      </trkpt>
      <trkpt lat="45.31447" lon="6.04905">
        <ele>1732</ele>
        <time>2021-12-12T09:48:34Z</time>
      </trkpt>
      <trkpt lat="45.31445" lon="6.04908">
        <ele>1732</ele>
        <time>2021-12-12T09:48:38Z</time>
      </trkpt>
      <trkpt lat="45.31445" lon="6.0491">
        <ele>1732</ele>
        <time>2021-12-12T09:48:41Z</time>
      </trkpt>
      <trkpt lat="45.31444" lon="6.04913">
        <ele>1732</ele>
        <time>2021-12-12T09:48:45Z</time>
      </trkpt>
      <trkpt lat="45.31444" lon="6.04916">
        <ele>1732</ele>
        <time>2021-12-12T09:48:47Z</time>
      </trkpt>
      <trkpt lat="45.31442" lon="6.04918">
        <ele>1732</ele>
        <time>2021-12-12T09:48:51Z</time>
      </trkpt>
      <trkpt lat="45.31441" lon="6.0492">
        <ele>1733</ele>
        <time>2021-12-12T09:48:54Z</time>
      </trkpt>
      <trkpt lat="45.31439" lon="6.04923">
        <ele>1733</ele>
        <time>2021-12-12T09:48:57Z</time>
      </trkpt>
      <trkpt lat="45.31439" lon="6.04926">
        <ele>1733</ele>
        <time>2021-12-12T09:49:00Z</time>
      </trkpt>
      <trkpt lat="45.31437" lon="6.04929">
        <ele>1735</ele>
        <time>2021-12-12T09:49:04Z</time>
      </trkpt>
      <trkpt lat="45.31436" lon="6.04932">
        <ele>1735</ele>
        <time>2021-12-12T09:49:05Z</time>
      </trkpt>
      <trkpt lat="45.31434" lon="6.04934">
        <ele>1735</ele>
        <time>2021-12-12T09:49:08Z</time>
      </trkpt>
      <trkpt lat="45.31433" lon="6.04936">
        <ele>1735</ele>
        <time>2021-12-12T09:49:11Z</time>
      </trkpt>
      <trkpt lat="45.31431" lon="6.04938">
        <ele>1736</ele>
        <time>2021-12-12T09:49:14Z</time>
      </trkpt>
      <trkpt lat="45.3143" lon="6.04941">
        <ele>1736</ele>
        <time>2021-12-12T09:49:19Z</time>
      </trkpt>
      <trkpt lat="45.31428" lon="6.04942">
        <ele>1736</ele>
        <time>2021-12-12T09:49:22Z</time>
      </trkpt>
      <trkpt lat="45.31426" lon="6.04944">
        <ele>1738</ele>
        <time>2021-12-12T09:49:25Z</time>
      </trkpt>
      <trkpt lat="45.31425" lon="6.04945">
        <ele>1738</ele>
        <time>2021-12-12T09:49:28Z</time>
      </trkpt>
      <trkpt lat="45.31423" lon="6.04946">
        <ele>1738</ele>
        <time>2021-12-12T09:49:31Z</time>
      </trkpt>
      <trkpt lat="45.3142" lon="6.04945">
        <ele>1740</ele>
        <time>2021-12-12T09:49:35Z</time>
      </trkpt>
      <trkpt lat="45.31418" lon="6.04946">
        <ele>1740</ele>
        <time>2021-12-12T09:49:38Z</time>
      </trkpt>
      <trkpt lat="45.31416" lon="6.04946">
        <ele>1740</ele>
        <time>2021-12-12T09:49:40Z</time>
      </trkpt>
      <trkpt lat="45.31414" lon="6.04946">
        <ele>1740</ele>
        <time>2021-12-12T09:49:43Z</time>
      </trkpt>
      <trkpt lat="45.31412" lon="6.04946">
        <ele>1740</ele>
        <time>2021-12-12T09:49:46Z</time>
      </trkpt>
      <trkpt lat="45.31409" lon="6.04946">
        <ele>1740</ele>
        <time>2021-12-12T09:49:49Z</time>
      </trkpt>
      <trkpt lat="45.31408" lon="6.04943">
        <ele>1743</ele>
        <time>2021-12-12T09:49:54Z</time>
      </trkpt>
      <trkpt lat="45.31406" lon="6.04942">
        <ele>1743</ele>
        <time>2021-12-12T09:49:58Z</time>
      </trkpt>
      <trkpt lat="45.31404" lon="6.0494">
        <ele>1744</ele>
        <time>2021-12-12T09:50:02Z</time>
      </trkpt>
      <trkpt lat="45.31403" lon="6.04938">
        <ele>1744</ele>
        <time>2021-12-12T09:50:06Z</time>
      </trkpt>
      <trkpt lat="45.31401" lon="6.04936">
        <ele>1744</ele>
        <time>2021-12-12T09:50:09Z</time>
      </trkpt>
      <trkpt lat="45.314" lon="6.04934">
        <ele>1745</ele>
        <time>2021-12-12T09:50:13Z</time>
      </trkpt>
      <trkpt lat="45.31399" lon="6.04931">
        <ele>1745</ele>
        <time>2021-12-12T09:50:16Z</time>
      </trkpt>
      <trkpt lat="45.31397" lon="6.04931">
        <ele>1745</ele>
        <time>2021-12-12T09:50:21Z</time>
      </trkpt>
      <trkpt lat="45.31396" lon="6.04933">
        <ele>1747</ele>
        <time>2021-12-12T09:50:24Z</time>
      </trkpt>
      <trkpt lat="45.31394" lon="6.04936">
        <ele>1747</ele>
        <time>2021-12-12T09:50:28Z</time>
      </trkpt>
      <trkpt lat="45.31393" lon="6.04939">
        <ele>1747</ele>
        <time>2021-12-12T09:50:31Z</time>
      </trkpt>
      <trkpt lat="45.31392" lon="6.04941">
        <ele>1747</ele>
        <time>2021-12-12T09:50:35Z</time>
      </trkpt>
      <trkpt lat="45.31391" lon="6.04944">
        <ele>1747</ele>
        <time>2021-12-12T09:50:38Z</time>
      </trkpt>
      <trkpt lat="45.3139" lon="6.04947">
        <ele>1747</ele>
        <time>2021-12-12T09:50:41Z</time>
      </trkpt>
      <trkpt lat="45.31389" lon="6.0495">
        <ele>1749</ele>
        <time>2021-12-12T09:50:46Z</time>
      </trkpt>
      <trkpt lat="45.31388" lon="6.04952">
        <ele>1749</ele>
        <time>2021-12-12T09:50:49Z</time>
      </trkpt>
      <trkpt lat="45.31385" lon="6.04954">
        <ele>1751</ele>
        <time>2021-12-12T09:50:52Z</time>
      </trkpt>
      <trkpt lat="45.31383" lon="6.04953">
        <ele>1751</ele>
        <time>2021-12-12T09:50:55Z</time>
      </trkpt>
      <trkpt lat="45.31381" lon="6.04951">
        <ele>1751</ele>
        <time>2021-12-12T09:50:58Z</time>
      </trkpt>
      <trkpt lat="45.3138" lon="6.04949">
        <ele>1751</ele>
        <time>2021-12-12T09:51:00Z</time>
      </trkpt>
      <trkpt lat="45.31379" lon="6.04947">
        <ele>1752</ele>
        <time>2021-12-12T09:51:04Z</time>
      </trkpt>
      <trkpt lat="45.31378" lon="6.04944">
        <ele>1752</ele>
        <time>2021-12-12T09:51:06Z</time>
      </trkpt>
      <trkpt lat="45.31376" lon="6.04942">
        <ele>1752</ele>
        <time>2021-12-12T09:51:10Z</time>
      </trkpt>
      <trkpt lat="45.31374" lon="6.04941">
        <ele>1754</ele>
        <time>2021-12-12T09:51:13Z</time>
      </trkpt>
      <trkpt lat="45.31373" lon="6.04939">
        <ele>1754</ele>
        <time>2021-12-12T09:51:15Z</time>
      </trkpt>
      <trkpt lat="45.31372" lon="6.04937">
        <ele>1754</ele>
        <time>2021-12-12T09:51:19Z</time>
      </trkpt>
      <trkpt lat="45.3137" lon="6.04936">
        <ele>1756</ele>
        <time>2021-12-12T09:51:22Z</time>
      </trkpt>
      <trkpt lat="45.31368" lon="6.04934">
        <ele>1756</ele>
        <time>2021-12-12T09:51:24Z</time>
      </trkpt>
      <trkpt lat="45.31367" lon="6.04932">
        <ele>1756</ele>
        <time>2021-12-12T09:51:27Z</time>
      </trkpt>
      <trkpt lat="45.31365" lon="6.0493">
        <ele>1756</ele>
        <time>2021-12-12T09:51:30Z</time>
      </trkpt>
      <trkpt lat="45.31363" lon="6.04928">
        <ele>1756</ele>
        <time>2021-12-12T09:51:33Z</time>
      </trkpt>
      <trkpt lat="45.31362" lon="6.04926">
        <ele>1756</ele>
        <time>2021-12-12T09:51:36Z</time>
      </trkpt>
      <trkpt lat="45.3136" lon="6.04924">
        <ele>1756</ele>
        <time>2021-12-12T09:51:40Z</time>
      </trkpt>
      <trkpt lat="45.31358" lon="6.04922">
        <ele>1758</ele>
        <time>2021-12-12T09:51:44Z</time>
      </trkpt>
      <trkpt lat="45.31356" lon="6.04921">
        <ele>1758</ele>
        <time>2021-12-12T09:51:48Z</time>
      </trkpt>
      <trkpt lat="45.31354" lon="6.04921">
        <ele>1760</ele>
        <time>2021-12-12T09:51:53Z</time>
      </trkpt>
      <trkpt lat="45.31354" lon="6.04925">
        <ele>1760</ele>
        <time>2021-12-12T09:51:56Z</time>
      </trkpt>
      <trkpt lat="45.31354" lon="6.04928">
        <ele>1760</ele>
        <time>2021-12-12T09:51:59Z</time>
      </trkpt>
      <trkpt lat="45.31354" lon="6.04931">
        <ele>1761</ele>
        <time>2021-12-12T09:52:03Z</time>
      </trkpt>
      <trkpt lat="45.31354" lon="6.04934">
        <ele>1761</ele>
        <time>2021-12-12T09:52:07Z</time>
      </trkpt>
      <trkpt lat="45.31353" lon="6.04938">
        <ele>1761</ele>
        <time>2021-12-12T09:52:10Z</time>
      </trkpt>
      <trkpt lat="45.31353" lon="6.04941">
        <ele>1761</ele>
        <time>2021-12-12T09:52:15Z</time>
      </trkpt>
      <trkpt lat="45.31351" lon="6.04941">
        <ele>1761</ele>
        <time>2021-12-12T09:52:18Z</time>
      </trkpt>
      <trkpt lat="45.31349" lon="6.04941">
        <ele>1761</ele>
        <time>2021-12-12T09:52:21Z</time>
      </trkpt>
      <trkpt lat="45.31347" lon="6.0494">
        <ele>1763</ele>
        <time>2021-12-12T09:52:26Z</time>
      </trkpt>
      <trkpt lat="45.31345" lon="6.0494">
        <ele>1763</ele>
        <time>2021-12-12T09:52:30Z</time>
      </trkpt>
      <trkpt lat="45.31342" lon="6.0494">
        <ele>1764</ele>
        <time>2021-12-12T09:52:34Z</time>
      </trkpt>
      <trkpt lat="45.3134" lon="6.0494">
        <ele>1764</ele>
        <time>2021-12-12T09:52:38Z</time>
      </trkpt>
      <trkpt lat="45.31338" lon="6.04939">
        <ele>1764</ele>
        <time>2021-12-12T09:52:43Z</time>
      </trkpt>
      <trkpt lat="45.31336" lon="6.04939">
        <ele>1764</ele>
        <time>2021-12-12T09:52:46Z</time>
      </trkpt>
      <trkpt lat="45.31333" lon="6.04939">
        <ele>1764</ele>
        <time>2021-12-12T09:52:49Z</time>
      </trkpt>
      <trkpt lat="45.31332" lon="6.04939">
        <ele>1767</ele>
        <time>2021-12-12T09:52:52Z</time>
      </trkpt>
      <trkpt lat="45.3133" lon="6.04939">
        <ele>1767</ele>
        <time>2021-12-12T09:52:55Z</time>
      </trkpt>
      <trkpt lat="45.31327" lon="6.04939">
        <ele>1767</ele>
        <time>2021-12-12T09:52:59Z</time>
      </trkpt>
      <trkpt lat="45.31325" lon="6.04939">
        <ele>1770</ele>
        <time>2021-12-12T09:53:02Z</time>
      </trkpt>
      <trkpt lat="45.31323" lon="6.04939">
        <ele>1770</ele>
        <time>2021-12-12T09:53:05Z</time>
      </trkpt>
      <trkpt lat="45.31321" lon="6.04939">
        <ele>1770</ele>
        <time>2021-12-12T09:53:08Z</time>
      </trkpt>
      <trkpt lat="45.3132" lon="6.04939">
        <ele>1770</ele>
        <time>2021-12-12T09:53:11Z</time>
      </trkpt>
      <trkpt lat="45.31318" lon="6.04939">
        <ele>1771</ele>
        <time>2021-12-12T09:53:15Z</time>
      </trkpt>
      <trkpt lat="45.31316" lon="6.04939">
        <ele>1771</ele>
        <time>2021-12-12T09:53:19Z</time>
      </trkpt>
      <trkpt lat="45.31314" lon="6.04941">
        <ele>1772</ele>
        <time>2021-12-12T09:53:25Z</time>
      </trkpt>
      <trkpt lat="45.31314" lon="6.04944">
        <ele>1772</ele>
        <time>2021-12-12T09:53:28Z</time>
      </trkpt>
      <trkpt lat="45.31314" lon="6.04948">
        <ele>1772</ele>
        <time>2021-12-12T09:53:31Z</time>
      </trkpt>
      <trkpt lat="45.31314" lon="6.04951">
        <ele>1774</ele>
        <time>2021-12-12T09:53:34Z</time>
      </trkpt>
      <trkpt lat="45.31314" lon="6.04954">
        <ele>1774</ele>
        <time>2021-12-12T09:53:37Z</time>
      </trkpt>
      <trkpt lat="45.31315" lon="6.04957">
        <ele>1774</ele>
        <time>2021-12-12T09:53:40Z</time>
      </trkpt>
      <trkpt lat="45.31315" lon="6.0496">
        <ele>1776</ele>
        <time>2021-12-12T09:53:44Z</time>
      </trkpt>
      <trkpt lat="45.31313" lon="6.04963">
        <ele>1776</ele>
        <time>2021-12-12T09:53:46Z</time>
      </trkpt>
      <trkpt lat="45.31312" lon="6.04964">
        <ele>1776</ele>
        <time>2021-12-12T09:53:50Z</time>
      </trkpt>
      <trkpt lat="45.3131" lon="6.04965">
        <ele>1777</ele>
        <time>2021-12-12T09:53:53Z</time>
      </trkpt>
      <trkpt lat="45.31308" lon="6.04966">
        <ele>1777</ele>
        <time>2021-12-12T09:53:56Z</time>
      </trkpt>
      <trkpt lat="45.31306" lon="6.04967">
        <ele>1777</ele>
        <time>2021-12-12T09:54:00Z</time>
      </trkpt>
      <trkpt lat="45.31304" lon="6.04967">
        <ele>1779</ele>
        <time>2021-12-12T09:54:04Z</time>
      </trkpt>
      <trkpt lat="45.31302" lon="6.04967">
        <ele>1779</ele>
        <time>2021-12-12T09:54:08Z</time>
      </trkpt>
      <trkpt lat="45.313" lon="6.04968">
        <ele>1779</ele>
        <time>2021-12-12T09:54:11Z</time>
      </trkpt>
      <trkpt lat="45.31298" lon="6.0497">
        <ele>1780</ele>
        <time>2021-12-12T09:54:16Z</time>
      </trkpt>
      <trkpt lat="45.31296" lon="6.04971">
        <ele>1780</ele>
        <time>2021-12-12T09:54:19Z</time>
      </trkpt>
      <trkpt lat="45.31295" lon="6.04974">
        <ele>1781</ele>
        <time>2021-12-12T09:54:24Z</time>
      </trkpt>
      <trkpt lat="45.31293" lon="6.04976">
        <ele>1781</ele>
        <time>2021-12-12T09:54:27Z</time>
      </trkpt>
      <trkpt lat="45.31292" lon="6.04978">
        <ele>1781</ele>
        <time>2021-12-12T09:54:31Z</time>
      </trkpt>
      <trkpt lat="45.31291" lon="6.04981">
        <ele>1783</ele>
        <time>2021-12-12T09:54:35Z</time>
      </trkpt>
      <trkpt lat="45.31289" lon="6.04983">
        <ele>1783</ele>
        <time>2021-12-12T09:54:40Z</time>
      </trkpt>
      <trkpt lat="45.31288" lon="6.04986">
        <ele>1785</ele>
        <time>2021-12-12T09:54:44Z</time>
      </trkpt>
      <trkpt lat="45.31287" lon="6.04987">
        <ele>1785</ele>
        <time>2021-12-12T09:54:47Z</time>
      </trkpt>
      <trkpt lat="45.31285" lon="6.04989">
        <ele>1785</ele>
        <time>2021-12-12T09:54:50Z</time>
      </trkpt>
      <trkpt lat="45.31283" lon="6.0499">
        <ele>1787</ele>
        <time>2021-12-12T09:54:53Z</time>
      </trkpt>
      <trkpt lat="45.31281" lon="6.04992">
        <ele>1787</ele>
        <time>2021-12-12T09:54:57Z</time>
      </trkpt>
      <trkpt lat="45.31279" lon="6.04993">
        <ele>1787</ele>
        <time>2021-12-12T09:55:01Z</time>
      </trkpt>
      <trkpt lat="45.31278" lon="6.04995">
        <ele>1789</ele>
        <time>2021-12-12T09:55:03Z</time>
      </trkpt>
      <trkpt lat="45.31276" lon="6.04997">
        <ele>1789</ele>
        <time>2021-12-12T09:55:07Z</time>
      </trkpt>
      <trkpt lat="45.31275" lon="6.04999">
        <ele>1789</ele>
        <time>2021-12-12T09:55:11Z</time>
      </trkpt>
      <trkpt lat="45.31274" lon="6.05002">
        <ele>1789</ele>
        <time>2021-12-12T09:55:14Z</time>
      </trkpt>
      <trkpt lat="45.31273" lon="6.05005">
        <ele>1789</ele>
        <time>2021-12-12T09:55:17Z</time>
      </trkpt>
      <trkpt lat="45.31271" lon="6.05007">
        <ele>1789</ele>
        <time>2021-12-12T09:55:20Z</time>
      </trkpt>
      <trkpt lat="45.31269" lon="6.05008">
        <ele>1790</ele>
        <time>2021-12-12T09:55:24Z</time>
      </trkpt>
      <trkpt lat="45.31267" lon="6.05008">
        <ele>1790</ele>
        <time>2021-12-12T09:55:27Z</time>
      </trkpt>
      <trkpt lat="45.31265" lon="6.05009">
        <ele>1790</ele>
        <time>2021-12-12T09:55:30Z</time>
      </trkpt>
      <trkpt lat="45.31263" lon="6.05008">
        <ele>1790</ele>
        <time>2021-12-12T09:55:33Z</time>
      </trkpt>
      <trkpt lat="45.31261" lon="6.05008">
        <ele>1790</ele>
        <time>2021-12-12T09:55:36Z</time>
      </trkpt>
      <trkpt lat="45.31259" lon="6.05008">
        <ele>1790</ele>
        <time>2021-12-12T09:55:39Z</time>
      </trkpt>
      <trkpt lat="45.31257" lon="6.05008">
        <ele>1792</ele>
        <time>2021-12-12T09:55:43Z</time>
      </trkpt>
      <trkpt lat="45.31254" lon="6.05007">
        <ele>1792</ele>
        <time>2021-12-12T09:55:46Z</time>
      </trkpt>
      <trkpt lat="45.31253" lon="6.05007">
        <ele>1792</ele>
        <time>2021-12-12T09:55:49Z</time>
      </trkpt>
      <trkpt lat="45.31251" lon="6.05006">
        <ele>1795</ele>
        <time>2021-12-12T09:55:52Z</time>
      </trkpt>
      <trkpt lat="45.31249" lon="6.05006">
        <ele>1795</ele>
        <time>2021-12-12T09:55:55Z</time>
      </trkpt>
      <trkpt lat="45.31247" lon="6.05006">
        <ele>1795</ele>
        <time>2021-12-12T09:55:58Z</time>
      </trkpt>
      <trkpt lat="45.31245" lon="6.05005">
        <ele>1796</ele>
        <time>2021-12-12T09:56:02Z</time>
      </trkpt>
      <trkpt lat="45.31243" lon="6.05005">
        <ele>1796</ele>
        <time>2021-12-12T09:56:06Z</time>
      </trkpt>
      <trkpt lat="45.31241" lon="6.05006">
        <ele>1796</ele>
        <time>2021-12-12T09:56:09Z</time>
      </trkpt>
      <trkpt lat="45.31239" lon="6.05006">
        <ele>1797</ele>
        <time>2021-12-12T09:56:14Z</time>
      </trkpt>
      <trkpt lat="45.31237" lon="6.05008">
        <ele>1797</ele>
        <time>2021-12-12T09:56:17Z</time>
      </trkpt>
      <trkpt lat="45.31237" lon="6.05011">
        <ele>1797</ele>
        <time>2021-12-12T09:56:22Z</time>
      </trkpt>
      <trkpt lat="45.31237" lon="6.05014">
        <ele>1797</ele>
        <time>2021-12-12T09:56:24Z</time>
      </trkpt>
      <trkpt lat="45.31238" lon="6.05017">
        <ele>1797</ele>
        <time>2021-12-12T09:56:27Z</time>
      </trkpt>
      <trkpt lat="45.31238" lon="6.0502">
        <ele>1797</ele>
        <time>2021-12-12T09:56:31Z</time>
      </trkpt>
      <trkpt lat="45.31239" lon="6.05022">
        <ele>1800</ele>
        <time>2021-12-12T09:56:34Z</time>
      </trkpt>
      <trkpt lat="45.31239" lon="6.05025">
        <ele>1800</ele>
        <time>2021-12-12T09:56:38Z</time>
      </trkpt>
      <trkpt lat="45.3124" lon="6.05028">
        <ele>1803</ele>
        <time>2021-12-12T09:56:42Z</time>
      </trkpt>
      <trkpt lat="45.3124" lon="6.05031">
        <ele>1803</ele>
        <time>2021-12-12T09:56:45Z</time>
      </trkpt>
      <trkpt lat="45.31239" lon="6.05033">
        <ele>1803</ele>
        <time>2021-12-12T09:56:47Z</time>
      </trkpt>
      <trkpt lat="45.31236" lon="6.05033">
        <ele>1803</ele>
        <time>2021-12-12T09:56:51Z</time>
      </trkpt>
      <trkpt lat="45.31233" lon="6.05033">
        <ele>1804</ele>
        <time>2021-12-12T09:56:54Z</time>
      </trkpt>
      <trkpt lat="45.31231" lon="6.05034">
        <ele>1804</ele>
        <time>2021-12-12T09:56:58Z</time>
      </trkpt>
      <trkpt lat="45.31229" lon="6.05034">
        <ele>1804</ele>
        <time>2021-12-12T09:57:01Z</time>
      </trkpt>
      <trkpt lat="45.31227" lon="6.05034">
        <ele>1805</ele>
        <time>2021-12-12T09:57:04Z</time>
      </trkpt>
      <trkpt lat="45.31225" lon="6.05034">
        <ele>1805</ele>
        <time>2021-12-12T09:57:07Z</time>
      </trkpt>
      <trkpt lat="45.31223" lon="6.05034">
        <ele>1805</ele>
        <time>2021-12-12T09:57:10Z</time>
      </trkpt>
      <trkpt lat="45.31221" lon="6.05035">
        <ele>1807</ele>
        <time>2021-12-12T09:57:15Z</time>
      </trkpt>
      <trkpt lat="45.31219" lon="6.05035">
        <ele>1807</ele>
        <time>2021-12-12T09:57:18Z</time>
      </trkpt>
      <trkpt lat="45.31217" lon="6.05035">
        <ele>1807</ele>
        <time>2021-12-12T09:57:21Z</time>
      </trkpt>
      <trkpt lat="45.31214" lon="6.05035">
        <ele>1809</ele>
        <time>2021-12-12T09:57:23Z</time>
      </trkpt>
      <trkpt lat="45.31212" lon="6.05035">
        <ele>1809</ele>
        <time>2021-12-12T09:57:26Z</time>
      </trkpt>
      <trkpt lat="45.3121" lon="6.05035">
        <ele>1809</ele>
        <time>2021-12-12T09:57:29Z</time>
      </trkpt>
      <trkpt lat="45.31207" lon="6.05035">
        <ele>1809</ele>
        <time>2021-12-12T09:57:33Z</time>
      </trkpt>
      <trkpt lat="45.31205" lon="6.05035">
        <ele>1809</ele>
        <time>2021-12-12T09:57:36Z</time>
      </trkpt>
      <trkpt lat="45.31203" lon="6.05035">
        <ele>1809</ele>
        <time>2021-12-12T09:57:38Z</time>
      </trkpt>
      <trkpt lat="45.31201" lon="6.05035">
        <ele>1809</ele>
        <time>2021-12-12T09:57:41Z</time>
      </trkpt>
      <trkpt lat="45.31198" lon="6.05035">
        <ele>1810</ele>
        <time>2021-12-12T09:57:45Z</time>
      </trkpt>
      <trkpt lat="45.31196" lon="6.05036">
        <ele>1810</ele>
        <time>2021-12-12T09:57:47Z</time>
      </trkpt>
      <trkpt lat="45.31194" lon="6.05036">
        <ele>1810</ele>
        <time>2021-12-12T09:57:51Z</time>
      </trkpt>
      <trkpt lat="45.31192" lon="6.05037">
        <ele>1812</ele>
        <time>2021-12-12T09:57:54Z</time>
      </trkpt>
      <trkpt lat="45.3119" lon="6.05037">
        <ele>1812</ele>
        <time>2021-12-12T09:57:57Z</time>
      </trkpt>
      <trkpt lat="45.31187" lon="6.05038">
        <ele>1812</ele>
        <time>2021-12-12T09:58:01Z</time>
      </trkpt>
      <trkpt lat="45.31185" lon="6.05038">
        <ele>1812</ele>
        <time>2021-12-12T09:58:04Z</time>
      </trkpt>
      <trkpt lat="45.31183" lon="6.05038">
        <ele>1812</ele>
        <time>2021-12-12T09:58:07Z</time>
      </trkpt>
      <trkpt lat="45.31181" lon="6.05039">
        <ele>1812</ele>
        <time>2021-12-12T09:58:09Z</time>
      </trkpt>
      <trkpt lat="45.31179" lon="6.0504">
        <ele>1814</ele>
        <time>2021-12-12T09:58:12Z</time>
      </trkpt>
      <trkpt lat="45.31176" lon="6.0504">
        <ele>1814</ele>
        <time>2021-12-12T09:58:16Z</time>
      </trkpt>
      <trkpt lat="45.31175" lon="6.05041">
        <ele>1814</ele>
        <time>2021-12-12T09:58:19Z</time>
      </trkpt>
      <trkpt lat="45.31172" lon="6.05042">
        <ele>1816</ele>
        <time>2021-12-12T09:58:23Z</time>
      </trkpt>
      <trkpt lat="45.3117" lon="6.05043">
        <ele>1816</ele>
        <time>2021-12-12T09:58:27Z</time>
      </trkpt>
      <trkpt lat="45.31168" lon="6.05044">
        <ele>1816</ele>
        <time>2021-12-12T09:58:30Z</time>
      </trkpt>
      <trkpt lat="45.31167" lon="6.05045">
        <ele>1818</ele>
        <time>2021-12-12T09:58:34Z</time>
      </trkpt>
      <trkpt lat="45.31165" lon="6.05047">
        <ele>1818</ele>
        <time>2021-12-12T09:58:38Z</time>
      </trkpt>
      <trkpt lat="45.31163" lon="6.05049">
        <ele>1818</ele>
        <time>2021-12-12T09:58:41Z</time>
      </trkpt>
      <trkpt lat="45.31162" lon="6.05051">
        <ele>1819</ele>
        <time>2021-12-12T09:58:44Z</time>
      </trkpt>
      <trkpt lat="45.3116" lon="6.05053">
        <ele>1819</ele>
        <time>2021-12-12T09:58:47Z</time>
      </trkpt>
      <trkpt lat="45.3116" lon="6.05056">
        <ele>1819</ele>
        <time>2021-12-12T09:58:49Z</time>
      </trkpt>
      <trkpt lat="45.31161" lon="6.05058">
        <ele>1821</ele>
        <time>2021-12-12T09:58:53Z</time>
      </trkpt>
      <trkpt lat="45.31163" lon="6.05059">
        <ele>1821</ele>
        <time>2021-12-12T09:59:25Z</time>
      </trkpt>
      <trkpt lat="45.31161" lon="6.05058">
        <ele>1821</ele>
        <time>2021-12-12T10:07:03Z</time>
      </trkpt>
      <trkpt lat="45.31159" lon="6.05058">
        <ele>1821</ele>
        <time>2021-12-12T10:07:56Z</time>
      </trkpt>
      <trkpt lat="45.31156" lon="6.05058">
        <ele>1821</ele>
        <time>2021-12-12T10:07:59Z</time>
      </trkpt>
      <trkpt lat="45.31154" lon="6.05057">
        <ele>1821</ele>
        <time>2021-12-12T10:08:01Z</time>
      </trkpt>
      <trkpt lat="45.31152" lon="6.05056">
        <ele>1821</ele>
        <time>2021-12-12T10:08:04Z</time>
      </trkpt>
      <trkpt lat="45.3115" lon="6.05055">
        <ele>1821</ele>
        <time>2021-12-12T10:08:05Z</time>
      </trkpt>
      <trkpt lat="45.31148" lon="6.05054">
        <ele>1821</ele>
        <time>2021-12-12T10:08:07Z</time>
      </trkpt>
      <trkpt lat="45.31146" lon="6.05053">
        <ele>1821</ele>
        <time>2021-12-12T10:08:09Z</time>
      </trkpt>
      <trkpt lat="45.31144" lon="6.05052">
        <ele>1821</ele>
        <time>2021-12-12T10:08:11Z</time>
      </trkpt>
      <trkpt lat="45.31142" lon="6.05052">
        <ele>1821</ele>
        <time>2021-12-12T10:08:14Z</time>
      </trkpt>
      <trkpt lat="45.3114" lon="6.05052">
        <ele>1821</ele>
        <time>2021-12-12T10:08:16Z</time>
      </trkpt>
      <trkpt lat="45.31137" lon="6.05053">
        <ele>1821</ele>
        <time>2021-12-12T10:08:18Z</time>
      </trkpt>
      <trkpt lat="45.31134" lon="6.05054">
        <ele>1821</ele>
        <time>2021-12-12T10:08:19Z</time>
      </trkpt>
      <trkpt lat="45.31132" lon="6.05054">
        <ele>1821</ele>
        <time>2021-12-12T10:08:21Z</time>
      </trkpt>
      <trkpt lat="45.3113" lon="6.05055">
        <ele>1821</ele>
        <time>2021-12-12T10:08:23Z</time>
      </trkpt>
      <trkpt lat="45.31129" lon="6.05056">
        <ele>1821</ele>
        <time>2021-12-12T10:08:25Z</time>
      </trkpt>
      <trkpt lat="45.31126" lon="6.05057">
        <ele>1821</ele>
        <time>2021-12-12T10:08:28Z</time>
      </trkpt>
      <trkpt lat="45.31125" lon="6.05059">
        <ele>1821</ele>
        <time>2021-12-12T10:08:30Z</time>
      </trkpt>
      <trkpt lat="45.31122" lon="6.0506">
        <ele>1820</ele>
        <time>2021-12-12T10:08:33Z</time>
      </trkpt>
      <trkpt lat="45.3112" lon="6.05062">
        <ele>1820</ele>
        <time>2021-12-12T10:08:36Z</time>
      </trkpt>
      <trkpt lat="45.31118" lon="6.05063">
        <ele>1820</ele>
        <time>2021-12-12T10:08:39Z</time>
      </trkpt>
      <trkpt lat="45.31115" lon="6.05065">
        <ele>1819</ele>
        <time>2021-12-12T10:08:42Z</time>
      </trkpt>
      <trkpt lat="45.31113" lon="6.05066">
        <ele>1819</ele>
        <time>2021-12-12T10:08:45Z</time>
      </trkpt>
      <trkpt lat="45.31111" lon="6.05067">
        <ele>1819</ele>
        <time>2021-12-12T10:08:46Z</time>
      </trkpt>
      <trkpt lat="45.31109" lon="6.05068">
        <ele>1819</ele>
        <time>2021-12-12T10:08:50Z</time>
      </trkpt>
      <trkpt lat="45.31106" lon="6.05068">
        <ele>1821</ele>
        <time>2021-12-12T10:08:52Z</time>
      </trkpt>
      <trkpt lat="45.31103" lon="6.05068">
        <ele>1821</ele>
        <time>2021-12-12T10:08:54Z</time>
      </trkpt>
      <trkpt lat="45.31101" lon="6.05068">
        <ele>1821</ele>
        <time>2021-12-12T10:08:56Z</time>
      </trkpt>
      <trkpt lat="45.31099" lon="6.05068">
        <ele>1821</ele>
        <time>2021-12-12T10:08:58Z</time>
      </trkpt>
      <trkpt lat="45.31097" lon="6.05068">
        <ele>1821</ele>
        <time>2021-12-12T10:09:00Z</time>
      </trkpt>
      <trkpt lat="45.31095" lon="6.05068">
        <ele>1821</ele>
        <time>2021-12-12T10:09:01Z</time>
      </trkpt>
      <trkpt lat="45.31093" lon="6.05068">
        <ele>1822</ele>
        <time>2021-12-12T10:09:03Z</time>
      </trkpt>
      <trkpt lat="45.31091" lon="6.05068">
        <ele>1822</ele>
        <time>2021-12-12T10:09:06Z</time>
      </trkpt>
      <trkpt lat="45.31089" lon="6.05067">
        <ele>1822</ele>
        <time>2021-12-12T10:09:08Z</time>
      </trkpt>
      <trkpt lat="45.31087" lon="6.05067">
        <ele>1822</ele>
        <time>2021-12-12T10:09:10Z</time>
      </trkpt>
      <trkpt lat="45.31084" lon="6.05067">
        <ele>1823</ele>
        <time>2021-12-12T10:09:13Z</time>
      </trkpt>
      <trkpt lat="45.31082" lon="6.05066">
        <ele>1823</ele>
        <time>2021-12-12T10:09:16Z</time>
      </trkpt>
      <trkpt lat="45.3108" lon="6.05066">
        <ele>1823</ele>
        <time>2021-12-12T10:09:18Z</time>
      </trkpt>
      <trkpt lat="45.31078" lon="6.05066">
        <ele>1823</ele>
        <time>2021-12-12T10:09:22Z</time>
      </trkpt>
      <trkpt lat="45.31075" lon="6.05065">
        <ele>1823</ele>
        <time>2021-12-12T10:09:25Z</time>
      </trkpt>
      <trkpt lat="45.31073" lon="6.05065">
        <ele>1823</ele>
        <time>2021-12-12T10:09:28Z</time>
      </trkpt>
      <trkpt lat="45.31071" lon="6.05065">
        <ele>1823</ele>
        <time>2021-12-12T10:09:31Z</time>
      </trkpt>
      <trkpt lat="45.3107" lon="6.05064">
        <ele>1825</ele>
        <time>2021-12-12T10:09:33Z</time>
      </trkpt>
      <trkpt lat="45.31068" lon="6.05064">
        <ele>1825</ele>
        <time>2021-12-12T10:09:37Z</time>
      </trkpt>
      <trkpt lat="45.31065" lon="6.05063">
        <ele>1825</ele>
        <time>2021-12-12T10:09:39Z</time>
      </trkpt>
      <trkpt lat="45.31063" lon="6.05062">
        <ele>1826</ele>
        <time>2021-12-12T10:09:43Z</time>
      </trkpt>
      <trkpt lat="45.31061" lon="6.05061">
        <ele>1826</ele>
        <time>2021-12-12T10:09:46Z</time>
      </trkpt>
      <trkpt lat="45.31059" lon="6.0506">
        <ele>1826</ele>
        <time>2021-12-12T10:09:49Z</time>
      </trkpt>
      <trkpt lat="45.31057" lon="6.0506">
        <ele>1826</ele>
        <time>2021-12-12T10:09:51Z</time>
      </trkpt>
      <trkpt lat="45.31055" lon="6.05059">
        <ele>1826</ele>
        <time>2021-12-12T10:09:55Z</time>
      </trkpt>
      <trkpt lat="45.31053" lon="6.05058">
        <ele>1826</ele>
        <time>2021-12-12T10:09:58Z</time>
      </trkpt>
      <trkpt lat="45.31051" lon="6.05057">
        <ele>1826</ele>
        <time>2021-12-12T10:10:01Z</time>
      </trkpt>
      <trkpt lat="45.31049" lon="6.05056">
        <ele>1828</ele>
        <time>2021-12-12T10:10:04Z</time>
      </trkpt>
      <trkpt lat="45.31047" lon="6.05054">
        <ele>1828</ele>
        <time>2021-12-12T10:10:06Z</time>
      </trkpt>
      <trkpt lat="45.31045" lon="6.05053">
        <ele>1828</ele>
        <time>2021-12-12T10:10:09Z</time>
      </trkpt>
      <trkpt lat="45.31043" lon="6.05051">
        <ele>1830</ele>
        <time>2021-12-12T10:10:13Z</time>
      </trkpt>
      <trkpt lat="45.31041" lon="6.05049">
        <ele>1830</ele>
        <time>2021-12-12T10:10:15Z</time>
      </trkpt>
      <trkpt lat="45.31039" lon="6.05048">
        <ele>1830</ele>
        <time>2021-12-12T10:10:19Z</time>
      </trkpt>
      <trkpt lat="45.31037" lon="6.05046">
        <ele>1832</ele>
        <time>2021-12-12T10:10:22Z</time>
      </trkpt>
      <trkpt lat="45.31035" lon="6.05045">
        <ele>1832</ele>
        <time>2021-12-12T10:10:23Z</time>
      </trkpt>
      <trkpt lat="45.31033" lon="6.05043">
        <ele>1832</ele>
        <time>2021-12-12T10:10:27Z</time>
      </trkpt>
      <trkpt lat="45.31031" lon="6.05043">
        <ele>1832</ele>
        <time>2021-12-12T10:10:29Z</time>
      </trkpt>
      <trkpt lat="45.31029" lon="6.05042">
        <ele>1832</ele>
        <time>2021-12-12T10:10:31Z</time>
      </trkpt>
      <trkpt lat="45.31027" lon="6.05041">
        <ele>1832</ele>
        <time>2021-12-12T10:10:33Z</time>
      </trkpt>
      <trkpt lat="45.31024" lon="6.0504">
        <ele>1832</ele>
        <time>2021-12-12T10:10:37Z</time>
      </trkpt>
      <trkpt lat="45.31022" lon="6.05038">
        <ele>1832</ele>
        <time>2021-12-12T10:10:39Z</time>
      </trkpt>
      <trkpt lat="45.3102" lon="6.05037">
        <ele>1832</ele>
        <time>2021-12-12T10:10:41Z</time>
      </trkpt>
      <trkpt lat="45.31018" lon="6.05036">
        <ele>1833</ele>
        <time>2021-12-12T10:10:43Z</time>
      </trkpt>
      <trkpt lat="45.31015" lon="6.05034">
        <ele>1833</ele>
        <time>2021-12-12T10:10:46Z</time>
      </trkpt>
      <trkpt lat="45.31013" lon="6.05034">
        <ele>1833</ele>
        <time>2021-12-12T10:10:49Z</time>
      </trkpt>
      <trkpt lat="45.31011" lon="6.05033">
        <ele>1833</ele>
        <time>2021-12-12T10:10:53Z</time>
      </trkpt>
      <trkpt lat="45.31009" lon="6.05033">
        <ele>1833</ele>
        <time>2021-12-12T10:10:55Z</time>
      </trkpt>
      <trkpt lat="45.31007" lon="6.05033">
        <ele>1833</ele>
        <time>2021-12-12T10:10:59Z</time>
      </trkpt>
      <trkpt lat="45.31004" lon="6.05034">
        <ele>1835</ele>
        <time>2021-12-12T10:11:02Z</time>
      </trkpt>
      <trkpt lat="45.31003" lon="6.05035">
        <ele>1835</ele>
        <time>2021-12-12T10:11:04Z</time>
      </trkpt>
      <trkpt lat="45.31" lon="6.05035">
        <ele>1835</ele>
        <time>2021-12-12T10:11:06Z</time>
      </trkpt>
      <trkpt lat="45.30998" lon="6.05036">
        <ele>1835</ele>
        <time>2021-12-12T10:11:07Z</time>
      </trkpt>
      <trkpt lat="45.30997" lon="6.05037">
        <ele>1835</ele>
        <time>2021-12-12T10:11:09Z</time>
      </trkpt>
      <trkpt lat="45.30994" lon="6.05038">
        <ele>1835</ele>
        <time>2021-12-12T10:11:12Z</time>
      </trkpt>
      <trkpt lat="45.30993" lon="6.0504">
        <ele>1835</ele>
        <time>2021-12-12T10:11:15Z</time>
      </trkpt>
      <trkpt lat="45.30991" lon="6.05043">
        <ele>1835</ele>
        <time>2021-12-12T10:11:18Z</time>
      </trkpt>
      <trkpt lat="45.30989" lon="6.05045">
        <ele>1835</ele>
        <time>2021-12-12T10:11:21Z</time>
      </trkpt>
      <trkpt lat="45.30987" lon="6.05048">
        <ele>1835</ele>
        <time>2021-12-12T10:11:25Z</time>
      </trkpt>
      <trkpt lat="45.30984" lon="6.05054">
        <ele>1835</ele>
        <time>2021-12-12T10:11:27Z</time>
      </trkpt>
      <trkpt lat="45.30982" lon="6.05059">
        <ele>1835</ele>
        <time>2021-12-12T10:11:29Z</time>
      </trkpt>
      <trkpt lat="45.3098" lon="6.05062">
        <ele>1835</ele>
        <time>2021-12-12T10:11:31Z</time>
      </trkpt>
      <trkpt lat="45.30977" lon="6.05065">
        <ele>1835</ele>
        <time>2021-12-12T10:11:33Z</time>
      </trkpt>
      <trkpt lat="45.30975" lon="6.05067">
        <ele>1835</ele>
        <time>2021-12-12T10:11:35Z</time>
      </trkpt>
      <trkpt lat="45.30973" lon="6.05069">
        <ele>1835</ele>
        <time>2021-12-12T10:11:37Z</time>
      </trkpt>
      <trkpt lat="45.30971" lon="6.05071">
        <ele>1835</ele>
        <time>2021-12-12T10:11:39Z</time>
      </trkpt>
      <trkpt lat="45.30969" lon="6.05073">
        <ele>1835</ele>
        <time>2021-12-12T10:11:41Z</time>
      </trkpt>
      <trkpt lat="45.30966" lon="6.05075">
        <ele>1835</ele>
        <time>2021-12-12T10:11:43Z</time>
      </trkpt>
      <trkpt lat="45.30964" lon="6.05078">
        <ele>1835</ele>
        <time>2021-12-12T10:11:45Z</time>
      </trkpt>
      <trkpt lat="45.30961" lon="6.05081">
        <ele>1835</ele>
        <time>2021-12-12T10:11:47Z</time>
      </trkpt>
      <trkpt lat="45.30959" lon="6.05083">
        <ele>1835</ele>
        <time>2021-12-12T10:11:49Z</time>
      </trkpt>
      <trkpt lat="45.30957" lon="6.05085">
        <ele>1834</ele>
        <time>2021-12-12T10:11:52Z</time>
      </trkpt>
      <trkpt lat="45.30955" lon="6.05086">
        <ele>1834</ele>
        <time>2021-12-12T10:11:54Z</time>
      </trkpt>
      <trkpt lat="45.30953" lon="6.05088">
        <ele>1834</ele>
        <time>2021-12-12T10:11:56Z</time>
      </trkpt>
      <trkpt lat="45.30951" lon="6.05091">
        <ele>1834</ele>
        <time>2021-12-12T10:11:58Z</time>
      </trkpt>
      <trkpt lat="45.30949" lon="6.05094">
        <ele>1834</ele>
        <time>2021-12-12T10:11:59Z</time>
      </trkpt>
      <trkpt lat="45.30948" lon="6.05095">
        <ele>1834</ele>
        <time>2021-12-12T10:12:01Z</time>
      </trkpt>
      <trkpt lat="45.30946" lon="6.05097">
        <ele>1833</ele>
        <time>2021-12-12T10:12:03Z</time>
      </trkpt>
      <trkpt lat="45.30944" lon="6.05099">
        <ele>1833</ele>
        <time>2021-12-12T10:12:05Z</time>
      </trkpt>
      <trkpt lat="45.30943" lon="6.051">
        <ele>1833</ele>
        <time>2021-12-12T10:12:07Z</time>
      </trkpt>
      <trkpt lat="45.30941" lon="6.05101">
        <ele>1833</ele>
        <time>2021-12-12T10:12:10Z</time>
      </trkpt>
      <trkpt lat="45.30939" lon="6.05103">
        <ele>1835</ele>
        <time>2021-12-12T10:12:13Z</time>
      </trkpt>
      <trkpt lat="45.30937" lon="6.05104">
        <ele>1835</ele>
        <time>2021-12-12T10:12:14Z</time>
      </trkpt>
      <trkpt lat="45.30935" lon="6.05105">
        <ele>1835</ele>
        <time>2021-12-12T10:12:17Z</time>
      </trkpt>
      <trkpt lat="45.30933" lon="6.05107">
        <ele>1835</ele>
        <time>2021-12-12T10:12:19Z</time>
      </trkpt>
      <trkpt lat="45.30931" lon="6.05108">
        <ele>1835</ele>
        <time>2021-12-12T10:12:21Z</time>
      </trkpt>
      <trkpt lat="45.3093" lon="6.05109">
        <ele>1836</ele>
        <time>2021-12-12T10:12:24Z</time>
      </trkpt>
      <trkpt lat="45.30928" lon="6.05111">
        <ele>1836</ele>
        <time>2021-12-12T10:12:25Z</time>
      </trkpt>
      <trkpt lat="45.30926" lon="6.05112">
        <ele>1836</ele>
        <time>2021-12-12T10:12:27Z</time>
      </trkpt>
      <trkpt lat="45.30924" lon="6.05113">
        <ele>1836</ele>
        <time>2021-12-12T10:12:30Z</time>
      </trkpt>
      <trkpt lat="45.30922" lon="6.05114">
        <ele>1836</ele>
        <time>2021-12-12T10:12:31Z</time>
      </trkpt>
      <trkpt lat="45.3092" lon="6.05115">
        <ele>1836</ele>
        <time>2021-12-12T10:12:34Z</time>
      </trkpt>
      <trkpt lat="45.30918" lon="6.05115">
        <ele>1836</ele>
        <time>2021-12-12T10:12:36Z</time>
      </trkpt>
      <trkpt lat="45.30915" lon="6.05116">
        <ele>1836</ele>
        <time>2021-12-12T10:12:38Z</time>
      </trkpt>
      <trkpt lat="45.30914" lon="6.05116">
        <ele>1836</ele>
        <time>2021-12-12T10:12:40Z</time>
      </trkpt>
      <trkpt lat="45.30911" lon="6.05116">
        <ele>1836</ele>
        <time>2021-12-12T10:12:42Z</time>
      </trkpt>
      <trkpt lat="45.30909" lon="6.05115">
        <ele>1836</ele>
        <time>2021-12-12T10:12:45Z</time>
      </trkpt>
      <trkpt lat="45.30907" lon="6.05115">
        <ele>1836</ele>
        <time>2021-12-12T10:12:48Z</time>
      </trkpt>
      <trkpt lat="45.30904" lon="6.05115">
        <ele>1838</ele>
        <time>2021-12-12T10:12:52Z</time>
      </trkpt>
      <trkpt lat="45.30903" lon="6.05114">
        <ele>1838</ele>
        <time>2021-12-12T10:12:54Z</time>
      </trkpt>
      <trkpt lat="45.30901" lon="6.05114">
        <ele>1838</ele>
        <time>2021-12-12T10:12:56Z</time>
      </trkpt>
      <trkpt lat="45.30899" lon="6.05114">
        <ele>1838</ele>
        <time>2021-12-12T10:12:58Z</time>
      </trkpt>
      <trkpt lat="45.30896" lon="6.05112">
        <ele>1838</ele>
        <time>2021-12-12T10:13:00Z</time>
      </trkpt>
      <trkpt lat="45.30894" lon="6.05112">
        <ele>1838</ele>
        <time>2021-12-12T10:13:02Z</time>
      </trkpt>
      <trkpt lat="45.30892" lon="6.05111">
        <ele>1838</ele>
        <time>2021-12-12T10:13:04Z</time>
      </trkpt>
      <trkpt lat="45.3089" lon="6.05111">
        <ele>1838</ele>
        <time>2021-12-12T10:13:06Z</time>
      </trkpt>
      <trkpt lat="45.30889" lon="6.0511">
        <ele>1838</ele>
        <time>2021-12-12T10:13:09Z</time>
      </trkpt>
      <trkpt lat="45.30886" lon="6.0511">
        <ele>1838</ele>
        <time>2021-12-12T10:13:12Z</time>
      </trkpt>
      <trkpt lat="45.30884" lon="6.0511">
        <ele>1838</ele>
        <time>2021-12-12T10:13:14Z</time>
      </trkpt>
      <trkpt lat="45.30881" lon="6.0511">
        <ele>1838</ele>
        <time>2021-12-12T10:13:16Z</time>
      </trkpt>
      <trkpt lat="45.30879" lon="6.0511">
        <ele>1838</ele>
        <time>2021-12-12T10:13:18Z</time>
      </trkpt>
      <trkpt lat="45.30877" lon="6.0511">
        <ele>1838</ele>
        <time>2021-12-12T10:13:20Z</time>
      </trkpt>
      <trkpt lat="45.30875" lon="6.0511">
        <ele>1838</ele>
        <time>2021-12-12T10:13:22Z</time>
      </trkpt>
      <trkpt lat="45.30873" lon="6.05111">
        <ele>1838</ele>
        <time>2021-12-12T10:13:25Z</time>
      </trkpt>
      <trkpt lat="45.30871" lon="6.05112">
        <ele>1838</ele>
        <time>2021-12-12T10:13:28Z</time>
      </trkpt>
      <trkpt lat="45.30869" lon="6.05113">
        <ele>1838</ele>
        <time>2021-12-12T10:13:31Z</time>
      </trkpt>
      <trkpt lat="45.30867" lon="6.05115">
        <ele>1840</ele>
        <time>2021-12-12T10:13:34Z</time>
      </trkpt>
      <trkpt lat="45.30865" lon="6.05116">
        <ele>1840</ele>
        <time>2021-12-12T10:13:37Z</time>
      </trkpt>
      <trkpt lat="45.30863" lon="6.05118">
        <ele>1840</ele>
        <time>2021-12-12T10:13:39Z</time>
      </trkpt>
      <trkpt lat="45.30861" lon="6.0512">
        <ele>1841</ele>
        <time>2021-12-12T10:13:43Z</time>
      </trkpt>
      <trkpt lat="45.30859" lon="6.05122">
        <ele>1841</ele>
        <time>2021-12-12T10:13:47Z</time>
      </trkpt>
      <trkpt lat="45.30857" lon="6.05123">
        <ele>1841</ele>
        <time>2021-12-12T10:13:50Z</time>
      </trkpt>
      <trkpt lat="45.30855" lon="6.05124">
        <ele>1842</ele>
        <time>2021-12-12T10:13:53Z</time>
      </trkpt>
      <trkpt lat="45.30852" lon="6.05123">
        <ele>1842</ele>
        <time>2021-12-12T10:13:56Z</time>
      </trkpt>
      <trkpt lat="45.3085" lon="6.05121">
        <ele>1842</ele>
        <time>2021-12-12T10:13:58Z</time>
      </trkpt>
      <trkpt lat="45.30848" lon="6.05119">
        <ele>1844</ele>
        <time>2021-12-12T10:14:02Z</time>
      </trkpt>
      <trkpt lat="45.30847" lon="6.05117">
        <ele>1844</ele>
        <time>2021-12-12T10:14:05Z</time>
      </trkpt>
      <trkpt lat="45.30846" lon="6.05114">
        <ele>1844</ele>
        <time>2021-12-12T10:14:08Z</time>
      </trkpt>
      <trkpt lat="45.30844" lon="6.05112">
        <ele>1844</ele>
        <time>2021-12-12T10:14:10Z</time>
      </trkpt>
      <trkpt lat="45.30842" lon="6.0511">
        <ele>1846</ele>
        <time>2021-12-12T10:14:13Z</time>
      </trkpt>
      <trkpt lat="45.3084" lon="6.05108">
        <ele>1846</ele>
        <time>2021-12-12T10:14:17Z</time>
      </trkpt>
      <trkpt lat="45.30838" lon="6.05107">
        <ele>1846</ele>
        <time>2021-12-12T10:14:20Z</time>
      </trkpt>
      <trkpt lat="45.30836" lon="6.05106">
        <ele>1847</ele>
        <time>2021-12-12T10:14:23Z</time>
      </trkpt>
      <trkpt lat="45.30834" lon="6.05104">
        <ele>1847</ele>
        <time>2021-12-12T10:14:26Z</time>
      </trkpt>
      <trkpt lat="45.30833" lon="6.05102">
        <ele>1847</ele>
        <time>2021-12-12T10:14:29Z</time>
      </trkpt>
      <trkpt lat="45.30831" lon="6.05099">
        <ele>1849</ele>
        <time>2021-12-12T10:14:32Z</time>
      </trkpt>
      <trkpt lat="45.30829" lon="6.05098">
        <ele>1849</ele>
        <time>2021-12-12T10:14:35Z</time>
      </trkpt>
      <trkpt lat="45.30828" lon="6.05096">
        <ele>1849</ele>
        <time>2021-12-12T10:14:37Z</time>
      </trkpt>
      <trkpt lat="45.30826" lon="6.05094">
        <ele>1849</ele>
        <time>2021-12-12T10:14:40Z</time>
      </trkpt>
      <trkpt lat="45.30825" lon="6.05093">
        <ele>1849</ele>
        <time>2021-12-12T10:14:43Z</time>
      </trkpt>
      <trkpt lat="45.30823" lon="6.05092">
        <ele>1849</ele>
        <time>2021-12-12T10:14:46Z</time>
      </trkpt>
      <trkpt lat="45.30821" lon="6.05091">
        <ele>1849</ele>
        <time>2021-12-12T10:14:49Z</time>
      </trkpt>
      <trkpt lat="45.30819" lon="6.05091">
        <ele>1849</ele>
        <time>2021-12-12T10:14:53Z</time>
      </trkpt>
      <trkpt lat="45.30817" lon="6.0509">
        <ele>1849</ele>
        <time>2021-12-12T10:14:56Z</time>
      </trkpt>
      <trkpt lat="45.30815" lon="6.0509">
        <ele>1849</ele>
        <time>2021-12-12T10:14:59Z</time>
      </trkpt>
      <trkpt lat="45.30812" lon="6.0509">
        <ele>1852</ele>
        <time>2021-12-12T10:15:02Z</time>
      </trkpt>
      <trkpt lat="45.3081" lon="6.0509">
        <ele>1852</ele>
        <time>2021-12-12T10:15:05Z</time>
      </trkpt>
      <trkpt lat="45.30808" lon="6.05089">
        <ele>1852</ele>
        <time>2021-12-12T10:15:08Z</time>
      </trkpt>
      <trkpt lat="45.30806" lon="6.05089">
        <ele>1852</ele>
        <time>2021-12-12T10:15:11Z</time>
      </trkpt>
      <trkpt lat="45.30804" lon="6.05089">
        <ele>1853</ele>
        <time>2021-12-12T10:15:14Z</time>
      </trkpt>
      <trkpt lat="45.30802" lon="6.05089">
        <ele>1853</ele>
        <time>2021-12-12T10:15:17Z</time>
      </trkpt>
      <trkpt lat="45.308" lon="6.05089">
        <ele>1853</ele>
        <time>2021-12-12T10:15:21Z</time>
      </trkpt>
      <trkpt lat="45.30798" lon="6.05089">
        <ele>1855</ele>
        <time>2021-12-12T10:15:24Z</time>
      </trkpt>
      <trkpt lat="45.30796" lon="6.05089">
        <ele>1855</ele>
        <time>2021-12-12T10:15:27Z</time>
      </trkpt>
      <trkpt lat="45.30794" lon="6.05089">
        <ele>1855</ele>
        <time>2021-12-12T10:15:30Z</time>
      </trkpt>
      <trkpt lat="45.30791" lon="6.05089">
        <ele>1858</ele>
        <time>2021-12-12T10:15:33Z</time>
      </trkpt>
      <trkpt lat="45.30789" lon="6.05088">
        <ele>1858</ele>
        <time>2021-12-12T10:15:36Z</time>
      </trkpt>
      <trkpt lat="45.30786" lon="6.05087">
        <ele>1858</ele>
        <time>2021-12-12T10:15:38Z</time>
      </trkpt>
      <trkpt lat="45.30784" lon="6.05086">
        <ele>1858</ele>
        <time>2021-12-12T10:15:41Z</time>
      </trkpt>
      <trkpt lat="45.30782" lon="6.05085">
        <ele>1859</ele>
        <time>2021-12-12T10:15:44Z</time>
      </trkpt>
      <trkpt lat="45.3078" lon="6.05085">
        <ele>1859</ele>
        <time>2021-12-12T10:15:49Z</time>
      </trkpt>
      <trkpt lat="45.30778" lon="6.05084">
        <ele>1860</ele>
        <time>2021-12-12T10:15:52Z</time>
      </trkpt>
      <trkpt lat="45.30776" lon="6.05083">
        <ele>1860</ele>
        <time>2021-12-12T10:15:55Z</time>
      </trkpt>
      <trkpt lat="45.30774" lon="6.05083">
        <ele>1860</ele>
        <time>2021-12-12T10:15:58Z</time>
      </trkpt>
      <trkpt lat="45.30772" lon="6.05083">
        <ele>1861</ele>
        <time>2021-12-12T10:16:04Z</time>
      </trkpt>
      <trkpt lat="45.3077" lon="6.05083">
        <ele>1861</ele>
        <time>2021-12-12T10:16:06Z</time>
      </trkpt>
      <trkpt lat="45.30767" lon="6.05083">
        <ele>1861</ele>
        <time>2021-12-12T10:16:11Z</time>
      </trkpt>
      <trkpt lat="45.30765" lon="6.05082">
        <ele>1863</ele>
        <time>2021-12-12T10:16:13Z</time>
      </trkpt>
      <trkpt lat="45.30763" lon="6.05082">
        <ele>1863</ele>
        <time>2021-12-12T10:16:17Z</time>
      </trkpt>
      <trkpt lat="45.30762" lon="6.05081">
        <ele>1863</ele>
        <time>2021-12-12T10:16:20Z</time>
      </trkpt>
      <trkpt lat="45.30759" lon="6.0508">
        <ele>1865</ele>
        <time>2021-12-12T10:16:24Z</time>
      </trkpt>
      <trkpt lat="45.30757" lon="6.0508">
        <ele>1865</ele>
        <time>2021-12-12T10:16:27Z</time>
      </trkpt>
      <trkpt lat="45.30756" lon="6.0508">
        <ele>1865</ele>
        <time>2021-12-12T10:16:31Z</time>
      </trkpt>
      <trkpt lat="45.30754" lon="6.05079">
        <ele>1867</ele>
        <time>2021-12-12T10:16:34Z</time>
      </trkpt>
      <trkpt lat="45.30752" lon="6.05079">
        <ele>1867</ele>
        <time>2021-12-12T10:16:38Z</time>
      </trkpt>
      <trkpt lat="45.3075" lon="6.05078">
        <ele>1867</ele>
        <time>2021-12-12T10:16:41Z</time>
      </trkpt>
      <trkpt lat="45.30748" lon="6.05077">
        <ele>1868</ele>
        <time>2021-12-12T10:16:43Z</time>
      </trkpt>
      <trkpt lat="45.30746" lon="6.05076">
        <ele>1868</ele>
        <time>2021-12-12T10:16:46Z</time>
      </trkpt>
      <trkpt lat="45.30744" lon="6.05075">
        <ele>1868</ele>
        <time>2021-12-12T10:16:50Z</time>
      </trkpt>
      <trkpt lat="45.30742" lon="6.05073">
        <ele>1869</ele>
        <time>2021-12-12T10:16:52Z</time>
      </trkpt>
      <trkpt lat="45.3074" lon="6.05072">
        <ele>1869</ele>
        <time>2021-12-12T10:16:56Z</time>
      </trkpt>
      <trkpt lat="45.30738" lon="6.05072">
        <ele>1869</ele>
        <time>2021-12-12T10:16:59Z</time>
      </trkpt>
      <trkpt lat="45.30736" lon="6.05071">
        <ele>1868</ele>
        <time>2021-12-12T10:17:03Z</time>
      </trkpt>
      <trkpt lat="45.30733" lon="6.05071">
        <ele>1868</ele>
        <time>2021-12-12T10:17:06Z</time>
      </trkpt>
      <trkpt lat="45.30731" lon="6.0507">
        <ele>1868</ele>
        <time>2021-12-12T10:17:10Z</time>
      </trkpt>
      <trkpt lat="45.30729" lon="6.05069">
        <ele>1870</ele>
        <time>2021-12-12T10:17:15Z</time>
      </trkpt>
      <trkpt lat="45.30726" lon="6.05069">
        <ele>1870</ele>
        <time>2021-12-12T10:17:19Z</time>
      </trkpt>
      <trkpt lat="45.30724" lon="6.05068">
        <ele>1870</ele>
        <time>2021-12-12T10:17:21Z</time>
      </trkpt>
      <trkpt lat="45.30722" lon="6.05067">
        <ele>1871</ele>
        <time>2021-12-12T10:17:25Z</time>
      </trkpt>
      <trkpt lat="45.3072" lon="6.05066">
        <ele>1871</ele>
        <time>2021-12-12T10:17:28Z</time>
      </trkpt>
      <trkpt lat="45.30718" lon="6.05065">
        <ele>1871</ele>
        <time>2021-12-12T10:17:31Z</time>
      </trkpt>
      <trkpt lat="45.30716" lon="6.05064">
        <ele>1873</ele>
        <time>2021-12-12T10:17:34Z</time>
      </trkpt>
      <trkpt lat="45.30714" lon="6.05063">
        <ele>1873</ele>
        <time>2021-12-12T10:17:37Z</time>
      </trkpt>
      <trkpt lat="45.30712" lon="6.05062">
        <ele>1873</ele>
        <time>2021-12-12T10:17:39Z</time>
      </trkpt>
      <trkpt lat="45.3071" lon="6.05061">
        <ele>1875</ele>
        <time>2021-12-12T10:17:43Z</time>
      </trkpt>
      <trkpt lat="45.30708" lon="6.0506">
        <ele>1875</ele>
        <time>2021-12-12T10:17:47Z</time>
      </trkpt>
      <trkpt lat="45.30706" lon="6.0506">
        <ele>1875</ele>
        <time>2021-12-12T10:17:50Z</time>
      </trkpt>
      <trkpt lat="45.30704" lon="6.05059">
        <ele>1876</ele>
        <time>2021-12-12T10:17:53Z</time>
      </trkpt>
      <trkpt lat="45.30702" lon="6.05058">
        <ele>1876</ele>
        <time>2021-12-12T10:17:55Z</time>
      </trkpt>
      <trkpt lat="45.30699" lon="6.05058">
        <ele>1876</ele>
        <time>2021-12-12T10:17:58Z</time>
      </trkpt>
      <trkpt lat="45.30697" lon="6.05057">
        <ele>1876</ele>
        <time>2021-12-12T10:18:01Z</time>
      </trkpt>
      <trkpt lat="45.30695" lon="6.05057">
        <ele>1878</ele>
        <time>2021-12-12T10:18:06Z</time>
      </trkpt>
      <trkpt lat="45.30693" lon="6.05056">
        <ele>1878</ele>
        <time>2021-12-12T10:18:10Z</time>
      </trkpt>
      <trkpt lat="45.30691" lon="6.05056">
        <ele>1878</ele>
        <time>2021-12-12T10:18:12Z</time>
      </trkpt>
      <trkpt lat="45.30689" lon="6.05056">
        <ele>1878</ele>
        <time>2021-12-12T10:18:14Z</time>
      </trkpt>
      <trkpt lat="45.30687" lon="6.05055">
        <ele>1878</ele>
        <time>2021-12-12T10:18:18Z</time>
      </trkpt>
      <trkpt lat="45.30684" lon="6.05055">
        <ele>1880</ele>
        <time>2021-12-12T10:18:23Z</time>
      </trkpt>
      <trkpt lat="45.30682" lon="6.05055">
        <ele>1880</ele>
        <time>2021-12-12T10:18:27Z</time>
      </trkpt>
      <trkpt lat="45.3068" lon="6.05055">
        <ele>1880</ele>
        <time>2021-12-12T10:18:31Z</time>
      </trkpt>
      <trkpt lat="45.30677" lon="6.05055">
        <ele>1881</ele>
        <time>2021-12-12T10:18:35Z</time>
      </trkpt>
      <trkpt lat="45.30675" lon="6.05055">
        <ele>1881</ele>
        <time>2021-12-12T10:18:38Z</time>
      </trkpt>
      <trkpt lat="45.30673" lon="6.05055">
        <ele>1883</ele>
        <time>2021-12-12T10:18:42Z</time>
      </trkpt>
      <trkpt lat="45.30671" lon="6.05056">
        <ele>1883</ele>
        <time>2021-12-12T10:18:50Z</time>
      </trkpt>
      <trkpt lat="45.30669" lon="6.05057">
        <ele>1884</ele>
        <time>2021-12-12T10:18:54Z</time>
      </trkpt>
      <trkpt lat="45.30667" lon="6.05057">
        <ele>1884</ele>
        <time>2021-12-12T10:18:57Z</time>
      </trkpt>
      <trkpt lat="45.30665" lon="6.05057">
        <ele>1884</ele>
        <time>2021-12-12T10:19:00Z</time>
      </trkpt>
      <trkpt lat="45.30663" lon="6.05057">
        <ele>1885</ele>
        <time>2021-12-12T10:19:02Z</time>
      </trkpt>
      <trkpt lat="45.3066" lon="6.05057">
        <ele>1885</ele>
        <time>2021-12-12T10:19:05Z</time>
      </trkpt>
      <trkpt lat="45.30659" lon="6.05057">
        <ele>1885</ele>
        <time>2021-12-12T10:19:09Z</time>
      </trkpt>
      <trkpt lat="45.30657" lon="6.05057">
        <ele>1887</ele>
        <time>2021-12-12T10:19:12Z</time>
      </trkpt>
      <trkpt lat="45.30654" lon="6.05057">
        <ele>1887</ele>
        <time>2021-12-12T10:19:16Z</time>
      </trkpt>
      <trkpt lat="45.30652" lon="6.05058">
        <ele>1887</ele>
        <time>2021-12-12T10:19:20Z</time>
      </trkpt>
      <trkpt lat="45.3065" lon="6.05058">
        <ele>1887</ele>
        <time>2021-12-12T10:19:22Z</time>
      </trkpt>
      <trkpt lat="45.30648" lon="6.05058">
        <ele>1887</ele>
        <time>2021-12-12T10:19:26Z</time>
      </trkpt>
      <trkpt lat="45.30647" lon="6.05058">
        <ele>1887</ele>
        <time>2021-12-12T10:19:29Z</time>
      </trkpt>
      <trkpt lat="45.30645" lon="6.05057">
        <ele>1887</ele>
        <time>2021-12-12T10:19:31Z</time>
      </trkpt>
      <trkpt lat="45.30642" lon="6.05057">
        <ele>1889</ele>
        <time>2021-12-12T10:19:36Z</time>
      </trkpt>
      <trkpt lat="45.3064" lon="6.05057">
        <ele>1889</ele>
        <time>2021-12-12T10:19:39Z</time>
      </trkpt>
      <trkpt lat="45.30638" lon="6.05057">
        <ele>1891</ele>
        <time>2021-12-12T10:19:42Z</time>
      </trkpt>
      <trkpt lat="45.30636" lon="6.05057">
        <ele>1891</ele>
        <time>2021-12-12T10:19:44Z</time>
      </trkpt>
      <trkpt lat="45.30634" lon="6.05057">
        <ele>1891</ele>
        <time>2021-12-12T10:19:47Z</time>
      </trkpt>
      <trkpt lat="45.30633" lon="6.05059">
        <ele>1891</ele>
        <time>2021-12-12T10:21:04Z</time>
      </trkpt>
      <trkpt lat="45.30631" lon="6.05058">
        <ele>1891</ele>
        <time>2021-12-12T10:21:06Z</time>
      </trkpt>
      <trkpt lat="45.30629" lon="6.05057">
        <ele>1891</ele>
        <time>2021-12-12T10:21:08Z</time>
      </trkpt>
      <trkpt lat="45.30627" lon="6.05057">
        <ele>1891</ele>
        <time>2021-12-12T10:21:10Z</time>
      </trkpt>
      <trkpt lat="45.30625" lon="6.05056">
        <ele>1893</ele>
        <time>2021-12-12T10:21:13Z</time>
      </trkpt>
      <trkpt lat="45.30622" lon="6.05056">
        <ele>1893</ele>
        <time>2021-12-12T10:21:16Z</time>
      </trkpt>
      <trkpt lat="45.3062" lon="6.05056">
        <ele>1893</ele>
        <time>2021-12-12T10:21:19Z</time>
      </trkpt>
      <trkpt lat="45.30617" lon="6.05056">
        <ele>1894</ele>
        <time>2021-12-12T10:21:22Z</time>
      </trkpt>
      <trkpt lat="45.30615" lon="6.05055">
        <ele>1894</ele>
        <time>2021-12-12T10:21:25Z</time>
      </trkpt>
      <trkpt lat="45.30612" lon="6.05055">
        <ele>1894</ele>
        <time>2021-12-12T10:21:27Z</time>
      </trkpt>
      <trkpt lat="45.30611" lon="6.05055">
        <ele>1894</ele>
        <time>2021-12-12T10:21:30Z</time>
      </trkpt>
      <trkpt lat="45.30608" lon="6.05054">
        <ele>1896</ele>
        <time>2021-12-12T10:21:33Z</time>
      </trkpt>
      <trkpt lat="45.30606" lon="6.05053">
        <ele>1896</ele>
        <time>2021-12-12T10:21:36Z</time>
      </trkpt>
      <trkpt lat="45.30603" lon="6.05053">
        <ele>1896</ele>
        <time>2021-12-12T10:21:39Z</time>
      </trkpt>
      <trkpt lat="45.30601" lon="6.05053">
        <ele>1898</ele>
        <time>2021-12-12T10:21:42Z</time>
      </trkpt>
      <trkpt lat="45.30599" lon="6.05053">
        <ele>1898</ele>
        <time>2021-12-12T10:21:45Z</time>
      </trkpt>
      <trkpt lat="45.30596" lon="6.05053">
        <ele>1898</ele>
        <time>2021-12-12T10:21:47Z</time>
      </trkpt>
      <trkpt lat="45.30595" lon="6.05053">
        <ele>1898</ele>
        <time>2021-12-12T10:21:51Z</time>
      </trkpt>
      <trkpt lat="45.30592" lon="6.05054">
        <ele>1900</ele>
        <time>2021-12-12T10:21:54Z</time>
      </trkpt>
      <trkpt lat="45.3059" lon="6.05054">
        <ele>1900</ele>
        <time>2021-12-12T10:22:01Z</time>
      </trkpt>
      <trkpt lat="45.30588" lon="6.05053">
        <ele>1902</ele>
        <time>2021-12-12T10:22:03Z</time>
      </trkpt>
      <trkpt lat="45.30586" lon="6.05053">
        <ele>1902</ele>
        <time>2021-12-12T10:22:07Z</time>
      </trkpt>
      <trkpt lat="45.30584" lon="6.05053">
        <ele>1902</ele>
        <time>2021-12-12T10:22:09Z</time>
      </trkpt>
      <trkpt lat="45.30582" lon="6.05052">
        <ele>1903</ele>
        <time>2021-12-12T10:22:12Z</time>
      </trkpt>
      <trkpt lat="45.30579" lon="6.05052">
        <ele>1903</ele>
        <time>2021-12-12T10:22:16Z</time>
      </trkpt>
      <trkpt lat="45.30577" lon="6.05052">
        <ele>1903</ele>
        <time>2021-12-12T10:22:19Z</time>
      </trkpt>
      <trkpt lat="45.30575" lon="6.05051">
        <ele>1905</ele>
        <time>2021-12-12T10:22:27Z</time>
      </trkpt>
      <trkpt lat="45.30573" lon="6.05051">
        <ele>1905</ele>
        <time>2021-12-12T10:22:30Z</time>
      </trkpt>
      <trkpt lat="45.3057" lon="6.05051">
        <ele>1906</ele>
        <time>2021-12-12T10:22:32Z</time>
      </trkpt>
      <trkpt lat="45.30567" lon="6.05051">
        <ele>1906</ele>
        <time>2021-12-12T10:22:35Z</time>
      </trkpt>
      <trkpt lat="45.30565" lon="6.05051">
        <ele>1906</ele>
        <time>2021-12-12T10:22:39Z</time>
      </trkpt>
      <trkpt lat="45.30563" lon="6.05051">
        <ele>1906</ele>
        <time>2021-12-12T10:22:42Z</time>
      </trkpt>
      <trkpt lat="45.30561" lon="6.05051">
        <ele>1906</ele>
        <time>2021-12-12T10:22:45Z</time>
      </trkpt>
      <trkpt lat="45.30558" lon="6.05051">
        <ele>1906</ele>
        <time>2021-12-12T10:22:48Z</time>
      </trkpt>
      <trkpt lat="45.30556" lon="6.05051">
        <ele>1906</ele>
        <time>2021-12-12T10:22:51Z</time>
      </trkpt>
      <trkpt lat="45.30554" lon="6.05051">
        <ele>1908</ele>
        <time>2021-12-12T10:22:54Z</time>
      </trkpt>
      <trkpt lat="45.30551" lon="6.05052">
        <ele>1908</ele>
        <time>2021-12-12T10:22:57Z</time>
      </trkpt>
      <trkpt lat="45.30549" lon="6.05053">
        <ele>1908</ele>
        <time>2021-12-12T10:23:00Z</time>
      </trkpt>
      <trkpt lat="45.30546" lon="6.05053">
        <ele>1909</ele>
        <time>2021-12-12T10:23:02Z</time>
      </trkpt>
      <trkpt lat="45.30543" lon="6.05054">
        <ele>1909</ele>
        <time>2021-12-12T10:23:06Z</time>
      </trkpt>
      <trkpt lat="45.30542" lon="6.05054">
        <ele>1909</ele>
        <time>2021-12-12T10:23:07Z</time>
      </trkpt>
      <trkpt lat="45.30539" lon="6.05053">
        <ele>1909</ele>
        <time>2021-12-12T10:23:11Z</time>
      </trkpt>
      <trkpt lat="45.30537" lon="6.05054">
        <ele>1909</ele>
        <time>2021-12-12T10:23:14Z</time>
      </trkpt>
      <trkpt lat="45.30535" lon="6.05056">
        <ele>1909</ele>
        <time>2021-12-12T10:23:17Z</time>
      </trkpt>
      <trkpt lat="45.30533" lon="6.05056">
        <ele>1911</ele>
        <time>2021-12-12T10:23:33Z</time>
      </trkpt>
      <trkpt lat="45.30531" lon="6.05054">
        <ele>1911</ele>
        <time>2021-12-12T10:23:36Z</time>
      </trkpt>
      <trkpt lat="45.30529" lon="6.05051">
        <ele>1911</ele>
        <time>2021-12-12T10:23:38Z</time>
      </trkpt>
      <trkpt lat="45.30528" lon="6.05048">
        <ele>1911</ele>
        <time>2021-12-12T10:23:39Z</time>
      </trkpt>
      <trkpt lat="45.30527" lon="6.05046">
        <ele>1911</ele>
        <time>2021-12-12T10:23:41Z</time>
      </trkpt>
      <trkpt lat="45.30525" lon="6.05043">
        <ele>1910</ele>
        <time>2021-12-12T10:23:43Z</time>
      </trkpt>
      <trkpt lat="45.30523" lon="6.05042">
        <ele>1910</ele>
        <time>2021-12-12T10:23:46Z</time>
      </trkpt>
      <trkpt lat="45.30521" lon="6.0504">
        <ele>1910</ele>
        <time>2021-12-12T10:23:47Z</time>
      </trkpt>
      <trkpt lat="45.30519" lon="6.05039">
        <ele>1910</ele>
        <time>2021-12-12T10:23:50Z</time>
      </trkpt>
      <trkpt lat="45.30517" lon="6.05038">
        <ele>1910</ele>
        <time>2021-12-12T10:23:51Z</time>
      </trkpt>
      <trkpt lat="45.30515" lon="6.05037">
        <ele>1909</ele>
        <time>2021-12-12T10:23:54Z</time>
      </trkpt>
      <trkpt lat="45.30513" lon="6.05036">
        <ele>1909</ele>
        <time>2021-12-12T10:23:56Z</time>
      </trkpt>
      <trkpt lat="45.3051" lon="6.05034">
        <ele>1909</ele>
        <time>2021-12-12T10:23:57Z</time>
      </trkpt>
      <trkpt lat="45.30508" lon="6.05033">
        <ele>1909</ele>
        <time>2021-12-12T10:23:59Z</time>
      </trkpt>
      <trkpt lat="45.30505" lon="6.05032">
        <ele>1909</ele>
        <time>2021-12-12T10:24:01Z</time>
      </trkpt>
      <trkpt lat="45.30503" lon="6.05031">
        <ele>1910</ele>
        <time>2021-12-12T10:24:03Z</time>
      </trkpt>
      <trkpt lat="45.30501" lon="6.05029">
        <ele>1910</ele>
        <time>2021-12-12T10:24:06Z</time>
      </trkpt>
      <trkpt lat="45.30499" lon="6.05028">
        <ele>1910</ele>
        <time>2021-12-12T10:24:09Z</time>
      </trkpt>
      <trkpt lat="45.30496" lon="6.05027">
        <ele>1911</ele>
        <time>2021-12-12T10:24:13Z</time>
      </trkpt>
      <trkpt lat="45.30494" lon="6.05026">
        <ele>1911</ele>
        <time>2021-12-12T10:24:15Z</time>
      </trkpt>
      <trkpt lat="45.30491" lon="6.05026">
        <ele>1911</ele>
        <time>2021-12-12T10:24:18Z</time>
      </trkpt>
      <trkpt lat="45.30489" lon="6.05025">
        <ele>1911</ele>
        <time>2021-12-12T10:24:21Z</time>
      </trkpt>
      <trkpt lat="45.30487" lon="6.05024">
        <ele>1911</ele>
        <time>2021-12-12T10:24:24Z</time>
      </trkpt>
      <trkpt lat="45.30485" lon="6.05023">
        <ele>1911</ele>
        <time>2021-12-12T10:24:28Z</time>
      </trkpt>
      <trkpt lat="45.30482" lon="6.05023">
        <ele>1911</ele>
        <time>2021-12-12T10:24:31Z</time>
      </trkpt>
      <trkpt lat="45.3048" lon="6.05022">
        <ele>1913</ele>
        <time>2021-12-12T10:24:33Z</time>
      </trkpt>
      <trkpt lat="45.30478" lon="6.05021">
        <ele>1913</ele>
        <time>2021-12-12T10:24:36Z</time>
      </trkpt>
      <trkpt lat="45.30475" lon="6.05021">
        <ele>1913</ele>
        <time>2021-12-12T10:24:39Z</time>
      </trkpt>
      <trkpt lat="45.30473" lon="6.0502">
        <ele>1916</ele>
        <time>2021-12-12T10:24:43Z</time>
      </trkpt>
      <trkpt lat="45.30471" lon="6.05019">
        <ele>1916</ele>
        <time>2021-12-12T10:24:46Z</time>
      </trkpt>
      <trkpt lat="45.30469" lon="6.05019">
        <ele>1916</ele>
        <time>2021-12-12T10:24:48Z</time>
      </trkpt>
      <trkpt lat="45.30466" lon="6.05019">
        <ele>1918</ele>
        <time>2021-12-12T10:24:52Z</time>
      </trkpt>
      <trkpt lat="45.30464" lon="6.05018">
        <ele>1918</ele>
        <time>2021-12-12T10:24:55Z</time>
      </trkpt>
      <trkpt lat="45.30462" lon="6.05018">
        <ele>1918</ele>
        <time>2021-12-12T10:24:58Z</time>
      </trkpt>
      <trkpt lat="45.30459" lon="6.05018">
        <ele>1918</ele>
        <time>2021-12-12T10:25:01Z</time>
      </trkpt>
      <trkpt lat="45.30457" lon="6.05017">
        <ele>1918</ele>
        <time>2021-12-12T10:25:03Z</time>
      </trkpt>
      <trkpt lat="45.30455" lon="6.05016">
        <ele>1918</ele>
        <time>2021-12-12T10:25:06Z</time>
      </trkpt>
      <trkpt lat="45.30452" lon="6.05016">
        <ele>1918</ele>
        <time>2021-12-12T10:25:10Z</time>
      </trkpt>
      <trkpt lat="45.3045" lon="6.05016">
        <ele>1920</ele>
        <time>2021-12-12T10:25:13Z</time>
      </trkpt>
      <trkpt lat="45.30448" lon="6.05016">
        <ele>1920</ele>
        <time>2021-12-12T10:25:17Z</time>
      </trkpt>
      <trkpt lat="45.30446" lon="6.05017">
        <ele>1921</ele>
        <time>2021-12-12T10:26:10Z</time>
      </trkpt>
      <trkpt lat="45.30444" lon="6.05017">
        <ele>1921</ele>
        <time>2021-12-12T10:26:13Z</time>
      </trkpt>
      <trkpt lat="45.30442" lon="6.05018">
        <ele>1921</ele>
        <time>2021-12-12T10:26:16Z</time>
      </trkpt>
      <trkpt lat="45.3044" lon="6.05018">
        <ele>1921</ele>
        <time>2021-12-12T10:26:17Z</time>
      </trkpt>
      <trkpt lat="45.30437" lon="6.05018">
        <ele>1921</ele>
        <time>2021-12-12T10:26:21Z</time>
      </trkpt>
      <trkpt lat="45.30435" lon="6.05018">
        <ele>1923</ele>
        <time>2021-12-12T10:26:23Z</time>
      </trkpt>
      <trkpt lat="45.30433" lon="6.05019">
        <ele>1923</ele>
        <time>2021-12-12T10:26:25Z</time>
      </trkpt>
      <trkpt lat="45.30431" lon="6.05019">
        <ele>1923</ele>
        <time>2021-12-12T10:26:27Z</time>
      </trkpt>
      <trkpt lat="45.30429" lon="6.05018">
        <ele>1923</ele>
        <time>2021-12-12T10:26:29Z</time>
      </trkpt>
      <trkpt lat="45.30427" lon="6.05018">
        <ele>1923</ele>
        <time>2021-12-12T10:26:31Z</time>
      </trkpt>
      <trkpt lat="45.30425" lon="6.05018">
        <ele>1925</ele>
        <time>2021-12-12T10:26:33Z</time>
      </trkpt>
      <trkpt lat="45.30423" lon="6.05018">
        <ele>1925</ele>
        <time>2021-12-12T10:26:36Z</time>
      </trkpt>
      <trkpt lat="45.30421" lon="6.05017">
        <ele>1925</ele>
        <time>2021-12-12T10:26:37Z</time>
      </trkpt>
      <trkpt lat="45.30418" lon="6.05017">
        <ele>1925</ele>
        <time>2021-12-12T10:26:39Z</time>
      </trkpt>
      <trkpt lat="45.30416" lon="6.05017">
        <ele>1925</ele>
        <time>2021-12-12T10:26:41Z</time>
      </trkpt>
      <trkpt lat="45.30414" lon="6.05016">
        <ele>1926</ele>
        <time>2021-12-12T10:26:43Z</time>
      </trkpt>
      <trkpt lat="45.30412" lon="6.05015">
        <ele>1926</ele>
        <time>2021-12-12T10:26:46Z</time>
      </trkpt>
      <trkpt lat="45.30409" lon="6.05015">
        <ele>1926</ele>
        <time>2021-12-12T10:26:48Z</time>
      </trkpt>
      <trkpt lat="45.30406" lon="6.05014">
        <ele>1926</ele>
        <time>2021-12-12T10:26:49Z</time>
      </trkpt>
      <trkpt lat="45.30404" lon="6.05013">
        <ele>1926</ele>
        <time>2021-12-12T10:26:51Z</time>
      </trkpt>
      <trkpt lat="45.30402" lon="6.05013">
        <ele>1926</ele>
        <time>2021-12-12T10:26:53Z</time>
      </trkpt>
      <trkpt lat="45.304" lon="6.05013">
        <ele>1926</ele>
        <time>2021-12-12T10:26:55Z</time>
      </trkpt>
      <trkpt lat="45.30398" lon="6.05012">
        <ele>1926</ele>
        <time>2021-12-12T10:26:57Z</time>
      </trkpt>
      <trkpt lat="45.30396" lon="6.05012">
        <ele>1926</ele>
        <time>2021-12-12T10:27:00Z</time>
      </trkpt>
      <trkpt lat="45.30393" lon="6.05011">
        <ele>1926</ele>
        <time>2021-12-12T10:27:02Z</time>
      </trkpt>
      <trkpt lat="45.30391" lon="6.05011">
        <ele>1926</ele>
        <time>2021-12-12T10:27:04Z</time>
      </trkpt>
      <trkpt lat="45.30389" lon="6.05011">
        <ele>1926</ele>
        <time>2021-12-12T10:27:05Z</time>
      </trkpt>
      <trkpt lat="45.30388" lon="6.05011">
        <ele>1926</ele>
        <time>2021-12-12T10:27:07Z</time>
      </trkpt>
      <trkpt lat="45.30386" lon="6.0501">
        <ele>1926</ele>
        <time>2021-12-12T10:27:10Z</time>
      </trkpt>
      <trkpt lat="45.30384" lon="6.0501">
        <ele>1927</ele>
        <time>2021-12-12T10:27:12Z</time>
      </trkpt>
      <trkpt lat="45.30382" lon="6.0501">
        <ele>1927</ele>
        <time>2021-12-12T10:27:14Z</time>
      </trkpt>
      <trkpt lat="45.3038" lon="6.05009">
        <ele>1927</ele>
        <time>2021-12-12T10:27:16Z</time>
      </trkpt>
      <trkpt lat="45.30378" lon="6.05009">
        <ele>1927</ele>
        <time>2021-12-12T10:27:18Z</time>
      </trkpt>
      <trkpt lat="45.30375" lon="6.05008">
        <ele>1927</ele>
        <time>2021-12-12T10:27:20Z</time>
      </trkpt>
      <trkpt lat="45.30373" lon="6.05007">
        <ele>1928</ele>
        <time>2021-12-12T10:27:23Z</time>
      </trkpt>
      <trkpt lat="45.30371" lon="6.05008">
        <ele>1928</ele>
        <time>2021-12-12T10:27:27Z</time>
      </trkpt>
      <trkpt lat="45.30368" lon="6.05008">
        <ele>1928</ele>
        <time>2021-12-12T10:27:30Z</time>
      </trkpt>
      <trkpt lat="45.30366" lon="6.05008">
        <ele>1929</ele>
        <time>2021-12-12T10:27:33Z</time>
      </trkpt>
      <trkpt lat="45.30364" lon="6.05007">
        <ele>1929</ele>
        <time>2021-12-12T10:27:34Z</time>
      </trkpt>
      <trkpt lat="45.30362" lon="6.05006">
        <ele>1929</ele>
        <time>2021-12-12T10:27:38Z</time>
      </trkpt>
      <trkpt lat="45.3036" lon="6.05006">
        <ele>1929</ele>
        <time>2021-12-12T10:27:40Z</time>
      </trkpt>
      <trkpt lat="45.30357" lon="6.05004">
        <ele>1930</ele>
        <time>2021-12-12T10:27:43Z</time>
      </trkpt>
      <trkpt lat="45.30355" lon="6.05003">
        <ele>1930</ele>
        <time>2021-12-12T10:27:46Z</time>
      </trkpt>
      <trkpt lat="45.30353" lon="6.05001">
        <ele>1930</ele>
        <time>2021-12-12T10:27:49Z</time>
      </trkpt>
      <trkpt lat="45.30355" lon="6.05001">
        <ele>1930</ele>
        <time>2021-12-12T10:29:58Z</time>
      </trkpt>
      <trkpt lat="45.30357" lon="6.05003">
        <ele>1931</ele>
        <time>2021-12-12T10:33:32Z</time>
      </trkpt>
      <trkpt lat="45.30358" lon="6.05005">
        <ele>1931</ele>
        <time>2021-12-12T10:42:01Z</time>
      </trkpt>
      <trkpt lat="45.3036" lon="6.05006">
        <ele>1931</ele>
        <time>2021-12-12T10:42:03Z</time>
      </trkpt>
      <trkpt lat="45.30362" lon="6.05009">
        <ele>1931</ele>
        <time>2021-12-12T10:42:05Z</time>
      </trkpt>
      <trkpt lat="45.30363" lon="6.05011">
        <ele>1931</ele>
        <time>2021-12-12T10:42:07Z</time>
      </trkpt>
      <trkpt lat="45.30361" lon="6.05009">
        <ele>1931</ele>
        <time>2021-12-12T10:42:42Z</time>
      </trkpt>
      <trkpt lat="45.3036" lon="6.05007">
        <ele>1931</ele>
        <time>2021-12-12T10:42:45Z</time>
      </trkpt>
      <trkpt lat="45.30358" lon="6.05005">
        <ele>1931</ele>
        <time>2021-12-12T10:42:49Z</time>
      </trkpt>
      <trkpt lat="45.30356" lon="6.05005">
        <ele>1931</ele>
        <time>2021-12-12T10:43:53Z</time>
      </trkpt>
      <trkpt lat="45.30355" lon="6.05002">
        <ele>1931</ele>
        <time>2021-12-12T10:44:09Z</time>
      </trkpt>
      <trkpt lat="45.30356" lon="6.05">
        <ele>1931</ele>
        <time>2021-12-12T10:47:23Z</time>
      </trkpt>
      <trkpt lat="45.30356" lon="6.04997">
        <ele>1931</ele>
        <time>2021-12-12T10:51:35Z</time>
      </trkpt>
      <trkpt lat="45.30358" lon="6.04996">
        <ele>1931</ele>
        <time>2021-12-12T10:52:34Z</time>
      </trkpt>
      <trkpt lat="45.30359" lon="6.04998">
        <ele>1931</ele>
        <time>2021-12-12T10:52:45Z</time>
      </trkpt>
      <trkpt lat="45.30361" lon="6.04999">
        <ele>1931</ele>
        <time>2021-12-12T10:52:48Z</time>
      </trkpt>
      <trkpt lat="45.30365" lon="6.04999">
        <ele>1931</ele>
        <time>2021-12-12T10:52:51Z</time>
      </trkpt>
      <trkpt lat="45.30368" lon="6.04999">
        <ele>1931</ele>
        <time>2021-12-12T10:52:54Z</time>
      </trkpt>
      <trkpt lat="45.30374" lon="6.04998">
        <ele>1931</ele>
        <time>2021-12-12T10:52:56Z</time>
      </trkpt>
      <trkpt lat="45.30378" lon="6.04996">
        <ele>1931</ele>
        <time>2021-12-12T10:52:58Z</time>
      </trkpt>
      <trkpt lat="45.30382" lon="6.04993">
        <ele>1931</ele>
        <time>2021-12-12T10:52:59Z</time>
      </trkpt>
      <trkpt lat="45.30387" lon="6.04989">
        <ele>1931</ele>
        <time>2021-12-12T10:53:00Z</time>
      </trkpt>
      <trkpt lat="45.30393" lon="6.04985">
        <ele>1931</ele>
        <time>2021-12-12T10:53:01Z</time>
      </trkpt>
      <trkpt lat="45.30398" lon="6.04981">
        <ele>1931</ele>
        <time>2021-12-12T10:53:02Z</time>
      </trkpt>
      <trkpt lat="45.30404" lon="6.04976">
        <ele>1931</ele>
        <time>2021-12-12T10:53:03Z</time>
      </trkpt>
      <trkpt lat="45.3041" lon="6.04972">
        <ele>1931</ele>
        <time>2021-12-12T10:53:04Z</time>
      </trkpt>
      <trkpt lat="45.30421" lon="6.04964">
        <ele>1931</ele>
        <time>2021-12-12T10:53:05Z</time>
      </trkpt>
      <trkpt lat="45.30426" lon="6.04961">
        <ele>1931</ele>
        <time>2021-12-12T10:53:07Z</time>
      </trkpt>
      <trkpt lat="45.30431" lon="6.04959">
        <ele>1931</ele>
        <time>2021-12-12T10:53:08Z</time>
      </trkpt>
      <trkpt lat="45.30434" lon="6.04958">
        <ele>1931</ele>
        <time>2021-12-12T10:53:09Z</time>
      </trkpt>
      <trkpt lat="45.30438" lon="6.04957">
        <ele>1931</ele>
        <time>2021-12-12T10:53:10Z</time>
      </trkpt>
      <trkpt lat="45.30442" lon="6.04957">
        <ele>1931</ele>
        <time>2021-12-12T10:53:11Z</time>
      </trkpt>
      <trkpt lat="45.30445" lon="6.04958">
        <ele>1918</ele>
        <time>2021-12-12T10:53:12Z</time>
      </trkpt>
      <trkpt lat="45.30449" lon="6.0496">
        <ele>1918</ele>
        <time>2021-12-12T10:53:13Z</time>
      </trkpt>
      <trkpt lat="45.30452" lon="6.04962">
        <ele>1918</ele>
        <time>2021-12-12T10:53:14Z</time>
      </trkpt>
      <trkpt lat="45.30459" lon="6.04966">
        <ele>1918</ele>
        <time>2021-12-12T10:53:15Z</time>
      </trkpt>
      <trkpt lat="45.30462" lon="6.04968">
        <ele>1918</ele>
        <time>2021-12-12T10:53:17Z</time>
      </trkpt>
      <trkpt lat="45.30464" lon="6.04969">
        <ele>1918</ele>
        <time>2021-12-12T10:53:18Z</time>
      </trkpt>
      <trkpt lat="45.30467" lon="6.0497">
        <ele>1918</ele>
        <time>2021-12-12T10:53:19Z</time>
      </trkpt>
      <trkpt lat="45.30471" lon="6.0497">
        <ele>1918</ele>
        <time>2021-12-12T10:53:20Z</time>
      </trkpt>
      <trkpt lat="45.30475" lon="6.0497">
        <ele>1918</ele>
        <time>2021-12-12T10:53:21Z</time>
      </trkpt>
      <trkpt lat="45.3048" lon="6.04971">
        <ele>1914</ele>
        <time>2021-12-12T10:53:22Z</time>
      </trkpt>
      <trkpt lat="45.30484" lon="6.04972">
        <ele>1914</ele>
        <time>2021-12-12T10:53:23Z</time>
      </trkpt>
      <trkpt lat="45.30489" lon="6.04973">
        <ele>1914</ele>
        <time>2021-12-12T10:53:24Z</time>
      </trkpt>
      <trkpt lat="45.30495" lon="6.04974">
        <ele>1914</ele>
        <time>2021-12-12T10:53:25Z</time>
      </trkpt>
      <trkpt lat="45.30501" lon="6.04975">
        <ele>1914</ele>
        <time>2021-12-12T10:53:26Z</time>
      </trkpt>
      <trkpt lat="45.30508" lon="6.04978">
        <ele>1914</ele>
        <time>2021-12-12T10:53:27Z</time>
      </trkpt>
      <trkpt lat="45.30515" lon="6.04982">
        <ele>1914</ele>
        <time>2021-12-12T10:53:28Z</time>
      </trkpt>
      <trkpt lat="45.30521" lon="6.04986">
        <ele>1914</ele>
        <time>2021-12-12T10:53:29Z</time>
      </trkpt>
      <trkpt lat="45.30525" lon="6.04986">
        <ele>1914</ele>
        <time>2021-12-12T10:53:30Z</time>
      </trkpt>
      <trkpt lat="45.30533" lon="6.0498">
        <ele>1914</ele>
        <time>2021-12-12T10:53:31Z</time>
      </trkpt>
      <trkpt lat="45.30534" lon="6.04974">
        <ele>1903</ele>
        <time>2021-12-12T10:53:33Z</time>
      </trkpt>
      <trkpt lat="45.30535" lon="6.04957">
        <ele>1903</ele>
        <time>2021-12-12T10:53:34Z</time>
      </trkpt>
      <trkpt lat="45.30536" lon="6.04948">
        <ele>1903</ele>
        <time>2021-12-12T10:53:35Z</time>
      </trkpt>
      <trkpt lat="45.30537" lon="6.04941">
        <ele>1903</ele>
        <time>2021-12-12T10:53:37Z</time>
      </trkpt>
      <trkpt lat="45.30539" lon="6.04934">
        <ele>1903</ele>
        <time>2021-12-12T10:53:38Z</time>
      </trkpt>
      <trkpt lat="45.30542" lon="6.04927">
        <ele>1903</ele>
        <time>2021-12-12T10:53:39Z</time>
      </trkpt>
      <trkpt lat="45.30549" lon="6.0491">
        <ele>1903</ele>
        <time>2021-12-12T10:53:41Z</time>
      </trkpt>
      <trkpt lat="45.30556" lon="6.04899">
        <ele>1881</ele>
        <time>2021-12-12T10:53:43Z</time>
      </trkpt>
      <trkpt lat="45.30568" lon="6.04904">
        <ele>1881</ele>
        <time>2021-12-12T10:53:45Z</time>
      </trkpt>
      <trkpt lat="45.30576" lon="6.0491">
        <ele>1881</ele>
        <time>2021-12-12T10:53:51Z</time>
      </trkpt>
      <trkpt lat="45.30578" lon="6.04912">
        <ele>1871</ele>
        <time>2021-12-12T10:54:11Z</time>
      </trkpt>
      <trkpt lat="45.30575" lon="6.04913">
        <ele>1871</ele>
        <time>2021-12-12T10:54:17Z</time>
      </trkpt>
      <trkpt lat="45.30575" lon="6.0491">
        <ele>1871</ele>
        <time>2021-12-12T10:54:39Z</time>
      </trkpt>
      <trkpt lat="45.30577" lon="6.04905">
        <ele>1871</ele>
        <time>2021-12-12T10:54:41Z</time>
      </trkpt>
      <trkpt lat="45.30577" lon="6.04899">
        <ele>1871</ele>
        <time>2021-12-12T10:54:42Z</time>
      </trkpt>
      <trkpt lat="45.30577" lon="6.04892">
        <ele>1871</ele>
        <time>2021-12-12T10:54:43Z</time>
      </trkpt>
      <trkpt lat="45.30576" lon="6.04884">
        <ele>1871</ele>
        <time>2021-12-12T10:54:44Z</time>
      </trkpt>
      <trkpt lat="45.30577" lon="6.04876">
        <ele>1871</ele>
        <time>2021-12-12T10:54:45Z</time>
      </trkpt>
      <trkpt lat="45.3058" lon="6.0486">
        <ele>1871</ele>
        <time>2021-12-12T10:54:46Z</time>
      </trkpt>
      <trkpt lat="45.30582" lon="6.04852">
        <ele>1871</ele>
        <time>2021-12-12T10:54:48Z</time>
      </trkpt>
      <trkpt lat="45.30585" lon="6.04845">
        <ele>1871</ele>
        <time>2021-12-12T10:54:49Z</time>
      </trkpt>
      <trkpt lat="45.3059" lon="6.04832">
        <ele>1871</ele>
        <time>2021-12-12T10:54:51Z</time>
      </trkpt>
      <trkpt lat="45.30597" lon="6.04818">
        <ele>1848</ele>
        <time>2021-12-12T10:54:53Z</time>
      </trkpt>
      <trkpt lat="45.30606" lon="6.04809">
        <ele>1848</ele>
        <time>2021-12-12T10:54:56Z</time>
      </trkpt>
      <trkpt lat="45.30611" lon="6.04798">
        <ele>1848</ele>
        <time>2021-12-12T10:54:58Z</time>
      </trkpt>
      <trkpt lat="45.30618" lon="6.04784">
        <ele>1848</ele>
        <time>2021-12-12T10:55:00Z</time>
      </trkpt>
      <trkpt lat="45.30629" lon="6.0477">
        <ele>1822</ele>
        <time>2021-12-12T10:55:02Z</time>
      </trkpt>
      <trkpt lat="45.30649" lon="6.04748">
        <ele>1822</ele>
        <time>2021-12-12T10:55:05Z</time>
      </trkpt>
      <trkpt lat="45.3066" lon="6.04733">
        <ele>1822</ele>
        <time>2021-12-12T10:55:08Z</time>
      </trkpt>
      <trkpt lat="45.30671" lon="6.04724">
        <ele>1822</ele>
        <time>2021-12-12T10:55:10Z</time>
      </trkpt>
      <trkpt lat="45.30723" lon="6.04751">
        <ele>1795</ele>
        <time>2021-12-12T10:55:19Z</time>
      </trkpt>
      <trkpt lat="45.30704" lon="6.04764">
        <ele>1793</ele>
        <time>2021-12-12T10:55:22Z</time>
      </trkpt>
      <trkpt lat="45.30702" lon="6.04766">
        <ele>1793</ele>
        <time>2021-12-12T10:55:26Z</time>
      </trkpt>
      <trkpt lat="45.30704" lon="6.04766">
        <ele>1792</ele>
        <time>2021-12-12T10:55:48Z</time>
      </trkpt>
      <trkpt lat="45.30702" lon="6.04765">
        <ele>1792</ele>
        <time>2021-12-12T10:56:47Z</time>
      </trkpt>
      <trkpt lat="45.30703" lon="6.04762">
        <ele>1792</ele>
        <time>2021-12-12T10:56:49Z</time>
      </trkpt>
      <trkpt lat="45.30705" lon="6.0476">
        <ele>1792</ele>
        <time>2021-12-12T10:56:50Z</time>
      </trkpt>
      <trkpt lat="45.30708" lon="6.04759">
        <ele>1792</ele>
        <time>2021-12-12T10:56:51Z</time>
      </trkpt>
      <trkpt lat="45.3071" lon="6.04758">
        <ele>1791</ele>
        <time>2021-12-12T10:56:52Z</time>
      </trkpt>
      <trkpt lat="45.30716" lon="6.04758">
        <ele>1791</ele>
        <time>2021-12-12T10:56:53Z</time>
      </trkpt>
      <trkpt lat="45.30719" lon="6.04757">
        <ele>1791</ele>
        <time>2021-12-12T10:56:55Z</time>
      </trkpt>
      <trkpt lat="45.30722" lon="6.04754">
        <ele>1791</ele>
        <time>2021-12-12T10:56:56Z</time>
      </trkpt>
      <trkpt lat="45.30726" lon="6.0475">
        <ele>1791</ele>
        <time>2021-12-12T10:56:57Z</time>
      </trkpt>
      <trkpt lat="45.30737" lon="6.04746">
        <ele>1791</ele>
        <time>2021-12-12T10:56:58Z</time>
      </trkpt>
      <trkpt lat="45.30743" lon="6.04744">
        <ele>1791</ele>
        <time>2021-12-12T10:57:00Z</time>
      </trkpt>
      <trkpt lat="45.30749" lon="6.04743">
        <ele>1791</ele>
        <time>2021-12-12T10:57:01Z</time>
      </trkpt>
      <trkpt lat="45.30755" lon="6.04743">
        <ele>1791</ele>
        <time>2021-12-12T10:57:02Z</time>
      </trkpt>
      <trkpt lat="45.30761" lon="6.04744">
        <ele>1775</ele>
        <time>2021-12-12T10:57:03Z</time>
      </trkpt>
      <trkpt lat="45.30773" lon="6.04748">
        <ele>1775</ele>
        <time>2021-12-12T10:57:04Z</time>
      </trkpt>
      <trkpt lat="45.30779" lon="6.0475">
        <ele>1775</ele>
        <time>2021-12-12T10:57:05Z</time>
      </trkpt>
      <trkpt lat="45.30787" lon="6.04753">
        <ele>1775</ele>
        <time>2021-12-12T10:57:07Z</time>
      </trkpt>
      <trkpt lat="45.30789" lon="6.04754">
        <ele>1775</ele>
        <time>2021-12-12T10:57:09Z</time>
      </trkpt>
      <trkpt lat="45.30791" lon="6.04754">
        <ele>1768</ele>
        <time>2021-12-12T10:57:16Z</time>
      </trkpt>
      <trkpt lat="45.30793" lon="6.04756">
        <ele>1768</ele>
        <time>2021-12-12T10:57:20Z</time>
      </trkpt>
      <trkpt lat="45.30794" lon="6.04757">
        <ele>1768</ele>
        <time>2021-12-12T10:57:23Z</time>
      </trkpt>
      <trkpt lat="45.30796" lon="6.04758">
        <ele>1768</ele>
        <time>2021-12-12T10:57:27Z</time>
      </trkpt>
      <trkpt lat="45.30799" lon="6.04758">
        <ele>1768</ele>
        <time>2021-12-12T10:57:30Z</time>
      </trkpt>
      <trkpt lat="45.30801" lon="6.04758">
        <ele>1768</ele>
        <time>2021-12-12T10:57:32Z</time>
      </trkpt>
      <trkpt lat="45.30802" lon="6.04759">
        <ele>1768</ele>
        <time>2021-12-12T10:57:35Z</time>
      </trkpt>
      <trkpt lat="45.30806" lon="6.04759">
        <ele>1768</ele>
        <time>2021-12-12T10:57:37Z</time>
      </trkpt>
      <trkpt lat="45.30808" lon="6.04759">
        <ele>1768</ele>
        <time>2021-12-12T10:57:38Z</time>
      </trkpt>
      <trkpt lat="45.30811" lon="6.04758">
        <ele>1768</ele>
        <time>2021-12-12T10:57:39Z</time>
      </trkpt>
      <trkpt lat="45.30819" lon="6.04758">
        <ele>1768</ele>
        <time>2021-12-12T10:57:40Z</time>
      </trkpt>
      <trkpt lat="45.30823" lon="6.04757">
        <ele>1766</ele>
        <time>2021-12-12T10:57:42Z</time>
      </trkpt>
      <trkpt lat="45.30825" lon="6.04756">
        <ele>1766</ele>
        <time>2021-12-12T10:57:43Z</time>
      </trkpt>
      <trkpt lat="45.30827" lon="6.04754">
        <ele>1766</ele>
        <time>2021-12-12T10:57:46Z</time>
      </trkpt>
      <trkpt lat="45.30826" lon="6.0475">
        <ele>1764</ele>
        <time>2021-12-12T10:58:37Z</time>
      </trkpt>
      <trkpt lat="45.30824" lon="6.04745">
        <ele>1764</ele>
        <time>2021-12-12T10:58:38Z</time>
      </trkpt>
      <trkpt lat="45.30822" lon="6.04739">
        <ele>1764</ele>
        <time>2021-12-12T10:58:39Z</time>
      </trkpt>
      <trkpt lat="45.30819" lon="6.04734">
        <ele>1764</ele>
        <time>2021-12-12T10:58:40Z</time>
      </trkpt>
      <trkpt lat="45.30817" lon="6.04728">
        <ele>1764</ele>
        <time>2021-12-12T10:58:41Z</time>
      </trkpt>
      <trkpt lat="45.30814" lon="6.04721">
        <ele>1763</ele>
        <time>2021-12-12T10:58:43Z</time>
      </trkpt>
      <trkpt lat="45.30811" lon="6.04716">
        <ele>1763</ele>
        <time>2021-12-12T10:58:44Z</time>
      </trkpt>
      <trkpt lat="45.30808" lon="6.04706">
        <ele>1763</ele>
        <time>2021-12-12T10:58:45Z</time>
      </trkpt>
      <trkpt lat="45.30807" lon="6.04694">
        <ele>1763</ele>
        <time>2021-12-12T10:58:48Z</time>
      </trkpt>
      <trkpt lat="45.30805" lon="6.04687">
        <ele>1763</ele>
        <time>2021-12-12T10:58:49Z</time>
      </trkpt>
      <trkpt lat="45.30805" lon="6.0468">
        <ele>1763</ele>
        <time>2021-12-12T10:58:50Z</time>
      </trkpt>
      <trkpt lat="45.30804" lon="6.04673">
        <ele>1763</ele>
        <time>2021-12-12T10:58:51Z</time>
      </trkpt>
      <trkpt lat="45.30804" lon="6.04666">
        <ele>1737</ele>
        <time>2021-12-12T10:58:53Z</time>
      </trkpt>
      <trkpt lat="45.30804" lon="6.04659">
        <ele>1737</ele>
        <time>2021-12-12T10:58:54Z</time>
      </trkpt>
      <trkpt lat="45.30803" lon="6.04649">
        <ele>1737</ele>
        <time>2021-12-12T10:58:55Z</time>
      </trkpt>
      <trkpt lat="45.30803" lon="6.04633">
        <ele>1737</ele>
        <time>2021-12-12T10:58:56Z</time>
      </trkpt>
      <trkpt lat="45.30804" lon="6.04628">
        <ele>1737</ele>
        <time>2021-12-12T10:58:58Z</time>
      </trkpt>
      <trkpt lat="45.30807" lon="6.04624">
        <ele>1737</ele>
        <time>2021-12-12T10:58:59Z</time>
      </trkpt>
      <trkpt lat="45.3081" lon="6.04623">
        <ele>1737</ele>
        <time>2021-12-12T10:59:00Z</time>
      </trkpt>
      <trkpt lat="45.30812" lon="6.04622">
        <ele>1720</ele>
        <time>2021-12-12T10:59:08Z</time>
      </trkpt>
      <trkpt lat="45.30814" lon="6.04624">
        <ele>1720</ele>
        <time>2021-12-12T10:59:27Z</time>
      </trkpt>
      <trkpt lat="45.30813" lon="6.04619">
        <ele>1720</ele>
        <time>2021-12-12T10:59:38Z</time>
      </trkpt>
      <trkpt lat="45.30811" lon="6.04616">
        <ele>1720</ele>
        <time>2021-12-12T10:59:39Z</time>
      </trkpt>
      <trkpt lat="45.3081" lon="6.04612">
        <ele>1720</ele>
        <time>2021-12-12T10:59:40Z</time>
      </trkpt>
      <trkpt lat="45.30808" lon="6.04607">
        <ele>1720</ele>
        <time>2021-12-12T10:59:41Z</time>
      </trkpt>
      <trkpt lat="45.30806" lon="6.04602">
        <ele>1720</ele>
        <time>2021-12-12T10:59:42Z</time>
      </trkpt>
      <trkpt lat="45.30803" lon="6.04596">
        <ele>1718</ele>
        <time>2021-12-12T10:59:43Z</time>
      </trkpt>
      <trkpt lat="45.30799" lon="6.04588">
        <ele>1718</ele>
        <time>2021-12-12T10:59:44Z</time>
      </trkpt>
      <trkpt lat="45.30797" lon="6.04584">
        <ele>1718</ele>
        <time>2021-12-12T10:59:45Z</time>
      </trkpt>
      <trkpt lat="45.30794" lon="6.04574">
        <ele>1718</ele>
        <time>2021-12-12T10:59:47Z</time>
      </trkpt>
      <trkpt lat="45.30793" lon="6.04568">
        <ele>1718</ele>
        <time>2021-12-12T10:59:48Z</time>
      </trkpt>
      <trkpt lat="45.30793" lon="6.04563">
        <ele>1718</ele>
        <time>2021-12-12T10:59:49Z</time>
      </trkpt>
      <trkpt lat="45.30793" lon="6.04557">
        <ele>1718</ele>
        <time>2021-12-12T10:59:50Z</time>
      </trkpt>
      <trkpt lat="45.30796" lon="6.04543">
        <ele>1705</ele>
        <time>2021-12-12T10:59:53Z</time>
      </trkpt>
      <trkpt lat="45.30799" lon="6.04528">
        <ele>1705</ele>
        <time>2021-12-12T10:59:55Z</time>
      </trkpt>
      <trkpt lat="45.30807" lon="6.04518">
        <ele>1705</ele>
        <time>2021-12-12T10:59:57Z</time>
      </trkpt>
      <trkpt lat="45.30817" lon="6.04517">
        <ele>1689</ele>
        <time>2021-12-12T11:00:02Z</time>
      </trkpt>
      <trkpt lat="45.30819" lon="6.04503">
        <ele>1689</ele>
        <time>2021-12-12T11:00:06Z</time>
      </trkpt>
      <trkpt lat="45.30821" lon="6.04485">
        <ele>1689</ele>
        <time>2021-12-12T11:00:10Z</time>
      </trkpt>
      <trkpt lat="45.30818" lon="6.04472">
        <ele>1677</ele>
        <time>2021-12-12T11:00:12Z</time>
      </trkpt>
      <trkpt lat="45.30821" lon="6.04471">
        <ele>1674</ele>
        <time>2021-12-12T11:00:25Z</time>
      </trkpt>
      <trkpt lat="45.30824" lon="6.04472">
        <ele>1674</ele>
        <time>2021-12-12T11:00:28Z</time>
      </trkpt>
      <trkpt lat="45.30827" lon="6.04473">
        <ele>1674</ele>
        <time>2021-12-12T11:00:31Z</time>
      </trkpt>
      <trkpt lat="45.3083" lon="6.04474">
        <ele>1673</ele>
        <time>2021-12-12T11:00:34Z</time>
      </trkpt>
      <trkpt lat="45.30829" lon="6.04472">
        <ele>1674</ele>
        <time>2021-12-12T11:00:45Z</time>
      </trkpt>
      <trkpt lat="45.3083" lon="6.04469">
        <ele>1674</ele>
        <time>2021-12-12T11:00:46Z</time>
      </trkpt>
      <trkpt lat="45.30834" lon="6.04465">
        <ele>1674</ele>
        <time>2021-12-12T11:00:48Z</time>
      </trkpt>
      <trkpt lat="45.30837" lon="6.04465">
        <ele>1674</ele>
        <time>2021-12-12T11:00:49Z</time>
      </trkpt>
      <trkpt lat="45.30844" lon="6.04457">
        <ele>1665</ele>
        <time>2021-12-12T11:00:54Z</time>
      </trkpt>
      <trkpt lat="45.30851" lon="6.04457">
        <ele>1665</ele>
        <time>2021-12-12T11:01:02Z</time>
      </trkpt>
      <trkpt lat="45.30849" lon="6.04459">
        <ele>1659</ele>
        <time>2021-12-12T11:01:04Z</time>
      </trkpt>
      <trkpt lat="45.3085" lon="6.04456">
        <ele>1659</ele>
        <time>2021-12-12T11:01:08Z</time>
      </trkpt>
      <trkpt lat="45.30851" lon="6.04453">
        <ele>1659</ele>
        <time>2021-12-12T11:01:09Z</time>
      </trkpt>
      <trkpt lat="45.30853" lon="6.04453">
        <ele>1656</ele>
        <time>2021-12-12T11:01:12Z</time>
      </trkpt>
      <trkpt lat="45.30855" lon="6.04451">
        <ele>1656</ele>
        <time>2021-12-12T11:01:14Z</time>
      </trkpt>
      <trkpt lat="45.30855" lon="6.04447">
        <ele>1656</ele>
        <time>2021-12-12T11:01:16Z</time>
      </trkpt>
      <trkpt lat="45.30857" lon="6.04446">
        <ele>1656</ele>
        <time>2021-12-12T11:01:20Z</time>
      </trkpt>
      <trkpt lat="45.3086" lon="6.04444">
        <ele>1648</ele>
        <time>2021-12-12T11:01:22Z</time>
      </trkpt>
      <trkpt lat="45.30862" lon="6.04446">
        <ele>1648</ele>
        <time>2021-12-12T11:01:25Z</time>
      </trkpt>
      <trkpt lat="45.3086" lon="6.04448">
        <ele>1648</ele>
        <time>2021-12-12T11:01:31Z</time>
      </trkpt>
      <trkpt lat="45.30861" lon="6.04445">
        <ele>1646</ele>
        <time>2021-12-12T11:01:34Z</time>
      </trkpt>
      <trkpt lat="45.30862" lon="6.04443">
        <ele>1646</ele>
        <time>2021-12-12T11:01:37Z</time>
      </trkpt>
      <trkpt lat="45.30863" lon="6.0444">
        <ele>1646</ele>
        <time>2021-12-12T11:01:40Z</time>
      </trkpt>
      <trkpt lat="45.30863" lon="6.04437">
        <ele>1646</ele>
        <time>2021-12-12T11:01:41Z</time>
      </trkpt>
      <trkpt lat="45.30862" lon="6.04434">
        <ele>1643</ele>
        <time>2021-12-12T11:01:42Z</time>
      </trkpt>
      <trkpt lat="45.30859" lon="6.04428">
        <ele>1643</ele>
        <time>2021-12-12T11:01:46Z</time>
      </trkpt>
      <trkpt lat="45.3086" lon="6.04423">
        <ele>1643</ele>
        <time>2021-12-12T11:01:49Z</time>
      </trkpt>
      <trkpt lat="45.30864" lon="6.04418">
        <ele>1631</ele>
        <time>2021-12-12T11:01:58Z</time>
      </trkpt>
      <trkpt lat="45.30864" lon="6.04421">
        <ele>1630</ele>
        <time>2021-12-12T11:02:12Z</time>
      </trkpt>
      <trkpt lat="45.30861" lon="6.04421">
        <ele>1629</ele>
        <time>2021-12-12T11:02:21Z</time>
      </trkpt>
      <trkpt lat="45.30863" lon="6.0442">
        <ele>1629</ele>
        <time>2021-12-12T11:02:31Z</time>
      </trkpt>
      <trkpt lat="45.30864" lon="6.04414">
        <ele>1627</ele>
        <time>2021-12-12T11:04:20Z</time>
      </trkpt>
      <trkpt lat="45.30867" lon="6.04408">
        <ele>1627</ele>
        <time>2021-12-12T11:04:21Z</time>
      </trkpt>
      <trkpt lat="45.30869" lon="6.04404">
        <ele>1627</ele>
        <time>2021-12-12T11:04:23Z</time>
      </trkpt>
      <trkpt lat="45.30869" lon="6.04387">
        <ele>1627</ele>
        <time>2021-12-12T11:04:27Z</time>
      </trkpt>
      <trkpt lat="45.30869" lon="6.04374">
        <ele>1627</ele>
        <time>2021-12-12T11:04:29Z</time>
      </trkpt>
      <trkpt lat="45.30871" lon="6.04359">
        <ele>1627</ele>
        <time>2021-12-12T11:04:32Z</time>
      </trkpt>
      <trkpt lat="45.30873" lon="6.04354">
        <ele>1604</ele>
        <time>2021-12-12T11:04:47Z</time>
      </trkpt>
      <trkpt lat="45.30875" lon="6.04353">
        <ele>1604</ele>
        <time>2021-12-12T11:04:54Z</time>
      </trkpt>
      <trkpt lat="45.30877" lon="6.04353">
        <ele>1604</ele>
        <time>2021-12-12T11:05:01Z</time>
      </trkpt>
      <trkpt lat="45.30875" lon="6.04353">
        <ele>1603</ele>
        <time>2021-12-12T11:05:10Z</time>
      </trkpt>
      <trkpt lat="45.30874" lon="6.04351">
        <ele>1603</ele>
        <time>2021-12-12T11:05:15Z</time>
      </trkpt>
      <trkpt lat="45.30875" lon="6.04348">
        <ele>1603</ele>
        <time>2021-12-12T11:05:16Z</time>
      </trkpt>
      <trkpt lat="45.30876" lon="6.04345">
        <ele>1600</ele>
        <time>2021-12-12T11:05:23Z</time>
      </trkpt>
      <trkpt lat="45.30884" lon="6.04334">
        <ele>1600</ele>
        <time>2021-12-12T11:05:29Z</time>
      </trkpt>
      <trkpt lat="45.30891" lon="6.04321">
        <ele>1596</ele>
        <time>2021-12-12T11:05:35Z</time>
      </trkpt>
      <trkpt lat="45.30889" lon="6.04308">
        <ele>1596</ele>
        <time>2021-12-12T11:05:38Z</time>
      </trkpt>
      <trkpt lat="45.30892" lon="6.04294">
        <ele>1596</ele>
        <time>2021-12-12T11:05:40Z</time>
      </trkpt>
      <trkpt lat="45.30898" lon="6.04281">
        <ele>1580</ele>
        <time>2021-12-12T11:05:42Z</time>
      </trkpt>
      <trkpt lat="45.30897" lon="6.04268">
        <ele>1580</ele>
        <time>2021-12-12T11:05:51Z</time>
      </trkpt>
      <trkpt lat="45.30892" lon="6.04255">
        <ele>1575</ele>
        <time>2021-12-12T11:05:53Z</time>
      </trkpt>
      <trkpt lat="45.30888" lon="6.04242">
        <ele>1575</ele>
        <time>2021-12-12T11:05:56Z</time>
      </trkpt>
      <trkpt lat="45.3088" lon="6.04235">
        <ele>1575</ele>
        <time>2021-12-12T11:05:59Z</time>
      </trkpt>
      <trkpt lat="45.3088" lon="6.0422">
        <ele>1562</ele>
        <time>2021-12-12T11:06:02Z</time>
      </trkpt>
      <trkpt lat="45.30877" lon="6.04205">
        <ele>1562</ele>
        <time>2021-12-12T11:06:04Z</time>
      </trkpt>
      <trkpt lat="45.30875" lon="6.04204">
        <ele>1556</ele>
        <time>2021-12-12T11:06:15Z</time>
      </trkpt>
      <trkpt lat="45.3088" lon="6.04197">
        <ele>1553</ele>
        <time>2021-12-12T11:06:23Z</time>
      </trkpt>
      <trkpt lat="45.30881" lon="6.042">
        <ele>1551</ele>
        <time>2021-12-12T11:07:13Z</time>
      </trkpt>
      <trkpt lat="45.30882" lon="6.04197">
        <ele>1551</ele>
        <time>2021-12-12T11:08:09Z</time>
      </trkpt>
      <trkpt lat="45.30884" lon="6.04193">
        <ele>1551</ele>
        <time>2021-12-12T11:08:11Z</time>
      </trkpt>
      <trkpt lat="45.30886" lon="6.04174">
        <ele>1548</ele>
        <time>2021-12-12T11:08:14Z</time>
      </trkpt>
      <trkpt lat="45.30892" lon="6.04164">
        <ele>1548</ele>
        <time>2021-12-12T11:08:16Z</time>
      </trkpt>
      <trkpt lat="45.30901" lon="6.04154">
        <ele>1548</ele>
        <time>2021-12-12T11:08:20Z</time>
      </trkpt>
      <trkpt lat="45.30902" lon="6.04139">
        <ele>1532</ele>
        <time>2021-12-12T11:08:23Z</time>
      </trkpt>
      <trkpt lat="45.30901" lon="6.04126">
        <ele>1532</ele>
        <time>2021-12-12T11:08:27Z</time>
      </trkpt>
      <trkpt lat="45.30896" lon="6.04112">
        <ele>1532</ele>
        <time>2021-12-12T11:08:29Z</time>
      </trkpt>
      <trkpt lat="45.30897" lon="6.04094">
        <ele>1523</ele>
        <time>2021-12-12T11:08:33Z</time>
      </trkpt>
      <trkpt lat="45.30899" lon="6.0408">
        <ele>1523</ele>
        <time>2021-12-12T11:08:36Z</time>
      </trkpt>
      <trkpt lat="45.30904" lon="6.04064">
        <ele>1523</ele>
        <time>2021-12-12T11:08:39Z</time>
      </trkpt>
      <trkpt lat="45.30906" lon="6.04049">
        <ele>1509</ele>
        <time>2021-12-12T11:08:43Z</time>
      </trkpt>
      <trkpt lat="45.30906" lon="6.04057">
        <ele>1506</ele>
        <time>2021-12-12T11:08:59Z</time>
      </trkpt>
      <trkpt lat="45.30906" lon="6.0406">
        <ele>1506</ele>
        <time>2021-12-12T11:09:19Z</time>
      </trkpt>
      <trkpt lat="45.30905" lon="6.04063">
        <ele>1508</ele>
        <time>2021-12-12T11:09:36Z</time>
      </trkpt>
      <trkpt lat="45.30906" lon="6.04055">
        <ele>1506</ele>
        <time>2021-12-12T11:09:46Z</time>
      </trkpt>
      <trkpt lat="45.30907" lon="6.04053">
        <ele>1502</ele>
        <time>2021-12-12T11:09:57Z</time>
      </trkpt>
      <trkpt lat="45.3091" lon="6.04051">
        <ele>1502</ele>
        <time>2021-12-12T11:09:59Z</time>
      </trkpt>
      <trkpt lat="45.3092" lon="6.04053">
        <ele>1497</ele>
        <time>2021-12-12T11:10:08Z</time>
      </trkpt>
      <trkpt lat="45.30921" lon="6.04056">
        <ele>1495</ele>
        <time>2021-12-12T11:10:14Z</time>
      </trkpt>
      <trkpt lat="45.30922" lon="6.04057">
        <ele>1495</ele>
        <time>2021-12-12T11:10:43Z</time>
      </trkpt>
      <trkpt lat="45.30923" lon="6.04054">
        <ele>1495</ele>
        <time>2021-12-12T11:10:57Z</time>
      </trkpt>
      <trkpt lat="45.30929" lon="6.04038">
        <ele>1495</ele>
        <time>2021-12-12T11:11:01Z</time>
      </trkpt>
      <trkpt lat="45.30933" lon="6.04022">
        <ele>1489</ele>
        <time>2021-12-12T11:11:05Z</time>
      </trkpt>
      <trkpt lat="45.30942" lon="6.04011">
        <ele>1489</ele>
        <time>2021-12-12T11:11:08Z</time>
      </trkpt>
      <trkpt lat="45.30951" lon="6.04007">
        <ele>1475</ele>
        <time>2021-12-12T11:11:12Z</time>
      </trkpt>
      <trkpt lat="45.3096" lon="6.04001">
        <ele>1475</ele>
        <time>2021-12-12T11:11:15Z</time>
      </trkpt>
      <trkpt lat="45.30969" lon="6.03991">
        <ele>1475</ele>
        <time>2021-12-12T11:11:17Z</time>
      </trkpt>
      <trkpt lat="45.30977" lon="6.03982">
        <ele>1475</ele>
        <time>2021-12-12T11:11:19Z</time>
      </trkpt>
      <trkpt lat="45.30988" lon="6.03974">
        <ele>1466</ele>
        <time>2021-12-12T11:11:22Z</time>
      </trkpt>
      <trkpt lat="45.30987" lon="6.03976">
        <ele>1465</ele>
        <time>2021-12-12T11:11:32Z</time>
      </trkpt>
      <trkpt lat="45.30987" lon="6.03979">
        <ele>1464</ele>
        <time>2021-12-12T11:11:43Z</time>
      </trkpt>
      <trkpt lat="45.30988" lon="6.03976">
        <ele>1464</ele>
        <time>2021-12-12T11:11:47Z</time>
      </trkpt>
      <trkpt lat="45.30988" lon="6.03979">
        <ele>1465</ele>
        <time>2021-12-12T11:12:01Z</time>
      </trkpt>
      <trkpt lat="45.30986" lon="6.03979">
        <ele>1463</ele>
        <time>2021-12-12T11:12:50Z</time>
      </trkpt>
      <trkpt lat="45.30988" lon="6.03974">
        <ele>1463</ele>
        <time>2021-12-12T11:13:02Z</time>
      </trkpt>
      <trkpt lat="45.30988" lon="6.03968">
        <ele>1463</ele>
        <time>2021-12-12T11:13:03Z</time>
      </trkpt>
      <trkpt lat="45.3099" lon="6.03956">
        <ele>1463</ele>
        <time>2021-12-12T11:13:04Z</time>
      </trkpt>
      <trkpt lat="45.30993" lon="6.03941">
        <ele>1463</ele>
        <time>2021-12-12T11:13:06Z</time>
      </trkpt>
      <trkpt lat="45.30998" lon="6.03927">
        <ele>1463</ele>
        <time>2021-12-12T11:13:09Z</time>
      </trkpt>
      <trkpt lat="45.31005" lon="6.03914">
        <ele>1447</ele>
        <time>2021-12-12T11:13:12Z</time>
      </trkpt>
      <trkpt lat="45.31012" lon="6.03906">
        <ele>1447</ele>
        <time>2021-12-12T11:13:17Z</time>
      </trkpt>
      <trkpt lat="45.31013" lon="6.03908">
        <ele>1447</ele>
        <time>2021-12-12T11:13:20Z</time>
      </trkpt>
      <trkpt lat="45.31013" lon="6.0391">
        <ele>1445</ele>
        <time>2021-12-12T11:13:22Z</time>
      </trkpt>
      <trkpt lat="45.31013" lon="6.03913">
        <ele>1445</ele>
        <time>2021-12-12T11:13:24Z</time>
      </trkpt>
      <trkpt lat="45.31017" lon="6.03914">
        <ele>1445</ele>
        <time>2021-12-12T11:13:28Z</time>
      </trkpt>
      <trkpt lat="45.31019" lon="6.03913">
        <ele>1445</ele>
        <time>2021-12-12T11:13:30Z</time>
      </trkpt>
      <trkpt lat="45.3102" lon="6.03908">
        <ele>1444</ele>
        <time>2021-12-12T11:13:33Z</time>
      </trkpt>
      <trkpt lat="45.31023" lon="6.03906">
        <ele>1444</ele>
        <time>2021-12-12T11:13:34Z</time>
      </trkpt>
      <trkpt lat="45.31025" lon="6.03905">
        <ele>1444</ele>
        <time>2021-12-12T11:13:36Z</time>
      </trkpt>
      <trkpt lat="45.31031" lon="6.03895">
        <ele>1444</ele>
        <time>2021-12-12T11:13:40Z</time>
      </trkpt>
      <trkpt lat="45.31034" lon="6.03891">
        <ele>1433</ele>
        <time>2021-12-12T11:13:47Z</time>
      </trkpt>
      <trkpt lat="45.31035" lon="6.0389">
        <ele>1434</ele>
        <time>2021-12-12T11:13:55Z</time>
      </trkpt>
      <trkpt lat="45.31038" lon="6.0389">
        <ele>1434</ele>
        <time>2021-12-12T11:13:57Z</time>
      </trkpt>
      <trkpt lat="45.3104" lon="6.03888">
        <ele>1434</ele>
        <time>2021-12-12T11:13:59Z</time>
      </trkpt>
      <trkpt lat="45.31043" lon="6.03887">
        <ele>1434</ele>
        <time>2021-12-12T11:14:00Z</time>
      </trkpt>
      <trkpt lat="45.31045" lon="6.03887">
        <ele>1434</ele>
        <time>2021-12-12T11:14:01Z</time>
      </trkpt>
      <trkpt lat="45.31047" lon="6.03886">
        <ele>1428</ele>
        <time>2021-12-12T11:14:02Z</time>
      </trkpt>
      <trkpt lat="45.31049" lon="6.03887">
        <ele>1428</ele>
        <time>2021-12-12T11:14:03Z</time>
      </trkpt>
      <trkpt lat="45.31051" lon="6.03886">
        <ele>1428</ele>
        <time>2021-12-12T11:14:04Z</time>
      </trkpt>
      <trkpt lat="45.31053" lon="6.03884">
        <ele>1428</ele>
        <time>2021-12-12T11:14:05Z</time>
      </trkpt>
      <trkpt lat="45.31063" lon="6.03877">
        <ele>1428</ele>
        <time>2021-12-12T11:14:09Z</time>
      </trkpt>
      <trkpt lat="45.3107" lon="6.03868">
        <ele>1425</ele>
        <time>2021-12-12T11:14:13Z</time>
      </trkpt>
      <trkpt lat="45.31076" lon="6.03854">
        <ele>1425</ele>
        <time>2021-12-12T11:14:18Z</time>
      </trkpt>
      <trkpt lat="45.31082" lon="6.03843">
        <ele>1425</ele>
        <time>2021-12-12T11:14:21Z</time>
      </trkpt>
      <trkpt lat="45.31088" lon="6.03831">
        <ele>1411</ele>
        <time>2021-12-12T11:14:23Z</time>
      </trkpt>
      <trkpt lat="45.31096" lon="6.03821">
        <ele>1411</ele>
        <time>2021-12-12T11:14:28Z</time>
      </trkpt>
      <trkpt lat="45.31098" lon="6.03807">
        <ele>1401</ele>
        <time>2021-12-12T11:14:32Z</time>
      </trkpt>
      <trkpt lat="45.31093" lon="6.03796">
        <ele>1401</ele>
        <time>2021-12-12T11:14:37Z</time>
      </trkpt>
      <trkpt lat="45.31087" lon="6.03782">
        <ele>1401</ele>
        <time>2021-12-12T11:14:40Z</time>
      </trkpt>
      <trkpt lat="45.31088" lon="6.03767">
        <ele>1393</ele>
        <time>2021-12-12T11:14:43Z</time>
      </trkpt>
      <trkpt lat="45.31095" lon="6.03754">
        <ele>1393</ele>
        <time>2021-12-12T11:14:46Z</time>
      </trkpt>
      <trkpt lat="45.31104" lon="6.03746">
        <ele>1393</ele>
        <time>2021-12-12T11:14:48Z</time>
      </trkpt>
      <trkpt lat="45.31105" lon="6.03743">
        <ele>1382</ele>
        <time>2021-12-12T11:14:58Z</time>
      </trkpt>
      <trkpt lat="45.31106" lon="6.03747">
        <ele>1381</ele>
        <time>2021-12-12T11:15:14Z</time>
      </trkpt>
      <trkpt lat="45.31106" lon="6.0375">
        <ele>1381</ele>
        <time>2021-12-12T11:15:52Z</time>
      </trkpt>
      <trkpt lat="45.31107" lon="6.03752">
        <ele>1382</ele>
        <time>2021-12-12T11:16:40Z</time>
      </trkpt>
      <trkpt lat="45.31109" lon="6.03753">
        <ele>1381</ele>
        <time>2021-12-12T11:17:27Z</time>
      </trkpt>
      <trkpt lat="45.3111" lon="6.03752">
        <ele>1381</ele>
        <time>2021-12-12T11:17:52Z</time>
      </trkpt>
      <trkpt lat="45.31114" lon="6.03749">
        <ele>1381</ele>
        <time>2021-12-12T11:17:54Z</time>
      </trkpt>
      <trkpt lat="45.31115" lon="6.03747">
        <ele>1381</ele>
        <time>2021-12-12T11:17:55Z</time>
      </trkpt>
      <trkpt lat="45.31117" lon="6.03743">
        <ele>1381</ele>
        <time>2021-12-12T11:17:57Z</time>
      </trkpt>
      <trkpt lat="45.31115" lon="6.0373">
        <ele>1377</ele>
        <time>2021-12-12T11:18:03Z</time>
      </trkpt>
      <trkpt lat="45.31114" lon="6.03723">
        <ele>1377</ele>
        <time>2021-12-12T11:18:04Z</time>
      </trkpt>
      <trkpt lat="45.31113" lon="6.0372">
        <ele>1377</ele>
        <time>2021-12-12T11:18:05Z</time>
      </trkpt>
      <trkpt lat="45.31112" lon="6.03716">
        <ele>1377</ele>
        <time>2021-12-12T11:18:08Z</time>
      </trkpt>
      <trkpt lat="45.31112" lon="6.03713">
        <ele>1377</ele>
        <time>2021-12-12T11:18:10Z</time>
      </trkpt>
      <trkpt lat="45.31114" lon="6.03711">
        <ele>1370</ele>
        <time>2021-12-12T11:18:13Z</time>
      </trkpt>
      <trkpt lat="45.31117" lon="6.03711">
        <ele>1370</ele>
        <time>2021-12-12T11:18:15Z</time>
      </trkpt>
      <trkpt lat="45.31118" lon="6.03713">
        <ele>1370</ele>
        <time>2021-12-12T11:18:20Z</time>
      </trkpt>
      <trkpt lat="45.31116" lon="6.03713">
        <ele>1370</ele>
        <time>2021-12-12T11:18:22Z</time>
      </trkpt>
      <trkpt lat="45.31114" lon="6.03713">
        <ele>1370</ele>
        <time>2021-12-12T11:18:25Z</time>
      </trkpt>
      <trkpt lat="45.31113" lon="6.03715">
        <ele>1370</ele>
        <time>2021-12-12T11:18:29Z</time>
      </trkpt>
      <trkpt lat="45.31112" lon="6.03718">
        <ele>1370</ele>
        <time>2021-12-12T11:18:35Z</time>
      </trkpt>
      <trkpt lat="45.31112" lon="6.0372">
        <ele>1370</ele>
        <time>2021-12-12T11:18:41Z</time>
      </trkpt>
      <trkpt lat="45.31111" lon="6.03723">
        <ele>1369</ele>
        <time>2021-12-12T11:18:50Z</time>
      </trkpt>
      <trkpt lat="45.3111" lon="6.03725">
        <ele>1370</ele>
        <time>2021-12-12T11:18:59Z</time>
      </trkpt>
      <trkpt lat="45.31108" lon="6.03722">
        <ele>1370</ele>
        <time>2021-12-12T11:19:11Z</time>
      </trkpt>
      <trkpt lat="45.31107" lon="6.0372">
        <ele>1370</ele>
        <time>2021-12-12T11:19:19Z</time>
      </trkpt>
      <trkpt lat="45.31108" lon="6.03717">
        <ele>1370</ele>
        <time>2021-12-12T11:19:24Z</time>
      </trkpt>
      <trkpt lat="45.31109" lon="6.03715">
        <ele>1370</ele>
        <time>2021-12-12T11:19:27Z</time>
      </trkpt>
      <trkpt lat="45.31111" lon="6.03716">
        <ele>1369</ele>
        <time>2021-12-12T11:19:52Z</time>
      </trkpt>
      <trkpt lat="45.3111" lon="6.03719">
        <ele>1369</ele>
        <time>2021-12-12T11:19:57Z</time>
      </trkpt>
      <trkpt lat="45.3111" lon="6.03722">
        <ele>1370</ele>
        <time>2021-12-12T11:20:03Z</time>
      </trkpt>
      <trkpt lat="45.31111" lon="6.03719">
        <ele>1371</ele>
        <time>2021-12-12T11:20:26Z</time>
      </trkpt>
      <trkpt lat="45.31111" lon="6.03716">
        <ele>1371</ele>
        <time>2021-12-12T11:20:41Z</time>
      </trkpt>
      <trkpt lat="45.31109" lon="6.03714">
        <ele>1372</ele>
        <time>2021-12-12T11:20:57Z</time>
      </trkpt>
      <trkpt lat="45.31109" lon="6.03711">
        <ele>1372</ele>
        <time>2021-12-12T11:21:00Z</time>
      </trkpt>
      <trkpt lat="45.3111" lon="6.03708">
        <ele>1371</ele>
        <time>2021-12-12T11:21:02Z</time>
      </trkpt>
      <trkpt lat="45.3111" lon="6.03706">
        <ele>1371</ele>
        <time>2021-12-12T11:21:05Z</time>
      </trkpt>
      <trkpt lat="45.31108" lon="6.03703">
        <ele>1371</ele>
        <time>2021-12-12T11:21:06Z</time>
      </trkpt>
      <trkpt lat="45.31107" lon="6.037">
        <ele>1371</ele>
        <time>2021-12-12T11:21:07Z</time>
      </trkpt>
      <trkpt lat="45.31109" lon="6.03695">
        <ele>1371</ele>
        <time>2021-12-12T11:21:10Z</time>
      </trkpt>
      <trkpt lat="45.31109" lon="6.0369">
        <ele>1371</ele>
        <time>2021-12-12T11:21:12Z</time>
      </trkpt>
      <trkpt lat="45.31112" lon="6.03682">
        <ele>1370</ele>
        <time>2021-12-12T11:21:13Z</time>
      </trkpt>
      <trkpt lat="45.31113" lon="6.03679">
        <ele>1370</ele>
        <time>2021-12-12T11:21:14Z</time>
      </trkpt>
      <trkpt lat="45.31114" lon="6.03675">
        <ele>1370</ele>
        <time>2021-12-12T11:21:15Z</time>
      </trkpt>
      <trkpt lat="45.31115" lon="6.03673">
        <ele>1370</ele>
        <time>2021-12-12T11:21:16Z</time>
      </trkpt>
      <trkpt lat="45.31118" lon="6.03669">
        <ele>1370</ele>
        <time>2021-12-12T11:21:17Z</time>
      </trkpt>
      <trkpt lat="45.31121" lon="6.03664">
        <ele>1370</ele>
        <time>2021-12-12T11:21:18Z</time>
      </trkpt>
      <trkpt lat="45.31124" lon="6.0366">
        <ele>1370</ele>
        <time>2021-12-12T11:21:19Z</time>
      </trkpt>
      <trkpt lat="45.31127" lon="6.03647">
        <ele>1357</ele>
        <time>2021-12-12T11:21:22Z</time>
      </trkpt>
      <trkpt lat="45.31125" lon="6.03644">
        <ele>1357</ele>
        <time>2021-12-12T11:21:29Z</time>
      </trkpt>
      <trkpt lat="45.31124" lon="6.03643">
        <ele>1355</ele>
        <time>2021-12-12T11:21:32Z</time>
      </trkpt>
      <trkpt lat="45.31122" lon="6.03643">
        <ele>1355</ele>
        <time>2021-12-12T11:21:35Z</time>
      </trkpt>
      <trkpt lat="45.3112" lon="6.03642">
        <ele>1355</ele>
        <time>2021-12-12T11:21:38Z</time>
      </trkpt>
      <trkpt lat="45.31121" lon="6.03645">
        <ele>1355</ele>
        <time>2021-12-12T11:21:43Z</time>
      </trkpt>
      <trkpt lat="45.31121" lon="6.03642">
        <ele>1354</ele>
        <time>2021-12-12T11:22:26Z</time>
      </trkpt>
      <trkpt lat="45.31122" lon="6.03637">
        <ele>1354</ele>
        <time>2021-12-12T11:22:29Z</time>
      </trkpt>
      <trkpt lat="45.31123" lon="6.03633">
        <ele>1354</ele>
        <time>2021-12-12T11:22:30Z</time>
      </trkpt>
      <trkpt lat="45.31125" lon="6.03629">
        <ele>1354</ele>
        <time>2021-12-12T11:22:31Z</time>
      </trkpt>
      <trkpt lat="45.31126" lon="6.03624">
        <ele>1354</ele>
        <time>2021-12-12T11:22:32Z</time>
      </trkpt>
      <trkpt lat="45.31128" lon="6.0362">
        <ele>1353</ele>
        <time>2021-12-12T11:22:33Z</time>
      </trkpt>
      <trkpt lat="45.31136" lon="6.03606">
        <ele>1353</ele>
        <time>2021-12-12T11:22:35Z</time>
      </trkpt>
      <trkpt lat="45.31144" lon="6.03591">
        <ele>1353</ele>
        <time>2021-12-12T11:22:39Z</time>
      </trkpt>
      <trkpt lat="45.31153" lon="6.03581">
        <ele>1344</ele>
        <time>2021-12-12T11:22:42Z</time>
      </trkpt>
      <trkpt lat="45.31158" lon="6.03579">
        <ele>1344</ele>
        <time>2021-12-12T11:22:45Z</time>
      </trkpt>
      <trkpt lat="45.31159" lon="6.03577">
        <ele>1344</ele>
        <time>2021-12-12T11:22:46Z</time>
      </trkpt>
      <trkpt lat="45.3116" lon="6.03574">
        <ele>1344</ele>
        <time>2021-12-12T11:22:48Z</time>
      </trkpt>
      <trkpt lat="45.31162" lon="6.03575">
        <ele>1337</ele>
        <time>2021-12-12T11:22:56Z</time>
      </trkpt>
      <trkpt lat="45.31163" lon="6.03573">
        <ele>1339</ele>
        <time>2021-12-12T11:23:09Z</time>
      </trkpt>
      <trkpt lat="45.31164" lon="6.0357">
        <ele>1339</ele>
        <time>2021-12-12T11:23:10Z</time>
      </trkpt>
      <trkpt lat="45.31164" lon="6.03566">
        <ele>1339</ele>
        <time>2021-12-12T11:23:11Z</time>
      </trkpt>
      <trkpt lat="45.31165" lon="6.03563">
        <ele>1338</ele>
        <time>2021-12-12T11:23:12Z</time>
      </trkpt>
      <trkpt lat="45.31165" lon="6.03559">
        <ele>1338</ele>
        <time>2021-12-12T11:23:14Z</time>
      </trkpt>
      <trkpt lat="45.31164" lon="6.03556">
        <ele>1336</ele>
        <time>2021-12-12T11:23:23Z</time>
      </trkpt>
      <trkpt lat="45.31162" lon="6.03555">
        <ele>1336</ele>
        <time>2021-12-12T11:23:33Z</time>
      </trkpt>
      <trkpt lat="45.31164" lon="6.03555">
        <ele>1336</ele>
        <time>2021-12-12T11:24:06Z</time>
      </trkpt>
      <trkpt lat="45.31165" lon="6.03551">
        <ele>1336</ele>
        <time>2021-12-12T11:24:08Z</time>
      </trkpt>
      <trkpt lat="45.31166" lon="6.03549">
        <ele>1336</ele>
        <time>2021-12-12T11:24:09Z</time>
      </trkpt>
      <trkpt lat="45.31167" lon="6.03546">
        <ele>1336</ele>
        <time>2021-12-12T11:24:10Z</time>
      </trkpt>
      <trkpt lat="45.31167" lon="6.0354">
        <ele>1336</ele>
        <time>2021-12-12T11:24:11Z</time>
      </trkpt>
      <trkpt lat="45.31167" lon="6.03535">
        <ele>1337</ele>
        <time>2021-12-12T11:24:12Z</time>
      </trkpt>
      <trkpt lat="45.31167" lon="6.03529">
        <ele>1337</ele>
        <time>2021-12-12T11:24:13Z</time>
      </trkpt>
      <trkpt lat="45.31167" lon="6.03524">
        <ele>1337</ele>
        <time>2021-12-12T11:24:14Z</time>
      </trkpt>
      <trkpt lat="45.31166" lon="6.0352">
        <ele>1337</ele>
        <time>2021-12-12T11:24:15Z</time>
      </trkpt>
      <trkpt lat="45.31161" lon="6.0351">
        <ele>1337</ele>
        <time>2021-12-12T11:24:19Z</time>
      </trkpt>
      <trkpt lat="45.31159" lon="6.03509">
        <ele>1333</ele>
        <time>2021-12-12T11:24:25Z</time>
      </trkpt>
      <trkpt lat="45.31158" lon="6.03506">
        <ele>1333</ele>
        <time>2021-12-12T11:24:28Z</time>
      </trkpt>
      <trkpt lat="45.31158" lon="6.03502">
        <ele>1333</ele>
        <time>2021-12-12T11:24:30Z</time>
      </trkpt>
      <trkpt lat="45.31157" lon="6.03498">
        <ele>1333</ele>
        <time>2021-12-12T11:24:31Z</time>
      </trkpt>
      <trkpt lat="45.31157" lon="6.03495">
        <ele>1331</ele>
        <time>2021-12-12T11:24:33Z</time>
      </trkpt>
      <trkpt lat="45.31156" lon="6.03491">
        <ele>1331</ele>
        <time>2021-12-12T11:24:34Z</time>
      </trkpt>
      <trkpt lat="45.31156" lon="6.03488">
        <ele>1331</ele>
        <time>2021-12-12T11:24:35Z</time>
      </trkpt>
      <trkpt lat="45.31154" lon="6.03485">
        <ele>1331</ele>
        <time>2021-12-12T11:24:37Z</time>
      </trkpt>
      <trkpt lat="45.31152" lon="6.03486">
        <ele>1330</ele>
        <time>2021-12-12T11:24:42Z</time>
      </trkpt>
      <trkpt lat="45.31154" lon="6.03486">
        <ele>1329</ele>
        <time>2021-12-12T11:24:52Z</time>
      </trkpt>
      <trkpt lat="45.31154" lon="6.03484">
        <ele>1329</ele>
        <time>2021-12-12T11:24:56Z</time>
      </trkpt>
      <trkpt lat="45.31155" lon="6.03481">
        <ele>1329</ele>
        <time>2021-12-12T11:24:57Z</time>
      </trkpt>
      <trkpt lat="45.31158" lon="6.03477">
        <ele>1329</ele>
        <time>2021-12-12T11:24:58Z</time>
      </trkpt>
      <trkpt lat="45.3116" lon="6.03472">
        <ele>1329</ele>
        <time>2021-12-12T11:24:59Z</time>
      </trkpt>
      <trkpt lat="45.31163" lon="6.03467">
        <ele>1329</ele>
        <time>2021-12-12T11:25:00Z</time>
      </trkpt>
      <trkpt lat="45.31165" lon="6.03462">
        <ele>1329</ele>
        <time>2021-12-12T11:25:01Z</time>
      </trkpt>
      <trkpt lat="45.31171" lon="6.03452">
        <ele>1321</ele>
        <time>2021-12-12T11:25:06Z</time>
      </trkpt>
      <trkpt lat="45.31174" lon="6.03453">
        <ele>1321</ele>
        <time>2021-12-12T11:25:08Z</time>
      </trkpt>
      <trkpt lat="45.31178" lon="6.03452">
        <ele>1321</ele>
        <time>2021-12-12T11:25:11Z</time>
      </trkpt>
      <trkpt lat="45.31181" lon="6.03447">
        <ele>1318</ele>
        <time>2021-12-12T11:25:13Z</time>
      </trkpt>
      <trkpt lat="45.31183" lon="6.0343">
        <ele>1318</ele>
        <time>2021-12-12T11:25:16Z</time>
      </trkpt>
      <trkpt lat="45.31189" lon="6.03416">
        <ele>1318</ele>
        <time>2021-12-12T11:25:19Z</time>
      </trkpt>
      <trkpt lat="45.31195" lon="6.03405">
        <ele>1318</ele>
        <time>2021-12-12T11:25:22Z</time>
      </trkpt>
      <trkpt lat="45.31205" lon="6.034">
        <ele>1305</ele>
        <time>2021-12-12T11:25:24Z</time>
      </trkpt>
      <trkpt lat="45.31207" lon="6.03395">
        <ele>1305</ele>
        <time>2021-12-12T11:25:29Z</time>
      </trkpt>
      <trkpt lat="45.31207" lon="6.03392">
        <ele>1299</ele>
        <time>2021-12-12T11:25:39Z</time>
      </trkpt>
      <trkpt lat="45.31208" lon="6.03389">
        <ele>1298</ele>
        <time>2021-12-12T11:25:53Z</time>
      </trkpt>
      <trkpt lat="45.31208" lon="6.03386">
        <ele>1298</ele>
        <time>2021-12-12T11:25:55Z</time>
      </trkpt>
      <trkpt lat="45.31211" lon="6.03388">
        <ele>1298</ele>
        <time>2021-12-12T11:26:01Z</time>
      </trkpt>
      <trkpt lat="45.31213" lon="6.03389">
        <ele>1295</ele>
        <time>2021-12-12T11:26:04Z</time>
      </trkpt>
      <trkpt lat="45.31215" lon="6.0339">
        <ele>1295</ele>
        <time>2021-12-12T11:26:07Z</time>
      </trkpt>
      <trkpt lat="45.31217" lon="6.0339">
        <ele>1294</ele>
        <time>2021-12-12T11:26:13Z</time>
      </trkpt>
      <trkpt lat="45.31219" lon="6.03391">
        <ele>1294</ele>
        <time>2021-12-12T11:26:14Z</time>
      </trkpt>
      <trkpt lat="45.31221" lon="6.03393">
        <ele>1294</ele>
        <time>2021-12-12T11:26:19Z</time>
      </trkpt>
      <trkpt lat="45.31221" lon="6.03391">
        <ele>1290</ele>
        <time>2021-12-12T11:26:33Z</time>
      </trkpt>
      <trkpt lat="45.31219" lon="6.0339">
        <ele>1291</ele>
        <time>2021-12-12T11:26:49Z</time>
      </trkpt>
      <trkpt lat="45.31216" lon="6.03389">
        <ele>1291</ele>
        <time>2021-12-12T11:26:57Z</time>
      </trkpt>
      <trkpt lat="45.31214" lon="6.03388">
        <ele>1291</ele>
        <time>2021-12-12T11:27:17Z</time>
      </trkpt>
      <trkpt lat="45.31216" lon="6.03388">
        <ele>1291</ele>
        <time>2021-12-12T11:27:23Z</time>
      </trkpt>
      <trkpt lat="45.31218" lon="6.03389">
        <ele>1291</ele>
        <time>2021-12-12T11:27:25Z</time>
      </trkpt>
      <trkpt lat="45.31219" lon="6.03387">
        <ele>1289</ele>
        <time>2021-12-12T11:27:36Z</time>
      </trkpt>
      <trkpt lat="45.31221" lon="6.03387">
        <ele>1289</ele>
        <time>2021-12-12T11:27:37Z</time>
      </trkpt>
      <trkpt lat="45.31223" lon="6.03388">
        <ele>1289</ele>
        <time>2021-12-12T11:27:39Z</time>
      </trkpt>
      <trkpt lat="45.31225" lon="6.0339">
        <ele>1289</ele>
        <time>2021-12-12T11:27:41Z</time>
      </trkpt>
      <trkpt lat="45.31228" lon="6.03393">
        <ele>1286</ele>
        <time>2021-12-12T11:27:44Z</time>
      </trkpt>
      <trkpt lat="45.3123" lon="6.03396">
        <ele>1286</ele>
        <time>2021-12-12T11:27:46Z</time>
      </trkpt>
      <trkpt lat="45.31232" lon="6.03398">
        <ele>1286</ele>
        <time>2021-12-12T11:27:48Z</time>
      </trkpt>
      <trkpt lat="45.31233" lon="6.034">
        <ele>1285</ele>
        <time>2021-12-12T11:27:52Z</time>
      </trkpt>
      <trkpt lat="45.31233" lon="6.03403">
        <ele>1286</ele>
        <time>2021-12-12T11:28:27Z</time>
      </trkpt>
      <trkpt lat="45.31233" lon="6.03406">
        <ele>1288</ele>
        <time>2021-12-12T11:31:12Z</time>
      </trkpt>
      <trkpt lat="45.31234" lon="6.03408">
        <ele>1288</ele>
        <time>2021-12-12T11:31:15Z</time>
      </trkpt>
      <trkpt lat="45.31236" lon="6.0341">
        <ele>1288</ele>
        <time>2021-12-12T11:31:17Z</time>
      </trkpt>
      <trkpt lat="45.31239" lon="6.03413">
        <ele>1288</ele>
        <time>2021-12-12T11:31:19Z</time>
      </trkpt>
      <trkpt lat="45.3124" lon="6.03415">
        <ele>1288</ele>
        <time>2021-12-12T11:31:20Z</time>
      </trkpt>
      <trkpt lat="45.31242" lon="6.03417">
        <ele>1288</ele>
        <time>2021-12-12T11:31:21Z</time>
      </trkpt>
      <trkpt lat="45.31244" lon="6.03418">
        <ele>1288</ele>
        <time>2021-12-12T11:31:22Z</time>
      </trkpt>
      <trkpt lat="45.31245" lon="6.0342">
        <ele>1288</ele>
        <time>2021-12-12T11:31:23Z</time>
      </trkpt>
      <trkpt lat="45.31247" lon="6.03421">
        <ele>1288</ele>
        <time>2021-12-12T11:31:24Z</time>
      </trkpt>
      <trkpt lat="45.31249" lon="6.03422">
        <ele>1288</ele>
        <time>2021-12-12T11:31:25Z</time>
      </trkpt>
      <trkpt lat="45.31251" lon="6.03424">
        <ele>1288</ele>
        <time>2021-12-12T11:31:26Z</time>
      </trkpt>
      <trkpt lat="45.31253" lon="6.03424">
        <ele>1288</ele>
        <time>2021-12-12T11:31:27Z</time>
      </trkpt>
      <trkpt lat="45.31255" lon="6.03425">
        <ele>1288</ele>
        <time>2021-12-12T11:31:28Z</time>
      </trkpt>
      <trkpt lat="45.31258" lon="6.03427">
        <ele>1288</ele>
        <time>2021-12-12T11:31:29Z</time>
      </trkpt>
      <trkpt lat="45.31261" lon="6.03428">
        <ele>1288</ele>
        <time>2021-12-12T11:31:30Z</time>
      </trkpt>
      <trkpt lat="45.31263" lon="6.03429">
        <ele>1288</ele>
        <time>2021-12-12T11:31:31Z</time>
      </trkpt>
      <trkpt lat="45.31266" lon="6.03431">
        <ele>1286</ele>
        <time>2021-12-12T11:31:32Z</time>
      </trkpt>
      <trkpt lat="45.31269" lon="6.03433">
        <ele>1286</ele>
        <time>2021-12-12T11:31:33Z</time>
      </trkpt>
      <trkpt lat="45.31272" lon="6.03435">
        <ele>1286</ele>
        <time>2021-12-12T11:31:34Z</time>
      </trkpt>
      <trkpt lat="45.31275" lon="6.03438">
        <ele>1286</ele>
        <time>2021-12-12T11:31:35Z</time>
      </trkpt>
      <trkpt lat="45.31278" lon="6.0344">
        <ele>1286</ele>
        <time>2021-12-12T11:31:36Z</time>
      </trkpt>
      <trkpt lat="45.31281" lon="6.03442">
        <ele>1286</ele>
        <time>2021-12-12T11:31:37Z</time>
      </trkpt>
      <trkpt lat="45.31283" lon="6.03445">
        <ele>1286</ele>
        <time>2021-12-12T11:31:38Z</time>
      </trkpt>
      <trkpt lat="45.31286" lon="6.03446">
        <ele>1286</ele>
        <time>2021-12-12T11:31:39Z</time>
      </trkpt>
      <trkpt lat="45.31289" lon="6.03447">
        <ele>1286</ele>
        <time>2021-12-12T11:31:40Z</time>
      </trkpt>
      <trkpt lat="45.31292" lon="6.03447">
        <ele>1286</ele>
        <time>2021-12-12T11:31:41Z</time>
      </trkpt>
      <trkpt lat="45.31296" lon="6.03448">
        <ele>1283</ele>
        <time>2021-12-12T11:31:42Z</time>
      </trkpt>
      <trkpt lat="45.313" lon="6.03449">
        <ele>1283</ele>
        <time>2021-12-12T11:31:43Z</time>
      </trkpt>
      <trkpt lat="45.31304" lon="6.03449">
        <ele>1283</ele>
        <time>2021-12-12T11:31:44Z</time>
      </trkpt>
      <trkpt lat="45.31307" lon="6.03449">
        <ele>1283</ele>
        <time>2021-12-12T11:31:45Z</time>
      </trkpt>
      <trkpt lat="45.31311" lon="6.03448">
        <ele>1283</ele>
        <time>2021-12-12T11:31:46Z</time>
      </trkpt>
      <trkpt lat="45.31313" lon="6.03448">
        <ele>1283</ele>
        <time>2021-12-12T11:31:47Z</time>
      </trkpt>
      <trkpt lat="45.31316" lon="6.03448">
        <ele>1283</ele>
        <time>2021-12-12T11:31:49Z</time>
      </trkpt>
      <trkpt lat="45.31318" lon="6.0345">
        <ele>1283</ele>
        <time>2021-12-12T11:31:51Z</time>
      </trkpt>
      <trkpt lat="45.3132" lon="6.0345">
        <ele>1281</ele>
        <time>2021-12-12T11:31:53Z</time>
      </trkpt>
      <trkpt lat="45.31321" lon="6.03451">
        <ele>1281</ele>
        <time>2021-12-12T11:31:58Z</time>
      </trkpt>
      <trkpt lat="45.31324" lon="6.03452">
        <ele>1281</ele>
        <time>2021-12-12T11:32:00Z</time>
      </trkpt>
      <trkpt lat="45.31326" lon="6.03451">
        <ele>1279</ele>
        <time>2021-12-12T11:32:02Z</time>
      </trkpt>
      <trkpt lat="45.31328" lon="6.03451">
        <ele>1279</ele>
        <time>2021-12-12T11:32:05Z</time>
      </trkpt>
      <trkpt lat="45.3133" lon="6.03451">
        <ele>1279</ele>
        <time>2021-12-12T11:32:07Z</time>
      </trkpt>
      <trkpt lat="45.31333" lon="6.03452">
        <ele>1279</ele>
        <time>2021-12-12T11:32:09Z</time>
      </trkpt>
      <trkpt lat="45.31339" lon="6.03454">
        <ele>1279</ele>
        <time>2021-12-12T11:32:11Z</time>
      </trkpt>
      <trkpt lat="45.31341" lon="6.03455">
        <ele>1278</ele>
        <time>2021-12-12T11:32:13Z</time>
      </trkpt>
      <trkpt lat="45.31343" lon="6.03457">
        <ele>1278</ele>
        <time>2021-12-12T11:32:14Z</time>
      </trkpt>
      <trkpt lat="45.31345" lon="6.03458">
        <ele>1278</ele>
        <time>2021-12-12T11:32:15Z</time>
      </trkpt>
      <trkpt lat="45.31347" lon="6.03459">
        <ele>1278</ele>
        <time>2021-12-12T11:32:16Z</time>
      </trkpt>
      <trkpt lat="45.3135" lon="6.03461">
        <ele>1278</ele>
        <time>2021-12-12T11:32:17Z</time>
      </trkpt>
      <trkpt lat="45.31352" lon="6.03463">
        <ele>1278</ele>
        <time>2021-12-12T11:32:18Z</time>
      </trkpt>
      <trkpt lat="45.31354" lon="6.03465">
        <ele>1278</ele>
        <time>2021-12-12T11:32:19Z</time>
      </trkpt>
      <trkpt lat="45.31357" lon="6.03468">
        <ele>1278</ele>
        <time>2021-12-12T11:32:20Z</time>
      </trkpt>
      <trkpt lat="45.3136" lon="6.03471">
        <ele>1278</ele>
        <time>2021-12-12T11:32:21Z</time>
      </trkpt>
      <trkpt lat="45.31363" lon="6.03474">
        <ele>1276</ele>
        <time>2021-12-12T11:32:22Z</time>
      </trkpt>
      <trkpt lat="45.31366" lon="6.03477">
        <ele>1276</ele>
        <time>2021-12-12T11:32:23Z</time>
      </trkpt>
      <trkpt lat="45.31369" lon="6.0348">
        <ele>1276</ele>
        <time>2021-12-12T11:32:24Z</time>
      </trkpt>
      <trkpt lat="45.31372" lon="6.03484">
        <ele>1276</ele>
        <time>2021-12-12T11:32:25Z</time>
      </trkpt>
      <trkpt lat="45.31375" lon="6.03486">
        <ele>1276</ele>
        <time>2021-12-12T11:32:26Z</time>
      </trkpt>
      <trkpt lat="45.31379" lon="6.0349">
        <ele>1276</ele>
        <time>2021-12-12T11:32:27Z</time>
      </trkpt>
      <trkpt lat="45.31383" lon="6.03493">
        <ele>1276</ele>
        <time>2021-12-12T11:32:28Z</time>
      </trkpt>
      <trkpt lat="45.31386" lon="6.03495">
        <ele>1276</ele>
        <time>2021-12-12T11:32:29Z</time>
      </trkpt>
      <trkpt lat="45.31389" lon="6.03497">
        <ele>1276</ele>
        <time>2021-12-12T11:32:30Z</time>
      </trkpt>
      <trkpt lat="45.31393" lon="6.035">
        <ele>1276</ele>
        <time>2021-12-12T11:32:31Z</time>
      </trkpt>
      <trkpt lat="45.31396" lon="6.03502">
        <ele>1275</ele>
        <time>2021-12-12T11:32:32Z</time>
      </trkpt>
      <trkpt lat="45.314" lon="6.03503">
        <ele>1275</ele>
        <time>2021-12-12T11:32:33Z</time>
      </trkpt>
      <trkpt lat="45.31404" lon="6.03504">
        <ele>1275</ele>
        <time>2021-12-12T11:32:34Z</time>
      </trkpt>
      <trkpt lat="45.31407" lon="6.03504">
        <ele>1275</ele>
        <time>2021-12-12T11:32:35Z</time>
      </trkpt>
      <trkpt lat="45.31411" lon="6.03504">
        <ele>1275</ele>
        <time>2021-12-12T11:32:36Z</time>
      </trkpt>
      <trkpt lat="45.31414" lon="6.03504">
        <ele>1275</ele>
        <time>2021-12-12T11:32:37Z</time>
      </trkpt>
      <trkpt lat="45.31417" lon="6.03504">
        <ele>1275</ele>
        <time>2021-12-12T11:32:38Z</time>
      </trkpt>
      <trkpt lat="45.31419" lon="6.03505">
        <ele>1275</ele>
        <time>2021-12-12T11:32:39Z</time>
      </trkpt>
      <trkpt lat="45.31421" lon="6.03506">
        <ele>1275</ele>
        <time>2021-12-12T11:32:40Z</time>
      </trkpt>
      <trkpt lat="45.31423" lon="6.03507">
        <ele>1275</ele>
        <time>2021-12-12T11:32:41Z</time>
      </trkpt>
      <trkpt lat="45.31426" lon="6.03507">
        <ele>1271</ele>
        <time>2021-12-12T11:32:42Z</time>
      </trkpt>
      <trkpt lat="45.31429" lon="6.03506">
        <ele>1271</ele>
        <time>2021-12-12T11:32:43Z</time>
      </trkpt>
      <trkpt lat="45.31431" lon="6.03506">
        <ele>1271</ele>
        <time>2021-12-12T11:32:44Z</time>
      </trkpt>
      <trkpt lat="45.31434" lon="6.03507">
        <ele>1271</ele>
        <time>2021-12-12T11:32:45Z</time>
      </trkpt>
      <trkpt lat="45.31437" lon="6.03507">
        <ele>1271</ele>
        <time>2021-12-12T11:32:46Z</time>
      </trkpt>
      <trkpt lat="45.3144" lon="6.03507">
        <ele>1271</ele>
        <time>2021-12-12T11:32:47Z</time>
      </trkpt>
      <trkpt lat="45.31443" lon="6.03507">
        <ele>1271</ele>
        <time>2021-12-12T11:32:48Z</time>
      </trkpt>
      <trkpt lat="45.3145" lon="6.03506">
        <ele>1271</ele>
        <time>2021-12-12T11:32:49Z</time>
      </trkpt>
      <trkpt lat="45.31453" lon="6.03505">
        <ele>1271</ele>
        <time>2021-12-12T11:32:51Z</time>
      </trkpt>
      <trkpt lat="45.31457" lon="6.03504">
        <ele>1268</ele>
        <time>2021-12-12T11:32:52Z</time>
      </trkpt>
      <trkpt lat="45.31464" lon="6.03502">
        <ele>1268</ele>
        <time>2021-12-12T11:32:53Z</time>
      </trkpt>
      <trkpt lat="45.31468" lon="6.03502">
        <ele>1268</ele>
        <time>2021-12-12T11:32:55Z</time>
      </trkpt>
      <trkpt lat="45.31473" lon="6.03501">
        <ele>1268</ele>
        <time>2021-12-12T11:32:56Z</time>
      </trkpt>
      <trkpt lat="45.31482" lon="6.03503">
        <ele>1268</ele>
        <time>2021-12-12T11:32:57Z</time>
      </trkpt>
      <trkpt lat="45.31486" lon="6.03505">
        <ele>1268</ele>
        <time>2021-12-12T11:32:59Z</time>
      </trkpt>
      <trkpt lat="45.31489" lon="6.03506">
        <ele>1268</ele>
        <time>2021-12-12T11:33:00Z</time>
      </trkpt>
      <trkpt lat="45.31493" lon="6.03508">
        <ele>1268</ele>
        <time>2021-12-12T11:33:01Z</time>
      </trkpt>
      <trkpt lat="45.31497" lon="6.0351">
        <ele>1263</ele>
        <time>2021-12-12T11:33:02Z</time>
      </trkpt>
      <trkpt lat="45.31502" lon="6.03512">
        <ele>1263</ele>
        <time>2021-12-12T11:33:03Z</time>
      </trkpt>
      <trkpt lat="45.31506" lon="6.03513">
        <ele>1263</ele>
        <time>2021-12-12T11:33:04Z</time>
      </trkpt>
      <trkpt lat="45.31511" lon="6.03515">
        <ele>1263</ele>
        <time>2021-12-12T11:33:05Z</time>
      </trkpt>
      <trkpt lat="45.31516" lon="6.03518">
        <ele>1263</ele>
        <time>2021-12-12T11:33:06Z</time>
      </trkpt>
      <trkpt lat="45.3152" lon="6.03519">
        <ele>1263</ele>
        <time>2021-12-12T11:33:07Z</time>
      </trkpt>
      <trkpt lat="45.3153" lon="6.03518">
        <ele>1263</ele>
        <time>2021-12-12T11:33:08Z</time>
      </trkpt>
      <trkpt lat="45.31534" lon="6.03519">
        <ele>1263</ele>
        <time>2021-12-12T11:33:10Z</time>
      </trkpt>
      <trkpt lat="45.31538" lon="6.03519">
        <ele>1263</ele>
        <time>2021-12-12T11:33:11Z</time>
      </trkpt>
      <trkpt lat="45.31542" lon="6.03519">
        <ele>1260</ele>
        <time>2021-12-12T11:33:12Z</time>
      </trkpt>
      <trkpt lat="45.31547" lon="6.03519">
        <ele>1260</ele>
        <time>2021-12-12T11:33:13Z</time>
      </trkpt>
      <trkpt lat="45.31551" lon="6.03519">
        <ele>1260</ele>
        <time>2021-12-12T11:33:14Z</time>
      </trkpt>
      <trkpt lat="45.31555" lon="6.03519">
        <ele>1260</ele>
        <time>2021-12-12T11:33:15Z</time>
      </trkpt>
      <trkpt lat="45.3156" lon="6.03518">
        <ele>1260</ele>
        <time>2021-12-12T11:33:16Z</time>
      </trkpt>
      <trkpt lat="45.31566" lon="6.03518">
        <ele>1260</ele>
        <time>2021-12-12T11:33:17Z</time>
      </trkpt>
      <trkpt lat="45.31575" lon="6.03519">
        <ele>1260</ele>
        <time>2021-12-12T11:33:18Z</time>
      </trkpt>
      <trkpt lat="45.3158" lon="6.03519">
        <ele>1260</ele>
        <time>2021-12-12T11:33:20Z</time>
      </trkpt>
      <trkpt lat="45.31583" lon="6.03519">
        <ele>1260</ele>
        <time>2021-12-12T11:33:21Z</time>
      </trkpt>
      <trkpt lat="45.31586" lon="6.03519">
        <ele>1260</ele>
        <time>2021-12-12T11:33:22Z</time>
      </trkpt>
      <trkpt lat="45.31584" lon="6.0352">
        <ele>1253</ele>
        <time>2021-12-12T11:33:42Z</time>
      </trkpt>
      <trkpt lat="45.31582" lon="6.03521">
        <ele>1254</ele>
        <time>2021-12-12T11:35:37Z</time>
      </trkpt>
      <trkpt lat="45.31583" lon="6.03519">
        <ele>1254</ele>
        <time>2021-12-12T11:36:03Z</time>
      </trkpt>
      <trkpt lat="45.31585" lon="6.03517">
        <ele>1254</ele>
        <time>2021-12-12T11:36:06Z</time>
      </trkpt>
      <trkpt lat="45.31588" lon="6.03515">
        <ele>1254</ele>
        <time>2021-12-12T11:36:07Z</time>
      </trkpt>
      <trkpt lat="45.31598" lon="6.03513">
        <ele>1254</ele>
        <time>2021-12-12T11:36:09Z</time>
      </trkpt>
      <trkpt lat="45.3161" lon="6.0351">
        <ele>1254</ele>
        <time>2021-12-12T11:36:11Z</time>
      </trkpt>
      <trkpt lat="45.3162" lon="6.03506">
        <ele>1244</ele>
        <time>2021-12-12T11:36:13Z</time>
      </trkpt>
      <trkpt lat="45.31631" lon="6.03501">
        <ele>1244</ele>
        <time>2021-12-12T11:36:15Z</time>
      </trkpt>
      <trkpt lat="45.3164" lon="6.03495">
        <ele>1244</ele>
        <time>2021-12-12T11:36:17Z</time>
      </trkpt>
      <trkpt lat="45.3165" lon="6.03492">
        <ele>1244</ele>
        <time>2021-12-12T11:36:19Z</time>
      </trkpt>
      <trkpt lat="45.31655" lon="6.03495">
        <ele>1233</ele>
        <time>2021-12-12T11:36:24Z</time>
      </trkpt>
      <trkpt lat="45.31655" lon="6.03492">
        <ele>1233</ele>
        <time>2021-12-12T11:36:28Z</time>
      </trkpt>
      <trkpt lat="45.31656" lon="6.03492">
        <ele>1233</ele>
        <time>2021-12-12T11:36:38Z</time>
      </trkpt>
      <trkpt lat="45.31658" lon="6.03493">
        <ele>1233</ele>
        <time>2021-12-12T11:36:44Z</time>
      </trkpt>
      <trkpt lat="45.3166" lon="6.03494">
        <ele>1233</ele>
        <time>2021-12-12T11:36:45Z</time>
      </trkpt>
      <trkpt lat="45.31662" lon="6.03495">
        <ele>1233</ele>
        <time>2021-12-12T11:36:47Z</time>
      </trkpt>
      <trkpt lat="45.31665" lon="6.03494">
        <ele>1233</ele>
        <time>2021-12-12T11:36:48Z</time>
      </trkpt>
      <trkpt lat="45.31668" lon="6.03493">
        <ele>1233</ele>
        <time>2021-12-12T11:36:49Z</time>
      </trkpt>
      <trkpt lat="45.31671" lon="6.03492">
        <ele>1233</ele>
        <time>2021-12-12T11:36:50Z</time>
      </trkpt>
      <trkpt lat="45.31681" lon="6.03489">
        <ele>1231</ele>
        <time>2021-12-12T11:36:52Z</time>
      </trkpt>
      <trkpt lat="45.31692" lon="6.03486">
        <ele>1231</ele>
        <time>2021-12-12T11:36:55Z</time>
      </trkpt>
      <trkpt lat="45.31701" lon="6.0348">
        <ele>1231</ele>
        <time>2021-12-12T11:36:58Z</time>
      </trkpt>
      <trkpt lat="45.31707" lon="6.03478">
        <ele>1216</ele>
        <time>2021-12-12T11:37:03Z</time>
      </trkpt>
      <trkpt lat="45.3171" lon="6.03476">
        <ele>1216</ele>
        <time>2021-12-12T11:37:05Z</time>
      </trkpt>
      <trkpt lat="45.31712" lon="6.03475">
        <ele>1216</ele>
        <time>2021-12-12T11:37:06Z</time>
      </trkpt>
      <trkpt lat="45.31714" lon="6.03473">
        <ele>1215</ele>
        <time>2021-12-12T11:37:19Z</time>
      </trkpt>
      <trkpt lat="45.31716" lon="6.03472">
        <ele>1213</ele>
        <time>2021-12-12T11:37:37Z</time>
      </trkpt>
      <trkpt lat="45.31718" lon="6.03473">
        <ele>1213</ele>
        <time>2021-12-12T11:37:48Z</time>
      </trkpt>
      <trkpt lat="45.31719" lon="6.03475">
        <ele>1212</ele>
        <time>2021-12-12T11:38:15Z</time>
      </trkpt>
      <trkpt lat="45.31721" lon="6.03477">
        <ele>1213</ele>
        <time>2021-12-12T11:38:23Z</time>
      </trkpt>
      <trkpt lat="45.31723" lon="6.03477">
        <ele>1213</ele>
        <time>2021-12-12T11:38:24Z</time>
      </trkpt>
      <trkpt lat="45.31726" lon="6.03475">
        <ele>1213</ele>
        <time>2021-12-12T11:38:25Z</time>
      </trkpt>
      <trkpt lat="45.3173" lon="6.03474">
        <ele>1213</ele>
        <time>2021-12-12T11:38:26Z</time>
      </trkpt>
      <trkpt lat="45.31734" lon="6.03473">
        <ele>1213</ele>
        <time>2021-12-12T11:38:27Z</time>
      </trkpt>
      <trkpt lat="45.31739" lon="6.03472">
        <ele>1213</ele>
        <time>2021-12-12T11:38:28Z</time>
      </trkpt>
      <trkpt lat="45.31748" lon="6.03459">
        <ele>1213</ele>
        <time>2021-12-12T11:38:31Z</time>
      </trkpt>
      <trkpt lat="45.31748" lon="6.03445">
        <ele>1201</ele>
        <time>2021-12-12T11:38:35Z</time>
      </trkpt>
      <trkpt lat="45.31743" lon="6.03433">
        <ele>1201</ele>
        <time>2021-12-12T11:38:37Z</time>
      </trkpt>
      <trkpt lat="45.31737" lon="6.03422">
        <ele>1201</ele>
        <time>2021-12-12T11:38:39Z</time>
      </trkpt>
      <trkpt lat="45.31731" lon="6.0341">
        <ele>1201</ele>
        <time>2021-12-12T11:38:41Z</time>
      </trkpt>
      <trkpt lat="45.31723" lon="6.03398">
        <ele>1188</ele>
        <time>2021-12-12T11:38:43Z</time>
      </trkpt>
      <trkpt lat="45.31716" lon="6.0339">
        <ele>1188</ele>
        <time>2021-12-12T11:38:45Z</time>
      </trkpt>
      <trkpt lat="45.31704" lon="6.03381">
        <ele>1188</ele>
        <time>2021-12-12T11:38:48Z</time>
      </trkpt>
      <trkpt lat="45.31696" lon="6.03371">
        <ele>1188</ele>
        <time>2021-12-12T11:38:51Z</time>
      </trkpt>
      <trkpt lat="45.31694" lon="6.03368">
        <ele>1174</ele>
        <time>2021-12-12T11:38:54Z</time>
      </trkpt>
      <trkpt lat="45.31696" lon="6.03367">
        <ele>1172</ele>
        <time>2021-12-12T11:39:16Z</time>
      </trkpt>
      <trkpt lat="45.31694" lon="6.03368">
        <ele>1172</ele>
        <time>2021-12-12T11:40:01Z</time>
      </trkpt>
      <trkpt lat="45.31695" lon="6.03364">
        <ele>1173</ele>
        <time>2021-12-12T11:40:07Z</time>
      </trkpt>
      <trkpt lat="45.31696" lon="6.03361">
        <ele>1173</ele>
        <time>2021-12-12T11:40:08Z</time>
      </trkpt>
      <trkpt lat="45.31698" lon="6.03356">
        <ele>1173</ele>
        <time>2021-12-12T11:40:09Z</time>
      </trkpt>
      <trkpt lat="45.31709" lon="6.03342">
        <ele>1173</ele>
        <time>2021-12-12T11:40:12Z</time>
      </trkpt>
      <trkpt lat="45.3172" lon="6.03331">
        <ele>1161</ele>
        <time>2021-12-12T11:40:14Z</time>
      </trkpt>
      <trkpt lat="45.31731" lon="6.03323">
        <ele>1161</ele>
        <time>2021-12-12T11:40:15Z</time>
      </trkpt>
      <trkpt lat="45.31743" lon="6.03312">
        <ele>1161</ele>
        <time>2021-12-12T11:40:17Z</time>
      </trkpt>
      <trkpt lat="45.31751" lon="6.033">
        <ele>1161</ele>
        <time>2021-12-12T11:40:19Z</time>
      </trkpt>
      <trkpt lat="45.31763" lon="6.03288">
        <ele>1161</ele>
        <time>2021-12-12T11:40:21Z</time>
      </trkpt>
      <trkpt lat="45.31774" lon="6.03282">
        <ele>1142</ele>
        <time>2021-12-12T11:40:23Z</time>
      </trkpt>
      <trkpt lat="45.31783" lon="6.03274">
        <ele>1142</ele>
        <time>2021-12-12T11:40:25Z</time>
      </trkpt>
      <trkpt lat="45.31783" lon="6.03271">
        <ele>1129</ele>
        <time>2021-12-12T11:40:38Z</time>
      </trkpt>
      <trkpt lat="45.31784" lon="6.03269">
        <ele>1129</ele>
        <time>2021-12-12T11:40:40Z</time>
      </trkpt>
      <trkpt lat="45.31786" lon="6.03267">
        <ele>1131</ele>
        <time>2021-12-12T11:40:45Z</time>
      </trkpt>
      <trkpt lat="45.31788" lon="6.03269">
        <ele>1131</ele>
        <time>2021-12-12T11:40:49Z</time>
      </trkpt>
      <trkpt lat="45.3179" lon="6.03269">
        <ele>1129</ele>
        <time>2021-12-12T11:41:06Z</time>
      </trkpt>
      <trkpt lat="45.31788" lon="6.03269">
        <ele>1129</ele>
        <time>2021-12-12T11:41:14Z</time>
      </trkpt>
      <trkpt lat="45.3179" lon="6.03269">
        <ele>1129</ele>
        <time>2021-12-12T11:41:27Z</time>
      </trkpt>
      <trkpt lat="45.31788" lon="6.03268">
        <ele>1129</ele>
        <time>2021-12-12T11:41:41Z</time>
      </trkpt>
      <trkpt lat="45.31786" lon="6.03269">
        <ele>1128</ele>
        <time>2021-12-12T11:41:46Z</time>
      </trkpt>
      <trkpt lat="45.31786" lon="6.03263">
        <ele>1127</ele>
        <time>2021-12-12T11:42:22Z</time>
      </trkpt>
      <trkpt lat="45.31789" lon="6.0326">
        <ele>1127</ele>
        <time>2021-12-12T11:42:23Z</time>
      </trkpt>
      <trkpt lat="45.31801" lon="6.03256">
        <ele>1127</ele>
        <time>2021-12-12T11:42:26Z</time>
      </trkpt>
      <trkpt lat="45.31809" lon="6.03252">
        <ele>1119</ele>
        <time>2021-12-12T11:42:33Z</time>
      </trkpt>
      <trkpt lat="45.31811" lon="6.03252">
        <ele>1119</ele>
        <time>2021-12-12T11:42:38Z</time>
      </trkpt>
      <trkpt lat="45.31813" lon="6.03251">
        <ele>1119</ele>
        <time>2021-12-12T11:42:46Z</time>
      </trkpt>
      <trkpt lat="45.3181" lon="6.0325">
        <ele>1119</ele>
        <time>2021-12-12T11:42:57Z</time>
      </trkpt>
      <trkpt lat="45.31808" lon="6.03249">
        <ele>1119</ele>
        <time>2021-12-12T11:42:59Z</time>
      </trkpt>
      <trkpt lat="45.31808" lon="6.03246">
        <ele>1119</ele>
        <time>2021-12-12T11:43:01Z</time>
      </trkpt>
      <trkpt lat="45.31808" lon="6.03242">
        <ele>1119</ele>
        <time>2021-12-12T11:43:02Z</time>
      </trkpt>
      <trkpt lat="45.3181" lon="6.03238">
        <ele>1117</ele>
        <time>2021-12-12T11:43:08Z</time>
      </trkpt>
      <trkpt lat="45.3181" lon="6.03235">
        <ele>1117</ele>
        <time>2021-12-12T11:43:14Z</time>
      </trkpt>
      <trkpt lat="45.3181" lon="6.03232">
        <ele>1116</ele>
        <time>2021-12-12T11:43:58Z</time>
      </trkpt>
      <trkpt lat="45.31808" lon="6.03234">
        <ele>1117</ele>
        <time>2021-12-12T11:44:47Z</time>
      </trkpt>
      <trkpt lat="45.31808" lon="6.03237">
        <ele>1117</ele>
        <time>2021-12-12T11:45:03Z</time>
      </trkpt>
      <trkpt lat="45.3181" lon="6.03238">
        <ele>1117</ele>
        <time>2021-12-12T11:45:07Z</time>
      </trkpt>
      <trkpt lat="45.31813" lon="6.03238">
        <ele>1117</ele>
        <time>2021-12-12T11:45:09Z</time>
      </trkpt>
      <trkpt lat="45.31814" lon="6.03239">
        <ele>1117</ele>
        <time>2021-12-12T11:45:11Z</time>
      </trkpt>
      <trkpt lat="45.31816" lon="6.03238">
        <ele>1116</ele>
        <time>2021-12-12T11:45:15Z</time>
      </trkpt>
      <trkpt lat="45.31818" lon="6.03237">
        <ele>1116</ele>
        <time>2021-12-12T11:45:28Z</time>
      </trkpt>
      <trkpt lat="45.31821" lon="6.03239">
        <ele>1116</ele>
        <time>2021-12-12T11:45:31Z</time>
      </trkpt>
      <trkpt lat="45.31823" lon="6.03239">
        <ele>1115</ele>
        <time>2021-12-12T11:45:34Z</time>
      </trkpt>
      <trkpt lat="45.31825" lon="6.0324">
        <ele>1115</ele>
        <time>2021-12-12T11:45:55Z</time>
      </trkpt>
      <trkpt lat="45.31827" lon="6.03241">
        <ele>1114</ele>
        <time>2021-12-12T11:46:09Z</time>
      </trkpt>
      <trkpt lat="45.31829" lon="6.03241">
        <ele>1114</ele>
        <time>2021-12-12T11:46:12Z</time>
      </trkpt>
      <trkpt lat="45.31831" lon="6.03241">
        <ele>1114</ele>
        <time>2021-12-12T11:46:13Z</time>
      </trkpt>
      <trkpt lat="45.31833" lon="6.03239">
        <ele>1114</ele>
        <time>2021-12-12T11:46:14Z</time>
      </trkpt>
      <trkpt lat="45.31835" lon="6.03238">
        <ele>1112</ele>
        <time>2021-12-12T11:46:52Z</time>
      </trkpt>
      <trkpt lat="45.31835" lon="6.03236">
        <ele>1113</ele>
        <time>2021-12-12T11:47:10Z</time>
      </trkpt>
      <trkpt lat="45.31837" lon="6.03232">
        <ele>1113</ele>
        <time>2021-12-12T11:47:11Z</time>
      </trkpt>
      <trkpt lat="45.31839" lon="6.03228">
        <ele>1113</ele>
        <time>2021-12-12T11:47:12Z</time>
      </trkpt>
      <trkpt lat="45.3184" lon="6.03224">
        <ele>1113</ele>
        <time>2021-12-12T11:47:13Z</time>
      </trkpt>
      <trkpt lat="45.31842" lon="6.0322">
        <ele>1113</ele>
        <time>2021-12-12T11:47:14Z</time>
      </trkpt>
      <trkpt lat="45.31844" lon="6.03216">
        <ele>1113</ele>
        <time>2021-12-12T11:47:15Z</time>
      </trkpt>
      <trkpt lat="45.31846" lon="6.03211">
        <ele>1113</ele>
        <time>2021-12-12T11:47:16Z</time>
      </trkpt>
      <trkpt lat="45.31848" lon="6.03207">
        <ele>1113</ele>
        <time>2021-12-12T11:47:17Z</time>
      </trkpt>
      <trkpt lat="45.3185" lon="6.03202">
        <ele>1113</ele>
        <time>2021-12-12T11:47:18Z</time>
      </trkpt>
      <trkpt lat="45.31852" lon="6.03189">
        <ele>1113</ele>
        <time>2021-12-12T11:47:20Z</time>
      </trkpt>
      <trkpt lat="45.31855" lon="6.03174">
        <ele>1101</ele>
        <time>2021-12-12T11:47:22Z</time>
      </trkpt>
      <trkpt lat="45.31862" lon="6.03158">
        <ele>1101</ele>
        <time>2021-12-12T11:47:25Z</time>
      </trkpt>
      <trkpt lat="45.31868" lon="6.03145">
        <ele>1101</ele>
        <time>2021-12-12T11:47:29Z</time>
      </trkpt>
      <trkpt lat="45.31864" lon="6.03133">
        <ele>1091</ele>
        <time>2021-12-12T11:47:33Z</time>
      </trkpt>
      <trkpt lat="45.31863" lon="6.0313">
        <ele>1091</ele>
        <time>2021-12-12T11:47:34Z</time>
      </trkpt>
      <trkpt lat="45.3186" lon="6.03129">
        <ele>1091</ele>
        <time>2021-12-12T11:47:36Z</time>
      </trkpt>
      <trkpt lat="45.31858" lon="6.03126">
        <ele>1091</ele>
        <time>2021-12-12T11:47:38Z</time>
      </trkpt>
      <trkpt lat="45.31856" lon="6.03125">
        <ele>1091</ele>
        <time>2021-12-12T11:47:41Z</time>
      </trkpt>
      <trkpt lat="45.31853" lon="6.03123">
        <ele>1085</ele>
        <time>2021-12-12T11:47:44Z</time>
      </trkpt>
      <trkpt lat="45.31851" lon="6.03121">
        <ele>1085</ele>
        <time>2021-12-12T11:47:45Z</time>
      </trkpt>
      <trkpt lat="45.31849" lon="6.03119">
        <ele>1085</ele>
        <time>2021-12-12T11:47:46Z</time>
      </trkpt>
      <trkpt lat="45.31848" lon="6.03116">
        <ele>1085</ele>
        <time>2021-12-12T11:47:47Z</time>
      </trkpt>
      <trkpt lat="45.31846" lon="6.03103">
        <ele>1085</ele>
        <time>2021-12-12T11:47:50Z</time>
      </trkpt>
      <trkpt lat="45.31846" lon="6.03088">
        <ele>1076</ele>
        <time>2021-12-12T11:47:52Z</time>
      </trkpt>
      <trkpt lat="45.3185" lon="6.03074">
        <ele>1076</ele>
        <time>2021-12-12T11:47:55Z</time>
      </trkpt>
      <trkpt lat="45.3185" lon="6.03067">
        <ele>1076</ele>
        <time>2021-12-12T11:48:01Z</time>
      </trkpt>
      <trkpt lat="45.31851" lon="6.03064">
        <ele>1070</ele>
        <time>2021-12-12T11:48:03Z</time>
      </trkpt>
      <trkpt lat="45.31851" lon="6.03061">
        <ele>1070</ele>
        <time>2021-12-12T11:48:06Z</time>
      </trkpt>
      <trkpt lat="45.31851" lon="6.03058">
        <ele>1070</ele>
        <time>2021-12-12T11:48:08Z</time>
      </trkpt>
      <trkpt lat="45.31852" lon="6.03054">
        <ele>1070</ele>
        <time>2021-12-12T11:48:10Z</time>
      </trkpt>
      <trkpt lat="45.31854" lon="6.0305">
        <ele>1068</ele>
        <time>2021-12-12T11:48:12Z</time>
      </trkpt>
      <trkpt lat="45.31855" lon="6.03047">
        <ele>1068</ele>
        <time>2021-12-12T11:48:14Z</time>
      </trkpt>
      <trkpt lat="45.31856" lon="6.03049">
        <ele>1068</ele>
        <time>2021-12-12T11:48:16Z</time>
      </trkpt>
      <trkpt lat="45.3186" lon="6.0305">
        <ele>1068</ele>
        <time>2021-12-12T11:48:19Z</time>
      </trkpt>
      <trkpt lat="45.31862" lon="6.0305">
        <ele>1065</ele>
        <time>2021-12-12T11:48:24Z</time>
      </trkpt>
      <trkpt lat="45.31864" lon="6.03048">
        <ele>1063</ele>
        <time>2021-12-12T11:48:32Z</time>
      </trkpt>
      <trkpt lat="45.31865" lon="6.03046">
        <ele>1063</ele>
        <time>2021-12-12T11:48:35Z</time>
      </trkpt>
      <trkpt lat="45.31868" lon="6.03034">
        <ele>1063</ele>
        <time>2021-12-12T11:48:41Z</time>
      </trkpt>
      <trkpt lat="45.31873" lon="6.03023">
        <ele>1058</ele>
        <time>2021-12-12T11:48:46Z</time>
      </trkpt>
      <trkpt lat="45.31871" lon="6.03025">
        <ele>1058</ele>
        <time>2021-12-12T11:48:50Z</time>
      </trkpt>
      <trkpt lat="45.31873" lon="6.03024">
        <ele>1052</ele>
        <time>2021-12-12T11:48:53Z</time>
      </trkpt>
      <trkpt lat="45.31882" lon="6.03018">
        <ele>1052</ele>
        <time>2021-12-12T11:48:56Z</time>
      </trkpt>
      <trkpt lat="45.31889" lon="6.0301">
        <ele>1052</ele>
        <time>2021-12-12T11:49:00Z</time>
      </trkpt>
      <trkpt lat="45.31895" lon="6.03003">
        <ele>1046</ele>
        <time>2021-12-12T11:49:07Z</time>
      </trkpt>
      <trkpt lat="45.31893" lon="6.03001">
        <ele>1046</ele>
        <time>2021-12-12T11:49:11Z</time>
      </trkpt>
      <trkpt lat="45.31893" lon="6.02998">
        <ele>1045</ele>
        <time>2021-12-12T11:49:49Z</time>
      </trkpt>
      <trkpt lat="45.31893" lon="6.03001">
        <ele>1045</ele>
        <time>2021-12-12T11:50:14Z</time>
      </trkpt>
      <trkpt lat="45.31893" lon="6.03004">
        <ele>1046</ele>
        <time>2021-12-12T11:51:22Z</time>
      </trkpt>
      <trkpt lat="45.31896" lon="6.03">
        <ele>1046</ele>
        <time>2021-12-12T11:51:39Z</time>
      </trkpt>
      <trkpt lat="45.31899" lon="6.02996">
        <ele>1046</ele>
        <time>2021-12-12T11:51:40Z</time>
      </trkpt>
      <trkpt lat="45.31902" lon="6.02991">
        <ele>1046</ele>
        <time>2021-12-12T11:51:41Z</time>
      </trkpt>
      <trkpt lat="45.3191" lon="6.02975">
        <ele>1042</ele>
        <time>2021-12-12T11:51:44Z</time>
      </trkpt>
      <trkpt lat="45.31914" lon="6.02962">
        <ele>1042</ele>
        <time>2021-12-12T11:51:46Z</time>
      </trkpt>
      <trkpt lat="45.31918" lon="6.0295">
        <ele>1042</ele>
        <time>2021-12-12T11:51:48Z</time>
      </trkpt>
      <trkpt lat="45.31926" lon="6.02936">
        <ele>1042</ele>
        <time>2021-12-12T11:51:51Z</time>
      </trkpt>
      <trkpt lat="45.31934" lon="6.02921">
        <ele>1028</ele>
        <time>2021-12-12T11:51:54Z</time>
      </trkpt>
      <trkpt lat="45.3194" lon="6.0291">
        <ele>1028</ele>
        <time>2021-12-12T11:51:57Z</time>
      </trkpt>
      <trkpt lat="45.31935" lon="6.02909">
        <ele>1021</ele>
        <time>2021-12-12T11:52:09Z</time>
      </trkpt>
      <trkpt lat="45.31936" lon="6.02906">
        <ele>1020</ele>
        <time>2021-12-12T11:52:23Z</time>
      </trkpt>
      <trkpt lat="45.31938" lon="6.02907">
        <ele>1022</ele>
        <time>2021-12-12T11:53:05Z</time>
      </trkpt>
      <trkpt lat="45.3194" lon="6.02908">
        <ele>1022</ele>
        <time>2021-12-12T11:53:09Z</time>
      </trkpt>
      <trkpt lat="45.31938" lon="6.02909">
        <ele>1022</ele>
        <time>2021-12-12T11:53:15Z</time>
      </trkpt>
      <trkpt lat="45.31935" lon="6.02908">
        <ele>1022</ele>
        <time>2021-12-12T11:53:20Z</time>
      </trkpt>
      <trkpt lat="45.31934" lon="6.0291">
        <ele>1024</ele>
        <time>2021-12-12T11:54:16Z</time>
      </trkpt>
      <trkpt lat="45.31935" lon="6.02908">
        <ele>1024</ele>
        <time>2021-12-12T11:54:34Z</time>
      </trkpt>
      <trkpt lat="45.31935" lon="6.02905">
        <ele>1024</ele>
        <time>2021-12-12T11:54:38Z</time>
      </trkpt>
      <trkpt lat="45.31937" lon="6.02904">
        <ele>1024</ele>
        <time>2021-12-12T11:54:40Z</time>
      </trkpt>
      <trkpt lat="45.31939" lon="6.02902">
        <ele>1023</ele>
        <time>2021-12-12T11:54:43Z</time>
      </trkpt>
      <trkpt lat="45.31939" lon="6.02899">
        <ele>1023</ele>
        <time>2021-12-12T11:54:45Z</time>
      </trkpt>
      <trkpt lat="45.3194" lon="6.02896">
        <ele>1023</ele>
        <time>2021-12-12T11:54:47Z</time>
      </trkpt>
      <trkpt lat="45.31942" lon="6.02893">
        <ele>1023</ele>
        <time>2021-12-12T11:54:49Z</time>
      </trkpt>
      <trkpt lat="45.31943" lon="6.0289">
        <ele>1023</ele>
        <time>2021-12-12T11:54:51Z</time>
      </trkpt>
      <trkpt lat="45.31946" lon="6.02887">
        <ele>1021</ele>
        <time>2021-12-12T11:54:53Z</time>
      </trkpt>
      <trkpt lat="45.31948" lon="6.02884">
        <ele>1021</ele>
        <time>2021-12-12T11:54:55Z</time>
      </trkpt>
      <trkpt lat="45.31949" lon="6.02879">
        <ele>1021</ele>
        <time>2021-12-12T11:54:57Z</time>
      </trkpt>
      <trkpt lat="45.3195" lon="6.02876">
        <ele>1021</ele>
        <time>2021-12-12T11:54:58Z</time>
      </trkpt>
      <trkpt lat="45.31951" lon="6.02874">
        <ele>1021</ele>
        <time>2021-12-12T11:54:59Z</time>
      </trkpt>
      <trkpt lat="45.31951" lon="6.0287">
        <ele>1021</ele>
        <time>2021-12-12T11:55:01Z</time>
      </trkpt>
      <trkpt lat="45.31951" lon="6.02867">
        <ele>1013</ele>
        <time>2021-12-12T11:55:03Z</time>
      </trkpt>
      <trkpt lat="45.31952" lon="6.02864">
        <ele>1013</ele>
        <time>2021-12-12T11:55:04Z</time>
      </trkpt>
      <trkpt lat="45.31953" lon="6.02862">
        <ele>1013</ele>
        <time>2021-12-12T11:55:05Z</time>
      </trkpt>
      <trkpt lat="45.31954" lon="6.02859">
        <ele>1013</ele>
        <time>2021-12-12T11:55:08Z</time>
      </trkpt>
      <trkpt lat="45.31955" lon="6.02855">
        <ele>1010</ele>
        <time>2021-12-12T11:55:12Z</time>
      </trkpt>
      <trkpt lat="45.31955" lon="6.02851">
        <ele>1010</ele>
        <time>2021-12-12T11:55:14Z</time>
      </trkpt>
      <trkpt lat="45.31956" lon="6.02849">
        <ele>1010</ele>
        <time>2021-12-12T11:55:15Z</time>
      </trkpt>
      <trkpt lat="45.31957" lon="6.02842">
        <ele>1010</ele>
        <time>2021-12-12T11:55:17Z</time>
      </trkpt>
      <trkpt lat="45.31958" lon="6.02839">
        <ele>1010</ele>
        <time>2021-12-12T11:55:19Z</time>
      </trkpt>
      <trkpt lat="45.31964" lon="6.02827">
        <ele>1004</ele>
        <time>2021-12-12T11:55:24Z</time>
      </trkpt>
      <trkpt lat="45.31962" lon="6.0282">
        <ele>1004</ele>
        <time>2021-12-12T11:55:31Z</time>
      </trkpt>
      <trkpt lat="45.3196" lon="6.02818">
        <ele>1000</ele>
        <time>2021-12-12T11:55:35Z</time>
      </trkpt>
      <trkpt lat="45.31958" lon="6.02816">
        <ele>1000</ele>
        <time>2021-12-12T11:55:38Z</time>
      </trkpt>
      <trkpt lat="45.3196" lon="6.02812">
        <ele>1000</ele>
        <time>2021-12-12T11:55:40Z</time>
      </trkpt>
      <trkpt lat="45.3197" lon="6.02807">
        <ele>998</ele>
        <time>2021-12-12T11:55:43Z</time>
      </trkpt>
      <trkpt lat="45.31971" lon="6.028">
        <ele>998</ele>
        <time>2021-12-12T11:55:50Z</time>
      </trkpt>
      <trkpt lat="45.31973" lon="6.02797">
        <ele>995</ele>
        <time>2021-12-12T11:55:57Z</time>
      </trkpt>
      <trkpt lat="45.31975" lon="6.02795">
        <ele>995</ele>
        <time>2021-12-12T11:55:58Z</time>
      </trkpt>
      <trkpt lat="45.31977" lon="6.02795">
        <ele>995</ele>
        <time>2021-12-12T11:55:59Z</time>
      </trkpt>
      <trkpt lat="45.31979" lon="6.02794">
        <ele>995</ele>
        <time>2021-12-12T11:56:00Z</time>
      </trkpt>
      <trkpt lat="45.31982" lon="6.02793">
        <ele>995</ele>
        <time>2021-12-12T11:56:01Z</time>
      </trkpt>
      <trkpt lat="45.31992" lon="6.02788">
        <ele>991</ele>
        <time>2021-12-12T11:56:03Z</time>
      </trkpt>
      <trkpt lat="45.32002" lon="6.02785">
        <ele>991</ele>
        <time>2021-12-12T11:56:06Z</time>
      </trkpt>
      <trkpt lat="45.32013" lon="6.02782">
        <ele>991</ele>
        <time>2021-12-12T11:56:09Z</time>
      </trkpt>
      <trkpt lat="45.32022" lon="6.02779">
        <ele>983</ele>
        <time>2021-12-12T11:56:13Z</time>
      </trkpt>
      <trkpt lat="45.32024" lon="6.02778">
        <ele>983</ele>
        <time>2021-12-12T11:56:14Z</time>
      </trkpt>
      <trkpt lat="45.32026" lon="6.02778">
        <ele>983</ele>
        <time>2021-12-12T11:56:16Z</time>
      </trkpt>
      <trkpt lat="45.32029" lon="6.02778">
        <ele>983</ele>
        <time>2021-12-12T11:56:18Z</time>
      </trkpt>
      <trkpt lat="45.32027" lon="6.02779">
        <ele>983</ele>
        <time>2021-12-12T11:56:19Z</time>
      </trkpt>
      <trkpt lat="45.32025" lon="6.0278">
        <ele>979</ele>
        <time>2021-12-12T11:56:28Z</time>
      </trkpt>
      <trkpt lat="45.32023" lon="6.02782">
        <ele>979</ele>
        <time>2021-12-12T11:56:36Z</time>
      </trkpt>
      <trkpt lat="45.32021" lon="6.02782">
        <ele>979</ele>
        <time>2021-12-12T11:57:14Z</time>
      </trkpt>
      <trkpt lat="45.32019" lon="6.02782">
        <ele>980</ele>
        <time>2021-12-12T11:57:35Z</time>
      </trkpt>
      <trkpt lat="45.32018" lon="6.0278">
        <ele>980</ele>
        <time>2021-12-12T11:57:43Z</time>
      </trkpt>
      <trkpt lat="45.32019" lon="6.02775">
        <ele>979</ele>
        <time>2021-12-12T11:57:56Z</time>
      </trkpt>
      <trkpt lat="45.32019" lon="6.0277">
        <ele>979</ele>
        <time>2021-12-12T11:57:57Z</time>
      </trkpt>
      <trkpt lat="45.32018" lon="6.02766">
        <ele>979</ele>
        <time>2021-12-12T11:57:58Z</time>
      </trkpt>
      <trkpt lat="45.32016" lon="6.02761">
        <ele>979</ele>
        <time>2021-12-12T11:57:59Z</time>
      </trkpt>
      <trkpt lat="45.32015" lon="6.02756">
        <ele>979</ele>
        <time>2021-12-12T11:58:00Z</time>
      </trkpt>
      <trkpt lat="45.32013" lon="6.02751">
        <ele>979</ele>
        <time>2021-12-12T11:58:01Z</time>
      </trkpt>
      <trkpt lat="45.32011" lon="6.02746">
        <ele>975</ele>
        <time>2021-12-12T11:58:02Z</time>
      </trkpt>
      <trkpt lat="45.32009" lon="6.02742">
        <ele>975</ele>
        <time>2021-12-12T11:58:03Z</time>
      </trkpt>
      <trkpt lat="45.32008" lon="6.02736">
        <ele>975</ele>
        <time>2021-12-12T11:58:04Z</time>
      </trkpt>
      <trkpt lat="45.32009" lon="6.02728">
        <ele>975</ele>
        <time>2021-12-12T11:58:05Z</time>
      </trkpt>
      <trkpt lat="45.3201" lon="6.02719">
        <ele>975</ele>
        <time>2021-12-12T11:58:06Z</time>
      </trkpt>
      <trkpt lat="45.32011" lon="6.0271">
        <ele>975</ele>
        <time>2021-12-12T11:58:07Z</time>
      </trkpt>
      <trkpt lat="45.32011" lon="6.02702">
        <ele>975</ele>
        <time>2021-12-12T11:58:08Z</time>
      </trkpt>
      <trkpt lat="45.32009" lon="6.02694">
        <ele>975</ele>
        <time>2021-12-12T11:58:09Z</time>
      </trkpt>
      <trkpt lat="45.32007" lon="6.02687">
        <ele>975</ele>
        <time>2021-12-12T11:58:10Z</time>
      </trkpt>
      <trkpt lat="45.32005" lon="6.02681">
        <ele>975</ele>
        <time>2021-12-12T11:58:11Z</time>
      </trkpt>
      <trkpt lat="45.32003" lon="6.02674">
        <ele>965</ele>
        <time>2021-12-12T11:58:12Z</time>
      </trkpt>
      <trkpt lat="45.32" lon="6.02668">
        <ele>965</ele>
        <time>2021-12-12T11:58:13Z</time>
      </trkpt>
      <trkpt lat="45.31998" lon="6.02662">
        <ele>965</ele>
        <time>2021-12-12T11:58:14Z</time>
      </trkpt>
      <trkpt lat="45.31996" lon="6.02656">
        <ele>965</ele>
        <time>2021-12-12T11:58:15Z</time>
      </trkpt>
      <trkpt lat="45.31994" lon="6.0265">
        <ele>965</ele>
        <time>2021-12-12T11:58:16Z</time>
      </trkpt>
      <trkpt lat="45.31993" lon="6.02644">
        <ele>965</ele>
        <time>2021-12-12T11:58:17Z</time>
      </trkpt>
      <trkpt lat="45.31992" lon="6.02638">
        <ele>965</ele>
        <time>2021-12-12T11:58:18Z</time>
      </trkpt>
      <trkpt lat="45.31991" lon="6.02633">
        <ele>965</ele>
        <time>2021-12-12T11:58:19Z</time>
      </trkpt>
      <trkpt lat="45.31989" lon="6.02628">
        <ele>965</ele>
        <time>2021-12-12T11:58:20Z</time>
      </trkpt>
      <trkpt lat="45.31988" lon="6.02623">
        <ele>965</ele>
        <time>2021-12-12T11:58:21Z</time>
      </trkpt>
      <trkpt lat="45.31987" lon="6.02618">
        <ele>958</ele>
        <time>2021-12-12T11:58:22Z</time>
      </trkpt>
      <trkpt lat="45.31986" lon="6.02612">
        <ele>958</ele>
        <time>2021-12-12T11:58:23Z</time>
      </trkpt>
      <trkpt lat="45.31986" lon="6.02607">
        <ele>958</ele>
        <time>2021-12-12T11:58:24Z</time>
      </trkpt>
      <trkpt lat="45.31985" lon="6.026">
        <ele>958</ele>
        <time>2021-12-12T11:58:25Z</time>
      </trkpt>
      <trkpt lat="45.31985" lon="6.02594">
        <ele>958</ele>
        <time>2021-12-12T11:58:26Z</time>
      </trkpt>
      <trkpt lat="45.31984" lon="6.02587">
        <ele>958</ele>
        <time>2021-12-12T11:58:27Z</time>
      </trkpt>
      <trkpt lat="45.31984" lon="6.0258">
        <ele>958</ele>
        <time>2021-12-12T11:58:28Z</time>
      </trkpt>
      <trkpt lat="45.31983" lon="6.02573">
        <ele>958</ele>
        <time>2021-12-12T11:58:29Z</time>
      </trkpt>
      <trkpt lat="45.31982" lon="6.02566">
        <ele>958</ele>
        <time>2021-12-12T11:58:30Z</time>
      </trkpt>
      <trkpt lat="45.31981" lon="6.02559">
        <ele>958</ele>
        <time>2021-12-12T11:58:31Z</time>
      </trkpt>
      <trkpt lat="45.3198" lon="6.02552">
        <ele>958</ele>
        <time>2021-12-12T11:58:32Z</time>
      </trkpt>
      <trkpt lat="45.3198" lon="6.02546">
        <ele>949</ele>
        <time>2021-12-12T11:58:33Z</time>
      </trkpt>
      <trkpt lat="45.31979" lon="6.0254">
        <ele>949</ele>
        <time>2021-12-12T11:58:34Z</time>
      </trkpt>
      <trkpt lat="45.31978" lon="6.02534">
        <ele>949</ele>
        <time>2021-12-12T11:58:35Z</time>
      </trkpt>
      <trkpt lat="45.31978" lon="6.02529">
        <ele>949</ele>
        <time>2021-12-12T11:58:36Z</time>
      </trkpt>
      <trkpt lat="45.31978" lon="6.02524">
        <ele>949</ele>
        <time>2021-12-12T11:58:37Z</time>
      </trkpt>
      <trkpt lat="45.31977" lon="6.02519">
        <ele>949</ele>
        <time>2021-12-12T11:58:38Z</time>
      </trkpt>
      <trkpt lat="45.31977" lon="6.02514">
        <ele>949</ele>
        <time>2021-12-12T11:58:39Z</time>
      </trkpt>
      <trkpt lat="45.31976" lon="6.02509">
        <ele>949</ele>
        <time>2021-12-12T11:58:40Z</time>
      </trkpt>
      <trkpt lat="45.31975" lon="6.02503">
        <ele>949</ele>
        <time>2021-12-12T11:58:41Z</time>
      </trkpt>
      <trkpt lat="45.31974" lon="6.02497">
        <ele>941</ele>
        <time>2021-12-12T11:58:42Z</time>
      </trkpt>
      <trkpt lat="45.31974" lon="6.0249">
        <ele>941</ele>
        <time>2021-12-12T11:58:43Z</time>
      </trkpt>
      <trkpt lat="45.31975" lon="6.02483">
        <ele>941</ele>
        <time>2021-12-12T11:58:44Z</time>
      </trkpt>
      <trkpt lat="45.31976" lon="6.02476">
        <ele>941</ele>
        <time>2021-12-12T11:58:45Z</time>
      </trkpt>
      <trkpt lat="45.31978" lon="6.02469">
        <ele>941</ele>
        <time>2021-12-12T11:58:46Z</time>
      </trkpt>
      <trkpt lat="45.3198" lon="6.02461">
        <ele>941</ele>
        <time>2021-12-12T11:58:47Z</time>
      </trkpt>
      <trkpt lat="45.31982" lon="6.02453">
        <ele>941</ele>
        <time>2021-12-12T11:58:48Z</time>
      </trkpt>
      <trkpt lat="45.31983" lon="6.02446">
        <ele>941</ele>
        <time>2021-12-12T11:58:49Z</time>
      </trkpt>
      <trkpt lat="45.31985" lon="6.02441">
        <ele>941</ele>
        <time>2021-12-12T11:58:50Z</time>
      </trkpt>
      <trkpt lat="45.31986" lon="6.02439">
        <ele>941</ele>
        <time>2021-12-12T11:58:51Z</time>
      </trkpt>
      <trkpt lat="45.31987" lon="6.02435">
        <ele>931</ele>
        <time>2021-12-12T11:58:53Z</time>
      </trkpt>
      <trkpt lat="45.31987" lon="6.02432">
        <ele>931</ele>
        <time>2021-12-12T11:58:55Z</time>
      </trkpt>
      <trkpt lat="45.31986" lon="6.0243">
        <ele>931</ele>
        <time>2021-12-12T11:58:58Z</time>
      </trkpt>
      <trkpt lat="45.31987" lon="6.02427">
        <ele>928</ele>
        <time>2021-12-12T11:59:04Z</time>
      </trkpt>
      <trkpt lat="45.31987" lon="6.0243">
        <ele>928</ele>
        <time>2021-12-12T11:59:39Z</time>
      </trkpt>
      <trkpt lat="45.31988" lon="6.02432">
        <ele>928</ele>
        <time>2021-12-12T12:00:02Z</time>
      </trkpt>
      <trkpt lat="45.31987" lon="6.02434">
        <ele>926</ele>
        <time>2021-12-12T12:01:18Z</time>
      </trkpt>
      <trkpt lat="45.31986" lon="6.02431">
        <ele>927</ele>
        <time>2021-12-12T12:02:07Z</time>
      </trkpt>
      <trkpt lat="45.31988" lon="6.02431">
        <ele>927</ele>
        <time>2021-12-12T12:02:28Z</time>
      </trkpt>
      <trkpt lat="45.31989" lon="6.02434">
        <ele>927</ele>
        <time>2021-12-12T12:02:40Z</time>
      </trkpt>
      <trkpt lat="45.31987" lon="6.02433">
        <ele>929</ele>
        <time>2021-12-12T12:04:51Z</time>
      </trkpt>
      <trkpt lat="45.31986" lon="6.02435">
        <ele>929</ele>
        <time>2021-12-12T12:08:54Z</time>
      </trkpt>
      <trkpt lat="45.31984" lon="6.02435">
        <ele>930</ele>
        <time>2021-12-12T12:26:47Z</time>
      </trkpt>
      <trkpt lat="45.31986" lon="6.02435">
        <ele>930</ele>
        <time>2021-12-12T12:26:57Z</time>
      </trkpt>
      <trkpt lat="45.31986" lon="6.02438">
        <ele>930</ele>
        <time>2021-12-12T12:27:41Z</time>
      </trkpt>
      <trkpt lat="45.31984" lon="6.02437">
        <ele>930</ele>
        <time>2021-12-12T12:28:02Z</time>
      </trkpt>
      <trkpt lat="45.31985" lon="6.02433">
        <ele>930</ele>
        <time>2021-12-12T12:28:39Z</time>
      </trkpt>
      <trkpt lat="45.31987" lon="6.02431">
        <ele>930</ele>
        <time>2021-12-12T12:28:41Z</time>
      </trkpt>
      <trkpt lat="45.31989" lon="6.02429">
        <ele>930</ele>
        <time>2021-12-12T12:28:43Z</time>
      </trkpt>
      <trkpt lat="45.31991" lon="6.02427">
        <ele>930</ele>
        <time>2021-12-12T12:28:45Z</time>
      </trkpt>
      <trkpt lat="45.31993" lon="6.02425">
        <ele>930</ele>
        <time>2021-12-12T12:28:47Z</time>
      </trkpt>
      <trkpt lat="45.31995" lon="6.02422">
        <ele>930</ele>
        <time>2021-12-12T12:28:49Z</time>
      </trkpt>
      <trkpt lat="45.31997" lon="6.0242">
        <ele>930</ele>
        <time>2021-12-12T12:28:51Z</time>
      </trkpt>
      <trkpt lat="45.31999" lon="6.02417">
        <ele>930</ele>
        <time>2021-12-12T12:28:53Z</time>
      </trkpt>
      <trkpt lat="45.32002" lon="6.02416">
        <ele>930</ele>
        <time>2021-12-12T12:28:55Z</time>
      </trkpt>
      <trkpt lat="45.32004" lon="6.02414">
        <ele>930</ele>
        <time>2021-12-12T12:28:57Z</time>
      </trkpt>
      <trkpt lat="45.32006" lon="6.02412">
        <ele>930</ele>
        <time>2021-12-12T12:28:59Z</time>
      </trkpt>
      <trkpt lat="45.32008" lon="6.0241">
        <ele>930</ele>
        <time>2021-12-12T12:29:01Z</time>
      </trkpt>
      <trkpt lat="45.3201" lon="6.02408">
        <ele>930</ele>
        <time>2021-12-12T12:29:03Z</time>
      </trkpt>
      <trkpt lat="45.32011" lon="6.02406">
        <ele>930</ele>
        <time>2021-12-12T12:29:05Z</time>
      </trkpt>
      <trkpt lat="45.32013" lon="6.02404">
        <ele>930</ele>
        <time>2021-12-12T12:29:07Z</time>
      </trkpt>
      <trkpt lat="45.32016" lon="6.02402">
        <ele>930</ele>
        <time>2021-12-12T12:29:09Z</time>
      </trkpt>
      <trkpt lat="45.32018" lon="6.02402">
        <ele>930</ele>
        <time>2021-12-12T12:29:11Z</time>
      </trkpt>
      <trkpt lat="45.32021" lon="6.02402">
        <ele>929</ele>
        <time>2021-12-12T12:29:13Z</time>
      </trkpt>
      <trkpt lat="45.32023" lon="6.02402">
        <ele>929</ele>
        <time>2021-12-12T12:29:15Z</time>
      </trkpt>
      <trkpt lat="45.32026" lon="6.02402">
        <ele>929</ele>
        <time>2021-12-12T12:29:17Z</time>
      </trkpt>
      <trkpt lat="45.32028" lon="6.02401">
        <ele>929</ele>
        <time>2021-12-12T12:29:19Z</time>
      </trkpt>
      <trkpt lat="45.32031" lon="6.02401">
        <ele>929</ele>
        <time>2021-12-12T12:29:21Z</time>
      </trkpt>
      <trkpt lat="45.32034" lon="6.024">
        <ele>929</ele>
        <time>2021-12-12T12:29:23Z</time>
      </trkpt>
      <trkpt lat="45.32036" lon="6.02399">
        <ele>929</ele>
        <time>2021-12-12T12:29:25Z</time>
      </trkpt>
      <trkpt lat="45.32039" lon="6.02399">
        <ele>929</ele>
        <time>2021-12-12T12:29:27Z</time>
      </trkpt>
      <trkpt lat="45.32042" lon="6.02397">
        <ele>929</ele>
        <time>2021-12-12T12:29:29Z</time>
      </trkpt>
      <trkpt lat="45.32045" lon="6.02396">
        <ele>929</ele>
        <time>2021-12-12T12:29:31Z</time>
      </trkpt>
      <trkpt lat="45.32047" lon="6.02395">
        <ele>929</ele>
        <time>2021-12-12T12:29:33Z</time>
      </trkpt>
      <trkpt lat="45.3205" lon="6.02395">
        <ele>929</ele>
        <time>2021-12-12T12:29:35Z</time>
      </trkpt>
      <trkpt lat="45.32052" lon="6.02394">
        <ele>929</ele>
        <time>2021-12-12T12:29:37Z</time>
      </trkpt>
      <trkpt lat="45.32054" lon="6.02394">
        <ele>924</ele>
        <time>2021-12-12T12:29:51Z</time>
      </trkpt>
      <trkpt lat="45.32057" lon="6.02393">
        <ele>924</ele>
        <time>2021-12-12T12:29:54Z</time>
      </trkpt>
      <trkpt lat="45.32059" lon="6.02392">
        <ele>924</ele>
        <time>2021-12-12T12:29:56Z</time>
      </trkpt>
      <trkpt lat="45.32062" lon="6.02393">
        <ele>924</ele>
        <time>2021-12-12T12:29:58Z</time>
      </trkpt>
      <trkpt lat="45.32064" lon="6.02392">
        <ele>924</ele>
        <time>2021-12-12T12:30:00Z</time>
      </trkpt>
      <trkpt lat="45.32067" lon="6.02391">
        <ele>923</ele>
        <time>2021-12-12T12:30:02Z</time>
      </trkpt>
      <trkpt lat="45.3207" lon="6.02391">
        <ele>923</ele>
        <time>2021-12-12T12:30:04Z</time>
      </trkpt>
      <trkpt lat="45.32072" lon="6.02391">
        <ele>923</ele>
        <time>2021-12-12T12:30:06Z</time>
      </trkpt>
      <trkpt lat="45.32075" lon="6.02391">
        <ele>923</ele>
        <time>2021-12-12T12:30:08Z</time>
      </trkpt>
      <trkpt lat="45.32077" lon="6.02391">
        <ele>923</ele>
        <time>2021-12-12T12:30:10Z</time>
      </trkpt>
      <trkpt lat="45.3208" lon="6.02391">
        <ele>923</ele>
        <time>2021-12-12T12:30:12Z</time>
      </trkpt>
      <trkpt lat="45.32082" lon="6.0239">
        <ele>923</ele>
        <time>2021-12-12T12:30:14Z</time>
      </trkpt>
      <trkpt lat="45.32085" lon="6.02389">
        <ele>923</ele>
        <time>2021-12-12T12:30:16Z</time>
      </trkpt>
      <trkpt lat="45.32087" lon="6.02388">
        <ele>923</ele>
        <time>2021-12-12T12:30:18Z</time>
      </trkpt>
      <trkpt lat="45.32089" lon="6.02387">
        <ele>923</ele>
        <time>2021-12-12T12:30:20Z</time>
      </trkpt>
      <trkpt lat="45.32092" lon="6.02388">
        <ele>922</ele>
        <time>2021-12-12T12:30:22Z</time>
      </trkpt>
      <trkpt lat="45.32095" lon="6.02388">
        <ele>922</ele>
        <time>2021-12-12T12:30:24Z</time>
      </trkpt>
      <trkpt lat="45.32097" lon="6.02388">
        <ele>922</ele>
        <time>2021-12-12T12:30:26Z</time>
      </trkpt>
      <trkpt lat="45.321" lon="6.02388">
        <ele>922</ele>
        <time>2021-12-12T12:30:28Z</time>
      </trkpt>
      <trkpt lat="45.32103" lon="6.02389">
        <ele>922</ele>
        <time>2021-12-12T12:30:30Z</time>
      </trkpt>
      <trkpt lat="45.32106" lon="6.0239">
        <ele>921</ele>
        <time>2021-12-12T12:30:32Z</time>
      </trkpt>
      <trkpt lat="45.32109" lon="6.02391">
        <ele>921</ele>
        <time>2021-12-12T12:30:34Z</time>
      </trkpt>
      <trkpt lat="45.32111" lon="6.02393">
        <ele>921</ele>
        <time>2021-12-12T12:30:35Z</time>
      </trkpt>
      <trkpt lat="45.32114" lon="6.02396">
        <ele>921</ele>
        <time>2021-12-12T12:30:38Z</time>
      </trkpt>
      <trkpt lat="45.32117" lon="6.02397">
        <ele>921</ele>
        <time>2021-12-12T12:30:40Z</time>
      </trkpt>
      <trkpt lat="45.32119" lon="6.024">
        <ele>921</ele>
        <time>2021-12-12T12:30:41Z</time>
      </trkpt>
      <trkpt lat="45.32122" lon="6.02402">
        <ele>920</ele>
        <time>2021-12-12T12:30:44Z</time>
      </trkpt>
      <trkpt lat="45.32124" lon="6.02403">
        <ele>920</ele>
        <time>2021-12-12T12:30:46Z</time>
      </trkpt>
      <trkpt lat="45.32127" lon="6.02405">
        <ele>920</ele>
        <time>2021-12-12T12:30:48Z</time>
      </trkpt>
      <trkpt lat="45.32129" lon="6.02405">
        <ele>920</ele>
        <time>2021-12-12T12:30:50Z</time>
      </trkpt>
      <trkpt lat="45.32132" lon="6.02407">
        <ele>920</ele>
        <time>2021-12-12T12:30:52Z</time>
      </trkpt>
      <trkpt lat="45.32135" lon="6.02408">
        <ele>919</ele>
        <time>2021-12-12T12:30:53Z</time>
      </trkpt>
      <trkpt lat="45.32137" lon="6.02409">
        <ele>919</ele>
        <time>2021-12-12T12:30:55Z</time>
      </trkpt>
      <trkpt lat="45.3214" lon="6.0241">
        <ele>919</ele>
        <time>2021-12-12T12:30:57Z</time>
      </trkpt>
      <trkpt lat="45.32143" lon="6.0241">
        <ele>919</ele>
        <time>2021-12-12T12:30:59Z</time>
      </trkpt>
      <trkpt lat="45.32146" lon="6.02409">
        <ele>918</ele>
        <time>2021-12-12T12:31:02Z</time>
      </trkpt>
      <trkpt lat="45.32149" lon="6.02409">
        <ele>918</ele>
        <time>2021-12-12T12:31:04Z</time>
      </trkpt>
      <trkpt lat="45.32151" lon="6.02408">
        <ele>918</ele>
        <time>2021-12-12T12:31:06Z</time>
      </trkpt>
      <trkpt lat="45.32154" lon="6.02406">
        <ele>918</ele>
        <time>2021-12-12T12:31:08Z</time>
      </trkpt>
      <trkpt lat="45.32157" lon="6.02405">
        <ele>918</ele>
        <time>2021-12-12T12:31:10Z</time>
      </trkpt>
      <trkpt lat="45.3216" lon="6.02403">
        <ele>918</ele>
        <time>2021-12-12T12:31:12Z</time>
      </trkpt>
      <trkpt lat="45.32163" lon="6.02402">
        <ele>918</ele>
        <time>2021-12-12T12:31:14Z</time>
      </trkpt>
      <trkpt lat="45.32165" lon="6.024">
        <ele>918</ele>
        <time>2021-12-12T12:31:16Z</time>
      </trkpt>
      <trkpt lat="45.32168" lon="6.02398">
        <ele>918</ele>
        <time>2021-12-12T12:31:18Z</time>
      </trkpt>
      <trkpt lat="45.32171" lon="6.02397">
        <ele>918</ele>
        <time>2021-12-12T12:31:20Z</time>
      </trkpt>
      <trkpt lat="45.32174" lon="6.02396">
        <ele>916</ele>
        <time>2021-12-12T12:31:22Z</time>
      </trkpt>
      <trkpt lat="45.32177" lon="6.02395">
        <ele>916</ele>
        <time>2021-12-12T12:31:24Z</time>
      </trkpt>
      <trkpt lat="45.32179" lon="6.02393">
        <ele>916</ele>
        <time>2021-12-12T12:31:26Z</time>
      </trkpt>
      <trkpt lat="45.32182" lon="6.02392">
        <ele>916</ele>
        <time>2021-12-12T12:31:28Z</time>
      </trkpt>
      <trkpt lat="45.32185" lon="6.0239">
        <ele>916</ele>
        <time>2021-12-12T12:31:30Z</time>
      </trkpt>
      <trkpt lat="45.32187" lon="6.02388">
        <ele>915</ele>
        <time>2021-12-12T12:31:32Z</time>
      </trkpt>
      <trkpt lat="45.3219" lon="6.02387">
        <ele>915</ele>
        <time>2021-12-12T12:31:34Z</time>
      </trkpt>
      <trkpt lat="45.32193" lon="6.02385">
        <ele>915</ele>
        <time>2021-12-12T12:31:36Z</time>
      </trkpt>
      <trkpt lat="45.32195" lon="6.02383">
        <ele>915</ele>
        <time>2021-12-12T12:31:38Z</time>
      </trkpt>
      <trkpt lat="45.32198" lon="6.02382">
        <ele>915</ele>
        <time>2021-12-12T12:31:40Z</time>
      </trkpt>
      <trkpt lat="45.32201" lon="6.0238">
        <ele>915</ele>
        <time>2021-12-12T12:31:42Z</time>
      </trkpt>
      <trkpt lat="45.32203" lon="6.0238">
        <ele>913</ele>
        <time>2021-12-12T12:31:44Z</time>
      </trkpt>
      <trkpt lat="45.32206" lon="6.02379">
        <ele>913</ele>
        <time>2021-12-12T12:31:46Z</time>
      </trkpt>
      <trkpt lat="45.32209" lon="6.02378">
        <ele>913</ele>
        <time>2021-12-12T12:31:48Z</time>
      </trkpt>
      <trkpt lat="45.32211" lon="6.02377">
        <ele>913</ele>
        <time>2021-12-12T12:31:50Z</time>
      </trkpt>
      <trkpt lat="45.32214" lon="6.02376">
        <ele>912</ele>
        <time>2021-12-12T12:31:52Z</time>
      </trkpt>
      <trkpt lat="45.32217" lon="6.02376">
        <ele>912</ele>
        <time>2021-12-12T12:31:54Z</time>
      </trkpt>
      <trkpt lat="45.32219" lon="6.02376">
        <ele>912</ele>
        <time>2021-12-12T12:31:56Z</time>
      </trkpt>
      <trkpt lat="45.32222" lon="6.02375">
        <ele>912</ele>
        <time>2021-12-12T12:31:58Z</time>
      </trkpt>
      <trkpt lat="45.32225" lon="6.02375">
        <ele>912</ele>
        <time>2021-12-12T12:32:00Z</time>
      </trkpt>
      <trkpt lat="45.32227" lon="6.02374">
        <ele>910</ele>
        <time>2021-12-12T12:32:02Z</time>
      </trkpt>
      <trkpt lat="45.3223" lon="6.02374">
        <ele>910</ele>
        <time>2021-12-12T12:32:04Z</time>
      </trkpt>
      <trkpt lat="45.32233" lon="6.02374">
        <ele>910</ele>
        <time>2021-12-12T12:32:06Z</time>
      </trkpt>
      <trkpt lat="45.32236" lon="6.02374">
        <ele>910</ele>
        <time>2021-12-12T12:32:08Z</time>
      </trkpt>
      <trkpt lat="45.32239" lon="6.02373">
        <ele>910</ele>
        <time>2021-12-12T12:32:10Z</time>
      </trkpt>
      <trkpt lat="45.32241" lon="6.02373">
        <ele>910</ele>
        <time>2021-12-12T12:32:12Z</time>
      </trkpt>
      <trkpt lat="45.32244" lon="6.02374">
        <ele>910</ele>
        <time>2021-12-12T12:32:14Z</time>
      </trkpt>
      <trkpt lat="45.32247" lon="6.02374">
        <ele>910</ele>
        <time>2021-12-12T12:32:16Z</time>
      </trkpt>
      <trkpt lat="45.3225" lon="6.02374">
        <ele>910</ele>
        <time>2021-12-12T12:32:18Z</time>
      </trkpt>
      <trkpt lat="45.32253" lon="6.02375">
        <ele>910</ele>
        <time>2021-12-12T12:32:20Z</time>
      </trkpt>
      <trkpt lat="45.32256" lon="6.02375">
        <ele>909</ele>
        <time>2021-12-12T12:32:22Z</time>
      </trkpt>
      <trkpt lat="45.32259" lon="6.02376">
        <ele>909</ele>
        <time>2021-12-12T12:32:24Z</time>
      </trkpt>
      <trkpt lat="45.32262" lon="6.02376">
        <ele>909</ele>
        <time>2021-12-12T12:32:26Z</time>
      </trkpt>
      <trkpt lat="45.32265" lon="6.02376">
        <ele>909</ele>
        <time>2021-12-12T12:32:28Z</time>
      </trkpt>
      <trkpt lat="45.32268" lon="6.02376">
        <ele>909</ele>
        <time>2021-12-12T12:32:30Z</time>
      </trkpt>
      <trkpt lat="45.32271" lon="6.02376">
        <ele>907</ele>
        <time>2021-12-12T12:32:32Z</time>
      </trkpt>
      <trkpt lat="45.32273" lon="6.02375">
        <ele>907</ele>
        <time>2021-12-12T12:32:34Z</time>
      </trkpt>
      <trkpt lat="45.32276" lon="6.02375">
        <ele>907</ele>
        <time>2021-12-12T12:32:36Z</time>
      </trkpt>
      <trkpt lat="45.32278" lon="6.02375">
        <ele>907</ele>
        <time>2021-12-12T12:32:38Z</time>
      </trkpt>
      <trkpt lat="45.32281" lon="6.02375">
        <ele>907</ele>
        <time>2021-12-12T12:32:40Z</time>
      </trkpt>
      <trkpt lat="45.32283" lon="6.02375">
        <ele>906</ele>
        <time>2021-12-12T12:32:42Z</time>
      </trkpt>
      <trkpt lat="45.32286" lon="6.02374">
        <ele>906</ele>
        <time>2021-12-12T12:32:44Z</time>
      </trkpt>
      <trkpt lat="45.32289" lon="6.02374">
        <ele>906</ele>
        <time>2021-12-12T12:32:46Z</time>
      </trkpt>
      <trkpt lat="45.32291" lon="6.02374">
        <ele>906</ele>
        <time>2021-12-12T12:32:48Z</time>
      </trkpt>
      <trkpt lat="45.32294" lon="6.02374">
        <ele>906</ele>
        <time>2021-12-12T12:32:50Z</time>
      </trkpt>
      <trkpt lat="45.32297" lon="6.02374">
        <ele>903</ele>
        <time>2021-12-12T12:32:52Z</time>
      </trkpt>
      <trkpt lat="45.323" lon="6.02374">
        <ele>903</ele>
        <time>2021-12-12T12:32:54Z</time>
      </trkpt>
      <trkpt lat="45.32303" lon="6.02374">
        <ele>903</ele>
        <time>2021-12-12T12:32:56Z</time>
      </trkpt>
      <trkpt lat="45.32305" lon="6.02374">
        <ele>903</ele>
        <time>2021-12-12T12:32:58Z</time>
      </trkpt>
      <trkpt lat="45.32308" lon="6.02374">
        <ele>903</ele>
        <time>2021-12-12T12:33:00Z</time>
      </trkpt>
      <trkpt lat="45.32311" lon="6.02373">
        <ele>903</ele>
        <time>2021-12-12T12:33:02Z</time>
      </trkpt>
      <trkpt lat="45.32313" lon="6.02374">
        <ele>903</ele>
        <time>2021-12-12T12:33:04Z</time>
      </trkpt>
      <trkpt lat="45.32316" lon="6.02373">
        <ele>903</ele>
        <time>2021-12-12T12:33:06Z</time>
      </trkpt>
      <trkpt lat="45.32319" lon="6.02372">
        <ele>903</ele>
        <time>2021-12-12T12:33:08Z</time>
      </trkpt>
      <trkpt lat="45.32322" lon="6.02372">
        <ele>903</ele>
        <time>2021-12-12T12:33:10Z</time>
      </trkpt>
      <trkpt lat="45.32324" lon="6.02371">
        <ele>903</ele>
        <time>2021-12-12T12:33:12Z</time>
      </trkpt>
      <trkpt lat="45.32327" lon="6.0237">
        <ele>903</ele>
        <time>2021-12-12T12:33:14Z</time>
      </trkpt>
      <trkpt lat="45.3233" lon="6.0237">
        <ele>903</ele>
        <time>2021-12-12T12:33:16Z</time>
      </trkpt>
      <trkpt lat="45.32333" lon="6.02369">
        <ele>903</ele>
        <time>2021-12-12T12:33:18Z</time>
      </trkpt>
      <trkpt lat="45.32335" lon="6.02368">
        <ele>903</ele>
        <time>2021-12-12T12:33:20Z</time>
      </trkpt>
      <trkpt lat="45.32338" lon="6.02367">
        <ele>901</ele>
        <time>2021-12-12T12:33:22Z</time>
      </trkpt>
      <trkpt lat="45.32341" lon="6.02366">
        <ele>901</ele>
        <time>2021-12-12T12:33:24Z</time>
      </trkpt>
      <trkpt lat="45.32343" lon="6.02365">
        <ele>901</ele>
        <time>2021-12-12T12:33:26Z</time>
      </trkpt>
      <trkpt lat="45.32345" lon="6.02365">
        <ele>901</ele>
        <time>2021-12-12T12:33:28Z</time>
      </trkpt>
      <trkpt lat="45.32347" lon="6.02365">
        <ele>901</ele>
        <time>2021-12-12T12:33:30Z</time>
      </trkpt>
      <trkpt lat="45.32348" lon="6.02367">
        <ele>899</ele>
        <time>2021-12-12T12:34:19Z</time>
      </trkpt>
      <trkpt lat="45.3235" lon="6.02369">
        <ele>899</ele>
        <time>2021-12-12T12:34:49Z</time>
      </trkpt>
      <trkpt lat="45.32351" lon="6.02372">
        <ele>899</ele>
        <time>2021-12-12T12:34:52Z</time>
      </trkpt>
      <trkpt lat="45.32352" lon="6.02375">
        <ele>899</ele>
        <time>2021-12-12T12:34:55Z</time>
      </trkpt>
      <trkpt lat="45.32354" lon="6.02376">
        <ele>899</ele>
        <time>2021-12-12T12:34:58Z</time>
      </trkpt>
      <trkpt lat="45.32356" lon="6.02378">
        <ele>903</ele>
        <time>2021-12-12T12:35:02Z</time>
      </trkpt>
      <trkpt lat="45.32358" lon="6.02379">
        <ele>903</ele>
        <time>2021-12-12T12:35:06Z</time>
      </trkpt>
      <trkpt lat="45.32359" lon="6.02382">
        <ele>903</ele>
        <time>2021-12-12T12:35:09Z</time>
      </trkpt>
      <trkpt lat="45.32357" lon="6.0238">
        <ele>904</ele>
        <time>2021-12-12T12:36:01Z</time>
      </trkpt>
      <trkpt lat="45.32357" lon="6.02383">
        <ele>903</ele>
        <time>2021-12-12T12:36:53Z</time>
      </trkpt>
      <trkpt lat="45.32359" lon="6.02385">
        <ele>903</ele>
        <time>2021-12-12T12:36:58Z</time>
      </trkpt>
      <trkpt lat="45.3236" lon="6.02387">
        <ele>904</ele>
        <time>2021-12-12T12:37:03Z</time>
      </trkpt>
      <trkpt lat="45.3236" lon="6.0239">
        <ele>904</ele>
        <time>2021-12-12T12:37:16Z</time>
      </trkpt>
      <trkpt lat="45.32361" lon="6.02392">
        <ele>905</ele>
        <time>2021-12-12T12:37:23Z</time>
      </trkpt>
      <trkpt lat="45.32362" lon="6.02394">
        <ele>906</ele>
        <time>2021-12-12T12:37:54Z</time>
      </trkpt>
      <trkpt lat="45.32363" lon="6.02396">
        <ele>906</ele>
        <time>2021-12-12T12:39:55Z</time>
      </trkpt>
      <trkpt lat="45.32364" lon="6.02399">
        <ele>907</ele>
        <time>2021-12-12T12:40:24Z</time>
      </trkpt>
      <trkpt lat="45.32365" lon="6.02402">
        <ele>906</ele>
        <time>2021-12-12T12:40:37Z</time>
      </trkpt>
      <trkpt lat="45.32366" lon="6.02404">
        <ele>906</ele>
        <time>2021-12-12T12:40:40Z</time>
      </trkpt>
      <trkpt lat="45.32368" lon="6.02406">
        <ele>907</ele>
        <time>2021-12-12T12:40:43Z</time>
      </trkpt>
      <trkpt lat="45.32369" lon="6.02409">
        <ele>907</ele>
        <time>2021-12-12T12:40:46Z</time>
      </trkpt>
      <trkpt lat="45.32369" lon="6.02412">
        <ele>907</ele>
        <time>2021-12-12T12:40:49Z</time>
      </trkpt>
      <trkpt lat="45.32368" lon="6.02414">
        <ele>908</ele>
        <time>2021-12-12T12:40:52Z</time>
      </trkpt>
      <trkpt lat="45.32367" lon="6.02416">
        <ele>908</ele>
        <time>2021-12-12T12:40:54Z</time>
      </trkpt>
      <trkpt lat="45.32366" lon="6.02419">
        <ele>908</ele>
        <time>2021-12-12T12:40:58Z</time>
      </trkpt>
      <trkpt lat="45.32364" lon="6.02421">
        <ele>910</ele>
        <time>2021-12-12T12:41:03Z</time>
      </trkpt>
      <trkpt lat="45.32363" lon="6.02423">
        <ele>910</ele>
        <time>2021-12-12T12:41:06Z</time>
      </trkpt>
      <trkpt lat="45.32361" lon="6.02425">
        <ele>910</ele>
        <time>2021-12-12T12:41:10Z</time>
      </trkpt>
      <trkpt lat="45.3236" lon="6.02427">
        <ele>910</ele>
        <time>2021-12-12T12:41:13Z</time>
      </trkpt>
      <trkpt lat="45.32358" lon="6.02428">
        <ele>910</ele>
        <time>2021-12-12T12:41:16Z</time>
      </trkpt>
      <trkpt lat="45.32356" lon="6.02429">
        <ele>910</ele>
        <time>2021-12-12T12:41:19Z</time>
      </trkpt>
      <trkpt lat="45.32355" lon="6.02431">
        <ele>912</ele>
        <time>2021-12-12T12:41:22Z</time>
      </trkpt>
      <trkpt lat="45.32353" lon="6.02433">
        <ele>912</ele>
        <time>2021-12-12T12:41:26Z</time>
      </trkpt>
      <trkpt lat="45.32353" lon="6.02436">
        <ele>914</ele>
        <time>2021-12-12T12:41:33Z</time>
      </trkpt>
      <trkpt lat="45.32355" lon="6.02438">
        <ele>914</ele>
        <time>2021-12-12T12:41:37Z</time>
      </trkpt>
      <trkpt lat="45.32356" lon="6.0244">
        <ele>914</ele>
        <time>2021-12-12T12:41:40Z</time>
      </trkpt>
      <trkpt lat="45.32358" lon="6.02442">
        <ele>915</ele>
        <time>2021-12-12T12:41:44Z</time>
      </trkpt>
      <trkpt lat="45.32359" lon="6.02443">
        <ele>915</ele>
        <time>2021-12-12T12:41:47Z</time>
      </trkpt>
      <trkpt lat="45.32361" lon="6.02445">
        <ele>915</ele>
        <time>2021-12-12T12:41:51Z</time>
      </trkpt>
      <trkpt lat="45.32363" lon="6.02447">
        <ele>916</ele>
        <time>2021-12-12T12:41:55Z</time>
      </trkpt>
      <trkpt lat="45.32364" lon="6.02449">
        <ele>916</ele>
        <time>2021-12-12T12:41:59Z</time>
      </trkpt>
      <trkpt lat="45.32367" lon="6.02449">
        <ele>916</ele>
        <time>2021-12-12T12:42:04Z</time>
      </trkpt>
      <trkpt lat="45.32369" lon="6.02449">
        <ele>916</ele>
        <time>2021-12-12T12:42:07Z</time>
      </trkpt>
      <trkpt lat="45.3237" lon="6.02449">
        <ele>916</ele>
        <time>2021-12-12T12:42:10Z</time>
      </trkpt>
      <trkpt lat="45.32372" lon="6.02449">
        <ele>917</ele>
        <time>2021-12-12T12:42:41Z</time>
      </trkpt>
      <trkpt lat="45.32374" lon="6.02451">
        <ele>916</ele>
        <time>2021-12-12T12:42:44Z</time>
      </trkpt>
      <trkpt lat="45.32376" lon="6.02453">
        <ele>916</ele>
        <time>2021-12-12T12:42:47Z</time>
      </trkpt>
      <trkpt lat="45.32378" lon="6.02454">
        <ele>916</ele>
        <time>2021-12-12T12:42:50Z</time>
      </trkpt>
      <trkpt lat="45.32379" lon="6.02456">
        <ele>917</ele>
        <time>2021-12-12T12:42:53Z</time>
      </trkpt>
      <trkpt lat="45.32381" lon="6.02459">
        <ele>917</ele>
        <time>2021-12-12T12:42:56Z</time>
      </trkpt>
      <trkpt lat="45.32382" lon="6.02461">
        <ele>917</ele>
        <time>2021-12-12T12:42:59Z</time>
      </trkpt>
      <trkpt lat="45.32384" lon="6.02463">
        <ele>918</ele>
        <time>2021-12-12T12:43:02Z</time>
      </trkpt>
      <trkpt lat="45.32386" lon="6.02465">
        <ele>918</ele>
        <time>2021-12-12T12:43:05Z</time>
      </trkpt>
      <trkpt lat="45.32387" lon="6.02467">
        <ele>918</ele>
        <time>2021-12-12T12:43:08Z</time>
      </trkpt>
      <trkpt lat="45.32389" lon="6.0247">
        <ele>918</ele>
        <time>2021-12-12T12:43:11Z</time>
      </trkpt>
      <trkpt lat="45.3239" lon="6.02472">
        <ele>919</ele>
        <time>2021-12-12T12:43:14Z</time>
      </trkpt>
      <trkpt lat="45.32392" lon="6.02474">
        <ele>919</ele>
        <time>2021-12-12T12:43:17Z</time>
      </trkpt>
      <trkpt lat="45.32394" lon="6.02476">
        <ele>919</ele>
        <time>2021-12-12T12:43:20Z</time>
      </trkpt>
      <trkpt lat="45.32395" lon="6.02478">
        <ele>921</ele>
        <time>2021-12-12T12:43:23Z</time>
      </trkpt>
      <trkpt lat="45.32397" lon="6.0248">
        <ele>921</ele>
        <time>2021-12-12T12:43:26Z</time>
      </trkpt>
      <trkpt lat="45.32398" lon="6.02482">
        <ele>921</ele>
        <time>2021-12-12T12:43:29Z</time>
      </trkpt>
      <trkpt lat="45.324" lon="6.02485">
        <ele>921</ele>
        <time>2021-12-12T12:43:32Z</time>
      </trkpt>
      <trkpt lat="45.32401" lon="6.02487">
        <ele>922</ele>
        <time>2021-12-12T12:43:34Z</time>
      </trkpt>
      <trkpt lat="45.32402" lon="6.02489">
        <ele>922</ele>
        <time>2021-12-12T12:43:37Z</time>
      </trkpt>
      <trkpt lat="45.32404" lon="6.02491">
        <ele>922</ele>
        <time>2021-12-12T12:43:40Z</time>
      </trkpt>
      <trkpt lat="45.32405" lon="6.02492">
        <ele>923</ele>
        <time>2021-12-12T12:43:44Z</time>
      </trkpt>
      <trkpt lat="45.32407" lon="6.02494">
        <ele>923</ele>
        <time>2021-12-12T12:43:47Z</time>
      </trkpt>
      <trkpt lat="45.32408" lon="6.02496">
        <ele>923</ele>
        <time>2021-12-12T12:43:50Z</time>
      </trkpt>
      <trkpt lat="45.3241" lon="6.02498">
        <ele>924</ele>
        <time>2021-12-12T12:43:53Z</time>
      </trkpt>
      <trkpt lat="45.32411" lon="6.02499">
        <ele>924</ele>
        <time>2021-12-12T12:43:56Z</time>
      </trkpt>
      <trkpt lat="45.32412" lon="6.02501">
        <ele>924</ele>
        <time>2021-12-12T12:43:59Z</time>
      </trkpt>
      <trkpt lat="45.32414" lon="6.02503">
        <ele>926</ele>
        <time>2021-12-12T12:44:02Z</time>
      </trkpt>
      <trkpt lat="45.32415" lon="6.02505">
        <ele>926</ele>
        <time>2021-12-12T12:44:05Z</time>
      </trkpt>
      <trkpt lat="45.32417" lon="6.02507">
        <ele>926</ele>
        <time>2021-12-12T12:44:08Z</time>
      </trkpt>
      <trkpt lat="45.32418" lon="6.02508">
        <ele>926</ele>
        <time>2021-12-12T12:44:11Z</time>
      </trkpt>
      <trkpt lat="45.3242" lon="6.0251">
        <ele>926</ele>
        <time>2021-12-12T12:44:14Z</time>
      </trkpt>
      <trkpt lat="45.32422" lon="6.02512">
        <ele>926</ele>
        <time>2021-12-12T12:44:17Z</time>
      </trkpt>
      <trkpt lat="45.32423" lon="6.02514">
        <ele>926</ele>
        <time>2021-12-12T12:44:20Z</time>
      </trkpt>
      <trkpt lat="45.32425" lon="6.02516">
        <ele>927</ele>
        <time>2021-12-12T12:44:24Z</time>
      </trkpt>
      <trkpt lat="45.32427" lon="6.02518">
        <ele>927</ele>
        <time>2021-12-12T12:44:28Z</time>
      </trkpt>
      <trkpt lat="45.32429" lon="6.0252">
        <ele>929</ele>
        <time>2021-12-12T12:44:32Z</time>
      </trkpt>
      <trkpt lat="45.3243" lon="6.02522">
        <ele>929</ele>
        <time>2021-12-12T12:44:35Z</time>
      </trkpt>
      <trkpt lat="45.32432" lon="6.02523">
        <ele>929</ele>
        <time>2021-12-12T12:44:38Z</time>
      </trkpt>
      <trkpt lat="45.32434" lon="6.02525">
        <ele>929</ele>
        <time>2021-12-12T12:44:41Z</time>
      </trkpt>
      <trkpt lat="45.32436" lon="6.02526">
        <ele>929</ele>
        <time>2021-12-12T12:44:45Z</time>
      </trkpt>
      <trkpt lat="45.32438" lon="6.02527">
        <ele>929</ele>
        <time>2021-12-12T12:44:48Z</time>
      </trkpt>
      <trkpt lat="45.3244" lon="6.02528">
        <ele>931</ele>
        <time>2021-12-12T12:44:52Z</time>
      </trkpt>
      <trkpt lat="45.32442" lon="6.02529">
        <ele>931</ele>
        <time>2021-12-12T12:44:55Z</time>
      </trkpt>
      <trkpt lat="45.32444" lon="6.0253">
        <ele>931</ele>
        <time>2021-12-12T12:44:58Z</time>
      </trkpt>
      <trkpt lat="45.32446" lon="6.0253">
        <ele>931</ele>
        <time>2021-12-12T12:45:01Z</time>
      </trkpt>
      <trkpt lat="45.32449" lon="6.02531">
        <ele>932</ele>
        <time>2021-12-12T12:45:04Z</time>
      </trkpt>
      <trkpt lat="45.32451" lon="6.02531">
        <ele>932</ele>
        <time>2021-12-12T12:45:07Z</time>
      </trkpt>
      <trkpt lat="45.32454" lon="6.02532">
        <ele>932</ele>
        <time>2021-12-12T12:45:10Z</time>
      </trkpt>
      <trkpt lat="45.32456" lon="6.02533">
        <ele>932</ele>
        <time>2021-12-12T12:45:13Z</time>
      </trkpt>
      <trkpt lat="45.32458" lon="6.02533">
        <ele>932</ele>
        <time>2021-12-12T12:45:16Z</time>
      </trkpt>
      <trkpt lat="45.3246" lon="6.02534">
        <ele>932</ele>
        <time>2021-12-12T12:45:19Z</time>
      </trkpt>
      <trkpt lat="45.32463" lon="6.02533">
        <ele>932</ele>
        <time>2021-12-12T12:45:22Z</time>
      </trkpt>
      <trkpt lat="45.32465" lon="6.02533">
        <ele>931</ele>
        <time>2021-12-12T12:45:24Z</time>
      </trkpt>
      <trkpt lat="45.32467" lon="6.02533">
        <ele>931</ele>
        <time>2021-12-12T12:45:26Z</time>
      </trkpt>
      <trkpt lat="45.32468" lon="6.02533">
        <ele>931</ele>
        <time>2021-12-12T12:45:28Z</time>
      </trkpt>
      <trkpt lat="45.32471" lon="6.02533">
        <ele>931</ele>
        <time>2021-12-12T12:45:31Z</time>
      </trkpt>
      <trkpt lat="45.32473" lon="6.02534">
        <ele>931</ele>
        <time>2021-12-12T12:45:38Z</time>
      </trkpt>
      <trkpt lat="45.32475" lon="6.02535">
        <ele>931</ele>
        <time>2021-12-12T12:45:41Z</time>
      </trkpt>
      <trkpt lat="45.32477" lon="6.02536">
        <ele>930</ele>
        <time>2021-12-12T12:45:44Z</time>
      </trkpt>
      <trkpt lat="45.3248" lon="6.02536">
        <ele>930</ele>
        <time>2021-12-12T12:45:51Z</time>
      </trkpt>
      <trkpt lat="45.32482" lon="6.02536">
        <ele>930</ele>
        <time>2021-12-12T12:45:54Z</time>
      </trkpt>
      <trkpt lat="45.32485" lon="6.02537">
        <ele>930</ele>
        <time>2021-12-12T12:45:57Z</time>
      </trkpt>
      <trkpt lat="45.32487" lon="6.02537">
        <ele>930</ele>
        <time>2021-12-12T12:45:59Z</time>
      </trkpt>
      <trkpt lat="45.32489" lon="6.02537">
        <ele>929</ele>
        <time>2021-12-12T12:46:02Z</time>
      </trkpt>
      <trkpt lat="45.32492" lon="6.02538">
        <ele>929</ele>
        <time>2021-12-12T12:46:05Z</time>
      </trkpt>
      <trkpt lat="45.32494" lon="6.02538">
        <ele>929</ele>
        <time>2021-12-12T12:46:08Z</time>
      </trkpt>
      <trkpt lat="45.32497" lon="6.02538">
        <ele>929</ele>
        <time>2021-12-12T12:46:11Z</time>
      </trkpt>
      <trkpt lat="45.32499" lon="6.02538">
        <ele>930</ele>
        <time>2021-12-12T12:46:13Z</time>
      </trkpt>
      <trkpt lat="45.32501" lon="6.02538">
        <ele>930</ele>
        <time>2021-12-12T12:46:16Z</time>
      </trkpt>
      <trkpt lat="45.32503" lon="6.02538">
        <ele>930</ele>
        <time>2021-12-12T12:46:18Z</time>
      </trkpt>
      <trkpt lat="45.32505" lon="6.02539">
        <ele>930</ele>
        <time>2021-12-12T12:46:20Z</time>
      </trkpt>
      <trkpt lat="45.32507" lon="6.02539">
        <ele>930</ele>
        <time>2021-12-12T12:46:23Z</time>
      </trkpt>
      <trkpt lat="45.32509" lon="6.02539">
        <ele>930</ele>
        <time>2021-12-12T12:46:25Z</time>
      </trkpt>
      <trkpt lat="45.32512" lon="6.02539">
        <ele>930</ele>
        <time>2021-12-12T12:46:28Z</time>
      </trkpt>
      <trkpt lat="45.32514" lon="6.02539">
        <ele>930</ele>
        <time>2021-12-12T12:46:30Z</time>
      </trkpt>
      <trkpt lat="45.32516" lon="6.02539">
        <ele>930</ele>
        <time>2021-12-12T12:46:33Z</time>
      </trkpt>
      <trkpt lat="45.32518" lon="6.02539">
        <ele>930</ele>
        <time>2021-12-12T12:46:35Z</time>
      </trkpt>
      <trkpt lat="45.32521" lon="6.02539">
        <ele>930</ele>
        <time>2021-12-12T12:46:38Z</time>
      </trkpt>
      <trkpt lat="45.32524" lon="6.02539">
        <ele>930</ele>
        <time>2021-12-12T12:46:41Z</time>
      </trkpt>
      <trkpt lat="45.32525" lon="6.0254">
        <ele>930</ele>
        <time>2021-12-12T12:46:43Z</time>
      </trkpt>
      <trkpt lat="45.32527" lon="6.0254">
        <ele>930</ele>
        <time>2021-12-12T12:46:45Z</time>
      </trkpt>
      <trkpt lat="45.3253" lon="6.0254">
        <ele>930</ele>
        <time>2021-12-12T12:46:48Z</time>
      </trkpt>
      <trkpt lat="45.32532" lon="6.0254">
        <ele>930</ele>
        <time>2021-12-12T12:46:51Z</time>
      </trkpt>
      <trkpt lat="45.32535" lon="6.02541">
        <ele>931</ele>
        <time>2021-12-12T12:46:53Z</time>
      </trkpt>
      <trkpt lat="45.32537" lon="6.02541">
        <ele>931</ele>
        <time>2021-12-12T12:46:55Z</time>
      </trkpt>
      <trkpt lat="45.32539" lon="6.02541">
        <ele>931</ele>
        <time>2021-12-12T12:46:57Z</time>
      </trkpt>
      <trkpt lat="45.32541" lon="6.02542">
        <ele>931</ele>
        <time>2021-12-12T12:46:59Z</time>
      </trkpt>
      <trkpt lat="45.32543" lon="6.02542">
        <ele>931</ele>
        <time>2021-12-12T12:47:01Z</time>
      </trkpt>
      <trkpt lat="45.32545" lon="6.02542">
        <ele>931</ele>
        <time>2021-12-12T12:47:03Z</time>
      </trkpt>
      <trkpt lat="45.32547" lon="6.02541">
        <ele>931</ele>
        <time>2021-12-12T12:47:06Z</time>
      </trkpt>
      <trkpt lat="45.32548" lon="6.02538">
        <ele>931</ele>
        <time>2021-12-12T12:47:09Z</time>
      </trkpt>
      <trkpt lat="45.32549" lon="6.02535">
        <ele>930</ele>
        <time>2021-12-12T12:47:12Z</time>
      </trkpt>
      <trkpt lat="45.32551" lon="6.02532">
        <ele>930</ele>
        <time>2021-12-12T12:47:15Z</time>
      </trkpt>
      <trkpt lat="45.32551" lon="6.0253">
        <ele>930</ele>
        <time>2021-12-12T12:47:18Z</time>
      </trkpt>
      <trkpt lat="45.32552" lon="6.02527">
        <ele>930</ele>
        <time>2021-12-12T12:47:21Z</time>
      </trkpt>
      <trkpt lat="45.32553" lon="6.02525">
        <ele>928</ele>
        <time>2021-12-12T12:47:25Z</time>
      </trkpt>
      <trkpt lat="45.32555" lon="6.02523">
        <ele>928</ele>
        <time>2021-12-12T12:47:28Z</time>
      </trkpt>
      <trkpt lat="45.32555" lon="6.0252">
        <ele>928</ele>
        <time>2021-12-12T12:47:56Z</time>
      </trkpt>
      <trkpt lat="45.32557" lon="6.02519">
        <ele>927</ele>
        <time>2021-12-12T12:48:02Z</time>
      </trkpt>
      <trkpt lat="45.3256" lon="6.02518">
        <ele>927</ele>
        <time>2021-12-12T12:48:09Z</time>
      </trkpt>
      <trkpt lat="45.32561" lon="6.02517">
        <ele>929</ele>
        <time>2021-12-12T12:48:12Z</time>
      </trkpt>
      <trkpt lat="45.32563" lon="6.02517">
        <ele>929</ele>
        <time>2021-12-12T12:48:15Z</time>
      </trkpt>
      <trkpt lat="45.32565" lon="6.02517">
        <ele>929</ele>
        <time>2021-12-12T12:48:18Z</time>
      </trkpt>
      <trkpt lat="45.32568" lon="6.02518">
        <ele>929</ele>
        <time>2021-12-12T12:48:22Z</time>
      </trkpt>
      <trkpt lat="45.3257" lon="6.02517">
        <ele>929</ele>
        <time>2021-12-12T12:48:26Z</time>
      </trkpt>
      <trkpt lat="45.32572" lon="6.02516">
        <ele>929</ele>
        <time>2021-12-12T12:48:29Z</time>
      </trkpt>
      <trkpt lat="45.32573" lon="6.02515">
        <ele>931</ele>
        <time>2021-12-12T12:48:33Z</time>
      </trkpt>
      <trkpt lat="45.32576" lon="6.02515">
        <ele>931</ele>
        <time>2021-12-12T12:48:37Z</time>
      </trkpt>
      <trkpt lat="45.32578" lon="6.02514">
        <ele>931</ele>
        <time>2021-12-12T12:48:41Z</time>
      </trkpt>
      <trkpt lat="45.3258" lon="6.02514">
        <ele>933</ele>
        <time>2021-12-12T12:48:45Z</time>
      </trkpt>
      <trkpt lat="45.32582" lon="6.02512">
        <ele>933</ele>
        <time>2021-12-12T12:48:48Z</time>
      </trkpt>
      <trkpt lat="45.32584" lon="6.02512">
        <ele>935</ele>
        <time>2021-12-12T12:48:52Z</time>
      </trkpt>
      <trkpt lat="45.32586" lon="6.02512">
        <ele>935</ele>
        <time>2021-12-12T12:48:56Z</time>
      </trkpt>
      <trkpt lat="45.32588" lon="6.02511">
        <ele>935</ele>
        <time>2021-12-12T12:49:00Z</time>
      </trkpt>
      <trkpt lat="45.3259" lon="6.02509">
        <ele>935</ele>
        <time>2021-12-12T12:49:04Z</time>
      </trkpt>
      <trkpt lat="45.32591" lon="6.02508">
        <ele>935</ele>
        <time>2021-12-12T12:49:08Z</time>
      </trkpt>
      <trkpt lat="45.32593" lon="6.02507">
        <ele>935</ele>
        <time>2021-12-12T12:49:11Z</time>
      </trkpt>
      <trkpt lat="45.32595" lon="6.02506">
        <ele>937</ele>
        <time>2021-12-12T12:49:14Z</time>
      </trkpt>
      <trkpt lat="45.32597" lon="6.02506">
        <ele>937</ele>
        <time>2021-12-12T12:49:18Z</time>
      </trkpt>
      <trkpt lat="45.32599" lon="6.02505">
        <ele>937</ele>
        <time>2021-12-12T12:49:21Z</time>
      </trkpt>
      <trkpt lat="45.32601" lon="6.02503">
        <ele>938</ele>
        <time>2021-12-12T12:49:25Z</time>
      </trkpt>
      <trkpt lat="45.32603" lon="6.02503">
        <ele>938</ele>
        <time>2021-12-12T12:49:28Z</time>
      </trkpt>
      <trkpt lat="45.32605" lon="6.02502">
        <ele>938</ele>
        <time>2021-12-12T12:49:31Z</time>
      </trkpt>
      <trkpt lat="45.32606" lon="6.02502">
        <ele>939</ele>
        <time>2021-12-12T12:49:34Z</time>
      </trkpt>
      <trkpt lat="45.32608" lon="6.02501">
        <ele>939</ele>
        <time>2021-12-12T12:49:38Z</time>
      </trkpt>
      <trkpt lat="45.32611" lon="6.025">
        <ele>940</ele>
        <time>2021-12-12T12:49:42Z</time>
      </trkpt>
      <trkpt lat="45.32613" lon="6.02499">
        <ele>940</ele>
        <time>2021-12-12T12:49:46Z</time>
      </trkpt>
      <trkpt lat="45.32615" lon="6.02499">
        <ele>940</ele>
        <time>2021-12-12T12:49:49Z</time>
      </trkpt>
      <trkpt lat="45.32617" lon="6.02498">
        <ele>941</ele>
        <time>2021-12-12T12:49:52Z</time>
      </trkpt>
      <trkpt lat="45.32619" lon="6.02496">
        <ele>941</ele>
        <time>2021-12-12T12:49:55Z</time>
      </trkpt>
      <trkpt lat="45.32621" lon="6.02495">
        <ele>941</ele>
        <time>2021-12-12T12:49:58Z</time>
      </trkpt>
      <trkpt lat="45.32622" lon="6.02494">
        <ele>941</ele>
        <time>2021-12-12T12:50:01Z</time>
      </trkpt>
      <trkpt lat="45.32624" lon="6.02494">
        <ele>943</ele>
        <time>2021-12-12T12:50:05Z</time>
      </trkpt>
      <trkpt lat="45.32626" lon="6.02493">
        <ele>943</ele>
        <time>2021-12-12T12:50:08Z</time>
      </trkpt>
      <trkpt lat="45.32628" lon="6.02492">
        <ele>943</ele>
        <time>2021-12-12T12:50:11Z</time>
      </trkpt>
      <trkpt lat="45.3263" lon="6.02492">
        <ele>944</ele>
        <time>2021-12-12T12:50:13Z</time>
      </trkpt>
      <trkpt lat="45.32632" lon="6.02491">
        <ele>944</ele>
        <time>2021-12-12T12:50:17Z</time>
      </trkpt>
      <trkpt lat="45.32634" lon="6.0249">
        <ele>944</ele>
        <time>2021-12-12T12:50:20Z</time>
      </trkpt>
      <trkpt lat="45.32636" lon="6.02488">
        <ele>944</ele>
        <time>2021-12-12T12:50:24Z</time>
      </trkpt>
      <trkpt lat="45.32638" lon="6.02487">
        <ele>944</ele>
        <time>2021-12-12T12:50:27Z</time>
      </trkpt>
      <trkpt lat="45.3264" lon="6.02486">
        <ele>944</ele>
        <time>2021-12-12T12:50:30Z</time>
      </trkpt>
      <trkpt lat="45.32643" lon="6.02485">
        <ele>945</ele>
        <time>2021-12-12T12:50:33Z</time>
      </trkpt>
      <trkpt lat="45.32645" lon="6.02484">
        <ele>945</ele>
        <time>2021-12-12T12:50:35Z</time>
      </trkpt>
      <trkpt lat="45.32647" lon="6.02483">
        <ele>945</ele>
        <time>2021-12-12T12:50:38Z</time>
      </trkpt>
      <trkpt lat="45.32649" lon="6.02482">
        <ele>945</ele>
        <time>2021-12-12T12:50:41Z</time>
      </trkpt>
      <trkpt lat="45.32651" lon="6.0248">
        <ele>945</ele>
        <time>2021-12-12T12:50:45Z</time>
      </trkpt>
      <trkpt lat="45.32654" lon="6.02478">
        <ele>945</ele>
        <time>2021-12-12T12:50:48Z</time>
      </trkpt>
      <trkpt lat="45.32656" lon="6.02477">
        <ele>945</ele>
        <time>2021-12-12T12:50:51Z</time>
      </trkpt>
      <trkpt lat="45.32658" lon="6.02476">
        <ele>944</ele>
        <time>2021-12-12T12:50:54Z</time>
      </trkpt>
      <trkpt lat="45.32659" lon="6.02474">
        <ele>944</ele>
        <time>2021-12-12T12:50:57Z</time>
      </trkpt>
      <trkpt lat="45.32661" lon="6.02473">
        <ele>944</ele>
        <time>2021-12-12T12:51:00Z</time>
      </trkpt>
      <trkpt lat="45.32663" lon="6.02471">
        <ele>945</ele>
        <time>2021-12-12T12:51:04Z</time>
      </trkpt>
      <trkpt lat="45.32665" lon="6.0247">
        <ele>945</ele>
        <time>2021-12-12T12:51:07Z</time>
      </trkpt>
      <trkpt lat="45.32667" lon="6.02469">
        <ele>945</ele>
        <time>2021-12-12T12:51:10Z</time>
      </trkpt>
      <trkpt lat="45.32669" lon="6.02468">
        <ele>945</ele>
        <time>2021-12-12T12:51:13Z</time>
      </trkpt>
      <trkpt lat="45.32671" lon="6.02468">
        <ele>945</ele>
        <time>2021-12-12T12:51:16Z</time>
      </trkpt>
      <trkpt lat="45.32674" lon="6.02468">
        <ele>945</ele>
        <time>2021-12-12T12:51:19Z</time>
      </trkpt>
      <trkpt lat="45.32676" lon="6.02468">
        <ele>945</ele>
        <time>2021-12-12T12:51:22Z</time>
      </trkpt>
      <trkpt lat="45.32678" lon="6.02468">
        <ele>945</ele>
        <time>2021-12-12T12:51:25Z</time>
      </trkpt>
      <trkpt lat="45.32681" lon="6.02468">
        <ele>945</ele>
        <time>2021-12-12T12:51:28Z</time>
      </trkpt>
      <trkpt lat="45.32683" lon="6.02468">
        <ele>945</ele>
        <time>2021-12-12T12:51:31Z</time>
      </trkpt>
      <trkpt lat="45.32685" lon="6.02468">
        <ele>946</ele>
        <time>2021-12-12T12:51:34Z</time>
      </trkpt>
      <trkpt lat="45.32688" lon="6.02467">
        <ele>946</ele>
        <time>2021-12-12T12:51:37Z</time>
      </trkpt>
      <trkpt lat="45.3269" lon="6.02467">
        <ele>946</ele>
        <time>2021-12-12T12:51:41Z</time>
      </trkpt>
      <trkpt lat="45.32692" lon="6.02467">
        <ele>947</ele>
        <time>2021-12-12T12:51:44Z</time>
      </trkpt>
      <trkpt lat="45.32695" lon="6.02467">
        <ele>947</ele>
        <time>2021-12-12T12:51:46Z</time>
      </trkpt>
      <trkpt lat="45.32697" lon="6.02468">
        <ele>947</ele>
        <time>2021-12-12T12:51:49Z</time>
      </trkpt>
      <trkpt lat="45.32699" lon="6.02468">
        <ele>947</ele>
        <time>2021-12-12T12:51:52Z</time>
      </trkpt>
      <trkpt lat="45.32701" lon="6.02468">
        <ele>947</ele>
        <time>2021-12-12T12:51:55Z</time>
      </trkpt>
      <trkpt lat="45.32703" lon="6.0247">
        <ele>947</ele>
        <time>2021-12-12T12:51:59Z</time>
      </trkpt>
      <trkpt lat="45.32704" lon="6.02471">
        <ele>948</ele>
        <time>2021-12-12T12:52:04Z</time>
      </trkpt>
      <trkpt lat="45.32706" lon="6.02473">
        <ele>948</ele>
        <time>2021-12-12T12:52:12Z</time>
      </trkpt>
      <trkpt lat="45.32706" lon="6.02476">
        <ele>948</ele>
        <time>2021-12-12T12:52:15Z</time>
      </trkpt>
      <trkpt lat="45.32707" lon="6.02479">
        <ele>948</ele>
        <time>2021-12-12T12:52:19Z</time>
      </trkpt>
      <trkpt lat="45.32708" lon="6.02481">
        <ele>949</ele>
        <time>2021-12-12T12:52:24Z</time>
      </trkpt>
      <trkpt lat="45.32708" lon="6.02484">
        <ele>949</ele>
        <time>2021-12-12T12:52:28Z</time>
      </trkpt>
      <trkpt lat="45.3271" lon="6.02484">
        <ele>951</ele>
        <time>2021-12-12T12:52:32Z</time>
      </trkpt>
      <trkpt lat="45.32712" lon="6.02484">
        <ele>951</ele>
        <time>2021-12-12T12:52:36Z</time>
      </trkpt>
      <trkpt lat="45.32714" lon="6.02486">
        <ele>951</ele>
        <time>2021-12-12T12:52:40Z</time>
      </trkpt>
      <trkpt lat="45.32715" lon="6.02489">
        <ele>953</ele>
        <time>2021-12-12T12:52:42Z</time>
      </trkpt>
      <trkpt lat="45.32716" lon="6.0249">
        <ele>953</ele>
        <time>2021-12-12T12:52:44Z</time>
      </trkpt>
      <trkpt lat="45.32718" lon="6.02491">
        <ele>953</ele>
        <time>2021-12-12T12:52:47Z</time>
      </trkpt>
      <trkpt lat="45.3272" lon="6.02493">
        <ele>953</ele>
        <time>2021-12-12T12:52:51Z</time>
      </trkpt>
      <trkpt lat="45.32722" lon="6.02494">
        <ele>953</ele>
        <time>2021-12-12T12:53:11Z</time>
      </trkpt>
      <trkpt lat="45.32723" lon="6.02497">
        <ele>953</ele>
        <time>2021-12-12T12:53:16Z</time>
      </trkpt>
      <trkpt lat="45.32725" lon="6.02498">
        <ele>953</ele>
        <time>2021-12-12T12:53:19Z</time>
      </trkpt>
      <trkpt lat="45.32726" lon="6.02496">
        <ele>954</ele>
        <time>2021-12-12T12:53:35Z</time>
      </trkpt>
      <trkpt lat="45.32727" lon="6.02494">
        <ele>954</ele>
        <time>2021-12-12T12:53:39Z</time>
      </trkpt>
      <trkpt lat="45.32727" lon="6.02491">
        <ele>954</ele>
        <time>2021-12-12T12:53:41Z</time>
      </trkpt>
      <trkpt lat="45.32729" lon="6.02488">
        <ele>955</ele>
        <time>2021-12-12T12:53:43Z</time>
      </trkpt>
      <trkpt lat="45.3273" lon="6.02485">
        <ele>955</ele>
        <time>2021-12-12T12:53:45Z</time>
      </trkpt>
      <trkpt lat="45.32732" lon="6.02483">
        <ele>955</ele>
        <time>2021-12-12T12:53:47Z</time>
      </trkpt>
      <trkpt lat="45.32733" lon="6.02481">
        <ele>955</ele>
        <time>2021-12-12T12:53:49Z</time>
      </trkpt>
      <trkpt lat="45.32733" lon="6.02478">
        <ele>954</ele>
        <time>2021-12-12T12:53:53Z</time>
      </trkpt>
      <trkpt lat="45.32732" lon="6.02475">
        <ele>954</ele>
        <time>2021-12-12T12:53:57Z</time>
      </trkpt>
      <trkpt lat="45.32733" lon="6.02472">
        <ele>954</ele>
        <time>2021-12-12T12:54:02Z</time>
      </trkpt>
      <trkpt lat="45.32734" lon="6.0247">
        <ele>954</ele>
        <time>2021-12-12T12:54:05Z</time>
      </trkpt>
      <trkpt lat="45.32736" lon="6.02468">
        <ele>954</ele>
        <time>2021-12-12T12:54:09Z</time>
      </trkpt>
      <trkpt lat="45.32738" lon="6.02466">
        <ele>955</ele>
        <time>2021-12-12T12:54:13Z</time>
      </trkpt>
      <trkpt lat="45.32739" lon="6.02464">
        <ele>955</ele>
        <time>2021-12-12T12:54:18Z</time>
      </trkpt>
      <trkpt lat="45.32741" lon="6.02463">
        <ele>955</ele>
        <time>2021-12-12T12:54:21Z</time>
      </trkpt>
      <trkpt lat="45.32742" lon="6.02462">
        <ele>956</ele>
        <time>2021-12-12T12:54:24Z</time>
      </trkpt>
      <trkpt lat="45.32745" lon="6.02462">
        <ele>956</ele>
        <time>2021-12-12T12:54:28Z</time>
      </trkpt>
      <trkpt lat="45.32747" lon="6.02461">
        <ele>958</ele>
        <time>2021-12-12T12:54:32Z</time>
      </trkpt>
      <trkpt lat="45.32748" lon="6.0246">
        <ele>958</ele>
        <time>2021-12-12T12:54:35Z</time>
      </trkpt>
      <trkpt lat="45.3275" lon="6.02458">
        <ele>958</ele>
        <time>2021-12-12T12:54:39Z</time>
      </trkpt>
      <trkpt lat="45.32752" lon="6.02456">
        <ele>960</ele>
        <time>2021-12-12T12:54:42Z</time>
      </trkpt>
      <trkpt lat="45.32754" lon="6.02455">
        <ele>960</ele>
        <time>2021-12-12T12:54:46Z</time>
      </trkpt>
      <trkpt lat="45.32756" lon="6.02454">
        <ele>960</ele>
        <time>2021-12-12T12:54:50Z</time>
      </trkpt>
      <trkpt lat="45.32758" lon="6.02453">
        <ele>961</ele>
        <time>2021-12-12T12:54:53Z</time>
      </trkpt>
      <trkpt lat="45.32759" lon="6.02452">
        <ele>961</ele>
        <time>2021-12-12T12:54:56Z</time>
      </trkpt>
      <trkpt lat="45.32761" lon="6.02451">
        <ele>961</ele>
        <time>2021-12-12T12:54:59Z</time>
      </trkpt>
      <trkpt lat="45.32763" lon="6.0245">
        <ele>961</ele>
        <time>2021-12-12T12:55:02Z</time>
      </trkpt>
      <trkpt lat="45.32765" lon="6.02449">
        <ele>961</ele>
        <time>2021-12-12T12:55:06Z</time>
      </trkpt>
      <trkpt lat="45.32768" lon="6.0245">
        <ele>961</ele>
        <time>2021-12-12T12:55:10Z</time>
      </trkpt>
      <trkpt lat="45.32769" lon="6.02452">
        <ele>962</ele>
        <time>2021-12-12T12:55:14Z</time>
      </trkpt>
      <trkpt lat="45.32771" lon="6.02454">
        <ele>962</ele>
        <time>2021-12-12T12:55:17Z</time>
      </trkpt>
      <trkpt lat="45.32773" lon="6.02455">
        <ele>962</ele>
        <time>2021-12-12T12:55:21Z</time>
      </trkpt>
      <trkpt lat="45.32774" lon="6.02457">
        <ele>963</ele>
        <time>2021-12-12T12:55:24Z</time>
      </trkpt>
      <trkpt lat="45.32776" lon="6.02459">
        <ele>963</ele>
        <time>2021-12-12T12:55:28Z</time>
      </trkpt>
      <trkpt lat="45.32778" lon="6.0246">
        <ele>963</ele>
        <time>2021-12-12T12:55:31Z</time>
      </trkpt>
      <trkpt lat="45.32779" lon="6.02462">
        <ele>965</ele>
        <time>2021-12-12T12:55:34Z</time>
      </trkpt>
      <trkpt lat="45.32781" lon="6.02465">
        <ele>965</ele>
        <time>2021-12-12T12:55:38Z</time>
      </trkpt>
      <trkpt lat="45.32783" lon="6.02466">
        <ele>965</ele>
        <time>2021-12-12T12:55:41Z</time>
      </trkpt>
      <trkpt lat="45.32784" lon="6.02468">
        <ele>966</ele>
        <time>2021-12-12T12:55:45Z</time>
      </trkpt>
      <trkpt lat="45.32786" lon="6.02469">
        <ele>966</ele>
        <time>2021-12-12T12:55:51Z</time>
      </trkpt>
      <trkpt lat="45.32788" lon="6.0247">
        <ele>968</ele>
        <time>2021-12-12T12:55:54Z</time>
      </trkpt>
      <trkpt lat="45.3279" lon="6.02471">
        <ele>968</ele>
        <time>2021-12-12T12:55:58Z</time>
      </trkpt>
      <trkpt lat="45.32792" lon="6.02473">
        <ele>970</ele>
        <time>2021-12-12T12:56:02Z</time>
      </trkpt>
      <trkpt lat="45.32794" lon="6.02474">
        <ele>970</ele>
        <time>2021-12-12T12:56:06Z</time>
      </trkpt>
      <trkpt lat="45.32796" lon="6.02476">
        <ele>970</ele>
        <time>2021-12-12T12:56:10Z</time>
      </trkpt>
      <trkpt lat="45.32798" lon="6.02477">
        <ele>971</ele>
        <time>2021-12-12T12:56:13Z</time>
      </trkpt>
      <trkpt lat="45.32799" lon="6.02479">
        <ele>971</ele>
        <time>2021-12-12T12:56:15Z</time>
      </trkpt>
      <trkpt lat="45.32801" lon="6.0248">
        <ele>971</ele>
        <time>2021-12-12T12:56:18Z</time>
      </trkpt>
      <trkpt lat="45.32803" lon="6.02482">
        <ele>973</ele>
        <time>2021-12-12T12:56:23Z</time>
      </trkpt>
      <trkpt lat="45.32805" lon="6.02484">
        <ele>973</ele>
        <time>2021-12-12T12:56:27Z</time>
      </trkpt>
      <trkpt lat="45.32807" lon="6.02485">
        <ele>973</ele>
        <time>2021-12-12T12:56:31Z</time>
      </trkpt>
      <trkpt lat="45.32809" lon="6.02486">
        <ele>974</ele>
        <time>2021-12-12T12:56:35Z</time>
      </trkpt>
      <trkpt lat="45.32811" lon="6.02487">
        <ele>974</ele>
        <time>2021-12-12T12:56:39Z</time>
      </trkpt>
      <trkpt lat="45.32813" lon="6.02487">
        <ele>974</ele>
        <time>2021-12-12T12:56:43Z</time>
      </trkpt>
      <trkpt lat="45.32812" lon="6.02485">
        <ele>975</ele>
        <time>2021-12-12T12:57:05Z</time>
      </trkpt>
      <trkpt lat="45.32811" lon="6.0248">
        <ele>975</ele>
        <time>2021-12-12T12:57:12Z</time>
      </trkpt>
      <trkpt lat="45.32813" lon="6.0248">
        <ele>975</ele>
        <time>2021-12-12T12:57:26Z</time>
      </trkpt>
      <trkpt lat="45.32814" lon="6.02483">
        <ele>975</ele>
        <time>2021-12-12T12:57:28Z</time>
      </trkpt>
      <trkpt lat="45.32815" lon="6.02485">
        <ele>975</ele>
        <time>2021-12-12T12:57:30Z</time>
      </trkpt>
      <trkpt lat="45.32816" lon="6.02488">
        <ele>976</ele>
        <time>2021-12-12T12:57:35Z</time>
      </trkpt>
      <trkpt lat="45.32817" lon="6.0249">
        <ele>976</ele>
        <time>2021-12-12T12:57:39Z</time>
      </trkpt>
      <trkpt lat="45.32818" lon="6.02492">
        <ele>977</ele>
        <time>2021-12-12T12:57:43Z</time>
      </trkpt>
      <trkpt lat="45.3282" lon="6.02493">
        <ele>977</ele>
        <time>2021-12-12T12:57:46Z</time>
      </trkpt>
      <trkpt lat="45.32822" lon="6.02494">
        <ele>977</ele>
        <time>2021-12-12T12:57:51Z</time>
      </trkpt>
      <trkpt lat="45.32823" lon="6.02496">
        <ele>978</ele>
        <time>2021-12-12T12:57:53Z</time>
      </trkpt>
      <trkpt lat="45.32825" lon="6.02498">
        <ele>978</ele>
        <time>2021-12-12T12:57:56Z</time>
      </trkpt>
      <trkpt lat="45.32827" lon="6.02497">
        <ele>978</ele>
        <time>2021-12-12T12:57:59Z</time>
      </trkpt>
      <trkpt lat="45.32829" lon="6.02499">
        <ele>979</ele>
        <time>2021-12-12T12:58:02Z</time>
      </trkpt>
      <trkpt lat="45.32831" lon="6.02501">
        <ele>979</ele>
        <time>2021-12-12T12:58:05Z</time>
      </trkpt>
      <trkpt lat="45.32833" lon="6.02503">
        <ele>979</ele>
        <time>2021-12-12T12:58:08Z</time>
      </trkpt>
      <trkpt lat="45.32834" lon="6.02505">
        <ele>979</ele>
        <time>2021-12-12T12:58:11Z</time>
      </trkpt>
      <trkpt lat="45.32836" lon="6.02506">
        <ele>981</ele>
        <time>2021-12-12T12:58:14Z</time>
      </trkpt>
      <trkpt lat="45.32838" lon="6.02508">
        <ele>981</ele>
        <time>2021-12-12T12:58:19Z</time>
      </trkpt>
      <trkpt lat="45.3284" lon="6.02509">
        <ele>983</ele>
        <time>2021-12-12T12:58:24Z</time>
      </trkpt>
      <trkpt lat="45.32841" lon="6.02511">
        <ele>983</ele>
        <time>2021-12-12T12:58:27Z</time>
      </trkpt>
      <trkpt lat="45.32843" lon="6.02512">
        <ele>983</ele>
        <time>2021-12-12T12:58:31Z</time>
      </trkpt>
      <trkpt lat="45.32845" lon="6.02514">
        <ele>984</ele>
        <time>2021-12-12T12:58:36Z</time>
      </trkpt>
      <trkpt lat="45.32847" lon="6.02514">
        <ele>984</ele>
        <time>2021-12-12T12:58:41Z</time>
      </trkpt>
      <trkpt lat="45.32849" lon="6.02514">
        <ele>985</ele>
        <time>2021-12-12T12:58:45Z</time>
      </trkpt>
      <trkpt lat="45.32851" lon="6.02515">
        <ele>985</ele>
        <time>2021-12-12T12:58:49Z</time>
      </trkpt>
      <trkpt lat="45.32853" lon="6.02517">
        <ele>987</ele>
        <time>2021-12-12T12:58:53Z</time>
      </trkpt>
      <trkpt lat="45.32855" lon="6.02515">
        <ele>987</ele>
        <time>2021-12-12T12:58:56Z</time>
      </trkpt>
      <trkpt lat="45.32857" lon="6.02512">
        <ele>987</ele>
        <time>2021-12-12T12:59:00Z</time>
      </trkpt>
      <trkpt lat="45.32859" lon="6.02512">
        <ele>988</ele>
        <time>2021-12-12T12:59:03Z</time>
      </trkpt>
      <trkpt lat="45.32861" lon="6.02513">
        <ele>988</ele>
        <time>2021-12-12T12:59:07Z</time>
      </trkpt>
      <trkpt lat="45.32863" lon="6.02513">
        <ele>988</ele>
        <time>2021-12-12T12:59:11Z</time>
      </trkpt>
      <trkpt lat="45.32866" lon="6.02514">
        <ele>988</ele>
        <time>2021-12-12T12:59:15Z</time>
      </trkpt>
      <trkpt lat="45.32868" lon="6.02515">
        <ele>988</ele>
        <time>2021-12-12T12:59:19Z</time>
      </trkpt>
      <trkpt lat="45.3287" lon="6.02515">
        <ele>989</ele>
        <time>2021-12-12T12:59:23Z</time>
      </trkpt>
      <trkpt lat="45.32872" lon="6.02514">
        <ele>989</ele>
        <time>2021-12-12T12:59:26Z</time>
      </trkpt>
      <trkpt lat="45.32873" lon="6.02514">
        <ele>989</ele>
        <time>2021-12-12T12:59:29Z</time>
      </trkpt>
      <trkpt lat="45.32876" lon="6.02515">
        <ele>989</ele>
        <time>2021-12-12T12:59:33Z</time>
      </trkpt>
      <trkpt lat="45.32878" lon="6.02515">
        <ele>989</ele>
        <time>2021-12-12T12:59:37Z</time>
      </trkpt>
      <trkpt lat="45.3288" lon="6.02515">
        <ele>989</ele>
        <time>2021-12-12T12:59:40Z</time>
      </trkpt>
      <trkpt lat="45.32882" lon="6.02515">
        <ele>991</ele>
        <time>2021-12-12T12:59:43Z</time>
      </trkpt>
      <trkpt lat="45.32884" lon="6.02516">
        <ele>991</ele>
        <time>2021-12-12T12:59:46Z</time>
      </trkpt>
      <trkpt lat="45.32887" lon="6.02516">
        <ele>991</ele>
        <time>2021-12-12T12:59:50Z</time>
      </trkpt>
      <trkpt lat="45.32889" lon="6.02515">
        <ele>993</ele>
        <time>2021-12-12T12:59:54Z</time>
      </trkpt>
      <trkpt lat="45.32891" lon="6.02516">
        <ele>993</ele>
        <time>2021-12-12T12:59:57Z</time>
      </trkpt>
      <trkpt lat="45.32893" lon="6.02516">
        <ele>993</ele>
        <time>2021-12-12T13:00:00Z</time>
      </trkpt>
      <trkpt lat="45.32895" lon="6.02516">
        <ele>994</ele>
        <time>2021-12-12T13:00:02Z</time>
      </trkpt>
      <trkpt lat="45.32897" lon="6.02517">
        <ele>994</ele>
        <time>2021-12-12T13:00:06Z</time>
      </trkpt>
      <trkpt lat="45.329" lon="6.02517">
        <ele>994</ele>
        <time>2021-12-12T13:00:09Z</time>
      </trkpt>
      <trkpt lat="45.32902" lon="6.02516">
        <ele>994</ele>
        <time>2021-12-12T13:00:13Z</time>
      </trkpt>
      <trkpt lat="45.32904" lon="6.02516">
        <ele>994</ele>
        <time>2021-12-12T13:00:19Z</time>
      </trkpt>
      <trkpt lat="45.32906" lon="6.02517">
        <ele>996</ele>
        <time>2021-12-12T13:00:22Z</time>
      </trkpt>
      <trkpt lat="45.32908" lon="6.02517">
        <ele>996</ele>
        <time>2021-12-12T13:00:25Z</time>
      </trkpt>
      <trkpt lat="45.32912" lon="6.02517">
        <ele>996</ele>
        <time>2021-12-12T13:00:30Z</time>
      </trkpt>
      <trkpt lat="45.32916" lon="6.02515">
        <ele>997</ele>
        <time>2021-12-12T13:00:36Z</time>
      </trkpt>
      <trkpt lat="45.32918" lon="6.02514">
        <ele>997</ele>
        <time>2021-12-12T13:00:38Z</time>
      </trkpt>
      <trkpt lat="45.32919" lon="6.02515">
        <ele>998</ele>
        <time>2021-12-12T13:00:42Z</time>
      </trkpt>
      <trkpt lat="45.3292" lon="6.02518">
        <ele>998</ele>
        <time>2021-12-12T13:00:44Z</time>
      </trkpt>
      <trkpt lat="45.32921" lon="6.02521">
        <ele>998</ele>
        <time>2021-12-12T13:00:46Z</time>
      </trkpt>
      <trkpt lat="45.32923" lon="6.02522">
        <ele>998</ele>
        <time>2021-12-12T13:00:51Z</time>
      </trkpt>
      <trkpt lat="45.32925" lon="6.02523">
        <ele>1000</ele>
        <time>2021-12-12T13:00:55Z</time>
      </trkpt>
      <trkpt lat="45.32926" lon="6.02525">
        <ele>1000</ele>
        <time>2021-12-12T13:01:01Z</time>
      </trkpt>
      <trkpt lat="45.32929" lon="6.02527">
        <ele>1002</ele>
        <time>2021-12-12T13:01:06Z</time>
      </trkpt>
      <trkpt lat="45.3293" lon="6.02529">
        <ele>1002</ele>
        <time>2021-12-12T13:01:10Z</time>
      </trkpt>
      <trkpt lat="45.32932" lon="6.02529">
        <ele>1003</ele>
        <time>2021-12-12T13:01:16Z</time>
      </trkpt>
      <trkpt lat="45.32934" lon="6.0253">
        <ele>1003</ele>
        <time>2021-12-12T13:01:21Z</time>
      </trkpt>
      <trkpt lat="45.32936" lon="6.02528">
        <ele>1005</ele>
        <time>2021-12-12T13:01:33Z</time>
      </trkpt>
      <trkpt lat="45.32939" lon="6.02528">
        <ele>1005</ele>
        <time>2021-12-12T13:01:38Z</time>
      </trkpt>
      <trkpt lat="45.3294" lon="6.0253">
        <ele>1005</ele>
        <time>2021-12-12T13:01:44Z</time>
      </trkpt>
      <trkpt lat="45.32942" lon="6.02531">
        <ele>1005</ele>
        <time>2021-12-12T13:01:51Z</time>
      </trkpt>
      <trkpt lat="45.32943" lon="6.02534">
        <ele>1005</ele>
        <time>2021-12-12T13:01:55Z</time>
      </trkpt>
      <trkpt lat="45.32945" lon="6.02535">
        <ele>1005</ele>
        <time>2021-12-12T13:02:00Z</time>
      </trkpt>
      <trkpt lat="45.32947" lon="6.02536">
        <ele>1006</ele>
        <time>2021-12-12T13:02:07Z</time>
      </trkpt>
      <trkpt lat="45.32949" lon="6.02538">
        <ele>1006</ele>
        <time>2021-12-12T13:02:11Z</time>
      </trkpt>
      <trkpt lat="45.32951" lon="6.02538">
        <ele>1006</ele>
        <time>2021-12-12T13:02:14Z</time>
      </trkpt>
      <trkpt lat="45.32953" lon="6.02538">
        <ele>1006</ele>
        <time>2021-12-12T13:02:17Z</time>
      </trkpt>
      <trkpt lat="45.32954" lon="6.0254">
        <ele>1006</ele>
        <time>2021-12-12T13:02:21Z</time>
      </trkpt>
      <trkpt lat="45.32953" lon="6.02542">
        <ele>1008</ele>
        <time>2021-12-12T13:02:32Z</time>
      </trkpt>
      <trkpt lat="45.32951" lon="6.02543">
        <ele>1009</ele>
        <time>2021-12-12T13:02:39Z</time>
      </trkpt>
      <trkpt lat="45.32949" lon="6.02544">
        <ele>1011</ele>
        <time>2021-12-12T13:02:45Z</time>
      </trkpt>
      <trkpt lat="45.32947" lon="6.02546">
        <ele>1011</ele>
        <time>2021-12-12T13:02:50Z</time>
      </trkpt>
      <trkpt lat="45.32946" lon="6.02549">
        <ele>1011</ele>
        <time>2021-12-12T13:02:57Z</time>
      </trkpt>
      <trkpt lat="45.32949" lon="6.0255">
        <ele>1012</ele>
        <time>2021-12-12T13:03:03Z</time>
      </trkpt>
      <trkpt lat="45.32953" lon="6.02552">
        <ele>1012</ele>
        <time>2021-12-12T13:03:11Z</time>
      </trkpt>
      <trkpt lat="45.32955" lon="6.02554">
        <ele>1013</ele>
        <time>2021-12-12T13:03:17Z</time>
      </trkpt>
      <trkpt lat="45.32953" lon="6.02557">
        <ele>1014</ele>
        <time>2021-12-12T13:03:26Z</time>
      </trkpt>
      <trkpt lat="45.32951" lon="6.02558">
        <ele>1014</ele>
        <time>2021-12-12T13:03:32Z</time>
      </trkpt>
      <trkpt lat="45.32949" lon="6.02559">
        <ele>1014</ele>
        <time>2021-12-12T13:03:34Z</time>
      </trkpt>
      <trkpt lat="45.32947" lon="6.0256">
        <ele>1014</ele>
        <time>2021-12-12T13:03:36Z</time>
      </trkpt>
      <trkpt lat="45.32946" lon="6.02563">
        <ele>1014</ele>
        <time>2021-12-12T13:03:41Z</time>
      </trkpt>
      <trkpt lat="45.32947" lon="6.02565">
        <ele>1016</ele>
        <time>2021-12-12T13:03:46Z</time>
      </trkpt>
      <trkpt lat="45.32948" lon="6.02568">
        <ele>1016</ele>
        <time>2021-12-12T13:03:51Z</time>
      </trkpt>
      <trkpt lat="45.32949" lon="6.02571">
        <ele>1018</ele>
        <time>2021-12-12T13:04:01Z</time>
      </trkpt>
      <trkpt lat="45.3295" lon="6.02574">
        <ele>1020</ele>
        <time>2021-12-12T13:04:05Z</time>
      </trkpt>
      <trkpt lat="45.32949" lon="6.02576">
        <ele>1020</ele>
        <time>2021-12-12T13:04:08Z</time>
      </trkpt>
      <trkpt lat="45.32947" lon="6.02579">
        <ele>1021</ele>
        <time>2021-12-12T13:04:14Z</time>
      </trkpt>
      <trkpt lat="45.32947" lon="6.02581">
        <ele>1021</ele>
        <time>2021-12-12T13:04:19Z</time>
      </trkpt>
      <trkpt lat="45.32945" lon="6.02583">
        <ele>1021</ele>
        <time>2021-12-12T13:04:24Z</time>
      </trkpt>
      <trkpt lat="45.32943" lon="6.02585">
        <ele>1021</ele>
        <time>2021-12-12T13:04:28Z</time>
      </trkpt>
      <trkpt lat="45.32941" lon="6.02587">
        <ele>1021</ele>
        <time>2021-12-12T13:04:31Z</time>
      </trkpt>
      <trkpt lat="45.3294" lon="6.02588">
        <ele>1022</ele>
        <time>2021-12-12T13:04:34Z</time>
      </trkpt>
      <trkpt lat="45.3294" lon="6.02591">
        <ele>1022</ele>
        <time>2021-12-12T13:04:41Z</time>
      </trkpt>
      <trkpt lat="45.32943" lon="6.02592">
        <ele>1023</ele>
        <time>2021-12-12T13:04:45Z</time>
      </trkpt>
      <trkpt lat="45.32944" lon="6.02595">
        <ele>1023</ele>
        <time>2021-12-12T13:04:49Z</time>
      </trkpt>
      <trkpt lat="45.32945" lon="6.02602">
        <ele>1025</ele>
        <time>2021-12-12T13:05:01Z</time>
      </trkpt>
      <trkpt lat="45.32946" lon="6.02603">
        <ele>1027</ele>
        <time>2021-12-12T13:05:08Z</time>
      </trkpt>
      <trkpt lat="45.32952" lon="6.02606">
        <ele>1028</ele>
        <time>2021-12-12T13:05:21Z</time>
      </trkpt>
      <trkpt lat="45.32954" lon="6.02609">
        <ele>1030</ele>
        <time>2021-12-12T13:05:25Z</time>
      </trkpt>
      <trkpt lat="45.32955" lon="6.02611">
        <ele>1030</ele>
        <time>2021-12-12T13:05:29Z</time>
      </trkpt>
      <trkpt lat="45.32957" lon="6.02613">
        <ele>1030</ele>
        <time>2021-12-12T13:05:33Z</time>
      </trkpt>
      <trkpt lat="45.32958" lon="6.02611">
        <ele>1030</ele>
        <time>2021-12-12T13:05:37Z</time>
      </trkpt>
      <trkpt lat="45.32961" lon="6.02609">
        <ele>1030</ele>
        <time>2021-12-12T13:05:40Z</time>
      </trkpt>
      <trkpt lat="45.32964" lon="6.02609">
        <ele>1030</ele>
        <time>2021-12-12T13:05:44Z</time>
      </trkpt>
      <trkpt lat="45.32966" lon="6.0261">
        <ele>1030</ele>
        <time>2021-12-12T13:05:48Z</time>
      </trkpt>
      <trkpt lat="45.32968" lon="6.02612">
        <ele>1032</ele>
        <time>2021-12-12T13:05:56Z</time>
      </trkpt>
      <trkpt lat="45.3297" lon="6.02614">
        <ele>1032</ele>
        <time>2021-12-12T13:05:59Z</time>
      </trkpt>
      <trkpt lat="45.32971" lon="6.02616">
        <ele>1034</ele>
        <time>2021-12-12T13:06:02Z</time>
      </trkpt>
      <trkpt lat="45.32973" lon="6.02618">
        <ele>1034</ele>
        <time>2021-12-12T13:06:04Z</time>
      </trkpt>
      <trkpt lat="45.32975" lon="6.0262">
        <ele>1034</ele>
        <time>2021-12-12T13:06:07Z</time>
      </trkpt>
      <trkpt lat="45.32976" lon="6.02622">
        <ele>1034</ele>
        <time>2021-12-12T13:06:10Z</time>
      </trkpt>
      <trkpt lat="45.32978" lon="6.02623">
        <ele>1034</ele>
        <time>2021-12-12T13:06:13Z</time>
      </trkpt>
      <trkpt lat="45.32981" lon="6.02623">
        <ele>1034</ele>
        <time>2021-12-12T13:06:16Z</time>
      </trkpt>
      <trkpt lat="45.32983" lon="6.02625">
        <ele>1034</ele>
        <time>2021-12-12T13:06:19Z</time>
      </trkpt>
      <trkpt lat="45.32985" lon="6.02626">
        <ele>1035</ele>
        <time>2021-12-12T13:06:22Z</time>
      </trkpt>
      <trkpt lat="45.32987" lon="6.02628">
        <ele>1035</ele>
        <time>2021-12-12T13:06:26Z</time>
      </trkpt>
      <trkpt lat="45.3299" lon="6.02628">
        <ele>1035</ele>
        <time>2021-12-12T13:06:28Z</time>
      </trkpt>
      <trkpt lat="45.32992" lon="6.02629">
        <ele>1035</ele>
        <time>2021-12-12T13:06:31Z</time>
      </trkpt>
      <trkpt lat="45.32994" lon="6.02629">
        <ele>1034</ele>
        <time>2021-12-12T13:06:34Z</time>
      </trkpt>
      <trkpt lat="45.32996" lon="6.0263">
        <ele>1034</ele>
        <time>2021-12-12T13:06:37Z</time>
      </trkpt>
      <trkpt lat="45.32998" lon="6.02632">
        <ele>1034</ele>
        <time>2021-12-12T13:06:40Z</time>
      </trkpt>
      <trkpt lat="45.32999" lon="6.02633">
        <ele>1034</ele>
        <time>2021-12-12T13:06:43Z</time>
      </trkpt>
      <trkpt lat="45.33001" lon="6.02634">
        <ele>1034</ele>
        <time>2021-12-12T13:06:45Z</time>
      </trkpt>
      <trkpt lat="45.33003" lon="6.02636">
        <ele>1034</ele>
        <time>2021-12-12T13:06:48Z</time>
      </trkpt>
      <trkpt lat="45.33005" lon="6.02637">
        <ele>1034</ele>
        <time>2021-12-12T13:06:51Z</time>
      </trkpt>
      <trkpt lat="45.33006" lon="6.0264">
        <ele>1036</ele>
        <time>2021-12-12T13:06:54Z</time>
      </trkpt>
      <trkpt lat="45.33008" lon="6.02641">
        <ele>1036</ele>
        <time>2021-12-12T13:06:57Z</time>
      </trkpt>
      <trkpt lat="45.3301" lon="6.02642">
        <ele>1036</ele>
        <time>2021-12-12T13:07:00Z</time>
      </trkpt>
      <trkpt lat="45.33012" lon="6.02644">
        <ele>1036</ele>
        <time>2021-12-12T13:07:03Z</time>
      </trkpt>
      <trkpt lat="45.33015" lon="6.02644">
        <ele>1036</ele>
        <time>2021-12-12T13:07:05Z</time>
      </trkpt>
      <trkpt lat="45.33016" lon="6.02646">
        <ele>1036</ele>
        <time>2021-12-12T13:07:09Z</time>
      </trkpt>
      <trkpt lat="45.33017" lon="6.02648">
        <ele>1038</ele>
        <time>2021-12-12T13:07:13Z</time>
      </trkpt>
      <trkpt lat="45.33019" lon="6.0265">
        <ele>1038</ele>
        <time>2021-12-12T13:07:17Z</time>
      </trkpt>
      <trkpt lat="45.33021" lon="6.02651">
        <ele>1038</ele>
        <time>2021-12-12T13:07:20Z</time>
      </trkpt>
      <trkpt lat="45.33023" lon="6.02653">
        <ele>1038</ele>
        <time>2021-12-12T13:07:24Z</time>
      </trkpt>
      <trkpt lat="45.33025" lon="6.02654">
        <ele>1038</ele>
        <time>2021-12-12T13:07:27Z</time>
      </trkpt>
      <trkpt lat="45.33027" lon="6.02655">
        <ele>1038</ele>
        <time>2021-12-12T13:07:30Z</time>
      </trkpt>
      <trkpt lat="45.33029" lon="6.02657">
        <ele>1039</ele>
        <time>2021-12-12T13:07:34Z</time>
      </trkpt>
      <trkpt lat="45.3303" lon="6.02658">
        <ele>1039</ele>
        <time>2021-12-12T13:07:38Z</time>
      </trkpt>
      <trkpt lat="45.33032" lon="6.02659">
        <ele>1039</ele>
        <time>2021-12-12T13:07:41Z</time>
      </trkpt>
      <trkpt lat="45.33034" lon="6.02659">
        <ele>1041</ele>
        <time>2021-12-12T13:07:44Z</time>
      </trkpt>
      <trkpt lat="45.33036" lon="6.02661">
        <ele>1041</ele>
        <time>2021-12-12T13:07:47Z</time>
      </trkpt>
      <trkpt lat="45.33038" lon="6.02662">
        <ele>1041</ele>
        <time>2021-12-12T13:07:50Z</time>
      </trkpt>
      <trkpt lat="45.3304" lon="6.02663">
        <ele>1041</ele>
        <time>2021-12-12T13:07:54Z</time>
      </trkpt>
      <trkpt lat="45.33042" lon="6.02665">
        <ele>1041</ele>
        <time>2021-12-12T13:07:59Z</time>
      </trkpt>
      <trkpt lat="45.33044" lon="6.02666">
        <ele>1041</ele>
        <time>2021-12-12T13:08:02Z</time>
      </trkpt>
      <trkpt lat="45.33046" lon="6.02668">
        <ele>1041</ele>
        <time>2021-12-12T13:08:06Z</time>
      </trkpt>
      <trkpt lat="45.33048" lon="6.02669">
        <ele>1041</ele>
        <time>2021-12-12T13:08:08Z</time>
      </trkpt>
      <trkpt lat="45.3305" lon="6.0267">
        <ele>1041</ele>
        <time>2021-12-12T13:08:11Z</time>
      </trkpt>
      <trkpt lat="45.33052" lon="6.02672">
        <ele>1041</ele>
        <time>2021-12-12T13:08:14Z</time>
      </trkpt>
      <trkpt lat="45.33054" lon="6.02673">
        <ele>1041</ele>
        <time>2021-12-12T13:08:17Z</time>
      </trkpt>
      <trkpt lat="45.33056" lon="6.02675">
        <ele>1041</ele>
        <time>2021-12-12T13:08:20Z</time>
      </trkpt>
      <trkpt lat="45.33058" lon="6.02676">
        <ele>1042</ele>
        <time>2021-12-12T13:08:23Z</time>
      </trkpt>
      <trkpt lat="45.33059" lon="6.02678">
        <ele>1042</ele>
        <time>2021-12-12T13:08:26Z</time>
      </trkpt>
      <trkpt lat="45.33061" lon="6.02679">
        <ele>1042</ele>
        <time>2021-12-12T13:08:29Z</time>
      </trkpt>
      <trkpt lat="45.33063" lon="6.02681">
        <ele>1042</ele>
        <time>2021-12-12T13:08:32Z</time>
      </trkpt>
      <trkpt lat="45.33065" lon="6.02682">
        <ele>1042</ele>
        <time>2021-12-12T13:08:35Z</time>
      </trkpt>
      <trkpt lat="45.33067" lon="6.02684">
        <ele>1042</ele>
        <time>2021-12-12T13:08:37Z</time>
      </trkpt>
      <trkpt lat="45.33069" lon="6.02685">
        <ele>1042</ele>
        <time>2021-12-12T13:08:40Z</time>
      </trkpt>
      <trkpt lat="45.3307" lon="6.02687">
        <ele>1043</ele>
        <time>2021-12-12T13:08:43Z</time>
      </trkpt>
      <trkpt lat="45.33072" lon="6.02688">
        <ele>1043</ele>
        <time>2021-12-12T13:08:46Z</time>
      </trkpt>
      <trkpt lat="45.33074" lon="6.0269">
        <ele>1043</ele>
        <time>2021-12-12T13:08:49Z</time>
      </trkpt>
      <trkpt lat="45.33075" lon="6.02692">
        <ele>1043</ele>
        <time>2021-12-12T13:08:52Z</time>
      </trkpt>
      <trkpt lat="45.33077" lon="6.02694">
        <ele>1044</ele>
        <time>2021-12-12T13:08:54Z</time>
      </trkpt>
      <trkpt lat="45.33079" lon="6.02695">
        <ele>1044</ele>
        <time>2021-12-12T13:08:57Z</time>
      </trkpt>
      <trkpt lat="45.33081" lon="6.02696">
        <ele>1044</ele>
        <time>2021-12-12T13:09:00Z</time>
      </trkpt>
      <trkpt lat="45.33083" lon="6.02698">
        <ele>1045</ele>
        <time>2021-12-12T13:09:04Z</time>
      </trkpt>
      <trkpt lat="45.33085" lon="6.02699">
        <ele>1045</ele>
        <time>2021-12-12T13:09:07Z</time>
      </trkpt>
      <trkpt lat="45.33087" lon="6.027">
        <ele>1045</ele>
        <time>2021-12-12T13:09:10Z</time>
      </trkpt>
      <trkpt lat="45.33089" lon="6.02702">
        <ele>1046</ele>
        <time>2021-12-12T13:09:13Z</time>
      </trkpt>
      <trkpt lat="45.33091" lon="6.02703">
        <ele>1046</ele>
        <time>2021-12-12T13:09:16Z</time>
      </trkpt>
      <trkpt lat="45.33093" lon="6.02704">
        <ele>1046</ele>
        <time>2021-12-12T13:09:19Z</time>
      </trkpt>
      <trkpt lat="45.33094" lon="6.02706">
        <ele>1047</ele>
        <time>2021-12-12T13:09:23Z</time>
      </trkpt>
      <trkpt lat="45.33096" lon="6.02707">
        <ele>1047</ele>
        <time>2021-12-12T13:09:26Z</time>
      </trkpt>
      <trkpt lat="45.33098" lon="6.02709">
        <ele>1047</ele>
        <time>2021-12-12T13:09:29Z</time>
      </trkpt>
      <trkpt lat="45.331" lon="6.0271">
        <ele>1047</ele>
        <time>2021-12-12T13:09:32Z</time>
      </trkpt>
      <trkpt lat="45.33102" lon="6.02712">
        <ele>1047</ele>
        <time>2021-12-12T13:09:35Z</time>
      </trkpt>
      <trkpt lat="45.33104" lon="6.02713">
        <ele>1047</ele>
        <time>2021-12-12T13:09:38Z</time>
      </trkpt>
      <trkpt lat="45.33106" lon="6.02714">
        <ele>1047</ele>
        <time>2021-12-12T13:09:41Z</time>
      </trkpt>
      <trkpt lat="45.33108" lon="6.02716">
        <ele>1048</ele>
        <time>2021-12-12T13:09:44Z</time>
      </trkpt>
      <trkpt lat="45.33109" lon="6.02717">
        <ele>1048</ele>
        <time>2021-12-12T13:09:47Z</time>
      </trkpt>
      <trkpt lat="45.33112" lon="6.02718">
        <ele>1048</ele>
        <time>2021-12-12T13:09:50Z</time>
      </trkpt>
      <trkpt lat="45.33114" lon="6.02719">
        <ele>1049</ele>
        <time>2021-12-12T13:09:53Z</time>
      </trkpt>
      <trkpt lat="45.33116" lon="6.02718">
        <ele>1049</ele>
        <time>2021-12-12T13:09:57Z</time>
      </trkpt>
      <trkpt lat="45.33118" lon="6.02718">
        <ele>1049</ele>
        <time>2021-12-12T13:10:30Z</time>
      </trkpt>
      <trkpt lat="45.33117" lon="6.0272">
        <ele>1049</ele>
        <time>2021-12-12T13:11:25Z</time>
      </trkpt>
      <trkpt lat="45.33117" lon="6.02718">
        <ele>1049</ele>
        <time>2021-12-12T13:12:03Z</time>
      </trkpt>
      <trkpt lat="45.33119" lon="6.02716">
        <ele>1049</ele>
        <time>2021-12-12T13:12:07Z</time>
      </trkpt>
      <trkpt lat="45.33121" lon="6.02714">
        <ele>1049</ele>
        <time>2021-12-12T13:12:11Z</time>
      </trkpt>
      <trkpt lat="45.33121" lon="6.02711">
        <ele>1049</ele>
        <time>2021-12-12T13:12:16Z</time>
      </trkpt>
      <trkpt lat="45.33119" lon="6.02709">
        <ele>1048</ele>
        <time>2021-12-12T13:12:24Z</time>
      </trkpt>
      <trkpt lat="45.33121" lon="6.02708">
        <ele>1049</ele>
        <time>2021-12-12T13:12:35Z</time>
      </trkpt>
      <trkpt lat="45.33123" lon="6.02709">
        <ele>1049</ele>
        <time>2021-12-12T13:12:41Z</time>
      </trkpt>
      <trkpt lat="45.33125" lon="6.0271">
        <ele>1048</ele>
        <time>2021-12-12T13:13:51Z</time>
      </trkpt>
      <trkpt lat="45.33127" lon="6.02711">
        <ele>1048</ele>
        <time>2021-12-12T13:13:54Z</time>
      </trkpt>
      <trkpt lat="45.33129" lon="6.02713">
        <ele>1048</ele>
        <time>2021-12-12T13:13:57Z</time>
      </trkpt>
      <trkpt lat="45.33127" lon="6.02714">
        <ele>1048</ele>
        <time>2021-12-12T13:14:55Z</time>
      </trkpt>
      <trkpt lat="45.33125" lon="6.02713">
        <ele>1048</ele>
        <time>2021-12-12T13:14:58Z</time>
      </trkpt>
      <trkpt lat="45.33123" lon="6.02712">
        <ele>1048</ele>
        <time>2021-12-12T13:15:00Z</time>
      </trkpt>
      <trkpt lat="45.33122" lon="6.02711">
        <ele>1048</ele>
        <time>2021-12-12T13:15:02Z</time>
      </trkpt>
      <trkpt lat="45.33124" lon="6.0271">
        <ele>1047</ele>
        <time>2021-12-12T13:15:19Z</time>
      </trkpt>
      <trkpt lat="45.33123" lon="6.02713">
        <ele>1046</ele>
        <time>2021-12-12T13:15:23Z</time>
      </trkpt>
      <trkpt lat="45.33121" lon="6.02715">
        <ele>1046</ele>
        <time>2021-12-12T13:15:28Z</time>
      </trkpt>
      <trkpt lat="45.33119" lon="6.02717">
        <ele>1047</ele>
        <time>2021-12-12T13:15:36Z</time>
      </trkpt>
      <trkpt lat="45.33121" lon="6.02716">
        <ele>1047</ele>
        <time>2021-12-12T13:15:50Z</time>
      </trkpt>
      <trkpt lat="45.33123" lon="6.02714">
        <ele>1048</ele>
        <time>2021-12-12T13:16:10Z</time>
      </trkpt>
      <trkpt lat="45.33121" lon="6.02712">
        <ele>1047</ele>
        <time>2021-12-12T13:16:26Z</time>
      </trkpt>
      <trkpt lat="45.33122" lon="6.0271">
        <ele>1048</ele>
        <time>2021-12-12T13:16:52Z</time>
      </trkpt>
      <trkpt lat="45.33121" lon="6.02707">
        <ele>1048</ele>
        <time>2021-12-12T13:17:21Z</time>
      </trkpt>
      <trkpt lat="45.33123" lon="6.02709">
        <ele>1047</ele>
        <time>2021-12-12T13:17:46Z</time>
      </trkpt>
      <trkpt lat="45.33125" lon="6.02711">
        <ele>1048</ele>
        <time>2021-12-12T13:18:25Z</time>
      </trkpt>
      <trkpt lat="45.33125" lon="6.02708">
        <ele>1049</ele>
        <time>2021-12-12T13:19:29Z</time>
      </trkpt>
      <trkpt lat="45.33123" lon="6.02709">
        <ele>1048</ele>
        <time>2021-12-12T13:20:06Z</time>
      </trkpt>
      <trkpt lat="45.33125" lon="6.02708">
        <ele>1048</ele>
        <time>2021-12-12T13:23:40Z</time>
      </trkpt>
      <trkpt lat="45.33123" lon="6.02708">
        <ele>1048</ele>
        <time>2021-12-12T13:23:55Z</time>
      </trkpt>
      <trkpt lat="45.33121" lon="6.02707">
        <ele>1048</ele>
        <time>2021-12-12T13:24:39Z</time>
      </trkpt>
      <trkpt lat="45.3312" lon="6.02706">
        <ele>1048</ele>
        <time>2021-12-12T13:24:54Z</time>
      </trkpt>
      <trkpt lat="45.33122" lon="6.02705">
        <ele>1048</ele>
        <time>2021-12-12T13:25:25Z</time>
      </trkpt>
      <trkpt lat="45.33124" lon="6.02704">
        <ele>1048</ele>
        <time>2021-12-12T13:25:28Z</time>
      </trkpt>
      <trkpt lat="45.33126" lon="6.02703">
        <ele>1048</ele>
        <time>2021-12-12T13:25:31Z</time>
      </trkpt>
      <trkpt lat="45.33126" lon="6.02703">
        <ele>1048</ele>
        <time>2021-12-12T13:25:32Z</time>
      </trkpt>
    </trkseg>
  </trk>
</gpx>